<?xml version='1.0' encoding='UTF-8'?><gpx version="1.1" creator="JPX - https://github.com/jenetics/jpx" xmlns="http://www.topografix.com/GPX/1/1"><trk><trkseg><trkpt lat="37.47653464915799" lon="14.286062246609633"><ele>774.0</ele><time>2026-03-22T07:51:45.001Z</time></trkpt><trkpt lat="37.47652382771429" lon="14.286152116662347"><ele>774.0</ele><time>2026-03-22T07:51:46.001Z</time></trkpt><trkpt lat="37.476503984787215" lon="14.286276509978585"><ele>774.0</ele><time>2026-03-22T07:51:46.998Z</time></trkpt><trkpt lat="37.47648114645014" lon="14.286405757620935"><ele>774.0</ele><time>2026-03-22T07:51:48.001Z</time></trkpt><trkpt lat="37.47645755945696" lon="14.286544473282383"><ele>774.0</ele><time>2026-03-22T07:51:49Z</time></trkpt><trkpt lat="37.4764388148012" lon="14.286699786869702"><ele>775.5</ele><time>2026-03-22T07:51:49.997Z</time></trkpt><trkpt lat="37.47641281194151" lon="14.286862859848517"><ele>777.0</ele><time>2026-03-22T07:51:50.998Z</time></trkpt><trkpt lat="37.47636496695701" lon="14.287032377926328"><ele>778.5</ele><time>2026-03-22T07:51:52.002Z</time></trkpt><trkpt lat="37.47633089857847" lon="14.28723998895269"><ele>780.0</ele><time>2026-03-22T07:51:52.995Z</time></trkpt><trkpt lat="37.47624833487353" lon="14.287406477662584"><ele>781.5</ele><time>2026-03-22T07:51:54Z</time></trkpt><trkpt lat="37.47619226197751" lon="14.287582132403275"><ele>783.0</ele><time>2026-03-22T07:51:55.009Z</time></trkpt><trkpt lat="37.47613227819658" lon="14.287753464361929"><ele>784.5</ele><time>2026-03-22T07:51:55.999Z</time></trkpt><trkpt lat="37.47609609473524" lon="14.287903710815987"><ele>786.0</ele><time>2026-03-22T07:51:56.996Z</time></trkpt><trkpt lat="37.47605869514942" lon="14.288029532482165"><ele>788.5</ele><time>2026-03-22T07:51:57.997Z</time></trkpt><trkpt lat="37.47601265752557" lon="14.28816553615178"><ele>791.0</ele><time>2026-03-22T07:51:59.001Z</time></trkpt><trkpt lat="37.47596675440903" lon="14.28832104991816"><ele>793.5</ele><time>2026-03-22T07:52:00.002Z</time></trkpt><trkpt lat="37.47592314549326" lon="14.288476809243662"><ele>796.0</ele><time>2026-03-22T07:52:00.999Z</time></trkpt><trkpt lat="37.47585492211319" lon="14.288608905718217"><ele>796.0</ele><time>2026-03-22T07:52:01.998Z</time></trkpt><trkpt lat="37.475776867945335" lon="14.288724627044827"><ele>796.0</ele><time>2026-03-22T07:52:03.007Z</time></trkpt><trkpt lat="37.47570584600019" lon="14.288851232955567"><ele>796.0</ele><time>2026-03-22T07:52:04Z</time></trkpt><trkpt lat="37.47564276379634" lon="14.288942429666562"><ele>796.0</ele><time>2026-03-22T07:52:05.008Z</time></trkpt><trkpt lat="37.47560284164762" lon="14.289063282454794"><ele>796.0</ele><time>2026-03-22T07:52:06.002Z</time></trkpt><trkpt lat="37.47557604850556" lon="14.289189914534445"><ele>796.0</ele><time>2026-03-22T07:52:07.006Z</time></trkpt><trkpt lat="37.47558759258803" lon="14.28930952102116"><ele>796.0</ele><time>2026-03-22T07:52:08.008Z</time></trkpt><trkpt lat="37.47556921329993" lon="14.289414911380643"><ele>796.0</ele><time>2026-03-22T07:52:08.996Z</time></trkpt><trkpt lat="37.47555148548251" lon="14.289523263241154"><ele>796.0</ele><time>2026-03-22T07:52:10Z</time></trkpt><trkpt lat="37.47547613076607" lon="14.289629442978889"><ele>796.0</ele><time>2026-03-22T07:52:11.015Z</time></trkpt><trkpt lat="37.47543143828164" lon="14.289739793948543"><ele>796.6666666666666</ele><time>2026-03-22T07:52:12.005Z</time></trkpt><trkpt lat="37.47538015176197" lon="14.289811894723726"><ele>797.3333333333333</ele><time>2026-03-22T07:52:13.01Z</time></trkpt><trkpt lat="37.47534590269982" lon="14.28988755443826"><ele>798.0</ele><time>2026-03-22T07:52:14.007Z</time></trkpt><trkpt lat="37.47534108334301" lon="14.29002677457245"><ele>798.6666666666667</ele><time>2026-03-22T07:52:16.008Z</time></trkpt><trkpt lat="37.47536734866431" lon="14.290110828837545"><ele>799.3333333333334</ele><time>2026-03-22T07:52:16.995Z</time></trkpt><trkpt lat="37.475387165497" lon="14.290209329701254"><ele>800.0</ele><time>2026-03-22T07:52:18.007Z</time></trkpt><trkpt lat="37.47539417738778" lon="14.290336676867199"><ele>800.0</ele><time>2026-03-22T07:52:18.999Z</time></trkpt><trkpt lat="37.47539635758042" lon="14.290467735351385"><ele>800.0</ele><time>2026-03-22T07:52:19.999Z</time></trkpt><trkpt lat="37.475402287454486" lon="14.29061295691809"><ele>800.0</ele><time>2026-03-22T07:52:21.002Z</time></trkpt><trkpt lat="37.47539771543917" lon="14.290750200424958"><ele>800.0</ele><time>2026-03-22T07:52:22.001Z</time></trkpt><trkpt lat="37.47534672806219" lon="14.29088329448204"><ele>800.0</ele><time>2026-03-22T07:52:23.008Z</time></trkpt><trkpt lat="37.47534532619031" lon="14.2909979118368"><ele>799.8</ele><time>2026-03-22T07:52:24.008Z</time></trkpt><trkpt lat="37.47534654725978" lon="14.291100194415174"><ele>799.6</ele><time>2026-03-22T07:52:25.008Z</time></trkpt><trkpt lat="37.47537899299475" lon="14.291220601588197"><ele>799.4000000000001</ele><time>2026-03-22T07:52:25.974Z</time></trkpt><trkpt lat="37.475420482064905" lon="14.291359323046137"><ele>799.2</ele><time>2026-03-22T07:52:26.975Z</time></trkpt><trkpt lat="37.47545051439757" lon="14.291487180342674"><ele>799.0</ele><time>2026-03-22T07:52:27.977Z</time></trkpt><trkpt lat="37.47549312208946" lon="14.291595677295753"><ele>802.0</ele><time>2026-03-22T07:52:28.979Z</time></trkpt><trkpt lat="37.4755561964896" lon="14.291717622580702"><ele>805.0</ele><time>2026-03-22T07:52:29.98Z</time></trkpt><trkpt lat="37.47563675345277" lon="14.291824547542024"><ele>808.0</ele><time>2026-03-22T07:52:30.981Z</time></trkpt><trkpt lat="37.47573297315493" lon="14.29194867799053"><ele>811.0</ele><time>2026-03-22T07:52:31.983Z</time></trkpt><trkpt lat="37.475804696492446" lon="14.292054881396346"><ele>811.0</ele><time>2026-03-22T07:52:32.984Z</time></trkpt><trkpt lat="37.47588267759831" lon="14.292163876092534"><ele>811.0</ele><time>2026-03-22T07:52:33.985Z</time></trkpt><trkpt lat="37.475972186679094" lon="14.29226820002433"><ele>811.0</ele><time>2026-03-22T07:52:34.986Z</time></trkpt><trkpt lat="37.476045943702445" lon="14.292393982927544"><ele>811.0</ele><time>2026-03-22T07:52:35.987Z</time></trkpt><trkpt lat="37.47611824184369" lon="14.292529184395113"><ele>809.75</ele><time>2026-03-22T07:52:36.988Z</time></trkpt><trkpt lat="37.476206241928075" lon="14.292674987674367"><ele>808.5</ele><time>2026-03-22T07:52:37.989Z</time></trkpt><trkpt lat="37.47629468800926" lon="14.29281818608846"><ele>807.25</ele><time>2026-03-22T07:52:38.989Z</time></trkpt><trkpt lat="37.47637063483915" lon="14.292945473467382"><ele>806.0</ele><time>2026-03-22T07:52:39.99Z</time></trkpt><trkpt lat="37.47643989743016" lon="14.293079689388845"><ele>808.25</ele><time>2026-03-22T07:52:40.991Z</time></trkpt><trkpt lat="37.47650472205611" lon="14.293224601572748"><ele>810.5</ele><time>2026-03-22T07:52:41.991Z</time></trkpt><trkpt lat="37.4765871936039" lon="14.293359390564063"><ele>812.75</ele><time>2026-03-22T07:52:42.992Z</time></trkpt><trkpt lat="37.47667005229359" lon="14.293504692141425"><ele>815.0</ele><time>2026-03-22T07:52:43.993Z</time></trkpt><trkpt lat="37.476737029991455" lon="14.293631424547824"><ele>815.0</ele><time>2026-03-22T07:52:44.993Z</time></trkpt><trkpt lat="37.47679481082003" lon="14.293724874681638"><ele>815.0</ele><time>2026-03-22T07:52:45.994Z</time></trkpt><trkpt lat="37.47686579796451" lon="14.293789783565176"><ele>815.0</ele><time>2026-03-22T07:52:46.994Z</time></trkpt><trkpt lat="37.47693948229853" lon="14.293837768123355"><ele>815.0</ele><time>2026-03-22T07:52:47.994Z</time></trkpt><trkpt lat="37.47702300218846" lon="14.293829374924982"><ele>815.0</ele><time>2026-03-22T07:52:48.995Z</time></trkpt><trkpt lat="37.47712892496745" lon="14.293856864951422"><ele>816.5</ele><time>2026-03-22T07:52:49.995Z</time></trkpt><trkpt lat="37.477242081392404" lon="14.29388977447936"><ele>818.0</ele><time>2026-03-22T07:52:50.996Z</time></trkpt><trkpt lat="37.47736269881219" lon="14.29393692619543"><ele>819.5</ele><time>2026-03-22T07:52:51.996Z</time></trkpt><trkpt lat="37.47750356112874" lon="14.29398533500521"><ele>821.0</ele><time>2026-03-22T07:52:52.996Z</time></trkpt><trkpt lat="37.47763872745766" lon="14.294020429698373"><ele>819.1999999999999</ele><time>2026-03-22T07:52:53.997Z</time></trkpt><trkpt lat="37.477755230137" lon="14.294055648825871"><ele>817.4</ele><time>2026-03-22T07:52:54.997Z</time></trkpt><trkpt lat="37.47785783620376" lon="14.294122498418183"><ele>815.6</ele><time>2026-03-22T07:52:55.997Z</time></trkpt><trkpt lat="37.47795712042055" lon="14.294158668042787"><ele>813.8</ele><time>2026-03-22T07:52:56.997Z</time></trkpt><trkpt lat="37.47804010851509" lon="14.294218711717132"><ele>812.0</ele><time>2026-03-22T07:52:57.998Z</time></trkpt><trkpt lat="37.47809738273728" lon="14.294266768226949"><ele>812.0000000000001</ele><time>2026-03-22T07:52:58.998Z</time></trkpt><trkpt lat="37.47816628226739" lon="14.294352689133849"><ele>812.0</ele><time>2026-03-22T07:53:00.998Z</time></trkpt><trkpt lat="37.47821984383186" lon="14.294417067778088"><ele>812.0</ele><time>2026-03-22T07:53:02.998Z</time></trkpt><trkpt lat="37.47828837912098" lon="14.294540338574265"><ele>812.0</ele><time>2026-03-22T07:53:04.999Z</time></trkpt><trkpt lat="37.478340865887965" lon="14.294595900433727"><ele>812.0000000000001</ele><time>2026-03-22T07:53:05.999Z</time></trkpt><trkpt lat="37.478390432179495" lon="14.294677710603086"><ele>812.0</ele><time>2026-03-22T07:53:06.999Z</time></trkpt><trkpt lat="37.478422476104846" lon="14.294772477273506"><ele>811.3333333333334</ele><time>2026-03-22T07:53:07.999Z</time></trkpt><trkpt lat="37.47844142602736" lon="14.294850634216058"><ele>810.6666666666667</ele><time>2026-03-22T07:53:08.999Z</time></trkpt><trkpt lat="37.47838023939394" lon="14.294989147440388"><ele>810.0</ele><time>2026-03-22T07:53:10.999Z</time></trkpt><trkpt lat="37.478349533271995" lon="14.29509853807629"><ele>809.3333333333333</ele><time>2026-03-22T07:53:12Z</time></trkpt><trkpt lat="37.478390977438224" lon="14.295207780639169"><ele>808.6666666666666</ele><time>2026-03-22T07:53:13Z</time></trkpt><trkpt lat="37.4784229600601" lon="14.29528212997116"><ele>808.0</ele><time>2026-03-22T07:53:14Z</time></trkpt><trkpt lat="37.47838608125586" lon="14.29547647759455"><ele>808.0</ele><time>2026-03-22T07:53:16Z</time></trkpt><trkpt lat="37.478388263213915" lon="14.295619760570101"><ele>808.0</ele><time>2026-03-22T07:53:17Z</time></trkpt><trkpt lat="37.478366385910334" lon="14.295736624685373"><ele>808.0</ele><time>2026-03-22T07:53:18Z</time></trkpt><trkpt lat="37.478314087944554" lon="14.295863810019624"><ele>808.0</ele><time>2026-03-22T07:53:19Z</time></trkpt><trkpt lat="37.47828650546218" lon="14.296002667244503"><ele>808.0</ele><time>2026-03-22T07:53:20Z</time></trkpt><trkpt lat="37.47822665382177" lon="14.29611489907607"><ele>808.0</ele><time>2026-03-22T07:53:21Z</time></trkpt><trkpt lat="37.478201207311194" lon="14.296232742907742"><ele>808.0</ele><time>2026-03-22T07:53:22Z</time></trkpt><trkpt lat="37.47817922736618" lon="14.296354476104662"><ele>808.0</ele><time>2026-03-22T07:53:23Z</time></trkpt><trkpt lat="37.47815769407939" lon="14.29652446051426"><ele>808.0</ele><time>2026-03-22T07:53:24Z</time></trkpt><trkpt lat="37.478109989058716" lon="14.2967127629569"><ele>807.75</ele><time>2026-03-22T07:53:25Z</time></trkpt><trkpt lat="37.47806897832498" lon="14.29686990514608"><ele>807.5</ele><time>2026-03-22T07:53:26Z</time></trkpt><trkpt lat="37.47804431778732" lon="14.297010295944071"><ele>807.25</ele><time>2026-03-22T07:53:27Z</time></trkpt><trkpt lat="37.478026086013905" lon="14.297145998719825"><ele>807.0</ele><time>2026-03-22T07:53:28.001Z</time></trkpt><trkpt lat="37.47803363343451" lon="14.297270912055575"><ele>806.4000000000001</ele><time>2026-03-22T07:53:29.001Z</time></trkpt><trkpt lat="37.47804070686576" lon="14.297391557872283"><ele>805.8000000000001</ele><time>2026-03-22T07:53:30.001Z</time></trkpt><trkpt lat="37.47806662004434" lon="14.29749862131619"><ele>805.2</ele><time>2026-03-22T07:53:31.001Z</time></trkpt><trkpt lat="37.47811214361428" lon="14.29759249471711"><ele>804.6</ele><time>2026-03-22T07:53:32.001Z</time></trkpt><trkpt lat="37.47815672223825" lon="14.297699659194333"><ele>804.0</ele><time>2026-03-22T07:53:33.001Z</time></trkpt><trkpt lat="37.47821745260192" lon="14.297774460335779"><ele>804.0</ele><time>2026-03-22T07:53:34.001Z</time></trkpt><trkpt lat="37.478270506387055" lon="14.297850235366889"><ele>804.0</ele><time>2026-03-22T07:53:35.001Z</time></trkpt><trkpt lat="37.478314223634285" lon="14.297913327048208"><ele>804.0</ele><time>2026-03-22T07:53:36.001Z</time></trkpt><trkpt lat="37.47832932573448" lon="14.298006955917286"><ele>804.0</ele><time>2026-03-22T07:53:37.001Z</time></trkpt><trkpt lat="37.47836468378113" lon="14.298089880869734"><ele>804.0</ele><time>2026-03-22T07:53:38.001Z</time></trkpt><trkpt lat="37.478412118740124" lon="14.29818525139899"><ele>804.0</ele><time>2026-03-22T07:53:39.001Z</time></trkpt><trkpt lat="37.47847444792319" lon="14.298263973125975"><ele>800.8333333333334</ele><time>2026-03-22T07:53:40.001Z</time></trkpt><trkpt lat="37.47852902823608" lon="14.29835198894732"><ele>797.6666666666667</ele><time>2026-03-22T07:53:41.001Z</time></trkpt><trkpt lat="37.47858119498414" lon="14.298434717471046"><ele>794.5</ele><time>2026-03-22T07:53:42.001Z</time></trkpt><trkpt lat="37.47861876352857" lon="14.298540445935645"><ele>791.3333333333334</ele><time>2026-03-22T07:53:43.001Z</time></trkpt><trkpt lat="37.478668081369456" lon="14.298651559003131"><ele>788.1666666666667</ele><time>2026-03-22T07:53:44.001Z</time></trkpt><trkpt lat="37.47871609329731" lon="14.298735106481125"><ele>785.0</ele><time>2026-03-22T07:53:45.001Z</time></trkpt><trkpt lat="37.478761935816244" lon="14.298801511912849"><ele>786.2</ele><time>2026-03-22T07:53:46.001Z</time></trkpt><trkpt lat="37.47881149925763" lon="14.298858017514462"><ele>787.4</ele><time>2026-03-22T07:53:47.001Z</time></trkpt><trkpt lat="37.47888322123432" lon="14.298952552637607"><ele>788.5999999999999</ele><time>2026-03-22T07:53:49.001Z</time></trkpt><trkpt lat="37.4789282907812" lon="14.299041220316727"><ele>789.8</ele><time>2026-03-22T07:53:56.001Z</time></trkpt><trkpt lat="37.479005782795234" lon="14.299168634205259"><ele>791.0</ele><time>2026-03-22T07:53:58.001Z</time></trkpt><trkpt lat="37.47905772792138" lon="14.299253577800636"><ele>791.0000000000001</ele><time>2026-03-22T07:53:59.001Z</time></trkpt><trkpt lat="37.47908994635762" lon="14.299321933690356"><ele>791.0</ele><time>2026-03-22T07:54:00.001Z</time></trkpt><trkpt lat="37.4791157609402" lon="14.299445016973428"><ele>791.0</ele><time>2026-03-22T07:54:03.001Z</time></trkpt><trkpt lat="37.47911480033673" lon="14.299533503613258"><ele>791.0</ele><time>2026-03-22T07:54:04.001Z</time></trkpt><trkpt lat="37.47913709512137" lon="14.299639457640433"><ele>791.0000000000001</ele><time>2026-03-22T07:54:05.001Z</time></trkpt><trkpt lat="37.47913955732262" lon="14.299765232166608"><ele>791.0</ele><time>2026-03-22T07:54:06.001Z</time></trkpt><trkpt lat="37.47915902083132" lon="14.299897921425018"><ele>790.3333333333334</ele><time>2026-03-22T07:54:07.001Z</time></trkpt><trkpt lat="37.4791663311081" lon="14.300000124075575"><ele>789.6666666666667</ele><time>2026-03-22T07:54:08.001Z</time></trkpt><trkpt lat="37.47917536379984" lon="14.300109616655234"><ele>789.0</ele><time>2026-03-22T07:54:09.001Z</time></trkpt><trkpt lat="37.479187165070606" lon="14.300230412875218"><ele>788.3333333333333</ele><time>2026-03-22T07:54:10.001Z</time></trkpt><trkpt lat="37.47919587582029" lon="14.300338163077896"><ele>787.6666666666666</ele><time>2026-03-22T07:54:11.001Z</time></trkpt><trkpt lat="37.479199795415774" lon="14.300428928465028"><ele>787.0</ele><time>2026-03-22T07:54:12.001Z</time></trkpt><trkpt lat="37.479202594190994" lon="14.300512860073269"><ele>786.6</ele><time>2026-03-22T07:54:13.001Z</time></trkpt><trkpt lat="37.47917801478886" lon="14.300673226823735"><ele>786.2</ele><time>2026-03-22T07:54:15.001Z</time></trkpt><trkpt lat="37.479116451788336" lon="14.300738107213874"><ele>785.8</ele><time>2026-03-22T07:54:16.001Z</time></trkpt><trkpt lat="37.479090422418665" lon="14.30085356366825"><ele>785.4</ele><time>2026-03-22T07:54:17.001Z</time></trkpt><trkpt lat="37.47905621257667" lon="14.30094330781446"><ele>785.0</ele><time>2026-03-22T07:54:18.001Z</time></trkpt><trkpt lat="37.47902775239352" lon="14.301040533559114"><ele>785.0000000000001</ele><time>2026-03-22T07:54:19.001Z</time></trkpt><trkpt lat="37.479014112452255" lon="14.301136746541294"><ele>785.0</ele><time>2026-03-22T07:54:20.001Z</time></trkpt><trkpt lat="37.478994954834526" lon="14.30124202710892"><ele>785.0</ele><time>2026-03-22T07:54:21.001Z</time></trkpt><trkpt lat="37.478963037115875" lon="14.30134701551597"><ele>785.0</ele><time>2026-03-22T07:54:22.001Z</time></trkpt><trkpt lat="37.47892118224239" lon="14.301423912814117"><ele>785.0000000000001</ele><time>2026-03-22T07:54:23.001Z</time></trkpt><trkpt lat="37.478902329822404" lon="14.301509154308933"><ele>785.0</ele><time>2026-03-22T07:54:24.001Z</time></trkpt><trkpt lat="37.478847667425036" lon="14.301642041081944"><ele>785.6</ele><time>2026-03-22T07:54:26.001Z</time></trkpt><trkpt lat="37.47881372031397" lon="14.301735483620952"><ele>786.2</ele><time>2026-03-22T07:54:27.001Z</time></trkpt><trkpt lat="37.47877841384436" lon="14.30182073784628"><ele>786.8</ele><time>2026-03-22T07:54:28.001Z</time></trkpt><trkpt lat="37.47872085803855" lon="14.301953936148651"><ele>787.4</ele><time>2026-03-22T07:54:30.001Z</time></trkpt><trkpt lat="37.47865299748251" lon="14.302113284757482"><ele>788.0</ele><time>2026-03-22T07:54:32.001Z</time></trkpt><trkpt lat="37.47851877669676" lon="14.302179220943872"><ele>789.3333333333334</ele><time>2026-03-22T07:54:33.001Z</time></trkpt><trkpt lat="37.47843279923904" lon="14.302263137628778"><ele>790.6666666666667</ele><time>2026-03-22T07:54:34.001Z</time></trkpt><trkpt lat="37.47835035139105" lon="14.302330587771904"><ele>792.0</ele><time>2026-03-22T07:54:35.001Z</time></trkpt><trkpt lat="37.47828355522133" lon="14.302376031883524"><ele>793.3333333333333</ele><time>2026-03-22T07:54:36.001Z</time></trkpt><trkpt lat="37.47822446034145" lon="14.30244425648683"><ele>794.6666666666666</ele><time>2026-03-22T07:54:37.001Z</time></trkpt><trkpt lat="37.47819177835591" lon="14.30251473187987"><ele>796.0</ele><time>2026-03-22T07:54:38.001Z</time></trkpt><trkpt lat="37.47817009677214" lon="14.302605796990559"><ele>795.9999999999999</ele><time>2026-03-22T07:54:39.001Z</time></trkpt><trkpt lat="37.478129028247636" lon="14.302667042540387"><ele>796.0</ele><time>2026-03-22T07:54:40.001Z</time></trkpt><trkpt lat="37.47805998180922" lon="14.302703469248643"><ele>796.0</ele><time>2026-03-22T07:54:41.001Z</time></trkpt><trkpt lat="37.47799434392879" lon="14.302778202930392"><ele>796.0</ele><time>2026-03-22T07:54:42.001Z</time></trkpt><trkpt lat="37.477951925073604" lon="14.302871788137821"><ele>795.9999999999999</ele><time>2026-03-22T07:54:43.001Z</time></trkpt><trkpt lat="37.47791837878367" lon="14.30296745582889"><ele>796.0</ele><time>2026-03-22T07:54:44.001Z</time></trkpt><trkpt lat="37.47789678685465" lon="14.303067909705419"><ele>798.4</ele><time>2026-03-22T07:54:45Z</time></trkpt><trkpt lat="37.477882420235396" lon="14.303191989752415"><ele>800.8</ele><time>2026-03-22T07:54:46Z</time></trkpt><trkpt lat="37.47785226196338" lon="14.303326252108457"><ele>803.1999999999999</ele><time>2026-03-22T07:54:48Z</time></trkpt><trkpt lat="37.477766903510826" lon="14.303396080845971"><ele>805.5999999999999</ele><time>2026-03-22T07:54:49Z</time></trkpt><trkpt lat="37.47767962298316" lon="14.303453368819595"><ele>808.0</ele><time>2026-03-22T07:54:50Z</time></trkpt><trkpt lat="37.4775887475486" lon="14.303472442615675"><ele>807.9999999999999</ele><time>2026-03-22T07:54:51Z</time></trkpt><trkpt lat="37.47752620145256" lon="14.303488021697936"><ele>808.0</ele><time>2026-03-22T07:54:52Z</time></trkpt><trkpt lat="37.47746130704442" lon="14.303549232931493"><ele>808.0</ele><time>2026-03-22T07:54:54Z</time></trkpt><trkpt lat="37.47740938324374" lon="14.303673402349004"><ele>808.0</ele><time>2026-03-22T07:54:56Z</time></trkpt><trkpt lat="37.477380567216564" lon="14.303746553809026"><ele>807.9999999999999</ele><time>2026-03-22T07:54:57Z</time></trkpt><trkpt lat="37.47734090720856" lon="14.303830316612986"><ele>808.0</ele><time>2026-03-22T07:54:58Z</time></trkpt><trkpt lat="37.47729977588302" lon="14.303906626219403"><ele>807.8</ele><time>2026-03-22T07:54:59Z</time></trkpt><trkpt lat="37.47724761968245" lon="14.303995080877609"><ele>807.5999999999999</ele><time>2026-03-22T07:55:00Z</time></trkpt><trkpt lat="37.47718623244799" lon="14.30407646593937"><ele>807.4000000000001</ele><time>2026-03-22T07:55:01Z</time></trkpt><trkpt lat="37.47710441403311" lon="14.304171377309869"><ele>807.2</ele><time>2026-03-22T07:55:02Z</time></trkpt><trkpt lat="37.47704354252422" lon="14.304252697700967"><ele>807.0</ele><time>2026-03-22T07:55:03Z</time></trkpt><trkpt lat="37.47699807670634" lon="14.304344001800128"><ele>807.0</ele><time>2026-03-22T07:55:04Z</time></trkpt><trkpt lat="37.4769626439925" lon="14.304416464957194"><ele>807.0</ele><time>2026-03-22T07:55:05Z</time></trkpt><trkpt lat="37.4769159083945" lon="14.30450108693158"><ele>807.0</ele><time>2026-03-22T07:55:06Z</time></trkpt><trkpt lat="37.47686258551438" lon="14.304583845797428"><ele>807.0</ele><time>2026-03-22T07:55:07Z</time></trkpt><trkpt lat="37.47682707273145" lon="14.30465880874473"><ele>807.0</ele><time>2026-03-22T07:55:08Z</time></trkpt><trkpt lat="37.47679416951575" lon="14.30474092304231"><ele>807.0</ele><time>2026-03-22T07:55:09Z</time></trkpt><trkpt lat="37.47676166561373" lon="14.304831564165264"><ele>807.4000000000001</ele><time>2026-03-22T07:55:10Z</time></trkpt><trkpt lat="37.476700045242374" lon="14.30494928273715"><ele>807.8000000000001</ele><time>2026-03-22T07:55:12Z</time></trkpt><trkpt lat="37.476630000789555" lon="14.305063554101421"><ele>808.2</ele><time>2026-03-22T07:55:14Z</time></trkpt><trkpt lat="37.476578219616314" lon="14.305155395245055"><ele>808.6</ele><time>2026-03-22T07:55:15Z</time></trkpt><trkpt lat="37.4765231041942" lon="14.305275933143166"><ele>809.0</ele><time>2026-03-22T07:55:16Z</time></trkpt><trkpt lat="37.47647974467641" lon="14.305371597146642"><ele>809.0000000000001</ele><time>2026-03-22T07:55:17Z</time></trkpt><trkpt lat="37.47644023165617" lon="14.305441657647401"><ele>809.0</ele><time>2026-03-22T07:55:18Z</time></trkpt><trkpt lat="37.476384127204724" lon="14.305528617102926"><ele>809.0</ele><time>2026-03-22T07:55:19Z</time></trkpt><trkpt lat="37.47633995893912" lon="14.305621321081098"><ele>809.0</ele><time>2026-03-22T07:55:20Z</time></trkpt><trkpt lat="37.476290236738436" lon="14.305716649534315"><ele>809.0000000000001</ele><time>2026-03-22T07:55:21Z</time></trkpt><trkpt lat="37.47623353019804" lon="14.305808460138493"><ele>809.0</ele><time>2026-03-22T07:55:22Z</time></trkpt><trkpt lat="37.47618378414757" lon="14.305895679609568"><ele>808.1666666666667</ele><time>2026-03-22T07:55:23Z</time></trkpt><trkpt lat="37.47614762555742" lon="14.305982705801435"><ele>807.3333333333334</ele><time>2026-03-22T07:55:24Z</time></trkpt><trkpt lat="37.47610550179106" lon="14.306066658410161"><ele>806.5</ele><time>2026-03-22T07:55:25Z</time></trkpt><trkpt lat="37.47606267441855" lon="14.306151551990315"><ele>805.6666666666667</ele><time>2026-03-22T07:55:26Z</time></trkpt><trkpt lat="37.47601885147917" lon="14.306239876177795"><ele>804.8333333333334</ele><time>2026-03-22T07:55:27Z</time></trkpt><trkpt lat="37.47597018994134" lon="14.306324220822852"><ele>804.0</ele><time>2026-03-22T07:55:28Z</time></trkpt><trkpt lat="37.475919002882144" lon="14.306404325045655"><ele>804.0</ele><time>2026-03-22T07:55:29Z</time></trkpt><trkpt lat="37.47585847024417" lon="14.306493011170003"><ele>804.0</ele><time>2026-03-22T07:55:30Z</time></trkpt><trkpt lat="37.47579742413404" lon="14.306573378025806"><ele>804.0</ele><time>2026-03-22T07:55:31Z</time></trkpt><trkpt lat="37.47572927591398" lon="14.306669250165271"><ele>804.0</ele><time>2026-03-22T07:55:32Z</time></trkpt><trkpt lat="37.475677116732825" lon="14.306774600361186"><ele>804.0</ele><time>2026-03-22T07:55:33Z</time></trkpt><trkpt lat="37.47561922272636" lon="14.306885467707245"><ele>804.0</ele><time>2026-03-22T07:55:34Z</time></trkpt><trkpt lat="37.47555281774275" lon="14.306984830985359"><ele>804.0</ele><time>2026-03-22T07:55:35Z</time></trkpt><trkpt lat="37.47548598709083" lon="14.307085756408668"><ele>804.0</ele><time>2026-03-22T07:55:36Z</time></trkpt><trkpt lat="37.47542361261314" lon="14.307188273350656"><ele>804.0</ele><time>2026-03-22T07:55:37Z</time></trkpt><trkpt lat="37.475364328435475" lon="14.307299416865483"><ele>804.0</ele><time>2026-03-22T07:55:38Z</time></trkpt><trkpt lat="37.47530194718731" lon="14.30740872868406"><ele>802.4000000000001</ele><time>2026-03-22T07:55:39Z</time></trkpt><trkpt lat="37.47523225531474" lon="14.307519001290512"><ele>800.8</ele><time>2026-03-22T07:55:40Z</time></trkpt><trkpt lat="37.47516989747794" lon="14.307620599991061"><ele>799.2</ele><time>2026-03-22T07:55:41Z</time></trkpt><trkpt lat="37.47510300553292" lon="14.30770886409251"><ele>797.5999999999999</ele><time>2026-03-22T07:55:42Z</time></trkpt><trkpt lat="37.47504657953038" lon="14.307785843491944"><ele>796.0</ele><time>2026-03-22T07:55:43Z</time></trkpt><trkpt lat="37.47498988281996" lon="14.307864449585496"><ele>796.0</ele><time>2026-03-22T07:55:44Z</time></trkpt><trkpt lat="37.474914349975734" lon="14.307957863604052"><ele>796.0</ele><time>2026-03-22T07:55:45Z</time></trkpt><trkpt lat="37.47481993721594" lon="14.308057263457288"><ele>796.0</ele><time>2026-03-22T07:55:46Z</time></trkpt><trkpt lat="37.47474361930452" lon="14.308140843669786"><ele>796.0</ele><time>2026-03-22T07:55:47Z</time></trkpt><trkpt lat="37.474668318806216" lon="14.308208974916782"><ele>796.0</ele><time>2026-03-22T07:55:48Z</time></trkpt><trkpt lat="37.47458373817899" lon="14.308267729923084"><ele>793.8</ele><time>2026-03-22T07:55:49Z</time></trkpt><trkpt lat="37.4745000130891" lon="14.308337413214486"><ele>791.5999999999999</ele><time>2026-03-22T07:55:50Z</time></trkpt><trkpt lat="37.47443756303681" lon="14.308434619108601"><ele>789.4</ele><time>2026-03-22T07:55:51Z</time></trkpt><trkpt lat="37.47438370904332" lon="14.308535964573062"><ele>787.2</ele><time>2026-03-22T07:55:52Z</time></trkpt><trkpt lat="37.47430898451328" lon="14.308608670952399"><ele>785.0</ele><time>2026-03-22T07:55:53Z</time></trkpt><trkpt lat="37.47423905805031" lon="14.308680717836799"><ele>785.0</ele><time>2026-03-22T07:55:54Z</time></trkpt><trkpt lat="37.4741820897018" lon="14.308750109460973"><ele>785.0</ele><time>2026-03-22T07:55:55Z</time></trkpt><trkpt lat="37.47411779523314" lon="14.30882727152135"><ele>785.0</ele><time>2026-03-22T07:55:56Z</time></trkpt><trkpt lat="37.47403921885189" lon="14.308899420047078"><ele>785.0</ele><time>2026-03-22T07:55:57Z</time></trkpt><trkpt lat="37.47396210038367" lon="14.308976237125577"><ele>785.0</ele><time>2026-03-22T07:55:58Z</time></trkpt><trkpt lat="37.4739016667943" lon="14.309068005112032"><ele>784.5000000000001</ele><time>2026-03-22T07:55:59Z</time></trkpt><trkpt lat="37.47385448146508" lon="14.309140788322347"><ele>784.0</ele><time>2026-03-22T07:56:00Z</time></trkpt><trkpt lat="37.473816346773326" lon="14.309287049827299"><ele>783.5</ele><time>2026-03-22T07:56:02Z</time></trkpt><trkpt lat="37.473787729361696" lon="14.309367580133578"><ele>783.0</ele><time>2026-03-22T07:56:03Z</time></trkpt><trkpt lat="37.47372561474811" lon="14.309456298897892"><ele>782.5000000000001</ele><time>2026-03-22T07:56:04Z</time></trkpt><trkpt lat="37.473683794101895" lon="14.309548497340836"><ele>782.0</ele><time>2026-03-22T07:56:05Z</time></trkpt><trkpt lat="37.47364054868603" lon="14.3096380903368"><ele>781.3333333333334</ele><time>2026-03-22T07:56:06Z</time></trkpt><trkpt lat="37.473589816787744" lon="14.30972512001961"><ele>780.6666666666667</ele><time>2026-03-22T07:56:07Z</time></trkpt><trkpt lat="37.47354996985765" lon="14.309798939383779"><ele>780.0</ele><time>2026-03-22T07:56:08Z</time></trkpt><trkpt lat="37.47350609744735" lon="14.309867093193924"><ele>779.3333333333333</ele><time>2026-03-22T07:56:09Z</time></trkpt><trkpt lat="37.47346889003018" lon="14.309956368013525"><ele>778.6666666666666</ele><time>2026-03-22T07:56:10Z</time></trkpt><trkpt lat="37.47344089125486" lon="14.310058526870925"><ele>778.0</ele><time>2026-03-22T07:56:11Z</time></trkpt><trkpt lat="37.473424562101165" lon="14.310147324921003"><ele>777.9999999999999</ele><time>2026-03-22T07:56:12Z</time></trkpt><trkpt lat="37.47341060797188" lon="14.310239812828058"><ele>778.0</ele><time>2026-03-22T07:56:13Z</time></trkpt><trkpt lat="37.4733963005869" lon="14.310338185812446"><ele>778.0</ele><time>2026-03-22T07:56:14Z</time></trkpt><trkpt lat="37.473367934871206" lon="14.310439949679788"><ele>778.0</ele><time>2026-03-22T07:56:15Z</time></trkpt><trkpt lat="37.47334804018284" lon="14.310569315765544"><ele>777.9999999999999</ele><time>2026-03-22T07:56:17Z</time></trkpt><trkpt lat="37.47332220787136" lon="14.310656777455197"><ele>778.0</ele><time>2026-03-22T07:56:19Z</time></trkpt><trkpt lat="37.47325345731368" lon="14.310724967157018"><ele>777.2857142857143</ele><time>2026-03-22T07:56:21Z</time></trkpt><trkpt lat="37.4731950371512" lon="14.310760411195641"><ele>776.5714285714286</ele><time>2026-03-22T07:56:23Z</time></trkpt><trkpt lat="37.47315309730174" lon="14.310831812906125"><ele>775.8571428571429</ele><time>2026-03-22T07:56:26Z</time></trkpt><trkpt lat="37.47312408181049" lon="14.310917598284117"><ele>775.1428571428571</ele><time>2026-03-22T07:56:29Z</time></trkpt><trkpt lat="37.4730835909872" lon="14.311011533925232"><ele>774.4285714285713</ele><time>2026-03-22T07:56:34Z</time></trkpt><trkpt lat="37.473068543738165" lon="14.311095098188488"><ele>773.7142857142857</ele><time>2026-03-22T07:56:36Z</time></trkpt><trkpt lat="37.47302946093153" lon="14.311167984751002"><ele>773.0</ele><time>2026-03-22T07:56:38Z</time></trkpt><trkpt lat="37.47300047971887" lon="14.311242550499609"><ele>773.0000000000001</ele><time>2026-03-22T07:56:40Z</time></trkpt><trkpt lat="37.472954870670854" lon="14.311341595457156"><ele>773.0</ele><time>2026-03-22T07:56:42Z</time></trkpt><trkpt lat="37.47290930588346" lon="14.311406649876483"><ele>773.0</ele><time>2026-03-22T07:56:43Z</time></trkpt><trkpt lat="37.47284085298637" lon="14.3114432219154"><ele>773.0</ele><time>2026-03-22T07:56:44Z</time></trkpt><trkpt lat="37.47276791246068" lon="14.311442171803014"><ele>773.0000000000001</ele><time>2026-03-22T07:56:45Z</time></trkpt><trkpt lat="37.472685566557836" lon="14.311427281831198"><ele>773.0</ele><time>2026-03-22T07:56:46Z</time></trkpt><trkpt lat="37.47261927030618" lon="14.31141255215999"><ele>770.6666666666667</ele><time>2026-03-22T07:56:47Z</time></trkpt><trkpt lat="37.47253420685225" lon="14.311354927952902"><ele>768.3333333333334</ele><time>2026-03-22T07:56:49Z</time></trkpt><trkpt lat="37.472471427468435" lon="14.31131114450221"><ele>766.0</ele><time>2026-03-22T07:56:51Z</time></trkpt><trkpt lat="37.47237502565731" lon="14.311303070604524"><ele>763.6666666666667</ele><time>2026-03-22T07:56:53Z</time></trkpt><trkpt lat="37.47231851171399" lon="14.31136842496742"><ele>761.3333333333334</ele><time>2026-03-22T07:56:55Z</time></trkpt><trkpt lat="37.47232382271802" lon="14.311483795000361"><ele>759.0</ele><time>2026-03-22T07:56:57Z</time></trkpt><trkpt lat="37.472326432408686" lon="14.311574695895999"><ele>758.0</ele><time>2026-03-22T07:56:58Z</time></trkpt><trkpt lat="37.47233683452461" lon="14.311664723283801"><ele>757.0</ele><time>2026-03-22T07:56:59Z</time></trkpt><trkpt lat="37.4723563807747" lon="14.311743032115924"><ele>756.0</ele><time>2026-03-22T07:57:00Z</time></trkpt><trkpt lat="37.47239780134688" lon="14.311827049127935"><ele>755.0</ele><time>2026-03-22T07:57:01Z</time></trkpt><trkpt lat="37.47247058726655" lon="14.311908347559674"><ele>754.0</ele><time>2026-03-22T07:57:02Z</time></trkpt><trkpt lat="37.47253304798203" lon="14.311970650459203"><ele>753.0</ele><time>2026-03-22T07:57:03Z</time></trkpt><trkpt lat="37.47258288997601" lon="14.312040473343197"><ele>753.0</ele><time>2026-03-22T07:57:04Z</time></trkpt><trkpt lat="37.472607166857934" lon="14.3121541334909"><ele>753.0</ele><time>2026-03-22T07:57:06Z</time></trkpt><trkpt lat="37.47257110554327" lon="14.31222393390879"><ele>753.0</ele><time>2026-03-22T07:57:07Z</time></trkpt><trkpt lat="37.472480361077864" lon="14.312292994901004"><ele>753.0</ele><time>2026-03-22T07:57:08Z</time></trkpt><trkpt lat="37.47241518046219" lon="14.312318181189916"><ele>753.0</ele><time>2026-03-22T07:57:09Z</time></trkpt><trkpt lat="37.47232789026703" lon="14.312278102826186"><ele>753.0</ele><time>2026-03-22T07:57:11Z</time></trkpt><trkpt lat="37.47225889803091" lon="14.312231917757504"><ele>753.0</ele><time>2026-03-22T07:57:13Z</time></trkpt><trkpt lat="37.4721716396464" lon="14.312190690025462"><ele>753.0</ele><time>2026-03-22T07:57:45Z</time></trkpt><trkpt lat="37.47210564557909" lon="14.31216110862645"><ele>753.0</ele><time>2026-03-22T07:57:46Z</time></trkpt><trkpt lat="37.472051107802955" lon="14.31209795882226"><ele>753.0</ele><time>2026-03-22T07:57:47Z</time></trkpt><trkpt lat="37.471988887093" lon="14.31203334881858"><ele>753.0</ele><time>2026-03-22T07:57:48Z</time></trkpt><trkpt lat="37.47193351814184" lon="14.31198801201288"><ele>753.0</ele><time>2026-03-22T07:57:49Z</time></trkpt><trkpt lat="37.47181754382311" lon="14.311891156635784"><ele>751.4</ele><time>2026-03-22T07:57:51Z</time></trkpt><trkpt lat="37.4717172041287" lon="14.31180707989803"><ele>749.8</ele><time>2026-03-22T07:57:53Z</time></trkpt><trkpt lat="37.471667636426716" lon="14.311754861608769"><ele>748.2</ele><time>2026-03-22T07:57:54Z</time></trkpt><trkpt lat="37.471561598963" lon="14.311675951907231"><ele>746.6</ele><time>2026-03-22T07:57:56Z</time></trkpt><trkpt lat="37.47144448441072" lon="14.311583138465624"><ele>745.0</ele><time>2026-03-22T07:57:58Z</time></trkpt><trkpt lat="37.47135562811605" lon="14.311546939095326"><ele>744.75</ele><time>2026-03-22T07:57:59Z</time></trkpt><trkpt lat="37.4712328892953" lon="14.311483673482643"><ele>744.5</ele><time>2026-03-22T07:58:00Z</time></trkpt><trkpt lat="37.47111815986044" lon="14.311414617947545"><ele>744.25</ele><time>2026-03-22T07:58:01Z</time></trkpt><trkpt lat="37.47100298411565" lon="14.311365893977365"><ele>744.0</ele><time>2026-03-22T07:58:02Z</time></trkpt><trkpt lat="37.47089403971094" lon="14.311328200656698"><ele>740.2</ele><time>2026-03-22T07:58:03Z</time></trkpt><trkpt lat="37.47080329711563" lon="14.311300552577272"><ele>736.4000000000001</ele><time>2026-03-22T07:58:04Z</time></trkpt><trkpt lat="37.47070104974168" lon="14.311275991423287"><ele>732.6</ele><time>2026-03-22T07:58:05Z</time></trkpt><trkpt lat="37.470597988891825" lon="14.31124950917609"><ele>728.8</ele><time>2026-03-22T07:58:06Z</time></trkpt><trkpt lat="37.47049185317364" lon="14.311243394411312"><ele>725.0</ele><time>2026-03-22T07:58:07Z</time></trkpt><trkpt lat="37.47038363192333" lon="14.311249287812979"><ele>723.2</ele><time>2026-03-22T07:58:08Z</time></trkpt><trkpt lat="37.4702887642071" lon="14.311289622757185"><ele>721.4</ele><time>2026-03-22T07:58:09Z</time></trkpt><trkpt lat="37.470204870460776" lon="14.311323920508597"><ele>719.5999999999999</ele><time>2026-03-22T07:58:10Z</time></trkpt><trkpt lat="37.47012719635358" lon="14.311387814467"><ele>717.8</ele><time>2026-03-22T07:58:12Z</time></trkpt><trkpt lat="37.47003010403731" lon="14.311427559458009"><ele>716.0</ele><time>2026-03-22T07:58:14Z</time></trkpt><trkpt lat="37.469943735861754" lon="14.31146248225414"><ele>717.3333333333333</ele><time>2026-03-22T07:58:15Z</time></trkpt><trkpt lat="37.46985544883248" lon="14.311515182270472"><ele>718.6666666666666</ele><time>2026-03-22T07:58:16Z</time></trkpt><trkpt lat="37.46975824550601" lon="14.311567459356723"><ele>720.0</ele><time>2026-03-22T07:58:17Z</time></trkpt><trkpt lat="37.469680893440675" lon="14.311612469518098"><ele>721.3333333333334</ele><time>2026-03-22T07:58:18Z</time></trkpt><trkpt lat="37.469610093947445" lon="14.31164399978152"><ele>722.6666666666667</ele><time>2026-03-22T07:58:19Z</time></trkpt><trkpt lat="37.46954390763729" lon="14.31166199743065"><ele>724.0</ele><time>2026-03-22T07:58:20Z</time></trkpt><trkpt lat="37.469480562050414" lon="14.311699441109388"><ele>724.0</ele><time>2026-03-22T07:58:21Z</time></trkpt><trkpt lat="37.46939529869741" lon="14.311742151369122"><ele>724.0</ele><time>2026-03-22T07:58:22Z</time></trkpt><trkpt lat="37.46930195901902" lon="14.311789396127446"><ele>724.0</ele><time>2026-03-22T07:58:23Z</time></trkpt><trkpt lat="37.469201135933" lon="14.31184328968461"><ele>724.0</ele><time>2026-03-22T07:58:24Z</time></trkpt><trkpt lat="37.4690987307338" lon="14.311904213755847"><ele>724.0</ele><time>2026-03-22T07:58:25Z</time></trkpt><trkpt lat="37.46899520563879" lon="14.311955328682755"><ele>724.0</ele><time>2026-03-22T07:58:26Z</time></trkpt><trkpt lat="37.46888950044281" lon="14.312004881977996"><ele>724.0</ele><time>2026-03-22T07:58:27Z</time></trkpt><trkpt lat="37.4687942904362" lon="14.312058778482974"><ele>724.0</ele><time>2026-03-22T07:58:28Z</time></trkpt><trkpt lat="37.46871658607646" lon="14.31214623810575"><ele>724.0</ele><time>2026-03-22T07:58:29Z</time></trkpt><trkpt lat="37.46864514572205" lon="14.312222885353213"><ele>724.0</ele><time>2026-03-22T07:58:30Z</time></trkpt><trkpt lat="37.46860795532768" lon="14.312318241464009"><ele>721.3333333333334</ele><time>2026-03-22T07:58:31Z</time></trkpt><trkpt lat="37.46856961492233" lon="14.312404747384935"><ele>718.6666666666667</ele><time>2026-03-22T07:58:32Z</time></trkpt><trkpt lat="37.46852787151459" lon="14.312497574603961"><ele>716.0</ele><time>2026-03-22T07:58:33Z</time></trkpt><trkpt lat="37.46848949561387" lon="14.31257906912747"><ele>713.3333333333334</ele><time>2026-03-22T07:58:34Z</time></trkpt><trkpt lat="37.468446566324594" lon="14.312663084360075"><ele>710.6666666666666</ele><time>2026-03-22T07:58:35Z</time></trkpt><trkpt lat="37.46840717865558" lon="14.312738284990637"><ele>708.0</ele><time>2026-03-22T07:58:36Z</time></trkpt><trkpt lat="37.46836837042917" lon="14.312809958017528"><ele>708.0</ele><time>2026-03-22T07:58:37Z</time></trkpt><trkpt lat="37.468330553568265" lon="14.312879800135658"><ele>708.0</ele><time>2026-03-22T07:58:38Z</time></trkpt><trkpt lat="37.46829142547366" lon="14.312952063908934"><ele>708.0</ele><time>2026-03-22T07:58:39Z</time></trkpt><trkpt lat="37.4682518156017" lon="14.313025217475447"><ele>708.0</ele><time>2026-03-22T07:58:40Z</time></trkpt><trkpt lat="37.4682077429558" lon="14.313096733255268"><ele>708.0</ele><time>2026-03-22T07:58:41Z</time></trkpt><trkpt lat="37.46816861272978" lon="14.313186399618319"><ele>708.0</ele><time>2026-03-22T07:58:42Z</time></trkpt><trkpt lat="37.468135451996474" lon="14.313278731921326"><ele>708.0</ele><time>2026-03-22T07:58:43Z</time></trkpt><trkpt lat="37.468087573014294" lon="14.313377149196983"><ele>708.5999999999999</ele><time>2026-03-22T07:58:44Z</time></trkpt><trkpt lat="37.46802772199288" lon="14.31347917932044"><ele>709.1999999999999</ele><time>2026-03-22T07:58:45Z</time></trkpt><trkpt lat="37.46795789992671" lon="14.313585490525197"><ele>709.8</ele><time>2026-03-22T07:58:46Z</time></trkpt><trkpt lat="37.467883278265745" lon="14.313696489457516"><ele>710.4</ele><time>2026-03-22T07:58:47Z</time></trkpt><trkpt lat="37.46780699795281" lon="14.313810786583357"><ele>711.0</ele><time>2026-03-22T07:58:48Z</time></trkpt><trkpt lat="37.46772450077353" lon="14.31389408926824"><ele>710.8</ele><time>2026-03-22T07:58:49Z</time></trkpt><trkpt lat="37.467644249792464" lon="14.313938675913274"><ele>710.5999999999999</ele><time>2026-03-22T07:58:50Z</time></trkpt><trkpt lat="37.4675698991665" lon="14.313992966297047"><ele>710.4</ele><time>2026-03-22T07:58:51Z</time></trkpt><trkpt lat="37.46750513240626" lon="14.313948357534327"><ele>710.2</ele><time>2026-03-22T07:58:52Z</time></trkpt><trkpt lat="37.46739222212594" lon="14.31395004552697"><ele>710.0</ele><time>2026-03-22T07:58:53Z</time></trkpt><trkpt lat="37.46727008778143" lon="14.313944187940228"><ele>710.0</ele><time>2026-03-22T07:58:54Z</time></trkpt><trkpt lat="37.46716052189653" lon="14.313944088961287"><ele>710.0</ele><time>2026-03-22T07:58:55Z</time></trkpt><trkpt lat="37.4670442612896" lon="14.31395936977401"><ele>710.0</ele><time>2026-03-22T07:58:56Z</time></trkpt><trkpt lat="37.46692664355129" lon="14.313981319402844"><ele>710.0</ele><time>2026-03-22T07:58:57Z</time></trkpt><trkpt lat="37.46681043154016" lon="14.313999905137722"><ele>710.0</ele><time>2026-03-22T07:58:58Z</time></trkpt><trkpt lat="37.46670235528603" lon="14.314021077704739"><ele>710.0</ele><time>2026-03-22T07:58:59Z</time></trkpt><trkpt lat="37.46659616380903" lon="14.31403981202389"><ele>710.0</ele><time>2026-03-22T07:59:00Z</time></trkpt><trkpt lat="37.466493491093885" lon="14.314059709679041"><ele>710.0</ele><time>2026-03-22T07:59:01Z</time></trkpt><trkpt lat="37.466391059418264" lon="14.314075596328413"><ele>710.0</ele><time>2026-03-22T07:59:02Z</time></trkpt><trkpt lat="37.46629422711303" lon="14.31408996556131"><ele>710.0</ele><time>2026-03-22T07:59:03Z</time></trkpt><trkpt lat="37.46620231365346" lon="14.31410239704687"><ele>710.0</ele><time>2026-03-22T07:59:04Z</time></trkpt><trkpt lat="37.46611554763106" lon="14.314117371095563"><ele>710.0</ele><time>2026-03-22T07:59:05Z</time></trkpt><trkpt lat="37.466035496584766" lon="14.314137941867948"><ele>710.0</ele><time>2026-03-22T07:59:06Z</time></trkpt><trkpt lat="37.465962225102814" lon="14.314157337069545"><ele>710.0</ele><time>2026-03-22T07:59:07Z</time></trkpt><trkpt lat="37.46588021554254" lon="14.314182474440432"><ele>710.0</ele><time>2026-03-22T07:59:08Z</time></trkpt><trkpt lat="37.46578875032574" lon="14.314201606002946"><ele>710.0</ele><time>2026-03-22T07:59:09Z</time></trkpt><trkpt lat="37.46569593216074" lon="14.314210686660186"><ele>710.0</ele><time>2026-03-22T07:59:10Z</time></trkpt><trkpt lat="37.465613004070775" lon="14.314219291901853"><ele>710.0</ele><time>2026-03-22T07:59:11Z</time></trkpt><trkpt lat="37.465536048410286" lon="14.314228900000689"><ele>710.0</ele><time>2026-03-22T07:59:12Z</time></trkpt><trkpt lat="37.46546695478856" lon="14.314246206282743"><ele>710.0</ele><time>2026-03-22T07:59:13Z</time></trkpt><trkpt lat="37.465375082654866" lon="14.314260395509049"><ele>710.0</ele><time>2026-03-22T07:59:14Z</time></trkpt><trkpt lat="37.4652674763527" lon="14.31425704822997"><ele>708.3333333333333</ele><time>2026-03-22T07:59:15Z</time></trkpt><trkpt lat="37.46516866758092" lon="14.314226410701831"><ele>706.6666666666666</ele><time>2026-03-22T07:59:16Z</time></trkpt><trkpt lat="37.46508535662911" lon="14.31421005657495"><ele>705.0</ele><time>2026-03-22T07:59:17Z</time></trkpt><trkpt lat="37.46501342466315" lon="14.314200397119084"><ele>703.3333333333334</ele><time>2026-03-22T07:59:18Z</time></trkpt><trkpt lat="37.46494988119166" lon="14.314194268957323"><ele>701.6666666666667</ele><time>2026-03-22T07:59:19Z</time></trkpt><trkpt lat="37.46486283944419" lon="14.314165207922649"><ele>700.0</ele><time>2026-03-22T07:59:21Z</time></trkpt><trkpt lat="37.46476476494265" lon="14.31417347342457"><ele>700.0</ele><time>2026-03-22T07:59:23Z</time></trkpt><trkpt lat="37.46466360860117" lon="14.314169288724113"><ele>700.0</ele><time>2026-03-22T07:59:25Z</time></trkpt><trkpt lat="37.464604803503924" lon="14.314199781074873"><ele>700.0</ele><time>2026-03-22T07:59:28Z</time></trkpt><trkpt lat="37.46453263241216" lon="14.314166529566842"><ele>700.0</ele><time>2026-03-22T07:59:30Z</time></trkpt><trkpt lat="37.46442200848535" lon="14.314158304736708"><ele>700.0</ele><time>2026-03-22T07:59:32Z</time></trkpt><trkpt lat="37.46433749493462" lon="14.314155767939932"><ele>700.0</ele><time>2026-03-22T07:59:33Z</time></trkpt><trkpt lat="37.46426123657108" lon="14.314155563572367"><ele>698.8333333333334</ele><time>2026-03-22T07:59:34Z</time></trkpt><trkpt lat="37.464188294221884" lon="14.314158218164367"><ele>697.6666666666667</ele><time>2026-03-22T07:59:35Z</time></trkpt><trkpt lat="37.46411905356599" lon="14.314165849040812"><ele>696.5</ele><time>2026-03-22T07:59:36Z</time></trkpt><trkpt lat="37.464008438910675" lon="14.314200049435652"><ele>695.3333333333334</ele><time>2026-03-22T07:59:38Z</time></trkpt><trkpt lat="37.4639107416053" lon="14.314189936535033"><ele>694.1666666666666</ele><time>2026-03-22T07:59:40Z</time></trkpt><trkpt lat="37.46383224546016" lon="14.314214570699754"><ele>693.0</ele><time>2026-03-22T07:59:42Z</time></trkpt><trkpt lat="37.463756545166106" lon="14.31420260333316"><ele>691.5999999999999</ele><time>2026-03-22T07:59:48Z</time></trkpt><trkpt lat="37.46362688158062" lon="14.314172532571556"><ele>690.1999999999999</ele><time>2026-03-22T07:59:50Z</time></trkpt><trkpt lat="37.463531478027456" lon="14.31417109624631"><ele>688.8</ele><time>2026-03-22T07:59:51Z</time></trkpt><trkpt lat="37.463432882976356" lon="14.314172262408546"><ele>687.4</ele><time>2026-03-22T07:59:52Z</time></trkpt><trkpt lat="37.46334759959348" lon="14.314199924630946"><ele>686.0</ele><time>2026-03-22T07:59:53Z</time></trkpt><trkpt lat="37.46324726283661" lon="14.314202794352301"><ele>686.0</ele><time>2026-03-22T07:59:54Z</time></trkpt><trkpt lat="37.463135714783654" lon="14.314247155539713"><ele>686.0</ele><time>2026-03-22T07:59:55Z</time></trkpt><trkpt lat="37.463001042016025" lon="14.31429187796343"><ele>686.0</ele><time>2026-03-22T07:59:56Z</time></trkpt><trkpt lat="37.46282603794611" lon="14.31429876703363"><ele>686.0</ele><time>2026-03-22T07:59:57Z</time></trkpt><trkpt lat="37.462677274665516" lon="14.31431637869741"><ele>685.0</ele><time>2026-03-22T07:59:58Z</time></trkpt><trkpt lat="37.46254777185674" lon="14.314333344918651"><ele>684.0</ele><time>2026-03-22T07:59:59Z</time></trkpt><trkpt lat="37.462430805709516" lon="14.314349796634009"><ele>683.0</ele><time>2026-03-22T08:00:00Z</time></trkpt><trkpt lat="37.46233840004538" lon="14.314364581858769"><ele>682.0</ele><time>2026-03-22T08:00:01Z</time></trkpt><trkpt lat="37.46226101409978" lon="14.314377806568007"><ele>681.0</ele><time>2026-03-22T08:00:02Z</time></trkpt><trkpt lat="37.46217656457649" lon="14.314408405179156"><ele>681.0</ele><time>2026-03-22T08:00:04Z</time></trkpt><trkpt lat="37.46214775211443" lon="14.314564499900792"><ele>681.0</ele><time>2026-03-22T08:00:06Z</time></trkpt><trkpt lat="37.462162405742816" lon="14.314673606856866"><ele>681.0</ele><time>2026-03-22T08:00:07Z</time></trkpt><trkpt lat="37.46217770039768" lon="14.314765107272747"><ele>681.0</ele><time>2026-03-22T08:00:08Z</time></trkpt><trkpt lat="37.46217951702101" lon="14.314855584419442"><ele>681.0</ele><time>2026-03-22T08:00:09Z</time></trkpt><trkpt lat="37.46219132295206" lon="14.314944325541767"><ele>681.0</ele><time>2026-03-22T08:00:11Z</time></trkpt><trkpt lat="37.46209355302325" lon="14.314952561765539"><ele>681.6666666666666</ele><time>2026-03-22T08:00:14Z</time></trkpt><trkpt lat="37.46202640533633" lon="14.314936203644097"><ele>682.3333333333334</ele><time>2026-03-22T08:00:15Z</time></trkpt><trkpt lat="37.4619573734393" lon="14.31491938649762"><ele>683.0</ele><time>2026-03-22T08:00:16Z</time></trkpt><trkpt lat="37.4618845739967" lon="14.31490165152861"><ele>683.6666666666667</ele><time>2026-03-22T08:00:17Z</time></trkpt><trkpt lat="37.46181887108704" lon="14.314885645373217"><ele>684.3333333333334</ele><time>2026-03-22T08:00:18Z</time></trkpt><trkpt lat="37.46172944175247" lon="14.314879749166328"><ele>685.0</ele><time>2026-03-22T08:00:19Z</time></trkpt><trkpt lat="37.46161954612946" lon="14.314846363625215"><ele>685.0</ele><time>2026-03-22T08:00:20Z</time></trkpt><trkpt lat="37.461489908954036" lon="14.314808036670367"><ele>685.0</ele><time>2026-03-22T08:00:21Z</time></trkpt><trkpt lat="37.461350512144215" lon="14.314767189872372"><ele>685.0</ele><time>2026-03-22T08:00:22Z</time></trkpt><trkpt lat="37.46123081090897" lon="14.31473840561783"><ele>685.0</ele><time>2026-03-22T08:00:23Z</time></trkpt><trkpt lat="37.46111502357937" lon="14.314712716430526"><ele>684.4</ele><time>2026-03-22T08:00:24Z</time></trkpt><trkpt lat="37.461012232754406" lon="14.314676688058919"><ele>683.8</ele><time>2026-03-22T08:00:25Z</time></trkpt><trkpt lat="37.460899628323546" lon="14.314647153441912"><ele>683.2</ele><time>2026-03-22T08:00:26Z</time></trkpt><trkpt lat="37.460799301451466" lon="14.314615752753841"><ele>682.6</ele><time>2026-03-22T08:00:27Z</time></trkpt><trkpt lat="37.46069295536344" lon="14.314561155188684"><ele>682.0</ele><time>2026-03-22T08:00:28Z</time></trkpt><trkpt lat="37.46058618930315" lon="14.314508001189527"><ele>682.0</ele><time>2026-03-22T08:00:29Z</time></trkpt><trkpt lat="37.460480298162096" lon="14.314449792351834"><ele>682.0</ele><time>2026-03-22T08:00:30Z</time></trkpt><trkpt lat="37.46038453836456" lon="14.3143952054906"><ele>682.0</ele><time>2026-03-22T08:00:31Z</time></trkpt><trkpt lat="37.46026531058091" lon="14.314324431362516"><ele>682.0</ele><time>2026-03-22T08:00:39Z</time></trkpt><trkpt lat="37.46018394132406" lon="14.314276734242192"><ele>682.0</ele><time>2026-03-22T08:00:40Z</time></trkpt><trkpt lat="37.46007691240924" lon="14.314213995917537"><ele>683.0</ele><time>2026-03-22T08:00:41Z</time></trkpt><trkpt lat="37.459944566409106" lon="14.314136417187697"><ele>684.0</ele><time>2026-03-22T08:00:42Z</time></trkpt><trkpt lat="37.45982271687683" lon="14.314062370076321"><ele>685.0</ele><time>2026-03-22T08:00:43Z</time></trkpt><trkpt lat="37.45971349977057" lon="14.313993005627701"><ele>686.0</ele><time>2026-03-22T08:00:44Z</time></trkpt><trkpt lat="37.45960346400515" lon="14.313914569085654"><ele>686.0</ele><time>2026-03-22T08:00:45Z</time></trkpt><trkpt lat="37.459526347363074" lon="14.313840634330537"><ele>686.0</ele><time>2026-03-22T08:00:46Z</time></trkpt><trkpt lat="37.459453152176366" lon="14.313763513365917"><ele>686.0</ele><time>2026-03-22T08:00:47Z</time></trkpt><trkpt lat="37.459378323590734" lon="14.313691839191408"><ele>686.0</ele><time>2026-03-22T08:00:49Z</time></trkpt><trkpt lat="37.45929973475969" lon="14.313641703437826"><ele>686.0</ele><time>2026-03-22T08:00:51Z</time></trkpt><trkpt lat="37.45884726590144" lon="14.314084527312385"><ele>686.0</ele><time>2026-03-22T08:00:52Z</time></trkpt><trkpt lat="37.458780399569385" lon="14.31401771246213"><ele>686.0</ele><time>2026-03-22T08:00:55Z</time></trkpt><trkpt lat="37.45870347257988" lon="14.314008954991579"><ele>686.0</ele><time>2026-03-22T08:00:56Z</time></trkpt><trkpt lat="37.458621280277576" lon="14.313989314836462"><ele>686.0</ele><time>2026-03-22T08:00:57Z</time></trkpt><trkpt lat="37.458724031388684" lon="14.314008954311959"><ele>686.0</ele><time>2026-03-22T08:01:07Z</time></trkpt><trkpt lat="37.458787189217965" lon="14.314080772384607"><ele>686.0</ele><time>2026-03-22T08:01:09Z</time></trkpt><trkpt lat="37.45880732179126" lon="14.31392843726094"><ele>687.4</ele><time>2026-03-22T08:02:52Z</time></trkpt><trkpt lat="37.458769112758844" lon="14.313841042487942"><ele>688.8</ele><time>2026-03-22T08:02:53Z</time></trkpt><trkpt lat="37.45870773045085" lon="14.313720052603095"><ele>690.1999999999999</ele><time>2026-03-22T08:02:54Z</time></trkpt><trkpt lat="37.45864628919983" lon="14.313602670602474"><ele>691.5999999999999</ele><time>2026-03-22T08:02:55Z</time></trkpt><trkpt lat="37.45858770933317" lon="14.31349561423444"><ele>693.0</ele><time>2026-03-22T08:02:56Z</time></trkpt><trkpt lat="37.45853044527866" lon="14.313370252648838"><ele>693.0</ele><time>2026-03-22T08:02:57Z</time></trkpt><trkpt lat="37.45848502261739" lon="14.313244829047509"><ele>693.0</ele><time>2026-03-22T08:02:58Z</time></trkpt><trkpt lat="37.45844923749912" lon="14.313124299163166"><ele>693.0</ele><time>2026-03-22T08:02:59Z</time></trkpt><trkpt lat="37.458413383442526" lon="14.313026510942787"><ele>693.0</ele><time>2026-03-22T08:03:00Z</time></trkpt><trkpt lat="37.45836452194001" lon="14.312936275937385"><ele>693.0</ele><time>2026-03-22T08:03:01Z</time></trkpt><trkpt lat="37.45830152793631" lon="14.312859202486745"><ele>691.0</ele><time>2026-03-22T08:03:02Z</time></trkpt><trkpt lat="37.458208870969266" lon="14.312776339379544"><ele>689.0</ele><time>2026-03-22T08:03:04Z</time></trkpt><trkpt lat="37.45814482658483" lon="14.312775383864281"><ele>687.0</ele><time>2026-03-22T08:03:07Z</time></trkpt><trkpt lat="37.45807584755356" lon="14.312807325941842"><ele>685.0</ele><time>2026-03-22T08:03:10Z</time></trkpt><trkpt lat="37.45799543518809" lon="14.312804408990473"><ele>683.0</ele><time>2026-03-22T08:03:12Z</time></trkpt><trkpt lat="37.45790148819714" lon="14.312714505937661"><ele>683.0</ele><time>2026-03-22T08:03:14Z</time></trkpt><trkpt lat="37.45781299460157" lon="14.312654588554915"><ele>683.0</ele><time>2026-03-22T08:03:16Z</time></trkpt><trkpt lat="37.457693379615584" lon="14.312702626548182"><ele>683.0</ele><time>2026-03-22T08:03:18Z</time></trkpt><trkpt lat="37.457622376025306" lon="14.312735458147316"><ele>683.0</ele><time>2026-03-22T08:03:19Z</time></trkpt><trkpt lat="37.457557331715016" lon="14.312802166511096"><ele>683.0</ele><time>2026-03-22T08:03:20Z</time></trkpt><trkpt lat="37.45748962081452" lon="14.31288928904169"><ele>683.0</ele><time>2026-03-22T08:03:21Z</time></trkpt><trkpt lat="37.45742767252035" lon="14.312992582405627"><ele>683.0</ele><time>2026-03-22T08:03:22Z</time></trkpt><trkpt lat="37.45737332138294" lon="14.313086316854951"><ele>683.0</ele><time>2026-03-22T08:03:23Z</time></trkpt><trkpt lat="37.45732504837839" lon="14.313165816475797"><ele>683.0</ele><time>2026-03-22T08:03:24Z</time></trkpt><trkpt lat="37.45724953434828" lon="14.31324430222015"><ele>683.0</ele><time>2026-03-22T08:03:26Z</time></trkpt><trkpt lat="37.45715451866611" lon="14.313255423730439"><ele>682.1666666666666</ele><time>2026-03-22T08:03:28Z</time></trkpt><trkpt lat="37.45703874884796" lon="14.313259731693169"><ele>681.3333333333333</ele><time>2026-03-22T08:03:30Z</time></trkpt><trkpt lat="37.456975282432204" lon="14.313223861798708"><ele>680.5</ele><time>2026-03-22T08:03:31Z</time></trkpt><trkpt lat="37.456903893946574" lon="14.313169020003217"><ele>679.6666666666666</ele><time>2026-03-22T08:03:32Z</time></trkpt><trkpt lat="37.45683593859377" lon="14.313112220201639"><ele>678.8333333333334</ele><time>2026-03-22T08:03:33Z</time></trkpt><trkpt lat="37.45677431045786" lon="14.313067624651458"><ele>678.0</ele><time>2026-03-22T08:03:34Z</time></trkpt><trkpt lat="37.45670885020322" lon="14.313022966211113"><ele>678.0</ele><time>2026-03-22T08:03:35Z</time></trkpt><trkpt lat="37.45662903470613" lon="14.312984704037122"><ele>678.0</ele><time>2026-03-22T08:03:36Z</time></trkpt><trkpt lat="37.45655365693012" lon="14.312950708900098"><ele>678.0</ele><time>2026-03-22T08:03:37Z</time></trkpt><trkpt lat="37.456501903319094" lon="14.312905446919695"><ele>678.0</ele><time>2026-03-22T08:03:38Z</time></trkpt><trkpt lat="37.45645488708876" lon="14.312843121172547"><ele>678.0</ele><time>2026-03-22T08:03:39Z</time></trkpt><trkpt lat="37.45641086062482" lon="14.312774619611616"><ele>678.0</ele><time>2026-03-22T08:03:40Z</time></trkpt><trkpt lat="37.456357891619604" lon="14.312665225327546"><ele>678.0</ele><time>2026-03-22T08:03:41Z</time></trkpt><trkpt lat="37.45631148759917" lon="14.312561109150186"><ele>678.0</ele><time>2026-03-22T08:03:42Z</time></trkpt><trkpt lat="37.45625993012992" lon="14.312444707164465"><ele>678.0</ele><time>2026-03-22T08:03:43Z</time></trkpt><trkpt lat="37.45621516299832" lon="14.312342623796875"><ele>678.0</ele><time>2026-03-22T08:03:44Z</time></trkpt><trkpt lat="37.45618263034267" lon="14.312219874851337"><ele>678.0</ele><time>2026-03-22T08:03:45Z</time></trkpt><trkpt lat="37.45615515785531" lon="14.312128491639845"><ele>679.0</ele><time>2026-03-22T08:03:46Z</time></trkpt><trkpt lat="37.456121625990555" lon="14.312028491888356"><ele>680.0</ele><time>2026-03-22T08:03:47Z</time></trkpt><trkpt lat="37.45608088989641" lon="14.311938539214026"><ele>681.0</ele><time>2026-03-22T08:03:48Z</time></trkpt><trkpt lat="37.456031604828944" lon="14.311875041756197"><ele>682.0</ele><time>2026-03-22T08:03:49Z</time></trkpt><trkpt lat="37.45593265775849" lon="14.311762557057499"><ele>683.0</ele><time>2026-03-22T08:03:51Z</time></trkpt><trkpt lat="37.45586655900803" lon="14.311698867272119"><ele>683.0</ele><time>2026-03-22T08:03:52Z</time></trkpt><trkpt lat="37.45578285950622" lon="14.311639582048334"><ele>683.0</ele><time>2026-03-22T08:03:53Z</time></trkpt><trkpt lat="37.455687295722605" lon="14.311601810796946"><ele>683.0</ele><time>2026-03-22T08:03:54Z</time></trkpt><trkpt lat="37.455588515722894" lon="14.31158688298793"><ele>683.0</ele><time>2026-03-22T08:03:55Z</time></trkpt><trkpt lat="37.45547662131097" lon="14.31157557043449"><ele>683.0</ele><time>2026-03-22T08:03:56Z</time></trkpt><trkpt lat="37.45537179609601" lon="14.311567676410405"><ele>684.0</ele><time>2026-03-22T08:03:57Z</time></trkpt><trkpt lat="37.45528055498788" lon="14.311551320622087"><ele>685.0</ele><time>2026-03-22T08:03:58Z</time></trkpt><trkpt lat="37.455195577180405" lon="14.31153588578451"><ele>686.0</ele><time>2026-03-22T08:03:59Z</time></trkpt><trkpt lat="37.45510507381954" lon="14.311486057071269"><ele>687.0</ele><time>2026-03-22T08:04:00Z</time></trkpt><trkpt lat="37.45502302746002" lon="14.311446892726524"><ele>688.0</ele><time>2026-03-22T08:04:01Z</time></trkpt><trkpt lat="37.45493832621944" lon="14.311416559189906"><ele>686.0</ele><time>2026-03-22T08:04:02Z</time></trkpt><trkpt lat="37.454847443994375" lon="14.311386113546183"><ele>684.0</ele><time>2026-03-22T08:04:03Z</time></trkpt><trkpt lat="37.454749529007415" lon="14.311359309715673"><ele>682.0</ele><time>2026-03-22T08:04:04Z</time></trkpt><trkpt lat="37.454642521669975" lon="14.31134678948123"><ele>680.0</ele><time>2026-03-22T08:04:05Z</time></trkpt><trkpt lat="37.454546050061374" lon="14.31135068148337"><ele>678.0</ele><time>2026-03-22T08:04:06Z</time></trkpt><trkpt lat="37.454445271058354" lon="14.311346546829393"><ele>678.0</ele><time>2026-03-22T08:04:07Z</time></trkpt><trkpt lat="37.45435626524006" lon="14.311332878183284"><ele>678.0</ele><time>2026-03-22T08:04:08Z</time></trkpt><trkpt lat="37.454263586752894" lon="14.311317625557708"><ele>678.0</ele><time>2026-03-22T08:04:09Z</time></trkpt><trkpt lat="37.454166978985796" lon="14.31130026507354"><ele>678.0</ele><time>2026-03-22T08:04:10Z</time></trkpt><trkpt lat="37.45407066266153" lon="14.311274160757282"><ele>678.0</ele><time>2026-03-22T08:04:11Z</time></trkpt><trkpt lat="37.45396993297134" lon="14.311252802537675"><ele>678.0</ele><time>2026-03-22T08:04:12Z</time></trkpt><trkpt lat="37.45387493835367" lon="14.311232381088814"><ele>678.0</ele><time>2026-03-22T08:04:13Z</time></trkpt><trkpt lat="37.4537704617363" lon="14.311209704192905"><ele>678.0</ele><time>2026-03-22T08:04:14Z</time></trkpt><trkpt lat="37.45366249473789" lon="14.31119697793241"><ele>678.0</ele><time>2026-03-22T08:04:15Z</time></trkpt><trkpt lat="37.45356883800097" lon="14.311182001131739"><ele>678.0</ele><time>2026-03-22T08:04:16Z</time></trkpt><trkpt lat="37.45348201356154" lon="14.311167940678558"><ele>678.3333333333334</ele><time>2026-03-22T08:04:17Z</time></trkpt><trkpt lat="37.453399894832614" lon="14.311162885393019"><ele>678.6666666666666</ele><time>2026-03-22T08:04:18Z</time></trkpt><trkpt lat="37.45331119112678" lon="14.311156843697466"><ele>679.0</ele><time>2026-03-22T08:04:19Z</time></trkpt><trkpt lat="37.4532296655367" lon="14.311183213191619"><ele>679.3333333333333</ele><time>2026-03-22T08:04:20Z</time></trkpt><trkpt lat="37.45316542369102" lon="14.311141165300803"><ele>679.6666666666666</ele><time>2026-03-22T08:04:21Z</time></trkpt><trkpt lat="37.453105045519564" lon="14.31111312782424"><ele>680.0</ele><time>2026-03-22T08:04:22Z</time></trkpt><trkpt lat="37.4530454230949" lon="14.311064669358364"><ele>680.0</ele><time>2026-03-22T08:04:24Z</time></trkpt><trkpt lat="37.45298419140979" lon="14.311021447570033"><ele>680.0</ele><time>2026-03-22T08:04:26Z</time></trkpt><trkpt lat="37.452887618403665" lon="14.310939066459369"><ele>680.0</ele><time>2026-03-22T08:04:28Z</time></trkpt><trkpt lat="37.45282253905224" lon="14.3108909603404"><ele>680.0</ele><time>2026-03-22T08:04:29Z</time></trkpt><trkpt lat="37.452761052450384" lon="14.31085465459678"><ele>680.0</ele><time>2026-03-22T08:04:30Z</time></trkpt><trkpt lat="37.452670488128994" lon="14.310795651278362"><ele>680.0</ele><time>2026-03-22T08:04:32Z</time></trkpt><trkpt lat="37.45262824453053" lon="14.310735639982214"><ele>677.5</ele><time>2026-03-22T08:04:34Z</time></trkpt><trkpt lat="37.45258666821406" lon="14.31067257001764"><ele>675.0</ele><time>2026-03-22T08:04:37Z</time></trkpt><trkpt lat="37.45254506130852" lon="14.310607025188094"><ele>672.5</ele><time>2026-03-22T08:04:40Z</time></trkpt><trkpt lat="37.45249886205122" lon="14.310539011774377"><ele>670.0</ele><time>2026-03-22T08:04:42Z</time></trkpt><trkpt lat="37.45244914156026" lon="14.310438599472961"><ele>667.5</ele><time>2026-03-22T08:04:44Z</time></trkpt><trkpt lat="37.45237769812004" lon="14.310343558082247"><ele>665.0</ele><time>2026-03-22T08:04:46Z</time></trkpt><trkpt lat="37.45228918282881" lon="14.310251366299862"><ele>665.0</ele><time>2026-03-22T08:04:48Z</time></trkpt><trkpt lat="37.45219735380651" lon="14.310178892084625"><ele>665.0</ele><time>2026-03-22T08:04:50Z</time></trkpt><trkpt lat="37.45210412738423" lon="14.310092613814366"><ele>665.0</ele><time>2026-03-22T08:04:52Z</time></trkpt><trkpt lat="37.4520438315205" lon="14.310031561337423"><ele>665.0</ele><time>2026-03-22T08:04:53Z</time></trkpt><trkpt lat="37.45195533487984" lon="14.309961090271651"><ele>665.0</ele><time>2026-03-22T08:04:54Z</time></trkpt><trkpt lat="37.45185669986949" lon="14.309872078784085"><ele>661.8</ele><time>2026-03-22T08:04:55Z</time></trkpt><trkpt lat="37.4517691274045" lon="14.30979255162464"><ele>658.6</ele><time>2026-03-22T08:04:56Z</time></trkpt><trkpt lat="37.45166799197536" lon="14.309700060534192"><ele>655.4000000000001</ele><time>2026-03-22T08:04:57Z</time></trkpt><trkpt lat="37.45157435134404" lon="14.309622085094741"><ele>652.2</ele><time>2026-03-22T08:04:58Z</time></trkpt><trkpt lat="37.45149103299695" lon="14.309552880786953"><ele>649.0</ele><time>2026-03-22T08:04:59Z</time></trkpt><trkpt lat="37.45141365980021" lon="14.309488553192155"><ele>648.6666666666667</ele><time>2026-03-22T08:05:00Z</time></trkpt><trkpt lat="37.45133415685988" lon="14.309442901056807"><ele>648.3333333333334</ele><time>2026-03-22T08:05:01Z</time></trkpt><trkpt lat="37.45125804733813" lon="14.3093938855323"><ele>648.0</ele><time>2026-03-22T08:05:02Z</time></trkpt><trkpt lat="37.451187738927274" lon="14.309339184453544"><ele>647.6666666666666</ele><time>2026-03-22T08:05:03Z</time></trkpt><trkpt lat="37.451104682083205" lon="14.309296510231402"><ele>647.3333333333333</ele><time>2026-03-22T08:05:04Z</time></trkpt><trkpt lat="37.451024016547464" lon="14.309264558230693"><ele>647.0</ele><time>2026-03-22T08:05:05Z</time></trkpt><trkpt lat="37.45095627876863" lon="14.309227142936251"><ele>645.6666666666666</ele><time>2026-03-22T08:05:06Z</time></trkpt><trkpt lat="37.450894661466066" lon="14.309182125692725"><ele>644.3333333333333</ele><time>2026-03-22T08:05:07Z</time></trkpt><trkpt lat="37.45078814288286" lon="14.309120081886778"><ele>643.0</ele><time>2026-03-22T08:05:09Z</time></trkpt><trkpt lat="37.450715648165854" lon="14.309047418508351"><ele>641.6666666666666</ele><time>2026-03-22T08:05:11Z</time></trkpt><trkpt lat="37.45064869693775" lon="14.308980296695928"><ele>640.3333333333334</ele><time>2026-03-22T08:05:13Z</time></trkpt><trkpt lat="37.45058230216899" lon="14.308987842995924"><ele>639.0</ele><time>2026-03-22T08:05:16Z</time></trkpt><trkpt lat="37.45052379317412" lon="14.308954847288808"><ele>637.5</ele><time>2026-03-22T08:05:19Z</time></trkpt><trkpt lat="37.45045136311137" lon="14.308926703049325"><ele>636.0</ele><time>2026-03-22T08:05:22Z</time></trkpt><trkpt lat="37.45036034065626" lon="14.308923730285949"><ele>634.5</ele><time>2026-03-22T08:05:25Z</time></trkpt><trkpt lat="37.450273988288835" lon="14.308904335006678"><ele>633.0</ele><time>2026-03-22T08:05:27Z</time></trkpt><trkpt lat="37.45017276484774" lon="14.308911378659777"><ele>631.5</ele><time>2026-03-22T08:05:29Z</time></trkpt><trkpt lat="37.45009883254839" lon="14.308919926875395"><ele>630.0</ele><time>2026-03-22T08:05:31Z</time></trkpt><trkpt lat="37.45002220925362" lon="14.308908506997192"><ele>630.0</ele><time>2026-03-22T08:05:34Z</time></trkpt><trkpt lat="37.44993457185272" lon="14.308870878596734"><ele>630.0</ele><time>2026-03-22T08:05:36Z</time></trkpt><trkpt lat="37.44984374851639" lon="14.308869385683405"><ele>630.0</ele><time>2026-03-22T08:05:38Z</time></trkpt><trkpt lat="37.449757393536494" lon="14.308859867355068"><ele>630.0</ele><time>2026-03-22T08:05:40Z</time></trkpt><trkpt lat="37.44961930861568" lon="14.30883999157731"><ele>630.0</ele><time>2026-03-22T08:05:42Z</time></trkpt><trkpt lat="37.44952979178561" lon="14.308838476179295"><ele>627.2</ele><time>2026-03-22T08:05:43Z</time></trkpt><trkpt lat="37.44943139567935" lon="14.308840730302652"><ele>624.4</ele><time>2026-03-22T08:05:44Z</time></trkpt><trkpt lat="37.44931893445619" lon="14.308851086772354"><ele>621.6</ele><time>2026-03-22T08:05:45Z</time></trkpt><trkpt lat="37.449221854159255" lon="14.308863207076957"><ele>618.8</ele><time>2026-03-22T08:05:46Z</time></trkpt><trkpt lat="37.44913258839026" lon="14.308870243400373"><ele>616.0</ele><time>2026-03-22T08:05:47Z</time></trkpt><trkpt lat="37.44904830294091" lon="14.308879863304057"><ele>616.0</ele><time>2026-03-22T08:05:48Z</time></trkpt><trkpt lat="37.44898025376519" lon="14.308891896742898"><ele>616.0</ele><time>2026-03-22T08:05:49Z</time></trkpt><trkpt lat="37.44889609776858" lon="14.308918224439749"><ele>616.0</ele><time>2026-03-22T08:05:51Z</time></trkpt><trkpt lat="37.44884173666702" lon="14.30896379905257"><ele>616.0</ele><time>2026-03-22T08:05:53Z</time></trkpt><trkpt lat="37.448768134444215" lon="14.308993173895287"><ele>616.0</ele><time>2026-03-22T08:05:56Z</time></trkpt><trkpt lat="37.448695471000114" lon="14.309011589434919"><ele>616.0</ele><time>2026-03-22T08:05:59Z</time></trkpt><trkpt lat="37.448621792661385" lon="14.309041330336152"><ele>616.0</ele><time>2026-03-22T08:06:02Z</time></trkpt><trkpt lat="37.44855197815765" lon="14.309063496411596"><ele>613.4</ele><time>2026-03-22T08:06:05Z</time></trkpt><trkpt lat="37.44846904674342" lon="14.309089572931011"><ele>610.8</ele><time>2026-03-22T08:06:10Z</time></trkpt><trkpt lat="37.44840130709564" lon="14.309092649914877"><ele>608.1999999999999</ele><time>2026-03-22T08:06:12Z</time></trkpt><trkpt lat="37.448290916709" lon="14.309087876527716"><ele>605.6</ele><time>2026-03-22T08:06:14Z</time></trkpt><trkpt lat="37.44816747890896" lon="14.309121990888292"><ele>603.0</ele><time>2026-03-22T08:06:16Z</time></trkpt><trkpt lat="37.44810650089672" lon="14.309147202291028"><ele>603.0</ele><time>2026-03-22T08:06:17Z</time></trkpt><trkpt lat="37.4479761853884" lon="14.309186363950841"><ele>603.0</ele><time>2026-03-22T08:06:19Z</time></trkpt><trkpt lat="37.447909749265754" lon="14.309214052294482"><ele>603.0</ele><time>2026-03-22T08:06:20Z</time></trkpt><trkpt lat="37.44782983229969" lon="14.309242516716946"><ele>603.0</ele><time>2026-03-22T08:06:21Z</time></trkpt><trkpt lat="37.447743787723915" lon="14.309265064503018"><ele>603.0</ele><time>2026-03-22T08:06:22Z</time></trkpt><trkpt lat="37.44764902463557" lon="14.309294938922985"><ele>601.6666666666666</ele><time>2026-03-22T08:06:23Z</time></trkpt><trkpt lat="37.44756121324595" lon="14.309319902543319"><ele>600.3333333333334</ele><time>2026-03-22T08:06:24Z</time></trkpt><trkpt lat="37.44748931728043" lon="14.309356222393516"><ele>599.0</ele><time>2026-03-22T08:06:25Z</time></trkpt><trkpt lat="37.44741493204395" lon="14.309378346770725"><ele>597.6666666666667</ele><time>2026-03-22T08:06:26Z</time></trkpt><trkpt lat="37.447345434397555" lon="14.30941071346223"><ele>596.3333333333334</ele><time>2026-03-22T08:06:27Z</time></trkpt><trkpt lat="37.447256241417634" lon="14.309443153358144"><ele>595.0</ele><time>2026-03-22T08:06:28Z</time></trkpt><trkpt lat="37.447170566428255" lon="14.309452359830429"><ele>594.3333333333334</ele><time>2026-03-22T08:06:29Z</time></trkpt><trkpt lat="37.4470971421893" lon="14.309468167756988"><ele>593.6666666666667</ele><time>2026-03-22T08:06:30Z</time></trkpt><trkpt lat="37.44701077428833" lon="14.309521455989715"><ele>593.0</ele><time>2026-03-22T08:06:32Z</time></trkpt><trkpt lat="37.446964658494274" lon="14.309594767795355"><ele>592.3333333333334</ele><time>2026-03-22T08:06:34Z</time></trkpt><trkpt lat="37.446967748571076" lon="14.309747467204696"><ele>591.6666666666666</ele><time>2026-03-22T08:06:36Z</time></trkpt><trkpt lat="37.44698542281606" lon="14.309833108154576"><ele>591.0</ele><time>2026-03-22T08:06:37Z</time></trkpt><trkpt lat="37.447002341692894" lon="14.309916451058497"><ele>590.5</ele><time>2026-03-22T08:06:38Z</time></trkpt><trkpt lat="37.44701985360697" lon="14.309999384902307"><ele>590.0</ele><time>2026-03-22T08:06:39Z</time></trkpt><trkpt lat="37.44702560436739" lon="14.310093418712702"><ele>589.5</ele><time>2026-03-22T08:06:40Z</time></trkpt><trkpt lat="37.44703735727498" lon="14.310235464248395"><ele>589.0</ele><time>2026-03-22T08:06:42Z</time></trkpt><trkpt lat="37.44704550216318" lon="14.310340851790206"><ele>588.5</ele><time>2026-03-22T08:06:44Z</time></trkpt><trkpt lat="37.44705720983722" lon="14.310448175367558"><ele>588.0</ele><time>2026-03-22T08:06:47Z</time></trkpt><trkpt lat="37.44706987707809" lon="14.31053984740883"><ele>589.1999999999999</ele><time>2026-03-22T08:06:51Z</time></trkpt><trkpt lat="37.44707539113653" lon="14.31063330780523"><ele>590.4</ele><time>2026-03-22T08:06:54Z</time></trkpt><trkpt lat="37.4470645054607" lon="14.310723847929339"><ele>591.5999999999999</ele><time>2026-03-22T08:07:33Z</time></trkpt><trkpt lat="37.44705752511405" lon="14.310833575019425"><ele>592.8</ele><time>2026-03-22T08:07:37Z</time></trkpt><trkpt lat="37.447079781798536" lon="14.310976623755097"><ele>594.0</ele><time>2026-03-22T08:07:39Z</time></trkpt><trkpt lat="37.44710973681803" lon="14.311154477416563"><ele>596.5</ele><time>2026-03-22T08:07:41Z</time></trkpt><trkpt lat="37.447128210523864" lon="14.311251100461826"><ele>599.0</ele><time>2026-03-22T08:07:42Z</time></trkpt><trkpt lat="37.44714639014427" lon="14.311330719317391"><ele>601.5</ele><time>2026-03-22T08:07:43Z</time></trkpt><trkpt lat="37.44715884123466" lon="14.31141556770574"><ele>604.0</ele><time>2026-03-22T08:07:44Z</time></trkpt><trkpt lat="37.4471651938014" lon="14.311496342937055"><ele>606.5</ele><time>2026-03-22T08:07:45Z</time></trkpt><trkpt lat="37.44717161692934" lon="14.311641242157414"><ele>609.0</ele><time>2026-03-22T08:07:47Z</time></trkpt><trkpt lat="37.447181327930636" lon="14.311724702090327"><ele>608.8</ele><time>2026-03-22T08:07:48Z</time></trkpt><trkpt lat="37.44719807268436" lon="14.311881015931297"><ele>608.5999999999999</ele><time>2026-03-22T08:07:50Z</time></trkpt><trkpt lat="37.447200626790455" lon="14.311970766128974"><ele>608.4</ele><time>2026-03-22T08:07:51Z</time></trkpt><trkpt lat="37.44720955841908" lon="14.312068595920453"><ele>608.1999999999999</ele><time>2026-03-22T08:07:52Z</time></trkpt><trkpt lat="37.44722055571413" lon="14.312153527449725"><ele>608.0</ele><time>2026-03-22T08:07:53Z</time></trkpt><trkpt lat="37.44723508010685" lon="14.31229509211882"><ele>608.0</ele><time>2026-03-22T08:07:55Z</time></trkpt><trkpt lat="37.447261630657685" lon="14.312423822705126"><ele>608.0</ele><time>2026-03-22T08:07:57Z</time></trkpt><trkpt lat="37.44727759625717" lon="14.31250199385094"><ele>608.0</ele><time>2026-03-22T08:07:58Z</time></trkpt><trkpt lat="37.447303666590315" lon="14.312602611177379"><ele>608.0</ele><time>2026-03-22T08:08:00Z</time></trkpt><trkpt lat="37.447257535141894" lon="14.312456393722986"><ele>608.0</ele><time>2026-03-22T08:09:22Z</time></trkpt><trkpt lat="37.44723775143815" lon="14.312346704007835"><ele>608.0</ele><time>2026-03-22T08:09:23Z</time></trkpt><trkpt lat="37.447224626346234" lon="14.312246508554693"><ele>608.0</ele><time>2026-03-22T08:09:24Z</time></trkpt><trkpt lat="37.447202702336185" lon="14.312150028343321"><ele>608.0</ele><time>2026-03-22T08:09:25Z</time></trkpt><trkpt lat="37.447196254172496" lon="14.31206528257613"><ele>608.0</ele><time>2026-03-22T08:09:26Z</time></trkpt><trkpt lat="37.4471886125441" lon="14.31194585642406"><ele>608.0</ele><time>2026-03-22T08:09:27Z</time></trkpt><trkpt lat="37.44717474896258" lon="14.311822536629283"><ele>608.0</ele><time>2026-03-22T08:09:28Z</time></trkpt><trkpt lat="37.447164242491816" lon="14.31170729651635"><ele>608.1999999999999</ele><time>2026-03-22T08:09:29Z</time></trkpt><trkpt lat="37.44716169699283" lon="14.31158734902532"><ele>608.4</ele><time>2026-03-22T08:09:30Z</time></trkpt><trkpt lat="37.44715017169232" lon="14.311460266972313"><ele>608.5999999999999</ele><time>2026-03-22T08:09:31Z</time></trkpt><trkpt lat="37.44713513538656" lon="14.311330805779871"><ele>608.8</ele><time>2026-03-22T08:09:32Z</time></trkpt><trkpt lat="37.447120140936" lon="14.311215197244408"><ele>609.0</ele><time>2026-03-22T08:09:33Z</time></trkpt><trkpt lat="37.44710409179965" lon="14.311107958392489"><ele>606.5</ele><time>2026-03-22T08:09:34Z</time></trkpt><trkpt lat="37.44708895916425" lon="14.311013139137145"><ele>604.0</ele><time>2026-03-22T08:09:35Z</time></trkpt><trkpt lat="37.44707095415773" lon="14.310933228560188"><ele>601.5</ele><time>2026-03-22T08:09:36Z</time></trkpt><trkpt lat="37.44707087004543" lon="14.310790671155901"><ele>599.0</ele><time>2026-03-22T08:09:38Z</time></trkpt><trkpt lat="37.447072283757734" lon="14.310685280970812"><ele>596.5</ele><time>2026-03-22T08:09:40Z</time></trkpt><trkpt lat="37.44707923298419" lon="14.310592246217801"><ele>594.0</ele><time>2026-03-22T08:09:43Z</time></trkpt><trkpt lat="37.44706302447161" lon="14.310514576568307"><ele>593.0</ele><time>2026-03-22T08:09:46Z</time></trkpt><trkpt lat="37.44705203842177" lon="14.310422257705683"><ele>592.0</ele><time>2026-03-22T08:09:49Z</time></trkpt><trkpt lat="37.44705857672072" lon="14.31033228024037"><ele>591.0</ele><time>2026-03-22T08:09:52Z</time></trkpt><trkpt lat="37.44705421196382" lon="14.310230592896007"><ele>590.0</ele><time>2026-03-22T08:09:54Z</time></trkpt><trkpt lat="37.44704534257903" lon="14.310112812896923"><ele>589.0</ele><time>2026-03-22T08:09:56Z</time></trkpt><trkpt lat="37.447026243942105" lon="14.310007500406707"><ele>588.0</ele><time>2026-03-22T08:09:58Z</time></trkpt><trkpt lat="37.446935917223634" lon="14.310017340195031"><ele>588.0</ele><time>2026-03-22T08:10:15Z</time></trkpt><trkpt lat="37.44684598284809" lon="14.309993007840548"><ele>588.0</ele><time>2026-03-22T08:10:18Z</time></trkpt><trkpt lat="37.44684318869394" lon="14.309876824247423"><ele>588.0</ele><time>2026-03-22T08:10:20Z</time></trkpt><trkpt lat="37.446849137501104" lon="14.309793066693999"><ele>588.0</ele><time>2026-03-22T08:10:22Z</time></trkpt><trkpt lat="37.446858022413075" lon="14.309695563407132"><ele>588.0</ele><time>2026-03-22T08:10:24Z</time></trkpt><trkpt lat="37.44686293937189" lon="14.309586189207886"><ele>588.0</ele><time>2026-03-22T08:10:26Z</time></trkpt><trkpt lat="37.446811621987244" lon="14.30951447976648"><ele>588.5</ele><time>2026-03-22T08:10:28Z</time></trkpt><trkpt lat="37.4467531857036" lon="14.309467035468678"><ele>589.0</ele><time>2026-03-22T08:10:30Z</time></trkpt><trkpt lat="37.44671427752038" lon="14.309387487182452"><ele>589.5</ele><time>2026-03-22T08:10:33Z</time></trkpt><trkpt lat="37.4466285123413" lon="14.309425398965882"><ele>590.0</ele><time>2026-03-22T08:10:36Z</time></trkpt><trkpt lat="37.446559658133" lon="14.309420662501488"><ele>590.5</ele><time>2026-03-22T08:10:38Z</time></trkpt><trkpt lat="37.44646561832956" lon="14.309383890578955"><ele>591.0</ele><time>2026-03-22T08:10:40Z</time></trkpt><trkpt lat="37.4463705105769" lon="14.309434064809391"><ele>591.0</ele><time>2026-03-22T08:10:42Z</time></trkpt><trkpt lat="37.44630158106738" lon="14.309442839559427"><ele>591.0</ele><time>2026-03-22T08:10:44Z</time></trkpt><trkpt lat="37.4462205666128" lon="14.30938305095219"><ele>591.0</ele><time>2026-03-22T08:11:16Z</time></trkpt><trkpt lat="37.44613204902599" lon="14.309437705137054"><ele>591.0</ele><time>2026-03-22T08:11:18Z</time></trkpt><trkpt lat="37.44606884125199" lon="14.309479550437286"><ele>591.0</ele><time>2026-03-22T08:11:19Z</time></trkpt><trkpt lat="37.44597065645542" lon="14.309540675369353"><ele>591.0</ele><time>2026-03-22T08:11:21Z</time></trkpt><trkpt lat="37.445876688787756" lon="14.30959873644927"><ele>590.8</ele><time>2026-03-22T08:11:23Z</time></trkpt><trkpt lat="37.445760437796096" lon="14.309629816276015"><ele>590.6</ele><time>2026-03-22T08:11:25Z</time></trkpt><trkpt lat="37.44569460076797" lon="14.3096446103832"><ele>590.4</ele><time>2026-03-22T08:11:26Z</time></trkpt><trkpt lat="37.445618154970035" lon="14.309666958017539"><ele>590.2</ele><time>2026-03-22T08:11:27Z</time></trkpt><trkpt lat="37.4455279474131" lon="14.309693260244176"><ele>590.0</ele><time>2026-03-22T08:11:28Z</time></trkpt><trkpt lat="37.445437201392515" lon="14.309723109221165"><ele>588.0</ele><time>2026-03-22T08:11:29Z</time></trkpt><trkpt lat="37.44534904132422" lon="14.30975061868959"><ele>586.0</ele><time>2026-03-22T08:11:30Z</time></trkpt><trkpt lat="37.445260200614726" lon="14.309784807749246"><ele>584.0</ele><time>2026-03-22T08:11:31Z</time></trkpt><trkpt lat="37.44519001056662" lon="14.309815033571649"><ele>582.0</ele><time>2026-03-22T08:11:32Z</time></trkpt><trkpt lat="37.445120077261556" lon="14.309843935495659"><ele>580.0</ele><time>2026-03-22T08:11:33Z</time></trkpt><trkpt lat="37.445042451455016" lon="14.309875352323765"><ele>578.0</ele><time>2026-03-22T08:11:34Z</time></trkpt><trkpt lat="37.44496602792607" lon="14.309910983612077"><ele>578.0</ele><time>2026-03-22T08:11:35Z</time></trkpt><trkpt lat="37.4448876345809" lon="14.309943864758441"><ele>578.0</ele><time>2026-03-22T08:11:36Z</time></trkpt><trkpt lat="37.44480818331786" lon="14.309971242744357"><ele>578.0</ele><time>2026-03-22T08:11:37Z</time></trkpt><trkpt lat="37.44473562070405" lon="14.309996231060603"><ele>578.0</ele><time>2026-03-22T08:11:38Z</time></trkpt><trkpt lat="37.444656375443586" lon="14.31001886935945"><ele>578.0</ele><time>2026-03-22T08:11:39Z</time></trkpt><trkpt lat="37.44457923244318" lon="14.310039542173113"><ele>578.0</ele><time>2026-03-22T08:11:40Z</time></trkpt><trkpt lat="37.444493711221725" lon="14.31005186142298"><ele>577.6</ele><time>2026-03-22T08:11:41Z</time></trkpt><trkpt lat="37.44440869738104" lon="14.310064351255125"><ele>577.1999999999999</ele><time>2026-03-22T08:11:42Z</time></trkpt><trkpt lat="37.44431846567307" lon="14.31011452911287"><ele>576.8</ele><time>2026-03-22T08:11:44Z</time></trkpt><trkpt lat="37.44424757926396" lon="14.310153921005336"><ele>576.4</ele><time>2026-03-22T08:11:46Z</time></trkpt><trkpt lat="37.44412441265514" lon="14.31027908495106"><ele>576.0</ele><time>2026-03-22T08:11:48Z</time></trkpt><trkpt lat="37.444235822812594" lon="14.310160339189432"><ele>576.0</ele><time>2026-03-22T08:11:49Z</time></trkpt><trkpt lat="37.44418869663613" lon="14.31001213219685"><ele>576.0</ele><time>2026-03-22T08:11:50Z</time></trkpt><trkpt lat="37.444249827447344" lon="14.310066638994114"><ele>576.0</ele><time>2026-03-22T08:12:17Z</time></trkpt><trkpt lat="37.44434843181288" lon="14.310042719156769"><ele>576.0</ele><time>2026-03-22T08:12:19Z</time></trkpt><trkpt lat="37.44442791211912" lon="14.310057620515959"><ele>576.0</ele><time>2026-03-22T08:12:20Z</time></trkpt><trkpt lat="37.444534009842386" lon="14.31005669567989"><ele>576.4</ele><time>2026-03-22T08:12:22Z</time></trkpt><trkpt lat="37.44463253212538" lon="14.310041325128953"><ele>576.8</ele><time>2026-03-22T08:12:24Z</time></trkpt><trkpt lat="37.44473516362854" lon="14.310006408050107"><ele>577.1999999999999</ele><time>2026-03-22T08:12:26Z</time></trkpt><trkpt lat="37.44480246854131" lon="14.309984657766089"><ele>577.6</ele><time>2026-03-22T08:12:27Z</time></trkpt><trkpt lat="37.44487449031611" lon="14.309982847630609"><ele>578.0</ele><time>2026-03-22T08:12:28Z</time></trkpt><trkpt lat="37.44499043602295" lon="14.309937641639925"><ele>578.0</ele><time>2026-03-22T08:12:30Z</time></trkpt><trkpt lat="37.445086648140816" lon="14.309894580067976"><ele>578.0</ele><time>2026-03-22T08:12:32Z</time></trkpt><trkpt lat="37.44515488429307" lon="14.309864039668389"><ele>578.0</ele><time>2026-03-22T08:12:33Z</time></trkpt><trkpt lat="37.445229327014495" lon="14.309835065220266"><ele>578.0</ele><time>2026-03-22T08:12:34Z</time></trkpt><trkpt lat="37.445316529293805" lon="14.309804316192754"><ele>578.0</ele><time>2026-03-22T08:12:35Z</time></trkpt><trkpt lat="37.44541698633761" lon="14.309772315607537"><ele>578.0</ele><time>2026-03-22T08:12:36Z</time></trkpt><trkpt lat="37.445532466276916" lon="14.309736253997452"><ele>580.4</ele><time>2026-03-22T08:12:37Z</time></trkpt><trkpt lat="37.44565725850973" lon="14.309698193287272"><ele>582.8</ele><time>2026-03-22T08:12:38Z</time></trkpt><trkpt lat="37.445767583844585" lon="14.309663564283431"><ele>585.2</ele><time>2026-03-22T08:12:39Z</time></trkpt><trkpt lat="37.445866905643484" lon="14.30961174306245"><ele>587.6</ele><time>2026-03-22T08:12:40Z</time></trkpt><trkpt lat="37.44595793853926" lon="14.309579003071969"><ele>590.0</ele><time>2026-03-22T08:12:41Z</time></trkpt><trkpt lat="37.44604156026051" lon="14.309548981210357"><ele>590.0</ele><time>2026-03-22T08:12:42Z</time></trkpt><trkpt lat="37.44612429379306" lon="14.309508473583232"><ele>590.0</ele><time>2026-03-22T08:12:43Z</time></trkpt><trkpt lat="37.446195594794524" lon="14.30948141671793"><ele>590.0</ele><time>2026-03-22T08:12:44Z</time></trkpt><trkpt lat="37.446267075518975" lon="14.309440136103627"><ele>590.0</ele><time>2026-03-22T08:12:45Z</time></trkpt><trkpt lat="37.44634067196485" lon="14.309385494722664"><ele>590.0</ele><time>2026-03-22T08:12:46Z</time></trkpt><trkpt lat="37.44641920025132" lon="14.30931954369772"><ele>590.0</ele><time>2026-03-22T08:12:47Z</time></trkpt><trkpt lat="37.446487888994774" lon="14.30927883533341"><ele>590.1428571428572</ele><time>2026-03-22T08:12:48Z</time></trkpt><trkpt lat="37.44654567276443" lon="14.309225193418792"><ele>590.2857142857143</ele><time>2026-03-22T08:12:49Z</time></trkpt><trkpt lat="37.44659403666032" lon="14.309168609367779"><ele>590.4285714285714</ele><time>2026-03-22T08:12:50Z</time></trkpt><trkpt lat="37.44664508459343" lon="14.309097211502223"><ele>590.5714285714287</ele><time>2026-03-22T08:12:51Z</time></trkpt><trkpt lat="37.44669120772398" lon="14.30902582477386"><ele>590.7142857142858</ele><time>2026-03-22T08:12:52Z</time></trkpt><trkpt lat="37.446733621371415" lon="14.308947831523996"><ele>590.8571428571429</ele><time>2026-03-22T08:12:53Z</time></trkpt><trkpt lat="37.44677679443491" lon="14.308864079932519"><ele>591.0</ele><time>2026-03-22T08:12:54Z</time></trkpt><trkpt lat="37.4468194263047" lon="14.30877937809259"><ele>593.0</ele><time>2026-03-22T08:12:55Z</time></trkpt><trkpt lat="37.44685676354473" lon="14.308699861881006"><ele>595.0</ele><time>2026-03-22T08:12:56Z</time></trkpt><trkpt lat="37.44689355652863" lon="14.308621504734624"><ele>597.0</ele><time>2026-03-22T08:12:57Z</time></trkpt><trkpt lat="37.44692944169198" lon="14.308545080973545"><ele>599.0</ele><time>2026-03-22T08:12:58Z</time></trkpt><trkpt lat="37.44696858263874" lon="14.308457760196678"><ele>601.0</ele><time>2026-03-22T08:12:59Z</time></trkpt><trkpt lat="37.44698889541856" lon="14.308371246237838"><ele>603.0</ele><time>2026-03-22T08:13:00Z</time></trkpt><trkpt lat="37.447031523753154" lon="14.308278044766332"><ele>603.0</ele><time>2026-03-22T08:13:01Z</time></trkpt><trkpt lat="37.447081383380514" lon="14.308160386819173"><ele>603.0</ele><time>2026-03-22T08:13:02Z</time></trkpt><trkpt lat="37.447139112675565" lon="14.308026622767594"><ele>603.0</ele><time>2026-03-22T08:13:03Z</time></trkpt><trkpt lat="37.44720068984738" lon="14.30789927997609"><ele>603.0</ele><time>2026-03-22T08:13:04Z</time></trkpt><trkpt lat="37.4472398347423" lon="14.307757409431606"><ele>605.1999999999999</ele><time>2026-03-22T08:13:05Z</time></trkpt><trkpt lat="37.447273320255924" lon="14.30760821277789"><ele>607.4</ele><time>2026-03-22T08:13:06Z</time></trkpt><trkpt lat="37.447294180107654" lon="14.307481612981963"><ele>609.5999999999999</ele><time>2026-03-22T08:13:07Z</time></trkpt><trkpt lat="37.44730801115983" lon="14.307363874804652"><ele>611.8</ele><time>2026-03-22T08:13:08Z</time></trkpt><trkpt lat="37.44729762871199" lon="14.307270786390935"><ele>614.0</ele><time>2026-03-22T08:13:09Z</time></trkpt><trkpt lat="37.44729794819832" lon="14.307128388377581"><ele>615.6</ele><time>2026-03-22T08:13:11Z</time></trkpt><trkpt lat="37.44730922780755" lon="14.306995290597524"><ele>617.2</ele><time>2026-03-22T08:13:13Z</time></trkpt><trkpt lat="37.44731752569189" lon="14.306863710179831"><ele>618.8000000000001</ele><time>2026-03-22T08:13:15Z</time></trkpt><trkpt lat="37.44725730006131" lon="14.30693469483379"><ele>620.4</ele><time>2026-03-22T08:13:36Z</time></trkpt><trkpt lat="37.44718159265042" lon="14.306963937890872"><ele>622.0</ele><time>2026-03-22T08:13:38Z</time></trkpt><trkpt lat="37.447091008189794" lon="14.306935176886231"><ele>624.3333333333334</ele><time>2026-03-22T08:13:40Z</time></trkpt><trkpt lat="37.44703217218797" lon="14.306903327982111"><ele>626.6666666666667</ele><time>2026-03-22T08:13:41Z</time></trkpt><trkpt lat="37.44696572509937" lon="14.30688018254643"><ele>629.0</ele><time>2026-03-22T08:13:42Z</time></trkpt><trkpt lat="37.446902022912035" lon="14.306866982271803"><ele>631.3333333333334</ele><time>2026-03-22T08:13:43Z</time></trkpt><trkpt lat="37.446755940167286" lon="14.30687951879442"><ele>633.6666666666666</ele><time>2026-03-22T08:13:45Z</time></trkpt><trkpt lat="37.44667498318072" lon="14.306900639961567"><ele>636.0</ele><time>2026-03-22T08:13:47Z</time></trkpt><trkpt lat="37.44659221334328" lon="14.306912956919026"><ele>636.0</ele><time>2026-03-22T08:13:49Z</time></trkpt><trkpt lat="37.4465044092098" lon="14.306891363266223"><ele>636.0</ele><time>2026-03-22T08:13:51Z</time></trkpt><trkpt lat="37.44640700362768" lon="14.306883646315628"><ele>636.0</ele><time>2026-03-22T08:13:53Z</time></trkpt><trkpt lat="37.44629200328145" lon="14.306843625310734"><ele>636.0</ele><time>2026-03-22T08:13:55Z</time></trkpt><trkpt lat="37.44618871991795" lon="14.306759386708698"><ele>636.0</ele><time>2026-03-22T08:13:57Z</time></trkpt><trkpt lat="37.44618882529236" lon="14.30665258279039"><ele>638.0</ele><time>2026-03-22T08:13:59Z</time></trkpt><trkpt lat="37.446216597069046" lon="14.306526726124234"><ele>640.0</ele><time>2026-03-22T08:14:01Z</time></trkpt><trkpt lat="37.44623271982503" lon="14.306414532326095"><ele>642.0</ele><time>2026-03-22T08:14:03Z</time></trkpt><trkpt lat="37.446280931015394" lon="14.306339047620206"><ele>644.0</ele><time>2026-03-22T08:14:09Z</time></trkpt><trkpt lat="37.44621308365643" lon="14.306284966365304"><ele>646.0</ele><time>2026-03-22T08:14:11Z</time></trkpt><trkpt lat="37.44610560065354" lon="14.306192337499748"><ele>647.3333333333334</ele><time>2026-03-22T08:14:13Z</time></trkpt><trkpt lat="37.446062172699776" lon="14.306116556480744"><ele>648.6666666666667</ele><time>2026-03-22T08:14:14Z</time></trkpt><trkpt lat="37.446009208842035" lon="14.306030360188888"><ele>650.0</ele><time>2026-03-22T08:14:15Z</time></trkpt><trkpt lat="37.445969570871995" lon="14.30593705284493"><ele>651.3333333333334</ele><time>2026-03-22T08:14:16Z</time></trkpt><trkpt lat="37.4459035719255" lon="14.305836296349462"><ele>652.6666666666666</ele><time>2026-03-22T08:14:18Z</time></trkpt><trkpt lat="37.445844318841175" lon="14.305804370141647"><ele>654.0</ele><time>2026-03-22T08:14:20Z</time></trkpt><trkpt lat="37.44576953569173" lon="14.305896091806444"><ele>654.0</ele><time>2026-03-22T08:15:03Z</time></trkpt><trkpt lat="37.445710386646226" lon="14.305970679068002"><ele>654.0</ele><time>2026-03-22T08:15:04Z</time></trkpt><trkpt lat="37.44563105383628" lon="14.306044968403247"><ele>654.0</ele><time>2026-03-22T08:15:05Z</time></trkpt><trkpt lat="37.44552691752933" lon="14.306122077625288"><ele>654.0</ele><time>2026-03-22T08:15:06Z</time></trkpt><trkpt lat="37.44541717579212" lon="14.306199829255844"><ele>654.0</ele><time>2026-03-22T08:15:07Z</time></trkpt><trkpt lat="37.44531506992092" lon="14.306286102233457"><ele>653.3333333333334</ele><time>2026-03-22T08:15:08Z</time></trkpt><trkpt lat="37.44522019735712" lon="14.30635564874678"><ele>652.6666666666666</ele><time>2026-03-22T08:15:09Z</time></trkpt><trkpt lat="37.44514223025434" lon="14.306412484132254"><ele>652.0</ele><time>2026-03-22T08:15:10Z</time></trkpt><trkpt lat="37.44507910310026" lon="14.306454730892643"><ele>651.3333333333333</ele><time>2026-03-22T08:15:11Z</time></trkpt><trkpt lat="37.44497430289622" lon="14.306464679027277"><ele>650.6666666666666</ele><time>2026-03-22T08:15:13Z</time></trkpt><trkpt lat="37.44491508028975" lon="14.306431170370994"><ele>650.0</ele><time>2026-03-22T08:15:14Z</time></trkpt><trkpt lat="37.444897263466565" lon="14.306304796834672"><ele>652.25</ele><time>2026-03-22T08:15:15Z</time></trkpt><trkpt lat="37.44484643510612" lon="14.306188899460958"><ele>654.5</ele><time>2026-03-22T08:15:16Z</time></trkpt><trkpt lat="37.44477298148041" lon="14.306061052201322"><ele>656.75</ele><time>2026-03-22T08:15:17Z</time></trkpt><trkpt lat="37.444667734598674" lon="14.305918995166326"><ele>659.0</ele><time>2026-03-22T08:15:18Z</time></trkpt><trkpt lat="37.44455209292644" lon="14.305756826503673"><ele>662.0</ele><time>2026-03-22T08:15:19Z</time></trkpt><trkpt lat="37.4444199651663" lon="14.305545552287258"><ele>665.0</ele><time>2026-03-22T08:15:20Z</time></trkpt><trkpt lat="37.444333227902234" lon="14.305369833079356"><ele>668.0</ele><time>2026-03-22T08:15:21Z</time></trkpt><trkpt lat="37.444265576921424" lon="14.305260011889334"><ele>668.0</ele><time>2026-03-22T08:15:22Z</time></trkpt><trkpt lat="37.444217322525304" lon="14.305199156747802"><ele>668.0</ele><time>2026-03-22T08:15:23Z</time></trkpt><trkpt lat="37.44418561870786" lon="14.305119747587929"><ele>668.0</ele><time>2026-03-22T08:15:27Z</time></trkpt><trkpt lat="37.444372738339574" lon="14.304925389217876"><ele>668.0</ele><time>2026-03-22T08:15:32Z</time></trkpt><trkpt lat="37.444451252916195" lon="14.304857766822689"><ele>668.0</ele><time>2026-03-22T08:15:33Z</time></trkpt><trkpt lat="37.44454268843577" lon="14.30477147074481"><ele>668.0</ele><time>2026-03-22T08:15:34Z</time></trkpt><trkpt lat="37.444613567692805" lon="14.304680923433848"><ele>668.0</ele><time>2026-03-22T08:15:35Z</time></trkpt><trkpt lat="37.44467747630546" lon="14.304614827676382"><ele>668.0</ele><time>2026-03-22T08:15:36Z</time></trkpt><trkpt lat="37.444755249929514" lon="14.304539209077333"><ele>668.0</ele><time>2026-03-22T08:15:37Z</time></trkpt><trkpt lat="37.44483669954623" lon="14.304445916040919"><ele>666.2</ele><time>2026-03-22T08:15:38Z</time></trkpt><trkpt lat="37.44491239678229" lon="14.304371026425029"><ele>664.4</ele><time>2026-03-22T08:15:39Z</time></trkpt><trkpt lat="37.44499046161227" lon="14.304281958720695"><ele>662.6</ele><time>2026-03-22T08:15:40Z</time></trkpt><trkpt lat="37.44506869412754" lon="14.304195924317332"><ele>660.8000000000001</ele><time>2026-03-22T08:15:41Z</time></trkpt><trkpt lat="37.44513688448126" lon="14.304123659187482"><ele>659.0</ele><time>2026-03-22T08:15:42Z</time></trkpt><trkpt lat="37.44519879873679" lon="14.304058593192405"><ele>659.0</ele><time>2026-03-22T08:15:43Z</time></trkpt><trkpt lat="37.44525617113416" lon="14.303998521959201"><ele>659.0</ele><time>2026-03-22T08:15:44Z</time></trkpt><trkpt lat="37.44530613730276" lon="14.303945331625767"><ele>659.0</ele><time>2026-03-22T08:15:45Z</time></trkpt><trkpt lat="37.44536297050441" lon="14.303891788089471"><ele>659.0</ele><time>2026-03-22T08:15:46Z</time></trkpt><trkpt lat="37.445424670964655" lon="14.303852069294454"><ele>659.0</ele><time>2026-03-22T08:15:47Z</time></trkpt><trkpt lat="37.44549087248474" lon="14.30381297090175"><ele>659.0</ele><time>2026-03-22T08:15:48Z</time></trkpt><trkpt lat="37.4455538374717" lon="14.303780149365547"><ele>659.0</ele><time>2026-03-22T08:15:49Z</time></trkpt><trkpt lat="37.44564855497823" lon="14.303743100087816"><ele>656.3333333333333</ele><time>2026-03-22T08:15:51Z</time></trkpt><trkpt lat="37.44573250020758" lon="14.303729361901683"><ele>653.6666666666666</ele><time>2026-03-22T08:15:53Z</time></trkpt><trkpt lat="37.445806292042214" lon="14.30372100338164"><ele>651.0</ele><time>2026-03-22T08:15:56Z</time></trkpt><trkpt lat="37.44582739037105" lon="14.303634471004713"><ele>648.3333333333334</ele><time>2026-03-22T08:16:01Z</time></trkpt><trkpt lat="37.44576276293688" lon="14.303545636381566"><ele>645.6666666666667</ele><time>2026-03-22T08:16:03Z</time></trkpt><trkpt lat="37.44570323766226" lon="14.30348731402115"><ele>643.0</ele><time>2026-03-22T08:16:04Z</time></trkpt><trkpt lat="37.44564843950854" lon="14.303438899974356"><ele>643.0</ele><time>2026-03-22T08:16:05Z</time></trkpt><trkpt lat="37.44559294947706" lon="14.303384400010575"><ele>643.0</ele><time>2026-03-22T08:16:06Z</time></trkpt><trkpt lat="37.44552223736739" lon="14.303336630042507"><ele>643.0</ele><time>2026-03-22T08:16:07Z</time></trkpt><trkpt lat="37.445454070176446" lon="14.303298806847883"><ele>643.0</ele><time>2026-03-22T08:16:08Z</time></trkpt><trkpt lat="37.44539525580611" lon="14.303267025170069"><ele>643.0</ele><time>2026-03-22T08:16:09Z</time></trkpt><trkpt lat="37.445290290308016" lon="14.303198073573785"><ele>643.0</ele><time>2026-03-22T08:16:11Z</time></trkpt><trkpt lat="37.44523303812939" lon="14.303163396707543"><ele>644.0</ele><time>2026-03-22T08:16:12Z</time></trkpt><trkpt lat="37.445161968415604" lon="14.303040741200093"><ele>645.0</ele><time>2026-03-22T08:16:14Z</time></trkpt><trkpt lat="37.445133464319035" lon="14.302949520958467"><ele>646.0</ele><time>2026-03-22T08:16:15Z</time></trkpt><trkpt lat="37.44510758937397" lon="14.302849853681446"><ele>647.0</ele><time>2026-03-22T08:16:16Z</time></trkpt><trkpt lat="37.44509009261375" lon="14.302758581808062"><ele>648.0</ele><time>2026-03-22T08:16:17Z</time></trkpt><trkpt lat="37.44507153121761" lon="14.302678103524414"><ele>649.0</ele><time>2026-03-22T08:16:18Z</time></trkpt><trkpt lat="37.44505171557368" lon="14.30259443275483"><ele>649.0</ele><time>2026-03-22T08:16:19Z</time></trkpt><trkpt lat="37.4450276514145" lon="14.302491979179427"><ele>649.0</ele><time>2026-03-22T08:16:20Z</time></trkpt><trkpt lat="37.445007747228416" lon="14.30237906624654"><ele>649.0</ele><time>2026-03-22T08:16:21Z</time></trkpt><trkpt lat="37.44498699343667" lon="14.302258868501807"><ele>649.0</ele><time>2026-03-22T08:16:22Z</time></trkpt><trkpt lat="37.444959336750614" lon="14.302142750855703"><ele>649.0</ele><time>2026-03-22T08:16:23Z</time></trkpt><trkpt lat="37.444929325488076" lon="14.302035167340666"><ele>647.4000000000001</ele><time>2026-03-22T08:16:24Z</time></trkpt><trkpt lat="37.44491436425302" lon="14.301928101697458"><ele>645.8</ele><time>2026-03-22T08:16:25Z</time></trkpt><trkpt lat="37.444908437341944" lon="14.301806531130504"><ele>644.2</ele><time>2026-03-22T08:16:26Z</time></trkpt><trkpt lat="37.44489996217536" lon="14.301679442238509"><ele>642.5999999999999</ele><time>2026-03-22T08:16:27Z</time></trkpt><trkpt lat="37.44488638209672" lon="14.301568686391306"><ele>641.0</ele><time>2026-03-22T08:16:28Z</time></trkpt><trkpt lat="37.44487351478471" lon="14.301449231341763"><ele>639.5999999999999</ele><time>2026-03-22T08:16:29Z</time></trkpt><trkpt lat="37.444874650929904" lon="14.301321414411575"><ele>638.1999999999999</ele><time>2026-03-22T08:16:30Z</time></trkpt><trkpt lat="37.44486922210112" lon="14.30119697865893"><ele>636.8</ele><time>2026-03-22T08:16:31Z</time></trkpt><trkpt lat="37.44485388389674" lon="14.301086771634264"><ele>635.4</ele><time>2026-03-22T08:16:32Z</time></trkpt><trkpt lat="37.44482635990454" lon="14.300975136309457"><ele>634.0</ele><time>2026-03-22T08:16:33Z</time></trkpt><trkpt lat="37.444780287829076" lon="14.300875929133552"><ele>634.0</ele><time>2026-03-22T08:16:34Z</time></trkpt><trkpt lat="37.44471615835204" lon="14.3007984343912"><ele>634.0</ele><time>2026-03-22T08:16:35Z</time></trkpt><trkpt lat="37.444626673436844" lon="14.300715040042576"><ele>634.0</ele><time>2026-03-22T08:16:36Z</time></trkpt><trkpt lat="37.44450584287919" lon="14.300621852211966"><ele>634.0</ele><time>2026-03-22T08:16:37Z</time></trkpt><trkpt lat="37.44442059722416" lon="14.300542006004093"><ele>634.0</ele><time>2026-03-22T08:16:38Z</time></trkpt><trkpt lat="37.444364564439134" lon="14.30046537363771"><ele>633.0</ele><time>2026-03-22T08:16:39Z</time></trkpt><trkpt lat="37.44430764889371" lon="14.300376953897095"><ele>632.0</ele><time>2026-03-22T08:16:40Z</time></trkpt><trkpt lat="37.44423916170576" lon="14.300302034578918"><ele>631.0</ele><time>2026-03-22T08:16:41Z</time></trkpt><trkpt lat="37.44417383896121" lon="14.300257874088752"><ele>630.0</ele><time>2026-03-22T08:16:42Z</time></trkpt><trkpt lat="37.44408950453679" lon="14.300231665543023"><ele>629.0</ele><time>2026-03-22T08:16:43Z</time></trkpt><trkpt lat="37.443990977547394" lon="14.300215628814284"><ele>628.0</ele><time>2026-03-22T08:16:44Z</time></trkpt><trkpt lat="37.44389120803091" lon="14.300199746245752"><ele>628.8</ele><time>2026-03-22T08:16:45Z</time></trkpt><trkpt lat="37.443793554735834" lon="14.300177573953594"><ele>629.5999999999999</ele><time>2026-03-22T08:16:46Z</time></trkpt><trkpt lat="37.44369726694375" lon="14.300149866443688"><ele>630.4000000000001</ele><time>2026-03-22T08:16:47Z</time></trkpt><trkpt lat="37.44360134482847" lon="14.300111293251208"><ele>631.2</ele><time>2026-03-22T08:16:48Z</time></trkpt><trkpt lat="37.443512239945065" lon="14.300072184502778"><ele>632.0</ele><time>2026-03-22T08:16:49Z</time></trkpt><trkpt lat="37.443439051225596" lon="14.300050422731076"><ele>632.0</ele><time>2026-03-22T08:16:50Z</time></trkpt><trkpt lat="37.443374174570025" lon="14.300038939352694"><ele>632.0</ele><time>2026-03-22T08:16:51Z</time></trkpt><trkpt lat="37.44326747111258" lon="14.300024555653419"><ele>632.0</ele><time>2026-03-22T08:16:53Z</time></trkpt><trkpt lat="37.44318094255328" lon="14.300039919363606"><ele>632.0</ele><time>2026-03-22T08:16:55Z</time></trkpt><trkpt lat="37.44307435573945" lon="14.300079896644439"><ele>632.0</ele><time>2026-03-22T08:16:57Z</time></trkpt><trkpt lat="37.44296439582814" lon="14.300144842192791"><ele>632.2</ele><time>2026-03-22T08:16:59Z</time></trkpt><trkpt lat="37.44286341697408" lon="14.300208836855836"><ele>632.4000000000001</ele><time>2026-03-22T08:17:01Z</time></trkpt><trkpt lat="37.44277459162073" lon="14.300328536545328"><ele>632.5999999999999</ele><time>2026-03-22T08:17:03Z</time></trkpt><trkpt lat="37.442713956915" lon="14.300414988987942"><ele>632.8</ele><time>2026-03-22T08:17:04Z</time></trkpt><trkpt lat="37.44264767045276" lon="14.30051417828374"><ele>633.0</ele><time>2026-03-22T08:17:05Z</time></trkpt><trkpt lat="37.442564502891166" lon="14.300633819794122"><ele>633.0</ele><time>2026-03-22T08:17:06Z</time></trkpt><trkpt lat="37.44248702160393" lon="14.300741678379735"><ele>633.0</ele><time>2026-03-22T08:17:07Z</time></trkpt><trkpt lat="37.44240496980362" lon="14.30084547444706"><ele>633.0</ele><time>2026-03-22T08:17:08Z</time></trkpt><trkpt lat="37.44232565455084" lon="14.300941626318405"><ele>633.0</ele><time>2026-03-22T08:17:09Z</time></trkpt><trkpt lat="37.442258835248914" lon="14.301009670794445"><ele>633.0</ele><time>2026-03-22T08:17:10Z</time></trkpt><trkpt lat="37.44218925855619" lon="14.30108068188684"><ele>631.1999999999999</ele><time>2026-03-22T08:17:11Z</time></trkpt><trkpt lat="37.44212344165015" lon="14.301146419593042"><ele>629.4</ele><time>2026-03-22T08:17:12Z</time></trkpt><trkpt lat="37.44204210225591" lon="14.301215830325367"><ele>627.5999999999999</ele><time>2026-03-22T08:17:13Z</time></trkpt><trkpt lat="37.441954629423954" lon="14.30128343695296"><ele>625.8</ele><time>2026-03-22T08:17:14Z</time></trkpt><trkpt lat="37.4418681124866" lon="14.301355765611316"><ele>624.0</ele><time>2026-03-22T08:17:15Z</time></trkpt><trkpt lat="37.44177921635019" lon="14.301429183249674"><ele>624.0</ele><time>2026-03-22T08:17:16Z</time></trkpt><trkpt lat="37.4417063627824" lon="14.301492547315252"><ele>624.0</ele><time>2026-03-22T08:17:17Z</time></trkpt><trkpt lat="37.44165184117405" lon="14.301570147093884"><ele>624.0</ele><time>2026-03-22T08:17:18Z</time></trkpt><trkpt lat="37.441619273106994" lon="14.301646730373339"><ele>624.0</ele><time>2026-03-22T08:17:19Z</time></trkpt><trkpt lat="37.44160560868117" lon="14.30172613026709"><ele>624.0</ele><time>2026-03-22T08:17:20Z</time></trkpt><trkpt lat="37.44158820905665" lon="14.301842835532135"><ele>624.0</ele><time>2026-03-22T08:17:21Z</time></trkpt><trkpt lat="37.441569395991586" lon="14.301961099013132"><ele>624.0</ele><time>2026-03-22T08:17:22Z</time></trkpt><trkpt lat="37.44154232306387" lon="14.30207358223729"><ele>624.0</ele><time>2026-03-22T08:17:23Z</time></trkpt><trkpt lat="37.44151753410666" lon="14.30217369427974"><ele>624.0</ele><time>2026-03-22T08:17:24Z</time></trkpt><trkpt lat="37.44150090291326" lon="14.302278958572554"><ele>624.0</ele><time>2026-03-22T08:17:25Z</time></trkpt><trkpt lat="37.44148713187372" lon="14.302405003406015"><ele>624.0</ele><time>2026-03-22T08:17:26Z</time></trkpt><trkpt lat="37.44147149894272" lon="14.302535665536878"><ele>624.3333333333334</ele><time>2026-03-22T08:17:27Z</time></trkpt><trkpt lat="37.44145422166273" lon="14.30265261930914"><ele>624.6666666666666</ele><time>2026-03-22T08:17:28Z</time></trkpt><trkpt lat="37.44143165524253" lon="14.30274888801186"><ele>625.0</ele><time>2026-03-22T08:17:29Z</time></trkpt><trkpt lat="37.4414098417528" lon="14.302836891308523"><ele>625.3333333333333</ele><time>2026-03-22T08:17:30Z</time></trkpt><trkpt lat="37.44136464548893" lon="14.302925738394716"><ele>625.6666666666666</ele><time>2026-03-22T08:17:31Z</time></trkpt><trkpt lat="37.441301687569045" lon="14.303030713185455"><ele>626.0</ele><time>2026-03-22T08:17:32Z</time></trkpt><trkpt lat="37.441234643166226" lon="14.303139145978836"><ele>623.5</ele><time>2026-03-22T08:17:33Z</time></trkpt><trkpt lat="37.44118567000423" lon="14.303241033187904"><ele>621.0</ele><time>2026-03-22T08:17:34Z</time></trkpt><trkpt lat="37.44112955466383" lon="14.303319999754708"><ele>618.5</ele><time>2026-03-22T08:17:35Z</time></trkpt><trkpt lat="37.441054563142984" lon="14.30337475571354"><ele>616.0</ele><time>2026-03-22T08:17:36Z</time></trkpt><trkpt lat="37.44099387495439" lon="14.30341175416409"><ele>613.5</ele><time>2026-03-22T08:17:37Z</time></trkpt><trkpt lat="37.44093983604031" lon="14.303458014518563"><ele>611.0</ele><time>2026-03-22T08:17:38Z</time></trkpt><trkpt lat="37.44088116711802" lon="14.303500306117886"><ele>611.0</ele><time>2026-03-22T08:17:39Z</time></trkpt><trkpt lat="37.440792197938194" lon="14.303512968389727"><ele>611.0</ele><time>2026-03-22T08:17:41Z</time></trkpt><trkpt lat="37.44067647809687" lon="14.303534990295491"><ele>611.0</ele><time>2026-03-22T08:17:43Z</time></trkpt><trkpt lat="37.44060396052852" lon="14.303556551533141"><ele>611.0</ele><time>2026-03-22T08:17:44Z</time></trkpt><trkpt lat="37.440535689224" lon="14.303570620097851"><ele>611.0</ele><time>2026-03-22T08:17:45Z</time></trkpt><trkpt lat="37.4404704885701" lon="14.303585078932992"><ele>611.0</ele><time>2026-03-22T08:17:46Z</time></trkpt><trkpt lat="37.44035993606501" lon="14.303607875975178"><ele>609.8333333333333</ele><time>2026-03-22T08:17:48Z</time></trkpt><trkpt lat="37.440296528186884" lon="14.303633061721177"><ele>608.6666666666666</ele><time>2026-03-22T08:17:50Z</time></trkpt><trkpt lat="37.440203642612545" lon="14.30366194460404"><ele>607.5</ele><time>2026-03-22T08:17:53Z</time></trkpt><trkpt lat="37.440096735566115" lon="14.303691406488767"><ele>606.3333333333334</ele><time>2026-03-22T08:17:55Z</time></trkpt><trkpt lat="37.440007714179046" lon="14.303711623031147"><ele>605.1666666666667</ele><time>2026-03-22T08:17:57Z</time></trkpt><trkpt lat="37.439936145021925" lon="14.303726050261433"><ele>604.0</ele><time>2026-03-22T08:17:58Z</time></trkpt><trkpt lat="37.4398394802622" lon="14.303743004547048"><ele>604.0</ele><time>2026-03-22T08:18:00Z</time></trkpt><trkpt lat="37.439722984343476" lon="14.303763437064955"><ele>604.0</ele><time>2026-03-22T08:18:02Z</time></trkpt><trkpt lat="37.43963237337482" lon="14.30378221385185"><ele>604.0</ele><time>2026-03-22T08:18:04Z</time></trkpt><trkpt lat="37.4395450213937" lon="14.30380181623755"><ele>604.0</ele><time>2026-03-22T08:18:06Z</time></trkpt><trkpt lat="37.439454114143494" lon="14.303824698986912"><ele>604.0</ele><time>2026-03-22T08:18:08Z</time></trkpt><trkpt lat="37.43939895201935" lon="14.303716865304821"><ele>602.6666666666667</ele><time>2026-03-22T08:18:09Z</time></trkpt><trkpt lat="37.43934622310603" lon="14.303762336900155"><ele>601.3333333333334</ele><time>2026-03-22T08:18:11Z</time></trkpt><trkpt lat="37.43925573531495" lon="14.30379858561138"><ele>600.0</ele><time>2026-03-22T08:18:13Z</time></trkpt><trkpt lat="37.43919635344879" lon="14.30382653278115"><ele>598.6666666666666</ele><time>2026-03-22T08:18:15Z</time></trkpt><trkpt lat="37.439113354027356" lon="14.303810038419973"><ele>597.3333333333333</ele><time>2026-03-22T08:18:17Z</time></trkpt><trkpt lat="37.439037989388495" lon="14.303809807093527"><ele>596.0</ele><time>2026-03-22T08:18:19Z</time></trkpt><trkpt lat="37.43894082523757" lon="14.303858182440043"><ele>596.0</ele><time>2026-03-22T08:18:21Z</time></trkpt><trkpt lat="37.43884283803559" lon="14.30381603186045"><ele>596.0</ele><time>2026-03-22T08:18:23Z</time></trkpt><trkpt lat="37.4387372434174" lon="14.303822706891562"><ele>596.0</ele><time>2026-03-22T08:18:25Z</time></trkpt><trkpt lat="37.43867106537219" lon="14.303831203261279"><ele>596.0</ele><time>2026-03-22T08:18:27Z</time></trkpt><trkpt lat="37.4386837929166" lon="14.303913557291207"><ele>596.0</ele><time>2026-03-22T08:18:31Z</time></trkpt><trkpt lat="37.438742521267" lon="14.303966285777715"><ele>596.0</ele><time>2026-03-22T08:18:33Z</time></trkpt><trkpt lat="37.438730255504204" lon="14.304045961087827"><ele>593.1666666666666</ele><time>2026-03-22T08:18:36Z</time></trkpt><trkpt lat="37.43864960653423" lon="14.304076730036648"><ele>590.3333333333333</ele><time>2026-03-22T08:18:39Z</time></trkpt><trkpt lat="37.438581536467595" lon="14.304082767210105"><ele>587.5</ele><time>2026-03-22T08:18:40Z</time></trkpt><trkpt lat="37.43851182793212" lon="14.304089029390388"><ele>584.6666666666666</ele><time>2026-03-22T08:18:41Z</time></trkpt><trkpt lat="37.438431498647375" lon="14.304097725563956"><ele>581.8333333333334</ele><time>2026-03-22T08:18:42Z</time></trkpt><trkpt lat="37.43832393880029" lon="14.304142087710952"><ele>579.0</ele><time>2026-03-22T08:18:44Z</time></trkpt><trkpt lat="37.43826078776159" lon="14.304152989501285"><ele>579.0</ele><time>2026-03-22T08:18:45Z</time></trkpt><trkpt lat="37.43813717823574" lon="14.304191040118162"><ele>579.0</ele><time>2026-03-22T08:18:47Z</time></trkpt><trkpt lat="37.43804078317983" lon="14.304219785074912"><ele>579.0</ele><time>2026-03-22T08:18:49Z</time></trkpt><trkpt lat="37.43794153509092" lon="14.304247736064227"><ele>579.0</ele><time>2026-03-22T08:18:51Z</time></trkpt><trkpt lat="37.43783499366896" lon="14.30427388008602"><ele>579.0</ele><time>2026-03-22T08:18:53Z</time></trkpt><trkpt lat="37.43772385777513" lon="14.30429796552131"><ele>576.8</ele><time>2026-03-22T08:18:55Z</time></trkpt><trkpt lat="37.43765514043197" lon="14.304312080060537"><ele>574.5999999999999</ele><time>2026-03-22T08:18:56Z</time></trkpt><trkpt lat="37.43758824087405" lon="14.30432886279566"><ele>572.4</ele><time>2026-03-22T08:18:57Z</time></trkpt><trkpt lat="37.437480322852835" lon="14.304356263185854"><ele>570.1999999999999</ele><time>2026-03-22T08:18:59Z</time></trkpt><trkpt lat="37.437355320774586" lon="14.304385333175233"><ele>568.0</ele><time>2026-03-22T08:19:01Z</time></trkpt><trkpt lat="37.43726901992882" lon="14.304421882231013"><ele>568.0</ele><time>2026-03-22T08:19:02Z</time></trkpt><trkpt lat="37.43716428540203" lon="14.304445647424396"><ele>568.0</ele><time>2026-03-22T08:19:04Z</time></trkpt><trkpt lat="37.43704909403552" lon="14.304474100853778"><ele>568.0</ele><time>2026-03-22T08:19:06Z</time></trkpt><trkpt lat="37.43694885262246" lon="14.304494028931943"><ele>568.0</ele><time>2026-03-22T08:19:08Z</time></trkpt><trkpt lat="37.43682055462484" lon="14.304506080914456"><ele>567.1666666666667</ele><time>2026-03-22T08:19:10Z</time></trkpt><trkpt lat="37.43673782429898" lon="14.304513476387465"><ele>566.3333333333334</ele><time>2026-03-22T08:19:11Z</time></trkpt><trkpt lat="37.43664186168935" lon="14.30452253482127"><ele>565.5</ele><time>2026-03-22T08:19:12Z</time></trkpt><trkpt lat="37.43656574845129" lon="14.304537900460424"><ele>564.6666666666666</ele><time>2026-03-22T08:19:13Z</time></trkpt><trkpt lat="37.436502444295925" lon="14.304604280097173"><ele>563.8333333333333</ele><time>2026-03-22T08:19:14Z</time></trkpt><trkpt lat="37.43642002205236" lon="14.304615227763515"><ele>563.0</ele><time>2026-03-22T08:19:15Z</time></trkpt><trkpt lat="37.436299315936374" lon="14.304649444391485"><ele>561.6</ele><time>2026-03-22T08:19:17Z</time></trkpt><trkpt lat="37.43618570208886" lon="14.304672170558804"><ele>560.1999999999999</ele><time>2026-03-22T08:19:19Z</time></trkpt><trkpt lat="37.43608627266359" lon="14.30471913797425"><ele>558.8</ele><time>2026-03-22T08:19:21Z</time></trkpt><trkpt lat="37.43602196393549" lon="14.304738411727197"><ele>557.4</ele><time>2026-03-22T08:19:22Z</time></trkpt><trkpt lat="37.43594068781389" lon="14.304743804003937"><ele>556.0</ele><time>2026-03-22T08:19:23Z</time></trkpt><trkpt lat="37.435865053546756" lon="14.30479728704021"><ele>555.8333333333334</ele><time>2026-03-22T08:19:25Z</time></trkpt><trkpt lat="37.43575838274438" lon="14.304824773046247"><ele>555.6666666666667</ele><time>2026-03-22T08:19:27Z</time></trkpt><trkpt lat="37.43568953649544" lon="14.304859078148722"><ele>555.5</ele><time>2026-03-22T08:19:28Z</time></trkpt><trkpt lat="37.43562530006954" lon="14.304878676023279"><ele>555.3333333333334</ele><time>2026-03-22T08:19:29Z</time></trkpt><trkpt lat="37.435530284873124" lon="14.30490335816341"><ele>555.1666666666666</ele><time>2026-03-22T08:19:31Z</time></trkpt><trkpt lat="37.435438076635805" lon="14.304926554417296"><ele>555.0</ele><time>2026-03-22T08:19:33Z</time></trkpt><trkpt lat="37.4353550307362" lon="14.30494392825368"><ele>553.3333333333334</ele><time>2026-03-22T08:19:35Z</time></trkpt><trkpt lat="37.435262399623426" lon="14.304964571259045"><ele>551.6666666666666</ele><time>2026-03-22T08:19:37Z</time></trkpt><trkpt lat="37.435193374120445" lon="14.304964345463329"><ele>550.0</ele><time>2026-03-22T08:19:39Z</time></trkpt><trkpt lat="37.435103227455045" lon="14.305008413775349"><ele>548.3333333333333</ele><time>2026-03-22T08:19:41Z</time></trkpt><trkpt lat="37.435013144425334" lon="14.305029346827135"><ele>546.6666666666666</ele><time>2026-03-22T08:19:43Z</time></trkpt><trkpt lat="37.434930955623756" lon="14.305057742830936"><ele>545.0</ele><time>2026-03-22T08:19:45Z</time></trkpt><trkpt lat="37.43481781149878" lon="14.305065068311908"><ele>545.0</ele><time>2026-03-22T08:19:47Z</time></trkpt><trkpt lat="37.43475562359164" lon="14.30504285686264"><ele>545.0</ele><time>2026-03-22T08:19:48Z</time></trkpt><trkpt lat="37.43466164352404" lon="14.305086780914174"><ele>545.0</ele><time>2026-03-22T08:19:50Z</time></trkpt><trkpt lat="37.434575347859486" lon="14.305098279984628"><ele>545.0</ele><time>2026-03-22T08:19:52Z</time></trkpt><trkpt lat="37.43451019992479" lon="14.305106867659294"><ele>545.0</ele><time>2026-03-22T08:19:54Z</time></trkpt><trkpt lat="37.43438662859437" lon="14.30513295725819"><ele>545.0</ele><time>2026-03-22T08:19:56Z</time></trkpt><trkpt lat="37.434280159865985" lon="14.305179159885943"><ele>543.6</ele><time>2026-03-22T08:19:58Z</time></trkpt><trkpt lat="37.43412539569246" lon="14.305182039555895"><ele>542.2</ele><time>2026-03-22T08:20:12Z</time></trkpt><trkpt lat="37.434047009145004" lon="14.305201899937513"><ele>540.8</ele><time>2026-03-22T08:20:13Z</time></trkpt><trkpt lat="37.43396005741881" lon="14.305197604635529"><ele>539.4</ele><time>2026-03-22T08:20:15Z</time></trkpt><trkpt lat="37.433905051003975" lon="14.305269662948783"><ele>538.0</ele><time>2026-03-22T08:29:04Z</time></trkpt><trkpt lat="37.43389059483372" lon="14.30534792104036"><ele>538.0</ele><time>2026-03-22T08:29:05Z</time></trkpt><trkpt lat="37.433877992893905" lon="14.305445682148276"><ele>538.0</ele><time>2026-03-22T08:29:06Z</time></trkpt><trkpt lat="37.433870315554486" lon="14.305579295797347"><ele>538.0</ele><time>2026-03-22T08:29:07Z</time></trkpt><trkpt lat="37.433840992422404" lon="14.305708376213975"><ele>538.0</ele><time>2026-03-22T08:29:08Z</time></trkpt><trkpt lat="37.43382437164742" lon="14.305833493390912"><ele>538.0</ele><time>2026-03-22T08:29:09Z</time></trkpt><trkpt lat="37.43380665473376" lon="14.305968286570364"><ele>535.25</ele><time>2026-03-22T08:29:10Z</time></trkpt><trkpt lat="37.433789866153525" lon="14.306116237544122"><ele>532.5</ele><time>2026-03-22T08:29:11Z</time></trkpt><trkpt lat="37.433772944588824" lon="14.30626740791196"><ele>529.75</ele><time>2026-03-22T08:29:12Z</time></trkpt><trkpt lat="37.4337533825626" lon="14.30644216709687"><ele>527.0</ele><time>2026-03-22T08:29:13Z</time></trkpt><trkpt lat="37.43372912704275" lon="14.306637212438268"><ele>526.75</ele><time>2026-03-22T08:29:14Z</time></trkpt><trkpt lat="37.43370684162838" lon="14.306816840108121"><ele>526.5</ele><time>2026-03-22T08:29:15Z</time></trkpt><trkpt lat="37.4336851939755" lon="14.306991327223166"><ele>526.25</ele><time>2026-03-22T08:29:16Z</time></trkpt><trkpt lat="37.43366417603471" lon="14.307165210384346"><ele>526.0</ele><time>2026-03-22T08:29:17Z</time></trkpt><trkpt lat="37.43364694135022" lon="14.307325971373153"><ele>527.0</ele><time>2026-03-22T08:29:18Z</time></trkpt><trkpt lat="37.433646704414144" lon="14.307466138021747"><ele>528.0</ele><time>2026-03-22T08:29:19Z</time></trkpt><trkpt lat="37.43363570512544" lon="14.307598411210366"><ele>529.0</ele><time>2026-03-22T08:29:20Z</time></trkpt><trkpt lat="37.43362540517086" lon="14.307738726298288"><ele>530.0</ele><time>2026-03-22T08:29:21Z</time></trkpt><trkpt lat="37.43361593995855" lon="14.30788343851757"><ele>531.0</ele><time>2026-03-22T08:29:22Z</time></trkpt><trkpt lat="37.43361396245475" lon="14.308030124020329"><ele>531.0</ele><time>2026-03-22T08:29:23Z</time></trkpt><trkpt lat="37.4335954926266" lon="14.308182120247988"><ele>531.0</ele><time>2026-03-22T08:29:24Z</time></trkpt><trkpt lat="37.43361526631134" lon="14.30833630099495"><ele>531.0</ele><time>2026-03-22T08:29:25Z</time></trkpt><trkpt lat="37.43360633192993" lon="14.308488605266962"><ele>531.0</ele><time>2026-03-22T08:29:26Z</time></trkpt><trkpt lat="37.43363429169754" lon="14.308645182454164"><ele>531.0</ele><time>2026-03-22T08:29:27Z</time></trkpt><trkpt lat="37.43363587041046" lon="14.308811284837514"><ele>531.0</ele><time>2026-03-22T08:29:28Z</time></trkpt><trkpt lat="37.43364250970056" lon="14.308975094717702"><ele>531.0</ele><time>2026-03-22T08:29:29Z</time></trkpt><trkpt lat="37.43363565176797" lon="14.309140484465262"><ele>531.0</ele><time>2026-03-22T08:29:30Z</time></trkpt><trkpt lat="37.433640050304035" lon="14.309305547552167"><ele>530.75</ele><time>2026-03-22T08:29:31Z</time></trkpt><trkpt lat="37.433647598083716" lon="14.309471131623836"><ele>530.5</ele><time>2026-03-22T08:29:32Z</time></trkpt><trkpt lat="37.433658429181364" lon="14.309640849674622"><ele>530.25</ele><time>2026-03-22T08:29:33Z</time></trkpt><trkpt lat="37.43368496150604" lon="14.309814298572944"><ele>530.0</ele><time>2026-03-22T08:29:34Z</time></trkpt><trkpt lat="37.43369279157376" lon="14.309987574281687"><ele>529.4</ele><time>2026-03-22T08:29:35Z</time></trkpt><trkpt lat="37.43369873387084" lon="14.31015126937244"><ele>528.8</ele><time>2026-03-22T08:29:36Z</time></trkpt><trkpt lat="37.43369413217909" lon="14.310289256354217"><ele>528.2</ele><time>2026-03-22T08:29:37Z</time></trkpt><trkpt lat="37.43369729365254" lon="14.310416476051879"><ele>527.6</ele><time>2026-03-22T08:29:38Z</time></trkpt><trkpt lat="37.43370716903471" lon="14.310526071992046"><ele>527.0</ele><time>2026-03-22T08:29:39Z</time></trkpt><trkpt lat="37.433715774830034" lon="14.31062454954451"><ele>526.8000000000001</ele><time>2026-03-22T08:29:40Z</time></trkpt><trkpt lat="37.43370865224415" lon="14.310730472529427"><ele>526.6</ele><time>2026-03-22T08:29:41Z</time></trkpt><trkpt lat="37.43371541356877" lon="14.31084242174513"><ele>526.4000000000001</ele><time>2026-03-22T08:29:42Z</time></trkpt><trkpt lat="37.43372360701923" lon="14.310969604663697"><ele>526.2</ele><time>2026-03-22T08:29:43Z</time></trkpt><trkpt lat="37.43373340443215" lon="14.311102328234982"><ele>526.0</ele><time>2026-03-22T08:29:44Z</time></trkpt><trkpt lat="37.43374344759537" lon="14.311244033459348"><ele>526.0</ele><time>2026-03-22T08:29:45Z</time></trkpt><trkpt lat="37.433752037062305" lon="14.31139204732252"><ele>526.0</ele><time>2026-03-22T08:29:46Z</time></trkpt><trkpt lat="37.433766933495406" lon="14.311554415048002"><ele>526.0</ele><time>2026-03-22T08:29:47Z</time></trkpt><trkpt lat="37.43377134395056" lon="14.311711161567938"><ele>526.0</ele><time>2026-03-22T08:29:48Z</time></trkpt><trkpt lat="37.43378179766048" lon="14.311858878187662"><ele>526.25</ele><time>2026-03-22T08:29:49Z</time></trkpt><trkpt lat="37.43379643391646" lon="14.312003672412981"><ele>526.5</ele><time>2026-03-22T08:29:50Z</time></trkpt><trkpt lat="37.43380748952826" lon="14.312147075124534"><ele>526.75</ele><time>2026-03-22T08:29:51Z</time></trkpt><trkpt lat="37.43382358775301" lon="14.31229143014223"><ele>527.0</ele><time>2026-03-22T08:29:52Z</time></trkpt><trkpt lat="37.433846407389495" lon="14.312422327015485"><ele>527.6</ele><time>2026-03-22T08:29:53Z</time></trkpt><trkpt lat="37.43387070578045" lon="14.3125551484283"><ele>528.2</ele><time>2026-03-22T08:29:54Z</time></trkpt><trkpt lat="37.433903450810554" lon="14.312685719899868"><ele>528.8</ele><time>2026-03-22T08:29:55Z</time></trkpt><trkpt lat="37.43394448099425" lon="14.312796173972478"><ele>529.4</ele><time>2026-03-22T08:29:56Z</time></trkpt><trkpt lat="37.43399828964645" lon="14.312906686074856"><ele>530.0</ele><time>2026-03-22T08:29:57Z</time></trkpt><trkpt lat="37.43406101294699" lon="14.313019863903575"><ele>527.75</ele><time>2026-03-22T08:29:58Z</time></trkpt><trkpt lat="37.43411734968328" lon="14.313149548565935"><ele>525.5</ele><time>2026-03-22T08:29:59Z</time></trkpt><trkpt lat="37.43418464846227" lon="14.31326519135587"><ele>523.25</ele><time>2026-03-22T08:30:00Z</time></trkpt><trkpt lat="37.434247037842354" lon="14.31338875624538"><ele>521.0</ele><time>2026-03-22T08:30:01Z</time></trkpt><trkpt lat="37.434318530994766" lon="14.313512901056944"><ele>521.0</ele><time>2026-03-22T08:30:02Z</time></trkpt><trkpt lat="37.43439128367556" lon="14.313642062376484"><ele>521.0</ele><time>2026-03-22T08:30:03Z</time></trkpt><trkpt lat="37.43446546028123" lon="14.313773494270249"><ele>521.0</ele><time>2026-03-22T08:30:04Z</time></trkpt><trkpt lat="37.43453022880304" lon="14.313901988598387"><ele>521.0</ele><time>2026-03-22T08:30:05Z</time></trkpt><trkpt lat="37.43458412061277" lon="14.31399420569829"><ele>519.8333333333333</ele><time>2026-03-22T08:30:06Z</time></trkpt><trkpt lat="37.434631451417765" lon="14.314063315448184"><ele>518.6666666666666</ele><time>2026-03-22T08:30:07Z</time></trkpt><trkpt lat="37.43465640165651" lon="14.31414758938233"><ele>517.5</ele><time>2026-03-22T08:30:08Z</time></trkpt><trkpt lat="37.4346917840834" lon="14.314214177219664"><ele>516.3333333333334</ele><time>2026-03-22T08:30:09Z</time></trkpt><trkpt lat="37.43473308826547" lon="14.31429087404418"><ele>515.1666666666667</ele><time>2026-03-22T08:30:10Z</time></trkpt><trkpt lat="37.434781417727116" lon="14.314380615895582"><ele>514.0</ele><time>2026-03-22T08:30:11Z</time></trkpt><trkpt lat="37.434843432822" lon="14.314461973502503"><ele>516.4</ele><time>2026-03-22T08:30:12Z</time></trkpt><trkpt lat="37.4348940803022" lon="14.314564219372093"><ele>518.8</ele><time>2026-03-22T08:30:13Z</time></trkpt><trkpt lat="37.434952694699334" lon="14.314663441174629"><ele>521.2</ele><time>2026-03-22T08:30:14Z</time></trkpt><trkpt lat="37.43501442756354" lon="14.314769968792469"><ele>523.6</ele><time>2026-03-22T08:30:15Z</time></trkpt><trkpt lat="37.43507473883055" lon="14.31487952476587"><ele>526.0</ele><time>2026-03-22T08:30:16Z</time></trkpt><trkpt lat="37.435143042033694" lon="14.314989865942529"><ele>526.0</ele><time>2026-03-22T08:30:17Z</time></trkpt><trkpt lat="37.435215228917784" lon="14.315109683953603"><ele>526.0</ele><time>2026-03-22T08:30:18Z</time></trkpt><trkpt lat="37.43526640731102" lon="14.315257485510314"><ele>526.0</ele><time>2026-03-22T08:30:19Z</time></trkpt><trkpt lat="37.43534030451248" lon="14.315389987353218"><ele>526.0</ele><time>2026-03-22T08:30:20Z</time></trkpt><trkpt lat="37.435416303852065" lon="14.315526258446956"><ele>526.75</ele><time>2026-03-22T08:30:21Z</time></trkpt><trkpt lat="37.43548396754242" lon="14.315647583258507"><ele>527.5</ele><time>2026-03-22T08:30:22Z</time></trkpt><trkpt lat="37.43555632308522" lon="14.315777320821223"><ele>528.25</ele><time>2026-03-22T08:30:23Z</time></trkpt><trkpt lat="37.43562890960519" lon="14.315907472544817"><ele>529.0</ele><time>2026-03-22T08:30:24Z</time></trkpt><trkpt lat="37.43570265885194" lon="14.316039709100536"><ele>529.0</ele><time>2026-03-22T08:30:25Z</time></trkpt><trkpt lat="37.43577855882569" lon="14.3161758020255"><ele>529.0</ele><time>2026-03-22T08:30:26Z</time></trkpt><trkpt lat="37.435864408378585" lon="14.316315380414991"><ele>529.0</ele><time>2026-03-22T08:30:27Z</time></trkpt><trkpt lat="37.435948797097495" lon="14.316459379930196"><ele>529.0</ele><time>2026-03-22T08:30:28Z</time></trkpt><trkpt lat="37.436036753255735" lon="14.316604658078656"><ele>527.0</ele><time>2026-03-22T08:30:29Z</time></trkpt><trkpt lat="37.43609656955803" lon="14.31674112210696"><ele>525.0</ele><time>2026-03-22T08:30:30Z</time></trkpt><trkpt lat="37.436165581301424" lon="14.316859569247894"><ele>523.0</ele><time>2026-03-22T08:30:31Z</time></trkpt><trkpt lat="37.436236920953014" lon="14.316981289620488"><ele>521.0</ele><time>2026-03-22T08:30:32Z</time></trkpt><trkpt lat="37.43631783370083" lon="14.317106475945492"><ele>521.0</ele><time>2026-03-22T08:30:33Z</time></trkpt><trkpt lat="37.436391552384336" lon="14.317240111680244"><ele>521.0</ele><time>2026-03-22T08:30:34Z</time></trkpt><trkpt lat="37.43646165300875" lon="14.317372583344836"><ele>521.0</ele><time>2026-03-22T08:30:35Z</time></trkpt><trkpt lat="37.43652542065276" lon="14.317498803306698"><ele>521.0</ele><time>2026-03-22T08:30:36Z</time></trkpt><trkpt lat="37.436594111394214" lon="14.317618973084665"><ele>521.0</ele><time>2026-03-22T08:30:37Z</time></trkpt><trkpt lat="37.436654876488966" lon="14.317741099588975"><ele>521.0</ele><time>2026-03-22T08:30:38Z</time></trkpt><trkpt lat="37.436701170912364" lon="14.317852888072577"><ele>521.0</ele><time>2026-03-22T08:30:39Z</time></trkpt><trkpt lat="37.43673178192227" lon="14.317957357889671"><ele>521.0</ele><time>2026-03-22T08:30:40Z</time></trkpt><trkpt lat="37.43675186397733" lon="14.318064889161256"><ele>521.0</ele><time>2026-03-22T08:30:41Z</time></trkpt><trkpt lat="37.436762149221465" lon="14.318164205595842"><ele>521.0</ele><time>2026-03-22T08:30:42Z</time></trkpt><trkpt lat="37.43675948246328" lon="14.31825763967654"><ele>521.0</ele><time>2026-03-22T08:30:43Z</time></trkpt><trkpt lat="37.43675401086087" lon="14.318348231556413"><ele>521.0</ele><time>2026-03-22T08:30:44Z</time></trkpt><trkpt lat="37.43672552859918" lon="14.318429421976939"><ele>521.0</ele><time>2026-03-22T08:30:45Z</time></trkpt><trkpt lat="37.436686343524784" lon="14.318566384955124"><ele>521.0</ele><time>2026-03-22T08:30:47Z</time></trkpt><trkpt lat="37.436643308020976" lon="14.318718153591464"><ele>521.0</ele><time>2026-03-22T08:30:49Z</time></trkpt><trkpt lat="37.43659958351507" lon="14.318796820191187"><ele>521.0</ele><time>2026-03-22T08:30:50Z</time></trkpt><trkpt lat="37.436562302179155" lon="14.318870643140173"><ele>521.0</ele><time>2026-03-22T08:30:51Z</time></trkpt><trkpt lat="37.43651962625051" lon="14.318942230109892"><ele>521.0</ele><time>2026-03-22T08:30:52Z</time></trkpt><trkpt lat="37.43642493329261" lon="14.319071583001763"><ele>521.0</ele><time>2026-03-22T08:30:54Z</time></trkpt><trkpt lat="37.43636525655291" lon="14.319138466353388"><ele>521.0</ele><time>2026-03-22T08:30:55Z</time></trkpt><trkpt lat="37.43629837253449" lon="14.319186958915898"><ele>522.1666666666666</ele><time>2026-03-22T08:30:56Z</time></trkpt><trkpt lat="37.43623104877811" lon="14.319216530446047"><ele>523.3333333333333</ele><time>2026-03-22T08:30:57Z</time></trkpt><trkpt lat="37.436112363100364" lon="14.319212281384528"><ele>524.5</ele><time>2026-03-22T08:30:59Z</time></trkpt><trkpt lat="37.43604831487342" lon="14.319185997925072"><ele>525.6666666666666</ele><time>2026-03-22T08:31:00Z</time></trkpt><trkpt lat="37.43598408370599" lon="14.31917058665229"><ele>526.8333333333334</ele><time>2026-03-22T08:31:01Z</time></trkpt><trkpt lat="37.43589971998097" lon="14.319137847162187"><ele>528.0</ele><time>2026-03-22T08:31:02Z</time></trkpt><trkpt lat="37.43582030906343" lon="14.319088978800893"><ele>528.0</ele><time>2026-03-22T08:31:03Z</time></trkpt><trkpt lat="37.435737307995865" lon="14.319032971935442"><ele>528.0</ele><time>2026-03-22T08:31:04Z</time></trkpt><trkpt lat="37.4356438969959" lon="14.318975082959634"><ele>528.0</ele><time>2026-03-22T08:31:05Z</time></trkpt><trkpt lat="37.43554751787683" lon="14.318917720095019"><ele>528.0</ele><time>2026-03-22T08:31:06Z</time></trkpt><trkpt lat="37.43544696540551" lon="14.31885715998898"><ele>528.0</ele><time>2026-03-22T08:31:07Z</time></trkpt><trkpt lat="37.43534099765878" lon="14.318793465003642"><ele>528.5</ele><time>2026-03-22T08:31:08Z</time></trkpt><trkpt lat="37.43523530742092" lon="14.31872446134543"><ele>529.0</ele><time>2026-03-22T08:31:09Z</time></trkpt><trkpt lat="37.43512562829269" lon="14.318657813803643"><ele>529.5</ele><time>2026-03-22T08:31:10Z</time></trkpt><trkpt lat="37.43501450548236" lon="14.318596626877678"><ele>530.0</ele><time>2026-03-22T08:31:11Z</time></trkpt><trkpt lat="37.43490912749661" lon="14.318537987126943"><ele>530.0</ele><time>2026-03-22T08:31:12Z</time></trkpt><trkpt lat="37.43480115907538" lon="14.318475344366083"><ele>530.0</ele><time>2026-03-22T08:31:13Z</time></trkpt><trkpt lat="37.43469279542648" lon="14.318421390788242"><ele>530.0</ele><time>2026-03-22T08:31:14Z</time></trkpt><trkpt lat="37.43459592529266" lon="14.318376793129202"><ele>530.0</ele><time>2026-03-22T08:31:15Z</time></trkpt><trkpt lat="37.4345043843397" lon="14.318378091980723"><ele>530.0</ele><time>2026-03-22T08:31:16Z</time></trkpt><trkpt lat="37.4344193850437" lon="14.318419039670749"><ele>530.8</ele><time>2026-03-22T08:31:17Z</time></trkpt><trkpt lat="37.434359632629715" lon="14.31851869007541"><ele>531.6</ele><time>2026-03-22T08:31:18Z</time></trkpt><trkpt lat="37.43432422261757" lon="14.318621286054139"><ele>532.4</ele><time>2026-03-22T08:31:19Z</time></trkpt><trkpt lat="37.43427607081839" lon="14.318725861198436"><ele>533.2</ele><time>2026-03-22T08:31:20Z</time></trkpt><trkpt lat="37.43428668411409" lon="14.31886033889602"><ele>534.0</ele><time>2026-03-22T08:31:21Z</time></trkpt><trkpt lat="37.43433123121253" lon="14.318984373270043"><ele>537.0</ele><time>2026-03-22T08:31:22Z</time></trkpt><trkpt lat="37.4344037896039" lon="14.319083736241188"><ele>540.0</ele><time>2026-03-22T08:31:23Z</time></trkpt><trkpt lat="37.43450063433038" lon="14.319162771735591"><ele>543.0</ele><time>2026-03-22T08:31:24Z</time></trkpt><trkpt lat="37.43462114544172" lon="14.319233419496422"><ele>546.0</ele><time>2026-03-22T08:31:25Z</time></trkpt><trkpt lat="37.43475050311027" lon="14.31930459466251"><ele>546.0</ele><time>2026-03-22T08:31:26Z</time></trkpt><trkpt lat="37.43487123882276" lon="14.319344487112108"><ele>546.0</ele><time>2026-03-22T08:31:27Z</time></trkpt><trkpt lat="37.434990813746694" lon="14.31933904382858"><ele>546.0</ele><time>2026-03-22T08:31:28Z</time></trkpt><trkpt lat="37.43510800274952" lon="14.319320560653189"><ele>546.0</ele><time>2026-03-22T08:31:29Z</time></trkpt><trkpt lat="37.43519500338632" lon="14.319328988169008"><ele>546.0</ele><time>2026-03-22T08:31:30Z</time></trkpt><trkpt lat="37.43525618761197" lon="14.319401747096324"><ele>546.0</ele><time>2026-03-22T08:31:31Z</time></trkpt><trkpt lat="37.43528435211689" lon="14.319487623477896"><ele>546.0</ele><time>2026-03-22T08:31:32Z</time></trkpt><trkpt lat="37.43532154918102" lon="14.319609681129206"><ele>546.0</ele><time>2026-03-22T08:31:34Z</time></trkpt><trkpt lat="37.43541400269139" lon="14.319651372069904"><ele>546.0</ele><time>2026-03-22T08:31:37Z</time></trkpt><trkpt lat="37.435451667239704" lon="14.31974701278809"><ele>546.0</ele><time>2026-03-22T08:31:47Z</time></trkpt><trkpt lat="37.435484171279334" lon="14.319858886093694"><ele>545.6666666666666</ele><time>2026-03-22T08:31:49Z</time></trkpt><trkpt lat="37.435488893663454" lon="14.31994461396456"><ele>545.3333333333334</ele><time>2026-03-22T08:31:51Z</time></trkpt><trkpt lat="37.43553457786413" lon="14.320036123129425"><ele>545.0</ele><time>2026-03-22T08:31:53Z</time></trkpt><trkpt lat="37.43558835331134" lon="14.320087176847444"><ele>544.6666666666667</ele><time>2026-03-22T08:31:54Z</time></trkpt><trkpt lat="37.43566260361528" lon="14.320155156401634"><ele>544.3333333333334</ele><time>2026-03-22T08:31:55Z</time></trkpt><trkpt lat="37.4357454101792" lon="14.320237100867498"><ele>544.0</ele><time>2026-03-22T08:31:56Z</time></trkpt><trkpt lat="37.435829337351024" lon="14.320315882311084"><ele>544.0</ele><time>2026-03-22T08:31:57Z</time></trkpt><trkpt lat="37.435909927104305" lon="14.320390180010731"><ele>544.0</ele><time>2026-03-22T08:31:58Z</time></trkpt><trkpt lat="37.43599681154055" lon="14.320471638030686"><ele>544.0</ele><time>2026-03-22T08:31:59Z</time></trkpt><trkpt lat="37.436081232820435" lon="14.320553870564702"><ele>544.0</ele><time>2026-03-22T08:32:00Z</time></trkpt><trkpt lat="37.43616901526846" lon="14.320634101701591"><ele>544.0</ele><time>2026-03-22T08:32:01Z</time></trkpt><trkpt lat="37.43624718628744" lon="14.320706254315814"><ele>543.6</ele><time>2026-03-22T08:32:02Z</time></trkpt><trkpt lat="37.43631276331034" lon="14.320771384467504"><ele>543.2</ele><time>2026-03-22T08:32:03Z</time></trkpt><trkpt lat="37.436379497378766" lon="14.320835577430456"><ele>542.8000000000001</ele><time>2026-03-22T08:32:04Z</time></trkpt><trkpt lat="37.43645805433544" lon="14.320920186836098"><ele>542.4</ele><time>2026-03-22T08:32:05Z</time></trkpt><trkpt lat="37.43651661084643" lon="14.32102729567367"><ele>542.0</ele><time>2026-03-22T08:32:06Z</time></trkpt><trkpt lat="37.43658208433628" lon="14.32112713868297"><ele>542.0</ele><time>2026-03-22T08:32:07Z</time></trkpt><trkpt lat="37.436660302055486" lon="14.321175555417867"><ele>542.0</ele><time>2026-03-22T08:32:08Z</time></trkpt><trkpt lat="37.436717983850905" lon="14.321233871313867"><ele>542.0</ele><time>2026-03-22T08:32:09Z</time></trkpt><trkpt lat="37.436779797876575" lon="14.321270131918237"><ele>542.0</ele><time>2026-03-22T08:32:10Z</time></trkpt><trkpt lat="37.436836752093875" lon="14.321312024984584"><ele>542.0</ele><time>2026-03-22T08:32:11Z</time></trkpt><trkpt lat="37.43689573592027" lon="14.32134985421625"><ele>542.0</ele><time>2026-03-22T08:32:12Z</time></trkpt><trkpt lat="37.436972142431365" lon="14.321398756041505"><ele>542.0</ele><time>2026-03-22T08:32:13Z</time></trkpt><trkpt lat="37.437044157403584" lon="14.32144118358031"><ele>541.5</ele><time>2026-03-22T08:32:14Z</time></trkpt><trkpt lat="37.43710342772897" lon="14.321524639172267"><ele>541.0</ele><time>2026-03-22T08:32:15Z</time></trkpt><trkpt lat="37.4371403694017" lon="14.32161056811987"><ele>540.5</ele><time>2026-03-22T08:32:16Z</time></trkpt><trkpt lat="37.43718423440445" lon="14.321685981061664"><ele>540.0</ele><time>2026-03-22T08:32:17Z</time></trkpt><trkpt lat="37.437184577986464" lon="14.321778779034942"><ele>539.5</ele><time>2026-03-22T08:32:18Z</time></trkpt><trkpt lat="37.43723686003683" lon="14.321877803232871"><ele>539.0</ele><time>2026-03-22T08:32:19Z</time></trkpt><trkpt lat="37.437295072233205" lon="14.321971988375296"><ele>539.0</ele><time>2026-03-22T08:32:20Z</time></trkpt><trkpt lat="37.4373559142226" lon="14.322070428153623"><ele>539.0</ele><time>2026-03-22T08:32:21Z</time></trkpt><trkpt lat="37.437409518776455" lon="14.32215715797507"><ele>539.0</ele><time>2026-03-22T08:32:22Z</time></trkpt><trkpt lat="37.43745981299174" lon="14.322238531815476"><ele>539.0</ele><time>2026-03-22T08:32:23Z</time></trkpt><trkpt lat="37.437766043755374" lon="14.322077829330462"><ele>539.0</ele><time>2026-03-22T08:32:24Z</time></trkpt><trkpt lat="37.43784174926622" lon="14.322141398095166"><ele>539.0</ele><time>2026-03-22T08:32:25Z</time></trkpt><trkpt lat="37.43790675218426" lon="14.322192623844554"><ele>539.0</ele><time>2026-03-22T08:32:26Z</time></trkpt><trkpt lat="37.43796872069983" lon="14.32222785269012"><ele>539.0</ele><time>2026-03-22T08:32:27Z</time></trkpt><trkpt lat="37.43803905442387" lon="14.322259939075556"><ele>539.0</ele><time>2026-03-22T08:32:28Z</time></trkpt><trkpt lat="37.43810758829505" lon="14.322305514302007"><ele>539.0</ele><time>2026-03-22T08:32:29Z</time></trkpt><trkpt lat="37.43817923857376" lon="14.322364860369708"><ele>539.8333333333333</ele><time>2026-03-22T08:32:30Z</time></trkpt><trkpt lat="37.43823405132759" lon="14.322414514426903"><ele>540.6666666666666</ele><time>2026-03-22T08:32:31Z</time></trkpt><trkpt lat="37.43828904369336" lon="14.322464215355595"><ele>541.5</ele><time>2026-03-22T08:32:32Z</time></trkpt><trkpt lat="37.4383583554501" lon="14.322510044581989"><ele>542.3333333333334</ele><time>2026-03-22T08:32:33Z</time></trkpt><trkpt lat="37.438423491975854" lon="14.322540611898152"><ele>543.1666666666667</ele><time>2026-03-22T08:32:34Z</time></trkpt><trkpt lat="37.43852454466857" lon="14.322574674017924"><ele>544.0</ele><time>2026-03-22T08:32:36Z</time></trkpt><trkpt lat="37.438624819945844" lon="14.322618802078487"><ele>544.0</ele><time>2026-03-22T08:32:38Z</time></trkpt><trkpt lat="37.43870144442504" lon="14.322699653530147"><ele>544.0</ele><time>2026-03-22T08:32:40Z</time></trkpt><trkpt lat="37.43876239857383" lon="14.322830087502135"><ele>544.0</ele><time>2026-03-22T08:32:42Z</time></trkpt><trkpt lat="37.43882088862685" lon="14.322947241241378"><ele>544.0</ele><time>2026-03-22T08:32:44Z</time></trkpt><trkpt lat="37.43892677861225" lon="14.323049893120706"><ele>544.8333333333334</ele><time>2026-03-22T08:32:46Z</time></trkpt><trkpt lat="37.43899891707088" lon="14.32309613277184"><ele>545.6666666666667</ele><time>2026-03-22T08:32:47Z</time></trkpt><trkpt lat="37.439069711135225" lon="14.323144524361416"><ele>546.5</ele><time>2026-03-22T08:32:48Z</time></trkpt><trkpt lat="37.43913495531818" lon="14.323195363253904"><ele>547.3333333333334</ele><time>2026-03-22T08:32:49Z</time></trkpt><trkpt lat="37.43919450689394" lon="14.323242689799004"><ele>548.1666666666666</ele><time>2026-03-22T08:32:50Z</time></trkpt><trkpt lat="37.43926094777882" lon="14.32332337190488"><ele>549.0</ele><time>2026-03-22T08:32:52Z</time></trkpt><trkpt lat="37.43926343790603" lon="14.323409180704507"><ele>549.0</ele><time>2026-03-22T08:32:54Z</time></trkpt><trkpt lat="37.43929669452712" lon="14.32350283476665"><ele>549.0</ele><time>2026-03-22T08:32:56Z</time></trkpt><trkpt lat="37.4393827364313" lon="14.323621601332945"><ele>549.0</ele><time>2026-03-22T08:32:58Z</time></trkpt><trkpt lat="37.43945745131837" lon="14.32369036130229"><ele>549.0</ele><time>2026-03-22T08:32:59Z</time></trkpt><trkpt lat="37.43953409454633" lon="14.323755407226097"><ele>549.0</ele><time>2026-03-22T08:33:00Z</time></trkpt><trkpt lat="37.43960886199836" lon="14.323827902544817"><ele>548.8</ele><time>2026-03-22T08:33:01Z</time></trkpt><trkpt lat="37.4396903557062" lon="14.323887855035606"><ele>548.5999999999999</ele><time>2026-03-22T08:33:02Z</time></trkpt><trkpt lat="37.439792733107666" lon="14.323933533020487"><ele>548.4</ele><time>2026-03-22T08:33:03Z</time></trkpt><trkpt lat="37.43989087592821" lon="14.323976789474179"><ele>548.1999999999999</ele><time>2026-03-22T08:33:04Z</time></trkpt><trkpt lat="37.43997261512661" lon="14.324010813081124"><ele>548.0</ele><time>2026-03-22T08:33:05Z</time></trkpt><trkpt lat="37.440032458254024" lon="14.324042485234063"><ele>548.0</ele><time>2026-03-22T08:33:06Z</time></trkpt><trkpt lat="37.44009808908664" lon="14.324059653617358"><ele>548.0</ele><time>2026-03-22T08:33:07Z</time></trkpt><trkpt lat="37.440219485314984" lon="14.324060620824033"><ele>548.0</ele><time>2026-03-22T08:33:09Z</time></trkpt><trkpt lat="37.44032176426494" lon="14.324127108886545"><ele>548.0</ele><time>2026-03-22T08:33:11Z</time></trkpt><trkpt lat="37.44039205969502" lon="14.324166167438138"><ele>548.0</ele><time>2026-03-22T08:33:12Z</time></trkpt><trkpt lat="37.44048884924428" lon="14.32422442761141"><ele>546.0</ele><time>2026-03-22T08:33:14Z</time></trkpt><trkpt lat="37.44055731898111" lon="14.324332051530387"><ele>544.0</ele><time>2026-03-22T08:33:16Z</time></trkpt><trkpt lat="37.440571525985696" lon="14.324428157272433"><ele>542.0</ele><time>2026-03-22T08:33:17Z</time></trkpt><trkpt lat="37.44058159067974" lon="14.324553432999478"><ele>540.0</ele><time>2026-03-22T08:33:18Z</time></trkpt><trkpt lat="37.440583372686845" lon="14.324671267269283"><ele>538.0</ele><time>2026-03-22T08:33:19Z</time></trkpt><trkpt lat="37.44059945069693" lon="14.324783152912428"><ele>538.0</ele><time>2026-03-22T08:33:20Z</time></trkpt><trkpt lat="37.440621012744586" lon="14.324906264342951"><ele>538.0</ele><time>2026-03-22T08:33:21Z</time></trkpt><trkpt lat="37.44066794909483" lon="14.325064622130476"><ele>538.0</ele><time>2026-03-22T08:33:22Z</time></trkpt><trkpt lat="37.440746340555116" lon="14.325219097229207"><ele>538.0</ele><time>2026-03-22T08:33:23Z</time></trkpt><trkpt lat="37.44084678793504" lon="14.325369108090266"><ele>538.0</ele><time>2026-03-22T08:33:24Z</time></trkpt><trkpt lat="37.44096435454755" lon="14.325527984159697"><ele>538.0</ele><time>2026-03-22T08:33:25Z</time></trkpt><trkpt lat="37.44103811773627" lon="14.325643272863385"><ele>538.0</ele><time>2026-03-22T08:33:26Z</time></trkpt><trkpt lat="37.441102852484" lon="14.32573591021586"><ele>538.0</ele><time>2026-03-22T08:33:27Z</time></trkpt><trkpt lat="37.44116188312149" lon="14.325834605410675"><ele>538.6666666666667</ele><time>2026-03-22T08:33:28Z</time></trkpt><trkpt lat="37.441234285193936" lon="14.325917985748793"><ele>539.3333333333334</ele><time>2026-03-22T08:33:29Z</time></trkpt><trkpt lat="37.44130001582099" lon="14.325978863719138"><ele>540.0</ele><time>2026-03-22T08:33:30Z</time></trkpt><trkpt lat="37.441356764604926" lon="14.326014978704869"><ele>540.6666666666666</ele><time>2026-03-22T08:33:31Z</time></trkpt><trkpt lat="37.44141770947687" lon="14.32603555349047"><ele>541.3333333333333</ele><time>2026-03-22T08:33:33Z</time></trkpt><trkpt lat="37.44150120430514" lon="14.32599108078205"><ele>542.0</ele><time>2026-03-22T08:33:53Z</time></trkpt><trkpt lat="37.441567432442426" lon="14.325962779545943"><ele>542.0</ele><time>2026-03-22T08:33:55Z</time></trkpt><trkpt lat="37.44166093619664" lon="14.325918569891503"><ele>542.0</ele><time>2026-03-22T08:33:57Z</time></trkpt><trkpt lat="37.441748507668535" lon="14.325849359813674"><ele>542.0</ele><time>2026-03-22T08:33:59Z</time></trkpt><trkpt lat="37.441753359266514" lon="14.32574181078611"><ele>542.0</ele><time>2026-03-22T08:34:04Z</time></trkpt><trkpt lat="37.44169951215216" lon="14.325667426265257"><ele>542.0</ele><time>2026-03-22T08:34:07Z</time></trkpt><trkpt lat="37.441646088304005" lon="14.325606526009471"><ele>542.0</ele><time>2026-03-22T08:34:10Z</time></trkpt><trkpt lat="37.44156573489861" lon="14.325530063008289"><ele>540.8000000000001</ele><time>2026-03-22T08:34:13Z</time></trkpt><trkpt lat="37.441502207121104" lon="14.325467728730553"><ele>539.6</ele><time>2026-03-22T08:34:15Z</time></trkpt><trkpt lat="37.441443757053285" lon="14.325347907848945"><ele>538.4000000000001</ele><time>2026-03-22T08:34:17Z</time></trkpt><trkpt lat="37.44139842972814" lon="14.325206194644755"><ele>537.2</ele><time>2026-03-22T08:34:19Z</time></trkpt><trkpt lat="37.44141554054366" lon="14.325119506944217"><ele>536.0</ele><time>2026-03-22T08:34:20Z</time></trkpt><trkpt lat="37.44139333602956" lon="14.324995025448176"><ele>536.0</ele><time>2026-03-22T08:34:22Z</time></trkpt><trkpt lat="37.44147854459448" lon="14.324899404564238"><ele>536.0</ele><time>2026-03-22T08:34:24Z</time></trkpt><trkpt lat="37.44155274101255" lon="14.324780938461885"><ele>536.0</ele><time>2026-03-22T08:34:26Z</time></trkpt><trkpt lat="37.44162836580789" lon="14.324697623043463"><ele>536.0</ele><time>2026-03-22T08:34:28Z</time></trkpt><trkpt lat="37.441711930001745" lon="14.324673145797043"><ele>536.0</ele><time>2026-03-22T08:34:30Z</time></trkpt><trkpt lat="37.44180932510825" lon="14.32468953243355"><ele>535.2</ele><time>2026-03-22T08:34:32Z</time></trkpt><trkpt lat="37.44188670217804" lon="14.324699072648917"><ele>534.4000000000001</ele><time>2026-03-22T08:34:33Z</time></trkpt><trkpt lat="37.44197469545474" lon="14.324711073211079"><ele>533.6</ele><time>2026-03-22T08:34:34Z</time></trkpt><trkpt lat="37.44207262543835" lon="14.32472708263262"><ele>532.8000000000001</ele><time>2026-03-22T08:34:35Z</time></trkpt><trkpt lat="37.44216721913557" lon="14.324740777933"><ele>532.0</ele><time>2026-03-22T08:34:36Z</time></trkpt><trkpt lat="37.442256907452595" lon="14.324745503548526"><ele>534.0</ele><time>2026-03-22T08:34:37Z</time></trkpt><trkpt lat="37.44233494899677" lon="14.324745503546739"><ele>536.0</ele><time>2026-03-22T08:34:38Z</time></trkpt><trkpt lat="37.442412222033646" lon="14.324749877024749"><ele>538.0</ele><time>2026-03-22T08:34:39Z</time></trkpt><trkpt lat="37.44248993414042" lon="14.32477136158818"><ele>540.0</ele><time>2026-03-22T08:34:40Z</time></trkpt><trkpt lat="37.442562343096334" lon="14.324799575005986"><ele>542.0</ele><time>2026-03-22T08:34:41Z</time></trkpt><trkpt lat="37.44263956249093" lon="14.324843037991442"><ele>544.0</ele><time>2026-03-22T08:34:42Z</time></trkpt><trkpt lat="37.442708993751936" lon="14.32488395914815"><ele>543.9999999999999</ele><time>2026-03-22T08:34:43Z</time></trkpt><trkpt lat="37.44277417502758" lon="14.324904547890968"><ele>544.0</ele><time>2026-03-22T08:34:44Z</time></trkpt><trkpt lat="37.44284021514253" lon="14.324909828600788"><ele>544.0</ele><time>2026-03-22T08:34:45Z</time></trkpt><trkpt lat="37.442897943546704" lon="14.3248611101391"><ele>544.0</ele><time>2026-03-22T08:34:46Z</time></trkpt><trkpt lat="37.44295115808561" lon="14.324800613152473"><ele>544.0</ele><time>2026-03-22T08:34:47Z</time></trkpt><trkpt lat="37.443006478421864" lon="14.324755874400461"><ele>543.9999999999999</ele><time>2026-03-22T08:34:48Z</time></trkpt><trkpt lat="37.44309818977209" lon="14.324681705441428"><ele>544.0</ele><time>2026-03-22T08:34:50Z</time></trkpt><trkpt lat="37.443152581071786" lon="14.324637718020638"><ele>545.6</ele><time>2026-03-22T08:34:51Z</time></trkpt><trkpt lat="37.443241291189494" lon="14.32472498861558"><ele>547.2</ele><time>2026-03-22T08:34:52Z</time></trkpt><trkpt lat="37.44330843989368" lon="14.324720830553368"><ele>548.8000000000001</ele><time>2026-03-22T08:34:58Z</time></trkpt><trkpt lat="37.44339420373966" lon="14.324782332429177"><ele>550.4</ele><time>2026-03-22T08:35:00Z</time></trkpt><trkpt lat="37.44347401667188" lon="14.324873602821393"><ele>552.0</ele><time>2026-03-22T08:35:02Z</time></trkpt><trkpt lat="37.44345126724694" lon="14.325016247862743"><ele>553.6</ele><time>2026-03-22T08:35:04Z</time></trkpt><trkpt lat="37.44339395104308" lon="14.32508807702574"><ele>555.2</ele><time>2026-03-22T08:35:05Z</time></trkpt><trkpt lat="37.44333185261912" lon="14.325190669195957"><ele>556.8</ele><time>2026-03-22T08:35:07Z</time></trkpt><trkpt lat="37.443287841756785" lon="14.325290835826223"><ele>558.4</ele><time>2026-03-22T08:35:09Z</time></trkpt><trkpt lat="37.44326459814724" lon="14.325396728995118"><ele>560.0</ele><time>2026-03-22T08:35:11Z</time></trkpt><trkpt lat="37.443267462585546" lon="14.325521283987563"><ele>560.75</ele><time>2026-03-22T08:35:13Z</time></trkpt><trkpt lat="37.44333259307401" lon="14.325658232531268"><ele>561.5</ele><time>2026-03-22T08:35:15Z</time></trkpt><trkpt lat="37.443372444669016" lon="14.325744131517268"><ele>562.25</ele><time>2026-03-22T08:35:16Z</time></trkpt><trkpt lat="37.443421933483286" lon="14.325890050106125"><ele>563.0</ele><time>2026-03-22T08:35:18Z</time></trkpt><trkpt lat="37.44341975557471" lon="14.326060491957533"><ele>563.0</ele><time>2026-03-22T08:35:20Z</time></trkpt><trkpt lat="37.44341918614932" lon="14.326143342581485"><ele>563.0</ele><time>2026-03-22T08:35:21Z</time></trkpt><trkpt lat="37.44340850435344" lon="14.326230484819478"><ele>563.0</ele><time>2026-03-22T08:35:22Z</time></trkpt><trkpt lat="37.44338906331276" lon="14.326374294385106"><ele>563.0</ele><time>2026-03-22T08:35:24Z</time></trkpt><trkpt lat="37.443369468655405" lon="14.326520110292513"><ele>563.0</ele><time>2026-03-22T08:35:26Z</time></trkpt><trkpt lat="37.443364240679315" lon="14.32668285195927"><ele>562.7142857142857</ele><time>2026-03-22T08:35:28Z</time></trkpt><trkpt lat="37.443373694848674" lon="14.326779502486367"><ele>562.4285714285714</ele><time>2026-03-22T08:35:29Z</time></trkpt><trkpt lat="37.443396918625986" lon="14.32685987562661"><ele>562.1428571428571</ele><time>2026-03-22T08:35:30Z</time></trkpt><trkpt lat="37.44341772146673" lon="14.326936167843474"><ele>561.8571428571429</ele><time>2026-03-22T08:35:31Z</time></trkpt><trkpt lat="37.44343636173095" lon="14.327016449127443"><ele>561.5714285714286</ele><time>2026-03-22T08:35:32Z</time></trkpt><trkpt lat="37.443456917106964" lon="14.32709726326104"><ele>561.2857142857142</ele><time>2026-03-22T08:35:33Z</time></trkpt><trkpt lat="37.44347970477125" lon="14.327172743195009"><ele>561.0</ele><time>2026-03-22T08:35:34Z</time></trkpt><trkpt lat="37.44353143763612" lon="14.32732571987904"><ele>560.6666666666666</ele><time>2026-03-22T08:35:36Z</time></trkpt><trkpt lat="37.44355118943445" lon="14.327405914235799"><ele>560.3333333333334</ele><time>2026-03-22T08:35:37Z</time></trkpt><trkpt lat="37.4435693860352" lon="14.327507371884815"><ele>560.0</ele><time>2026-03-22T08:35:39Z</time></trkpt><trkpt lat="37.443600150241295" lon="14.327633242126883"><ele>559.6666666666667</ele><time>2026-03-22T08:35:41Z</time></trkpt><trkpt lat="37.44361446537692" lon="14.32771567913729"><ele>559.3333333333334</ele><time>2026-03-22T08:35:42Z</time></trkpt><trkpt lat="37.44360793204872" lon="14.327860247200004"><ele>559.0</ele><time>2026-03-22T08:35:44Z</time></trkpt><trkpt lat="37.44364020911628" lon="14.327958330598877"><ele>557.4</ele><time>2026-03-22T08:35:46Z</time></trkpt><trkpt lat="37.443726608168284" lon="14.328074157663952"><ele>555.8</ele><time>2026-03-22T08:35:48Z</time></trkpt><trkpt lat="37.443783849875835" lon="14.32815652414172"><ele>554.2</ele><time>2026-03-22T08:35:49Z</time></trkpt><trkpt lat="37.443842212677964" lon="14.328239342028713"><ele>552.6</ele><time>2026-03-22T08:35:50Z</time></trkpt><trkpt lat="37.44388301614358" lon="14.328309215913219"><ele>551.0</ele><time>2026-03-22T08:35:51Z</time></trkpt><trkpt lat="37.44392771126071" lon="14.328413433577149"><ele>555.5</ele><time>2026-03-22T08:35:52Z</time></trkpt><trkpt lat="37.443968407973514" lon="14.328535104058078"><ele>560.0</ele><time>2026-03-22T08:35:53Z</time></trkpt><trkpt lat="37.444000724121246" lon="14.328629109361557"><ele>564.5</ele><time>2026-03-22T08:35:54Z</time></trkpt><trkpt lat="37.44404042184625" lon="14.32872745722265"><ele>569.0</ele><time>2026-03-22T08:35:56Z</time></trkpt><trkpt lat="37.44404661351243" lon="14.32882240264712"><ele>573.5</ele><time>2026-03-22T08:36:00Z</time></trkpt><trkpt lat="37.443979286484186" lon="14.328869316043138"><ele>578.0</ele><time>2026-03-22T08:36:03Z</time></trkpt><trkpt lat="37.44391135277709" lon="14.328860137882502"><ele>578.0</ele><time>2026-03-22T08:36:06Z</time></trkpt><trkpt lat="37.44384221771319" lon="14.328875407936401"><ele>578.0</ele><time>2026-03-22T08:36:08Z</time></trkpt><trkpt lat="37.443784068326906" lon="14.328930056278944"><ele>578.0</ele><time>2026-03-22T08:36:10Z</time></trkpt><trkpt lat="37.44370487595654" lon="14.328948044599922"><ele>578.0</ele><time>2026-03-22T08:36:12Z</time></trkpt><trkpt lat="37.44363618389837" lon="14.328996636957417"><ele>578.0</ele><time>2026-03-22T08:36:14Z</time></trkpt><trkpt lat="37.443653249585" lon="14.32909333490357"><ele>578.0</ele><time>2026-03-22T08:36:16Z</time></trkpt><trkpt lat="37.44369310747967" lon="14.329167926525896"><ele>575.0</ele><time>2026-03-22T08:36:17Z</time></trkpt><trkpt lat="37.44375029906073" lon="14.329237636574284"><ele>572.0</ele><time>2026-03-22T08:36:18Z</time></trkpt><trkpt lat="37.4438059108155" lon="14.329298038915308"><ele>569.0</ele><time>2026-03-22T08:36:19Z</time></trkpt><trkpt lat="37.44394458818025" lon="14.329298740396782"><ele>566.0</ele><time>2026-03-22T08:36:22Z</time></trkpt><trkpt lat="37.44401460098091" lon="14.329278873537744"><ele>563.0</ele><time>2026-03-22T08:36:26Z</time></trkpt><trkpt lat="37.44412795232715" lon="14.329317496654152"><ele>563.0</ele><time>2026-03-22T08:36:35Z</time></trkpt><trkpt lat="37.44420187050657" lon="14.329353395234689"><ele>563.0</ele><time>2026-03-22T08:36:38Z</time></trkpt><trkpt lat="37.44430323953142" lon="14.329424589498268"><ele>563.0</ele><time>2026-03-22T08:36:41Z</time></trkpt><trkpt lat="37.444376754738165" lon="14.329478584987852"><ele>563.0</ele><time>2026-03-22T08:36:49Z</time></trkpt><trkpt lat="37.4444435833477" lon="14.32949677298336"><ele>563.0</ele><time>2026-03-22T08:36:52Z</time></trkpt><trkpt lat="37.44449329417004" lon="14.329547129508168"><ele>563.0</ele><time>2026-03-22T08:36:55Z</time></trkpt><trkpt lat="37.44454070570217" lon="14.329668485909732"><ele>561.3333333333333</ele><time>2026-03-22T08:37:10Z</time></trkpt><trkpt lat="37.44451095543917" lon="14.32977043360972"><ele>559.6666666666666</ele><time>2026-03-22T08:37:14Z</time></trkpt><trkpt lat="37.44455613716097" lon="14.32985120016691"><ele>558.0</ele><time>2026-03-22T08:37:18Z</time></trkpt><trkpt lat="37.444589249423636" lon="14.329957276886661"><ele>556.3333333333334</ele><time>2026-03-22T08:37:28Z</time></trkpt><trkpt lat="37.44452419572962" lon="14.329972799031284"><ele>554.6666666666667</ele><time>2026-03-22T08:37:36Z</time></trkpt><trkpt lat="37.444468904339224" lon="14.329926213957394"><ele>553.0</ele><time>2026-03-22T08:37:43Z</time></trkpt><trkpt lat="37.444403688763416" lon="14.329914167126148"><ele>553.0</ele><time>2026-03-22T08:39:53Z</time></trkpt><trkpt lat="37.44439793946408" lon="14.329996800644652"><ele>553.0</ele><time>2026-03-22T08:40:01Z</time></trkpt><trkpt lat="37.444446364939786" lon="14.329939944654045"><ele>553.0</ele><time>2026-03-22T08:41:05Z</time></trkpt><trkpt lat="37.44440585344062" lon="14.330002154357459"><ele>553.0</ele><time>2026-03-22T08:44:20Z</time></trkpt><trkpt lat="37.44440235155568" lon="14.33009888275795"><ele>553.0</ele><time>2026-03-22T08:45:36Z</time></trkpt><trkpt lat="37.444422414312754" lon="14.330185866101713"><ele>553.0</ele><time>2026-03-22T08:45:38Z</time></trkpt><trkpt lat="37.44446458562056" lon="14.330325925117448"><ele>553.0</ele><time>2026-03-22T08:45:40Z</time></trkpt><trkpt lat="37.444524544595524" lon="14.330449494842506"><ele>553.0</ele><time>2026-03-22T08:45:42Z</time></trkpt><trkpt lat="37.444569315167435" lon="14.33050811298206"><ele>553.0</ele><time>2026-03-22T08:45:48Z</time></trkpt><trkpt lat="37.444606137555354" lon="14.330583643763285"><ele>553.0</ele><time>2026-03-22T08:45:49Z</time></trkpt><trkpt lat="37.44471764058294" lon="14.330696318325103"><ele>553.0</ele><time>2026-03-22T08:45:51Z</time></trkpt><trkpt lat="37.444781113139875" lon="14.33075683503595"><ele>554.1666666666667</ele><time>2026-03-22T08:45:52Z</time></trkpt><trkpt lat="37.44484530383309" lon="14.330811366056977"><ele>555.3333333333334</ele><time>2026-03-22T08:45:53Z</time></trkpt><trkpt lat="37.44492576323471" lon="14.330856199795225"><ele>556.5</ele><time>2026-03-22T08:45:54Z</time></trkpt><trkpt lat="37.445002645248195" lon="14.330899128793313"><ele>557.6666666666666</ele><time>2026-03-22T08:45:55Z</time></trkpt><trkpt lat="37.44506083661866" lon="14.33094082114386"><ele>558.8333333333333</ele><time>2026-03-22T08:45:56Z</time></trkpt><trkpt lat="37.44514422201454" lon="14.330884700229744"><ele>560.0</ele><time>2026-03-22T08:45:58Z</time></trkpt><trkpt lat="37.44522146994002" lon="14.33081593942258"><ele>560.0</ele><time>2026-03-22T08:45:59Z</time></trkpt><trkpt lat="37.44530949663966" lon="14.330770431976983"><ele>560.0</ele><time>2026-03-22T08:46:00Z</time></trkpt><trkpt lat="37.44539707729201" lon="14.330813429697066"><ele>560.0</ele><time>2026-03-22T08:46:02Z</time></trkpt><trkpt lat="37.445426247632575" lon="14.330916386158242"><ele>560.0</ele><time>2026-03-22T08:46:03Z</time></trkpt><trkpt lat="37.44545886516297" lon="14.330998541405119"><ele>560.0</ele><time>2026-03-22T08:46:04Z</time></trkpt><trkpt lat="37.44551301512168" lon="14.331043984925024"><ele>560.0</ele><time>2026-03-22T08:46:05Z</time></trkpt><trkpt lat="37.445595756410654" lon="14.331119464214868"><ele>561.8</ele><time>2026-03-22T08:46:06Z</time></trkpt><trkpt lat="37.445655996261124" lon="14.331200763689951"><ele>563.6</ele><time>2026-03-22T08:46:07Z</time></trkpt><trkpt lat="37.445711702622596" lon="14.331301612024605"><ele>565.4</ele><time>2026-03-22T08:46:08Z</time></trkpt><trkpt lat="37.44574263671397" lon="14.331398424548023"><ele>567.2</ele><time>2026-03-22T08:46:09Z</time></trkpt><trkpt lat="37.445805388314405" lon="14.331567610493012"><ele>569.0</ele><time>2026-03-22T08:46:11Z</time></trkpt><trkpt lat="37.445840867098525" lon="14.331696499785865"><ele>569.0</ele><time>2026-03-22T08:46:12Z</time></trkpt><trkpt lat="37.44586425387697" lon="14.331806055005702"><ele>569.0</ele><time>2026-03-22T08:46:13Z</time></trkpt><trkpt lat="37.44588798207688" lon="14.331893498359214"><ele>569.0</ele><time>2026-03-22T08:46:14Z</time></trkpt><trkpt lat="37.44592043042471" lon="14.331963750308928"><ele>569.0</ele><time>2026-03-22T08:46:15Z</time></trkpt><trkpt lat="37.445938561811076" lon="14.33207305034019"><ele>569.0</ele><time>2026-03-22T08:46:17Z</time></trkpt><trkpt lat="37.445895443369714" lon="14.332177477234463"><ele>569.0</ele><time>2026-03-22T08:46:19Z</time></trkpt><trkpt lat="37.445907627909385" lon="14.332275134454314"><ele>567.8333333333333</ele><time>2026-03-22T08:46:21Z</time></trkpt><trkpt lat="37.44592817743373" lon="14.332350299019534"><ele>566.6666666666666</ele><time>2026-03-22T08:46:22Z</time></trkpt><trkpt lat="37.445940206193214" lon="14.332455828701683"><ele>565.5</ele><time>2026-03-22T08:46:23Z</time></trkpt><trkpt lat="37.4459352779899" lon="14.33256694591427"><ele>564.3333333333334</ele><time>2026-03-22T08:46:24Z</time></trkpt><trkpt lat="37.44593181882595" lon="14.332663538289156"><ele>563.1666666666667</ele><time>2026-03-22T08:46:25Z</time></trkpt><trkpt lat="37.445939155608926" lon="14.332779667752982"><ele>562.0</ele><time>2026-03-22T08:46:26Z</time></trkpt><trkpt lat="37.44596546400648" lon="14.33285426442093"><ele>562.0</ele><time>2026-03-22T08:46:27Z</time></trkpt><trkpt lat="37.44598786568247" lon="14.33293066790509"><ele>562.0</ele><time>2026-03-22T08:46:28Z</time></trkpt><trkpt lat="37.446036535042055" lon="14.333109032265938"><ele>562.0</ele><time>2026-03-22T08:46:30Z</time></trkpt><trkpt lat="37.446083779128855" lon="14.333211479634556"><ele>562.0</ele><time>2026-03-22T08:46:31Z</time></trkpt><trkpt lat="37.446128223306" lon="14.333315476108174"><ele>562.0</ele><time>2026-03-22T08:46:32Z</time></trkpt><trkpt lat="37.44617719806958" lon="14.33341446351724"><ele>562.1666666666667</ele><time>2026-03-22T08:46:33Z</time></trkpt><trkpt lat="37.446196790881565" lon="14.333550737142176"><ele>562.3333333333334</ele><time>2026-03-22T08:46:35Z</time></trkpt><trkpt lat="37.44620471273933" lon="14.333645172082486"><ele>562.5</ele><time>2026-03-22T08:46:37Z</time></trkpt><trkpt lat="37.4462559661271" lon="14.333713091014339"><ele>562.6666666666666</ele><time>2026-03-22T08:46:39Z</time></trkpt><trkpt lat="37.44632134828129" lon="14.333752806475163"><ele>562.8333333333333</ele><time>2026-03-22T08:46:40Z</time></trkpt><trkpt lat="37.446389018392765" lon="14.333793453511994"><ele>563.0</ele><time>2026-03-22T08:46:41Z</time></trkpt><trkpt lat="37.446435100557444" lon="14.333865968229153"><ele>565.3333333333333</ele><time>2026-03-22T08:46:42Z</time></trkpt><trkpt lat="37.44645267105848" lon="14.333960240175735"><ele>567.6666666666666</ele><time>2026-03-22T08:46:43Z</time></trkpt><trkpt lat="37.44646869146697" lon="14.334053308493452"><ele>570.0</ele><time>2026-03-22T08:46:44Z</time></trkpt><trkpt lat="37.44648303029655" lon="14.334145516490326"><ele>572.3333333333334</ele><time>2026-03-22T08:46:45Z</time></trkpt><trkpt lat="37.44648603717068" lon="14.334243125844544"><ele>574.6666666666667</ele><time>2026-03-22T08:46:46Z</time></trkpt><trkpt lat="37.44647827711846" lon="14.334356663135553"><ele>577.0</ele><time>2026-03-22T08:46:47Z</time></trkpt><trkpt lat="37.44648843065578" lon="14.334461080089806"><ele>577.0</ele><time>2026-03-22T08:46:48Z</time></trkpt><trkpt lat="37.44650590170014" lon="14.334555937144565"><ele>577.0</ele><time>2026-03-22T08:46:49Z</time></trkpt><trkpt lat="37.44653580957228" lon="14.334635516448444"><ele>577.0</ele><time>2026-03-22T08:46:50Z</time></trkpt><trkpt lat="37.446572580498845" lon="14.334711894896273"><ele>577.0</ele><time>2026-03-22T08:46:51Z</time></trkpt><trkpt lat="37.446633678000104" lon="14.33480115646858"><ele>577.0</ele><time>2026-03-22T08:46:52Z</time></trkpt><trkpt lat="37.446704259300176" lon="14.33486545351069"><ele>577.0</ele><time>2026-03-22T08:46:53Z</time></trkpt><trkpt lat="37.446782421555476" lon="14.334906799815062"><ele>578.1666666666667</ele><time>2026-03-22T08:46:54Z</time></trkpt><trkpt lat="37.446873725963506" lon="14.334938899527696"><ele>579.3333333333334</ele><time>2026-03-22T08:46:55Z</time></trkpt><trkpt lat="37.44694188526254" lon="14.334958669088984"><ele>580.5</ele><time>2026-03-22T08:46:56Z</time></trkpt><trkpt lat="37.44701562864112" lon="14.334992454042531"><ele>581.6666666666666</ele><time>2026-03-22T08:46:57Z</time></trkpt><trkpt lat="37.44708741891444" lon="14.33503191731922"><ele>582.8333333333333</ele><time>2026-03-22T08:46:58Z</time></trkpt><trkpt lat="37.447151942214155" lon="14.335060283803722"><ele>584.0</ele><time>2026-03-22T08:46:59Z</time></trkpt><trkpt lat="37.447219858189754" lon="14.335100348723525"><ele>584.0</ele><time>2026-03-22T08:47:00Z</time></trkpt><trkpt lat="37.447283155668686" lon="14.335143344304752"><ele>584.0</ele><time>2026-03-22T08:47:01Z</time></trkpt><trkpt lat="37.4473854692639" lon="14.335183530414309"><ele>584.0</ele><time>2026-03-22T08:47:03Z</time></trkpt><trkpt lat="37.447494155676324" lon="14.335201921475244"><ele>584.0</ele><time>2026-03-22T08:47:05Z</time></trkpt><trkpt lat="37.447556985260604" lon="14.335235781407725"><ele>584.0</ele><time>2026-03-22T08:47:06Z</time></trkpt><trkpt lat="37.447636401323464" lon="14.33525222686463"><ele>584.0</ele><time>2026-03-22T08:47:07Z</time></trkpt><trkpt lat="37.447722211714655" lon="14.335262601084045"><ele>584.0</ele><time>2026-03-22T08:47:08Z</time></trkpt><trkpt lat="37.447815259104715" lon="14.335285130421878"><ele>584.0</ele><time>2026-03-22T08:47:09Z</time></trkpt><trkpt lat="37.44790843215402" lon="14.335340669425245"><ele>584.0</ele><time>2026-03-22T08:47:10Z</time></trkpt><trkpt lat="37.44800298586901" lon="14.335413493429066"><ele>584.0</ele><time>2026-03-22T08:47:11Z</time></trkpt><trkpt lat="37.44806825006605" lon="14.335458827137725"><ele>584.0</ele><time>2026-03-22T08:47:12Z</time></trkpt><trkpt lat="37.44817418399531" lon="14.335446752107064"><ele>585.8333333333333</ele><time>2026-03-22T08:47:14Z</time></trkpt><trkpt lat="37.44825124592674" lon="14.335377706448131"><ele>587.6666666666666</ele><time>2026-03-22T08:47:21Z</time></trkpt><trkpt lat="37.44830742040368" lon="14.335318582535265"><ele>589.5</ele><time>2026-03-22T08:47:22Z</time></trkpt><trkpt lat="37.448359819840384" lon="14.335269806877356"><ele>591.3333333333334</ele><time>2026-03-22T08:47:23Z</time></trkpt><trkpt lat="37.44841832873997" lon="14.335200001085678"><ele>593.1666666666667</ele><time>2026-03-22T08:47:24Z</time></trkpt><trkpt lat="37.448471154216186" lon="14.335129289266982"><ele>595.0</ele><time>2026-03-22T08:47:25Z</time></trkpt><trkpt lat="37.44856705199035" lon="14.335008234371777"><ele>595.0</ele><time>2026-03-22T08:47:27Z</time></trkpt><trkpt lat="37.44862994612309" lon="14.33495263933697"><ele>595.0</ele><time>2026-03-22T08:47:28Z</time></trkpt><trkpt lat="37.448730040066536" lon="14.334899662069285"><ele>595.0</ele><time>2026-03-22T08:47:29Z</time></trkpt><trkpt lat="37.448824514091925" lon="14.334859371708129"><ele>595.0</ele><time>2026-03-22T08:47:30Z</time></trkpt><trkpt lat="37.448908570893764" lon="14.334842686116575"><ele>595.0</ele><time>2026-03-22T08:47:31Z</time></trkpt><trkpt lat="37.448971023230186" lon="14.334830635699374"><ele>595.0</ele><time>2026-03-22T08:47:32Z</time></trkpt><trkpt lat="37.44908414293988" lon="14.334745353501162"><ele>598.8</ele><time>2026-03-22T08:47:34Z</time></trkpt><trkpt lat="37.44911602012566" lon="14.334676432676448"><ele>602.6</ele><time>2026-03-22T08:47:35Z</time></trkpt><trkpt lat="37.449196187977016" lon="14.33458399125309"><ele>606.4</ele><time>2026-03-22T08:47:37Z</time></trkpt><trkpt lat="37.4492903626461" lon="14.334498602638208"><ele>610.2</ele><time>2026-03-22T08:47:39Z</time></trkpt><trkpt lat="37.44938151698447" lon="14.334438375239143"><ele>614.0</ele><time>2026-03-22T08:47:41Z</time></trkpt><trkpt lat="37.449462778051426" lon="14.334381869209215"><ele>614.0</ele><time>2026-03-22T08:47:43Z</time></trkpt><trkpt lat="37.449463441496235" lon="14.334299130525869"><ele>614.0</ele><time>2026-03-22T08:47:45Z</time></trkpt><trkpt lat="37.4494295322629" lon="14.334230247603667"><ele>614.0</ele><time>2026-03-22T08:47:47Z</time></trkpt><trkpt lat="37.44952382489928" lon="14.334263733032"><ele>614.0</ele><time>2026-03-22T08:48:37Z</time></trkpt><trkpt lat="37.44960235919746" lon="14.33433995938903"><ele>614.0</ele><time>2026-03-22T08:49:47Z</time></trkpt><trkpt lat="37.44972004350358" lon="14.334343867015024"><ele>614.0</ele><time>2026-03-22T08:49:49Z</time></trkpt><trkpt lat="37.449787517914906" lon="14.334371440930664"><ele>613.8</ele><time>2026-03-22T08:49:51Z</time></trkpt><trkpt lat="37.449797718860175" lon="14.334472908289321"><ele>613.5999999999999</ele><time>2026-03-22T08:49:53Z</time></trkpt><trkpt lat="37.44976495621323" lon="14.334603496641519"><ele>613.4</ele><time>2026-03-22T08:49:55Z</time></trkpt><trkpt lat="37.449753498589715" lon="14.334681493922691"><ele>613.1999999999999</ele><time>2026-03-22T08:49:56Z</time></trkpt><trkpt lat="37.44974438358545" lon="14.33483086329833"><ele>613.0</ele><time>2026-03-22T08:49:58Z</time></trkpt><trkpt lat="37.449726343517625" lon="14.334927135063113"><ele>612.1999999999999</ele><time>2026-03-22T08:50:00Z</time></trkpt><trkpt lat="37.44973780014532" lon="14.335056187324307"><ele>611.4</ele><time>2026-03-22T08:50:02Z</time></trkpt><trkpt lat="37.44975114913097" lon="14.335140394118659"><ele>610.5999999999999</ele><time>2026-03-22T08:50:04Z</time></trkpt><trkpt lat="37.4498057425146" lon="14.335187982620159"><ele>609.8</ele><time>2026-03-22T08:50:06Z</time></trkpt><trkpt lat="37.44992420207246" lon="14.33512441168125"><ele>609.0</ele><time>2026-03-22T08:50:08Z</time></trkpt><trkpt lat="37.450012454419706" lon="14.335074155307533"><ele>609.0</ele><time>2026-03-22T08:50:10Z</time></trkpt><trkpt lat="37.450092976747136" lon="14.335121037008266"><ele>609.0</ele><time>2026-03-22T08:50:12Z</time></trkpt><trkpt lat="37.45013508596939" lon="14.33521966518002"><ele>609.0</ele><time>2026-03-22T08:50:14Z</time></trkpt><trkpt lat="37.45022462491903" lon="14.335261060323981"><ele>609.0</ele><time>2026-03-22T08:50:16Z</time></trkpt><trkpt lat="37.450289230107614" lon="14.335238153160086"><ele>609.0</ele><time>2026-03-22T08:50:17Z</time></trkpt><trkpt lat="37.45036376133116" lon="14.335160106035637"><ele>609.0</ele><time>2026-03-22T08:50:18Z</time></trkpt><trkpt lat="37.4504511486651" lon="14.33505835544564"><ele>607.75</ele><time>2026-03-22T08:50:19Z</time></trkpt><trkpt lat="37.45056274411642" lon="14.334970115948865"><ele>606.5</ele><time>2026-03-22T08:50:20Z</time></trkpt><trkpt lat="37.450683703480415" lon="14.33488511458242"><ele>605.25</ele><time>2026-03-22T08:50:21Z</time></trkpt><trkpt lat="37.450816070783674" lon="14.334821327823041"><ele>604.0</ele><time>2026-03-22T08:50:22Z</time></trkpt><trkpt lat="37.45092550760839" lon="14.334758911440552"><ele>605.4</ele><time>2026-03-22T08:50:23Z</time></trkpt><trkpt lat="37.45102535253995" lon="14.334695012467645"><ele>606.8</ele><time>2026-03-22T08:50:24Z</time></trkpt><trkpt lat="37.4511074660456" lon="14.334634487395851"><ele>608.2</ele><time>2026-03-22T08:50:25Z</time></trkpt><trkpt lat="37.45118175786845" lon="14.334580364360615"><ele>609.6</ele><time>2026-03-22T08:50:26Z</time></trkpt><trkpt lat="37.451259328886316" lon="14.334548189135552"><ele>611.0</ele><time>2026-03-22T08:50:27Z</time></trkpt><trkpt lat="37.451362213575614" lon="14.334540438512555"><ele>611.0</ele><time>2026-03-22T08:50:28Z</time></trkpt><trkpt lat="37.45147042395864" lon="14.334551072923283"><ele>611.0</ele><time>2026-03-22T08:50:29Z</time></trkpt><trkpt lat="37.45156241766107" lon="14.33458525208352"><ele>611.0</ele><time>2026-03-22T08:50:30Z</time></trkpt><trkpt lat="37.45165578114272" lon="14.334617183445546"><ele>611.0</ele><time>2026-03-22T08:50:31Z</time></trkpt><trkpt lat="37.45173832151729" lon="14.334648847910328"><ele>611.0</ele><time>2026-03-22T08:50:32Z</time></trkpt><trkpt lat="37.45180477201247" lon="14.334692423060055"><ele>610.1666666666666</ele><time>2026-03-22T08:50:33Z</time></trkpt><trkpt lat="37.451865493026034" lon="14.334734221923762"><ele>609.3333333333333</ele><time>2026-03-22T08:50:34Z</time></trkpt><trkpt lat="37.451968219128084" lon="14.3347845940636"><ele>608.5</ele><time>2026-03-22T08:50:36Z</time></trkpt><trkpt lat="37.451952666612605" lon="14.33488573467227"><ele>607.6666666666666</ele><time>2026-03-22T08:50:40Z</time></trkpt><trkpt lat="37.45186580396071" lon="14.334998944280583"><ele>606.8333333333334</ele><time>2026-03-22T08:50:42Z</time></trkpt><trkpt lat="37.45181644829948" lon="14.33504888592186"><ele>606.0</ele><time>2026-03-22T08:50:43Z</time></trkpt><trkpt lat="37.45175999062574" lon="14.335106177169719"><ele>606.0</ele><time>2026-03-22T08:51:45Z</time></trkpt><trkpt lat="37.45170983370678" lon="14.335190515878825"><ele>606.0</ele><time>2026-03-22T08:52:50Z</time></trkpt><trkpt lat="37.451651392572785" lon="14.335253262013252"><ele>606.0</ele><time>2026-03-22T08:52:51Z</time></trkpt><trkpt lat="37.45158802013756" lon="14.335320213287648"><ele>606.0</ele><time>2026-03-22T08:52:52Z</time></trkpt><trkpt lat="37.45153904681655" lon="14.335396417864404"><ele>606.0</ele><time>2026-03-22T08:52:53Z</time></trkpt><trkpt lat="37.45150804516137" lon="14.335476592240786"><ele>606.0</ele><time>2026-03-22T08:52:54Z</time></trkpt><trkpt lat="37.45147374169116" lon="14.335551335994667"><ele>607.0</ele><time>2026-03-22T08:52:55Z</time></trkpt><trkpt lat="37.451428430816684" lon="14.335631584187809"><ele>608.0</ele><time>2026-03-22T08:52:56Z</time></trkpt><trkpt lat="37.45138037413283" lon="14.33571196829296"><ele>609.0</ele><time>2026-03-22T08:52:57Z</time></trkpt><trkpt lat="37.45134958847677" lon="14.335807212417349"><ele>610.0</ele><time>2026-03-22T08:52:58Z</time></trkpt><trkpt lat="37.45133336283765" lon="14.335929226989526"><ele>611.0</ele><time>2026-03-22T08:52:59Z</time></trkpt><trkpt lat="37.45131363207672" lon="14.336049775933908"><ele>612.0</ele><time>2026-03-22T08:53:00Z</time></trkpt><trkpt lat="37.451290995726026" lon="14.33616852802337"><ele>610.4</ele><time>2026-03-22T08:53:01Z</time></trkpt><trkpt lat="37.45126409735188" lon="14.336262457703757"><ele>608.8000000000001</ele><time>2026-03-22T08:53:02Z</time></trkpt><trkpt lat="37.45122514206937" lon="14.336357699471977"><ele>607.2</ele><time>2026-03-22T08:53:03Z</time></trkpt><trkpt lat="37.45115655849186" lon="14.336431553199168"><ele>605.6</ele><time>2026-03-22T08:53:04Z</time></trkpt><trkpt lat="37.45106183632306" lon="14.33651319794681"><ele>604.0</ele><time>2026-03-22T08:53:05Z</time></trkpt><trkpt lat="37.45098305889856" lon="14.336600359549116"><ele>604.0</ele><time>2026-03-22T08:53:06Z</time></trkpt><trkpt lat="37.45092201456875" lon="14.336698813303316"><ele>604.0</ele><time>2026-03-22T08:53:07Z</time></trkpt><trkpt lat="37.45087144540329" lon="14.336790758287014"><ele>604.0</ele><time>2026-03-22T08:53:08Z</time></trkpt><trkpt lat="37.45080587220942" lon="14.336882066300015"><ele>604.0</ele><time>2026-03-22T08:53:09Z</time></trkpt><trkpt lat="37.45073410838656" lon="14.336973206018087"><ele>604.0</ele><time>2026-03-22T08:53:10Z</time></trkpt><trkpt lat="37.45065643188935" lon="14.337049951068156"><ele>604.0</ele><time>2026-03-22T08:53:11Z</time></trkpt><trkpt lat="37.45058221385739" lon="14.337083159276593"><ele>604.0</ele><time>2026-03-22T08:53:12Z</time></trkpt><trkpt lat="37.450508658411984" lon="14.337098342745989"><ele>604.0</ele><time>2026-03-22T08:53:13Z</time></trkpt><trkpt lat="37.45043868438149" lon="14.337114564245168"><ele>604.0</ele><time>2026-03-22T08:53:14Z</time></trkpt><trkpt lat="37.4503719850032" lon="14.337134300065795"><ele>604.0</ele><time>2026-03-22T08:53:15Z</time></trkpt><trkpt lat="37.45025507796083" lon="14.337210165838876"><ele>604.0</ele><time>2026-03-22T08:53:17Z</time></trkpt><trkpt lat="37.45022200578757" lon="14.337306306333058"><ele>603.0</ele><time>2026-03-22T08:53:19Z</time></trkpt><trkpt lat="37.45019135456803" lon="14.337379018672722"><ele>602.0</ele><time>2026-03-22T08:53:22Z</time></trkpt><trkpt lat="37.45017590959546" lon="14.337456618066497"><ele>601.0</ele><time>2026-03-22T08:55:13Z</time></trkpt><trkpt lat="37.45013758149737" lon="14.337578467763826"><ele>600.0</ele><time>2026-03-22T08:55:26Z</time></trkpt><trkpt lat="37.45011540138935" lon="14.337658962525323"><ele>599.0</ele><time>2026-03-22T08:55:27Z</time></trkpt><trkpt lat="37.45008926456358" lon="14.337795812215425"><ele>598.0</ele><time>2026-03-22T08:55:29Z</time></trkpt><trkpt lat="37.44999873475338" lon="14.33791970686178"><ele>598.8</ele><time>2026-03-22T08:55:31Z</time></trkpt><trkpt lat="37.45006678377301" lon="14.33806850576519"><ele>599.5999999999999</ele><time>2026-03-22T08:55:32Z</time></trkpt><trkpt lat="37.45008273970732" lon="14.33815923967051"><ele>600.4000000000001</ele><time>2026-03-22T08:55:33Z</time></trkpt><trkpt lat="37.45007469915434" lon="14.3382687146867"><ele>601.2</ele><time>2026-03-22T08:55:34Z</time></trkpt><trkpt lat="37.45007147272463" lon="14.338431020281151"><ele>602.0</ele><time>2026-03-22T08:55:35Z</time></trkpt><trkpt lat="37.450064492568764" lon="14.338519449400032"><ele>602.0</ele><time>2026-03-22T08:55:36Z</time></trkpt><trkpt lat="37.450058403671136" lon="14.33861508785939"><ele>602.0</ele><time>2026-03-22T08:55:37Z</time></trkpt><trkpt lat="37.45007125512169" lon="14.338706101084096"><ele>602.0</ele><time>2026-03-22T08:55:38Z</time></trkpt><trkpt lat="37.45010657464622" lon="14.338808762418497"><ele>602.0</ele><time>2026-03-22T08:55:39Z</time></trkpt><trkpt lat="37.45014368574785" lon="14.338919557381708"><ele>602.0</ele><time>2026-03-22T08:55:40Z</time></trkpt><trkpt lat="37.45018591587929" lon="14.3390343453798"><ele>602.0</ele><time>2026-03-22T08:55:41Z</time></trkpt><trkpt lat="37.45023371022763" lon="14.339153841175067"><ele>602.0</ele><time>2026-03-22T08:55:42Z</time></trkpt><trkpt lat="37.45029056625492" lon="14.339264185752938"><ele>602.0</ele><time>2026-03-22T08:55:43Z</time></trkpt><trkpt lat="37.45038362451947" lon="14.339390634267783"><ele>602.0</ele><time>2026-03-22T08:55:44Z</time></trkpt><trkpt lat="37.450476895487704" lon="14.339543456819003"><ele>602.0</ele><time>2026-03-22T08:55:45Z</time></trkpt><trkpt lat="37.450547824687405" lon="14.33964506420471"><ele>602.8000000000001</ele><time>2026-03-22T08:55:46Z</time></trkpt><trkpt lat="37.45062131794505" lon="14.339750581695133"><ele>603.6</ele><time>2026-03-22T08:55:47Z</time></trkpt><trkpt lat="37.450707050452046" lon="14.339840687831945"><ele>604.4000000000001</ele><time>2026-03-22T08:55:48Z</time></trkpt><trkpt lat="37.45080545988958" lon="14.339902222906096"><ele>605.2</ele><time>2026-03-22T08:55:49Z</time></trkpt><trkpt lat="37.45090808584346" lon="14.33994783803399"><ele>606.0</ele><time>2026-03-22T08:55:50Z</time></trkpt><trkpt lat="37.45100684457419" lon="14.340001987237764"><ele>606.0</ele><time>2026-03-22T08:55:51Z</time></trkpt><trkpt lat="37.451110892465216" lon="14.340060198842119"><ele>606.0</ele><time>2026-03-22T08:55:52Z</time></trkpt><trkpt lat="37.45120922855401" lon="14.340124448194954"><ele>606.0</ele><time>2026-03-22T08:55:53Z</time></trkpt><trkpt lat="37.45130436878268" lon="14.340182139384702"><ele>606.0</ele><time>2026-03-22T08:55:54Z</time></trkpt><trkpt lat="37.45139503981942" lon="14.340245943409412"><ele>606.0</ele><time>2026-03-22T08:55:55Z</time></trkpt><trkpt lat="37.45149277322051" lon="14.340306940942348"><ele>610.75</ele><time>2026-03-22T08:55:56Z</time></trkpt><trkpt lat="37.451599540228216" lon="14.340340156773774"><ele>615.5</ele><time>2026-03-22T08:55:57Z</time></trkpt><trkpt lat="37.45171369525302" lon="14.340359364062245"><ele>620.25</ele><time>2026-03-22T08:55:58Z</time></trkpt><trkpt lat="37.451824401875854" lon="14.340391615244789"><ele>625.0</ele><time>2026-03-22T08:55:59Z</time></trkpt><trkpt lat="37.45193792876858" lon="14.340428427083278"><ele>625.0</ele><time>2026-03-22T08:56:00Z</time></trkpt><trkpt lat="37.45204365061695" lon="14.340509529371152"><ele>625.0</ele><time>2026-03-22T08:56:01Z</time></trkpt><trkpt lat="37.45214336058007" lon="14.340569918845416"><ele>625.0</ele><time>2026-03-22T08:56:02Z</time></trkpt><trkpt lat="37.45224755169547" lon="14.34064655163616"><ele>625.0</ele><time>2026-03-22T08:56:03Z</time></trkpt><trkpt lat="37.45235253522156" lon="14.340730012807487"><ele>623.25</ele><time>2026-03-22T08:56:04Z</time></trkpt><trkpt lat="37.452457129283935" lon="14.340819919759296"><ele>621.5</ele><time>2026-03-22T08:56:05Z</time></trkpt><trkpt lat="37.4525592212622" lon="14.340911708944283"><ele>619.75</ele><time>2026-03-22T08:56:06Z</time></trkpt><trkpt lat="37.45266432915498" lon="14.341010783164707"><ele>618.0</ele><time>2026-03-22T08:56:07Z</time></trkpt><trkpt lat="37.4527673230634" lon="14.34110020549886"><ele>618.0</ele><time>2026-03-22T08:56:08Z</time></trkpt><trkpt lat="37.45286449510374" lon="14.341177414986037"><ele>618.0</ele><time>2026-03-22T08:56:09Z</time></trkpt><trkpt lat="37.45295321900876" lon="14.341273534895002"><ele>618.0</ele><time>2026-03-22T08:56:10Z</time></trkpt><trkpt lat="37.4530467450449" lon="14.341328347392153"><ele>618.0</ele><time>2026-03-22T08:56:11Z</time></trkpt><trkpt lat="37.45312333726499" lon="14.341396933043912"><ele>618.0</ele><time>2026-03-22T08:56:12Z</time></trkpt><trkpt lat="37.4531966074156" lon="14.341453767565824"><ele>616.0</ele><time>2026-03-22T08:56:13Z</time></trkpt><trkpt lat="37.45327283485247" lon="14.341496699760116"><ele>614.0</ele><time>2026-03-22T08:56:14Z</time></trkpt><trkpt lat="37.453348192517126" lon="14.341489789057704"><ele>612.0</ele><time>2026-03-22T08:56:15Z</time></trkpt><trkpt lat="37.453443701991496" lon="14.34145332375882"><ele>610.0</ele><time>2026-03-22T08:56:16Z</time></trkpt><trkpt lat="37.45355046768285" lon="14.34138253339564"><ele>608.0</ele><time>2026-03-22T08:56:17Z</time></trkpt><trkpt lat="37.453664476703004" lon="14.341294626622204"><ele>612.1999999999999</ele><time>2026-03-22T08:56:18Z</time></trkpt><trkpt lat="37.45377556068266" lon="14.34120673879515"><ele>616.4</ele><time>2026-03-22T08:56:19Z</time></trkpt><trkpt lat="37.45387260082522" lon="14.341142607869093"><ele>620.5999999999999</ele><time>2026-03-22T08:56:20Z</time></trkpt><trkpt lat="37.45397338103499" lon="14.341124344051227"><ele>624.8</ele><time>2026-03-22T08:56:21Z</time></trkpt><trkpt lat="37.4540643434567" lon="14.341146481767765"><ele>629.0</ele><time>2026-03-22T08:56:22Z</time></trkpt><trkpt lat="37.45414280127621" lon="14.341195558589147"><ele>629.0</ele><time>2026-03-22T08:56:23Z</time></trkpt><trkpt lat="37.45420644993846" lon="14.341256192063971"><ele>629.0</ele><time>2026-03-22T08:56:24Z</time></trkpt><trkpt lat="37.45427029818961" lon="14.341324869064923"><ele>629.0</ele><time>2026-03-22T08:56:25Z</time></trkpt><trkpt lat="37.45433041262886" lon="14.34140275482322"><ele>629.0</ele><time>2026-03-22T08:56:26Z</time></trkpt><trkpt lat="37.4543725328456" lon="14.341473026122175"><ele>629.0</ele><time>2026-03-22T08:56:27Z</time></trkpt><trkpt lat="37.45440044744675" lon="14.341548869563216"><ele>629.0</ele><time>2026-03-22T08:56:28Z</time></trkpt><trkpt lat="37.45435121850821" lon="14.34169081216647"><ele>627.0</ele><time>2026-03-22T08:56:30Z</time></trkpt><trkpt lat="37.45432259504416" lon="14.341816499519265"><ele>625.0</ele><time>2026-03-22T08:56:31Z</time></trkpt><trkpt lat="37.45428267400105" lon="14.341957671952402"><ele>623.0</ele><time>2026-03-22T08:56:32Z</time></trkpt><trkpt lat="37.45423493263657" lon="14.342128238121543"><ele>621.0</ele><time>2026-03-22T08:56:33Z</time></trkpt><trkpt lat="37.45419617817924" lon="14.342270996393752"><ele>621.0</ele><time>2026-03-22T08:56:34Z</time></trkpt><trkpt lat="37.45416387704794" lon="14.342405333287385"><ele>621.0</ele><time>2026-03-22T08:56:35Z</time></trkpt><trkpt lat="37.45415800715114" lon="14.342546708562098"><ele>621.0</ele><time>2026-03-22T08:56:36Z</time></trkpt><trkpt lat="37.45419303279281" lon="14.342686054064737"><ele>621.0</ele><time>2026-03-22T08:56:37Z</time></trkpt><trkpt lat="37.45424686542513" lon="14.342835029392004"><ele>621.0</ele><time>2026-03-22T08:56:38Z</time></trkpt><trkpt lat="37.45430370699585" lon="14.342976775756279"><ele>621.0</ele><time>2026-03-22T08:56:39Z</time></trkpt><trkpt lat="37.454358419758435" lon="14.343115858385778"><ele>621.0</ele><time>2026-03-22T08:56:40Z</time></trkpt><trkpt lat="37.454413313670784" lon="14.343247507652773"><ele>621.0</ele><time>2026-03-22T08:56:41Z</time></trkpt><trkpt lat="37.45447322651243" lon="14.343357527105251"><ele>620.4</ele><time>2026-03-22T08:56:42Z</time></trkpt><trkpt lat="37.454554063805986" lon="14.343421855003362"><ele>619.8</ele><time>2026-03-22T08:56:43Z</time></trkpt><trkpt lat="37.454650411526146" lon="14.343439183721745"><ele>619.1999999999999</ele><time>2026-03-22T08:56:44Z</time></trkpt><trkpt lat="37.45474956629347" lon="14.343455604197803"><ele>618.6</ele><time>2026-03-22T08:56:45Z</time></trkpt><trkpt lat="37.454827482185436" lon="14.343485007151127"><ele>618.0</ele><time>2026-03-22T08:56:46Z</time></trkpt><trkpt lat="37.454898735155155" lon="14.343565919860824"><ele>619.75</ele><time>2026-03-22T08:56:47Z</time></trkpt><trkpt lat="37.454944789554624" lon="14.343670765677622"><ele>621.5</ele><time>2026-03-22T08:56:48Z</time></trkpt><trkpt lat="37.45499677886065" lon="14.343788295635603"><ele>623.25</ele><time>2026-03-22T08:56:49Z</time></trkpt><trkpt lat="37.45506327621867" lon="14.343925964506345"><ele>625.0</ele><time>2026-03-22T08:56:50Z</time></trkpt><trkpt lat="37.455132586068544" lon="14.344068159166339"><ele>625.0</ele><time>2026-03-22T08:56:51Z</time></trkpt><trkpt lat="37.455203801847645" lon="14.34421563254377"><ele>625.0</ele><time>2026-03-22T08:56:52Z</time></trkpt><trkpt lat="37.455272515261065" lon="14.344357924031739"><ele>625.0</ele><time>2026-03-22T08:56:53Z</time></trkpt><trkpt lat="37.455341482764965" lon="14.34449834107251"><ele>625.0</ele><time>2026-03-22T08:56:54Z</time></trkpt><trkpt lat="37.45540798691899" lon="14.344628124002528"><ele>627.75</ele><time>2026-03-22T08:56:55Z</time></trkpt><trkpt lat="37.455474262417205" lon="14.344759096509346"><ele>630.5</ele><time>2026-03-22T08:56:56Z</time></trkpt><trkpt lat="37.45555021703098" lon="14.344882664157954"><ele>633.25</ele><time>2026-03-22T08:56:57Z</time></trkpt><trkpt lat="37.455609191698535" lon="14.345014074621302"><ele>636.0</ele><time>2026-03-22T08:56:58Z</time></trkpt><trkpt lat="37.45566356959752" lon="14.345152581853158"><ele>636.0</ele><time>2026-03-22T08:56:59Z</time></trkpt><trkpt lat="37.455719378146554" lon="14.345273011266382"><ele>636.0</ele><time>2026-03-22T08:57:00Z</time></trkpt><trkpt lat="37.45576461574015" lon="14.345381376509796"><ele>636.0</ele><time>2026-03-22T08:57:01Z</time></trkpt><trkpt lat="37.45582230109985" lon="14.345492345183212"><ele>636.0</ele><time>2026-03-22T08:57:02Z</time></trkpt><trkpt lat="37.455888531167965" lon="14.345622338915367"><ele>636.0</ele><time>2026-03-22T08:57:03Z</time></trkpt><trkpt lat="37.4559507639489" lon="14.345740790310462"><ele>634.25</ele><time>2026-03-22T08:57:04Z</time></trkpt><trkpt lat="37.45601125896939" lon="14.345849805033989"><ele>632.5</ele><time>2026-03-22T08:57:05Z</time></trkpt><trkpt lat="37.45607066921779" lon="14.345975948028645"><ele>630.75</ele><time>2026-03-22T08:57:06Z</time></trkpt><trkpt lat="37.45614070503227" lon="14.346105788090174"><ele>629.0</ele><time>2026-03-22T08:57:07Z</time></trkpt><trkpt lat="37.45621421773716" lon="14.346239453396027"><ele>632.5</ele><time>2026-03-22T08:57:08Z</time></trkpt><trkpt lat="37.456292127584526" lon="14.346377247238378"><ele>636.0</ele><time>2026-03-22T08:57:09Z</time></trkpt><trkpt lat="37.45635747293395" lon="14.34653003450056"><ele>639.5</ele><time>2026-03-22T08:57:10Z</time></trkpt><trkpt lat="37.4564393202467" lon="14.346684568150444"><ele>643.0</ele><time>2026-03-22T08:57:11Z</time></trkpt><trkpt lat="37.45652762379056" lon="14.346851134736994"><ele>643.0</ele><time>2026-03-22T08:57:12Z</time></trkpt><trkpt lat="37.456601498911546" lon="14.346997976998631"><ele>643.0</ele><time>2026-03-22T08:57:13Z</time></trkpt><trkpt lat="37.45666878503942" lon="14.347131213229392"><ele>643.0</ele><time>2026-03-22T08:57:14Z</time></trkpt><trkpt lat="37.45674218284917" lon="14.347224998698522"><ele>643.0</ele><time>2026-03-22T08:57:15Z</time></trkpt><trkpt lat="37.45680423102932" lon="14.347332785475084"><ele>641.0</ele><time>2026-03-22T08:57:16Z</time></trkpt><trkpt lat="37.456883396199004" lon="14.347430473793533"><ele>639.0</ele><time>2026-03-22T08:57:17Z</time></trkpt><trkpt lat="37.45696711149173" lon="14.347494717254401"><ele>637.0</ele><time>2026-03-22T08:57:18Z</time></trkpt><trkpt lat="37.45705513793571" lon="14.34754923245172"><ele>635.0</ele><time>2026-03-22T08:57:19Z</time></trkpt><trkpt lat="37.45713984592713" lon="14.347581467123325"><ele>633.0</ele><time>2026-03-22T08:57:20Z</time></trkpt><trkpt lat="37.45721844992261" lon="14.347606144729971"><ele>635.3333333333334</ele><time>2026-03-22T08:57:21Z</time></trkpt><trkpt lat="37.45728128335153" lon="14.347649844391848"><ele>637.6666666666666</ele><time>2026-03-22T08:57:22Z</time></trkpt><trkpt lat="37.45729447525974" lon="14.347735629499716"><ele>640.0</ele><time>2026-03-22T08:57:23Z</time></trkpt><trkpt lat="37.45728101718999" lon="14.34782562973169"><ele>642.3333333333333</ele><time>2026-03-22T08:57:24Z</time></trkpt><trkpt lat="37.45729837813939" lon="14.347935746737361"><ele>644.6666666666666</ele><time>2026-03-22T08:57:25Z</time></trkpt><trkpt lat="37.457336199294275" lon="14.34806044210975"><ele>647.0</ele><time>2026-03-22T08:57:26Z</time></trkpt><trkpt lat="37.45742087794918" lon="14.348176111116407"><ele>647.0</ele><time>2026-03-22T08:57:27Z</time></trkpt><trkpt lat="37.45750159245508" lon="14.348307206113946"><ele>647.0</ele><time>2026-03-22T08:57:28Z</time></trkpt><trkpt lat="37.457609229836805" lon="14.348438918901202"><ele>647.0</ele><time>2026-03-22T08:57:29Z</time></trkpt><trkpt lat="37.45771681074367" lon="14.348588476676317"><ele>647.0</ele><time>2026-03-22T08:57:30Z</time></trkpt><trkpt lat="37.45780303258461" lon="14.348727651611945"><ele>647.0</ele><time>2026-03-22T08:57:31Z</time></trkpt><trkpt lat="37.45789975049323" lon="14.348847121972822"><ele>647.0</ele><time>2026-03-22T08:57:32Z</time></trkpt><trkpt lat="37.458003539982805" lon="14.348939039924232"><ele>647.0</ele><time>2026-03-22T08:57:33Z</time></trkpt><trkpt lat="37.45809116991503" lon="14.349043700083008"><ele>647.0</ele><time>2026-03-22T08:57:34Z</time></trkpt><trkpt lat="37.45819061259827" lon="14.349085652313065"><ele>648.75</ele><time>2026-03-22T08:57:35Z</time></trkpt><trkpt lat="37.45829369687019" lon="14.349143004520998"><ele>650.5</ele><time>2026-03-22T08:57:36Z</time></trkpt><trkpt lat="37.45841179220337" lon="14.349187251718911"><ele>652.25</ele><time>2026-03-22T08:57:37Z</time></trkpt><trkpt lat="37.45853957687752" lon="14.349246252473998"><ele>654.0</ele><time>2026-03-22T08:57:38Z</time></trkpt><trkpt lat="37.458667429446116" lon="14.349320698540113"><ele>654.0</ele><time>2026-03-22T08:57:39Z</time></trkpt><trkpt lat="37.45878038342417" lon="14.349384465136602"><ele>654.0</ele><time>2026-03-22T08:57:40Z</time></trkpt><trkpt lat="37.458864362287564" lon="14.349445778068462"><ele>654.0</ele><time>2026-03-22T08:57:41Z</time></trkpt><trkpt lat="37.45893797535181" lon="14.34948338517061"><ele>654.0</ele><time>2026-03-22T08:57:42Z</time></trkpt><trkpt lat="37.45899920934789" lon="14.34951485958286"><ele>654.0</ele><time>2026-03-22T08:57:43Z</time></trkpt><trkpt lat="37.45909650740351" lon="14.349564953212147"><ele>657.0</ele><time>2026-03-22T08:57:45Z</time></trkpt><trkpt lat="37.45916116023003" lon="14.349572465586036"><ele>660.0</ele><time>2026-03-22T08:57:47Z</time></trkpt><trkpt lat="37.45922920092329" lon="14.34961404963772"><ele>663.0</ele><time>2026-03-22T08:57:54Z</time></trkpt><trkpt lat="37.45930283915471" lon="14.349639350011396"><ele>666.0</ele><time>2026-03-22T08:57:57Z</time></trkpt><trkpt lat="37.45937283562403" lon="14.349663399160946"><ele>669.0</ele><time>2026-03-22T08:58:00Z</time></trkpt><trkpt lat="37.45943946424632" lon="14.349531516009494"><ele>672.0</ele><time>2026-03-22T08:58:01Z</time></trkpt><trkpt lat="37.45949449284885" lon="14.349588008314795"><ele>672.0</ele><time>2026-03-22T08:58:10Z</time></trkpt><trkpt lat="37.45955553709948" lon="14.349611688319845"><ele>672.0</ele><time>2026-03-22T08:58:13Z</time></trkpt><trkpt lat="37.45963453084529" lon="14.349588248836755"><ele>672.0</ele><time>2026-03-22T08:58:15Z</time></trkpt><trkpt lat="37.45972885853876" lon="14.349573608676083"><ele>672.0</ele><time>2026-03-22T08:58:17Z</time></trkpt><trkpt lat="37.45981606107744" lon="14.349607742826748"><ele>672.0</ele><time>2026-03-22T08:58:19Z</time></trkpt><trkpt lat="37.45989576121837" lon="14.349645707111431"><ele>672.0</ele><time>2026-03-22T08:58:22Z</time></trkpt><trkpt lat="37.459955041359265" lon="14.349672776463546"><ele>675.0</ele><time>2026-03-22T08:58:24Z</time></trkpt><trkpt lat="37.46003332162668" lon="14.349672703770649"><ele>678.0</ele><time>2026-03-22T08:58:26Z</time></trkpt><trkpt lat="37.46011497858054" lon="14.349672743991679"><ele>681.0</ele><time>2026-03-22T08:58:28Z</time></trkpt><trkpt lat="37.46016368148012" lon="14.349616107554107"><ele>684.0</ele><time>2026-03-22T08:58:30Z</time></trkpt><trkpt lat="37.460262129971625" lon="14.349524759372827"><ele>687.0</ele><time>2026-03-22T08:58:32Z</time></trkpt><trkpt lat="37.460361899150655" lon="14.34945149014106"><ele>687.0</ele><time>2026-03-22T08:58:34Z</time></trkpt><trkpt lat="37.46043662612562" lon="14.349617514999217"><ele>687.0</ele><time>2026-03-22T08:58:35Z</time></trkpt><trkpt lat="37.46046849243081" lon="14.349693329682335"><ele>687.0</ele><time>2026-03-22T08:58:37Z</time></trkpt><trkpt lat="37.46053387351067" lon="14.349741751830166"><ele>687.0</ele><time>2026-03-22T08:58:38Z</time></trkpt><trkpt lat="37.460612005886084" lon="14.34979882197157"><ele>687.0</ele><time>2026-03-22T08:58:39Z</time></trkpt><trkpt lat="37.46067840788441" lon="14.349847323908211"><ele>685.5</ele><time>2026-03-22T08:58:40Z</time></trkpt><trkpt lat="37.46074350205451" lon="14.349894870567947"><ele>684.0</ele><time>2026-03-22T08:58:41Z</time></trkpt><trkpt lat="37.46082176788473" lon="14.349947133488808"><ele>682.5</ele><time>2026-03-22T08:58:42Z</time></trkpt><trkpt lat="37.460889916758546" lon="14.349991903842755"><ele>681.0</ele><time>2026-03-22T08:58:43Z</time></trkpt><trkpt lat="37.4609515230522" lon="14.35003006443656"><ele>679.5</ele><time>2026-03-22T08:58:44Z</time></trkpt><trkpt lat="37.461030368796514" lon="14.350071504002141"><ele>678.0</ele><time>2026-03-22T08:58:45Z</time></trkpt><trkpt lat="37.46109900055882" lon="14.350101320888177"><ele>678.0</ele><time>2026-03-22T08:58:46Z</time></trkpt><trkpt lat="37.461168775867286" lon="14.350126445325834"><ele>678.0</ele><time>2026-03-22T08:58:47Z</time></trkpt><trkpt lat="37.46123498989533" lon="14.350145633933874"><ele>678.0</ele><time>2026-03-22T08:58:48Z</time></trkpt><trkpt lat="37.46134626833134" lon="14.350178322566743"><ele>678.0</ele><time>2026-03-22T08:58:50Z</time></trkpt><trkpt lat="37.46142758471468" lon="14.350202209694475"><ele>678.0</ele><time>2026-03-22T08:58:58Z</time></trkpt><trkpt lat="37.46146367835551" lon="14.350085603732374"><ele>678.0</ele><time>2026-03-22T08:59:04Z</time></trkpt><trkpt lat="37.46153044027422" lon="14.350111657900692"><ele>680.0</ele><time>2026-03-22T08:59:31Z</time></trkpt><trkpt lat="37.461618497142325" lon="14.350109903557263"><ele>682.0</ele><time>2026-03-22T08:59:34Z</time></trkpt><trkpt lat="37.461636316959336" lon="14.35003323546808"><ele>684.0</ele><time>2026-03-22T08:59:58Z</time></trkpt><trkpt lat="37.46162875696234" lon="14.349943269008294"><ele>686.0</ele><time>2026-03-22T09:00:13Z</time></trkpt><trkpt lat="37.461639582066674" lon="14.349844040998484"><ele>688.0</ele><time>2026-03-22T09:00:17Z</time></trkpt><trkpt lat="37.46164908252495" lon="14.34975086399383"><ele>690.0</ele><time>2026-03-22T09:00:20Z</time></trkpt><trkpt lat="37.46164148568328" lon="14.349651710883972"><ele>694.6666666666666</ele><time>2026-03-22T09:00:23Z</time></trkpt><trkpt lat="37.461689304741284" lon="14.34959747561559"><ele>699.3333333333334</ele><time>2026-03-22T09:00:34Z</time></trkpt><trkpt lat="37.46173660856288" lon="14.349537831406986"><ele>704.0</ele><time>2026-03-22T09:03:27Z</time></trkpt><trkpt lat="37.46179715328978" lon="14.349473443135283"><ele>708.6666666666667</ele><time>2026-03-22T09:03:31Z</time></trkpt><trkpt lat="37.461867027872884" lon="14.34942231241692"><ele>713.3333333333334</ele><time>2026-03-22T09:03:35Z</time></trkpt><trkpt lat="37.4619782965461" lon="14.349398484376707"><ele>718.0</ele><time>2026-03-22T09:04:05Z</time></trkpt><trkpt lat="37.46191331223825" lon="14.349409779745491"><ele>718.0</ele><time>2026-03-22T09:04:18Z</time></trkpt><trkpt lat="37.461839718450896" lon="14.349430342553353"><ele>718.0</ele><time>2026-03-22T09:04:23Z</time></trkpt><trkpt lat="37.46176443204744" lon="14.34942824519934"><ele>718.0</ele><time>2026-03-22T09:04:28Z</time></trkpt><trkpt lat="37.46171590464255" lon="14.349502729580795"><ele>718.0</ele><time>2026-03-22T09:04:35Z</time></trkpt><trkpt lat="37.46168171624323" lon="14.349572853546372"><ele>718.0</ele><time>2026-03-22T09:04:44Z</time></trkpt><trkpt lat="37.46175708320413" lon="14.349534610297729"><ele>718.0</ele><time>2026-03-22T09:06:35Z</time></trkpt><trkpt lat="37.46181281935552" lon="14.349474120992658"><ele>718.0</ele><time>2026-03-22T09:06:47Z</time></trkpt><trkpt lat="37.46190318198655" lon="14.349457650097287"><ele>718.0</ele><time>2026-03-22T09:07:32Z</time></trkpt><trkpt lat="37.4619452521001" lon="14.34939139579937"><ele>718.0</ele><time>2026-03-22T09:07:35Z</time></trkpt><trkpt lat="37.462006413036164" lon="14.349350629127827"><ele>718.0</ele><time>2026-03-22T09:07:48Z</time></trkpt><trkpt lat="37.46198625766903" lon="14.349260934448258"><ele>718.0</ele><time>2026-03-22T09:07:57Z</time></trkpt><trkpt lat="37.46197209071253" lon="14.34917987718684"><ele>718.0</ele><time>2026-03-22T09:10:33Z</time></trkpt><trkpt lat="37.46198075661201" lon="14.349090091121305"><ele>718.0</ele><time>2026-03-22T09:10:46Z</time></trkpt><trkpt lat="37.46198824796482" lon="14.348999580287158"><ele>718.0</ele><time>2026-03-22T09:10:50Z</time></trkpt><trkpt lat="37.46202374570917" lon="14.34890256257468"><ele>722.0</ele><time>2026-03-22T09:10:53Z</time></trkpt><trkpt lat="37.462038273628856" lon="14.348824122790738"><ele>726.0</ele><time>2026-03-22T09:10:55Z</time></trkpt><trkpt lat="37.46214595057328" lon="14.3487539306054"><ele>730.0</ele><time>2026-03-22T09:15:43Z</time></trkpt><trkpt lat="37.462196094223394" lon="14.348696543440731"><ele>734.0</ele><time>2026-03-22T09:21:47Z</time></trkpt><trkpt lat="37.46213926304857" lon="14.348647251154718"><ele>738.0</ele><time>2026-03-22T09:22:42Z</time></trkpt><trkpt lat="37.46217312252442" lon="14.348574482433415"><ele>742.0</ele><time>2026-03-22T09:29:40Z</time></trkpt><trkpt lat="37.46210641236648" lon="14.348564512880559"><ele>742.0</ele><time>2026-03-22T09:29:53Z</time></trkpt><trkpt lat="37.46214507230226" lon="14.348480046541216"><ele>742.0</ele><time>2026-03-22T09:30:21Z</time></trkpt><trkpt lat="37.46213029096065" lon="14.348365972400456"><ele>742.0</ele><time>2026-03-22T09:30:25Z</time></trkpt><trkpt lat="37.46208443981949" lon="14.348300766956045"><ele>742.0</ele><time>2026-03-22T09:30:27Z</time></trkpt><trkpt lat="37.462052749083156" lon="14.348209587882131"><ele>742.0</ele><time>2026-03-22T09:30:30Z</time></trkpt><trkpt lat="37.46201626532402" lon="14.348130914050452"><ele>742.0</ele><time>2026-03-22T09:30:33Z</time></trkpt><trkpt lat="37.4620457027235" lon="14.348055858913856"><ele>742.0</ele><time>2026-03-22T09:30:40Z</time></trkpt><trkpt lat="37.46203293119667" lon="14.347970008051764"><ele>742.0</ele><time>2026-03-22T09:30:44Z</time></trkpt><trkpt lat="37.461965771943156" lon="14.34794407836252"><ele>742.0</ele><time>2026-03-22T09:30:51Z</time></trkpt><trkpt lat="37.46192071567334" lon="14.348015410677924"><ele>742.0</ele><time>2026-03-22T09:31:19Z</time></trkpt><trkpt lat="37.46189325603005" lon="14.34809500237523"><ele>742.0</ele><time>2026-03-22T09:31:23Z</time></trkpt><trkpt lat="37.46200364048098" lon="14.348080177159712"><ele>742.0</ele><time>2026-03-22T09:31:37Z</time></trkpt><trkpt lat="37.46206226383251" lon="14.3480216977904"><ele>744.0</ele><time>2026-03-22T09:31:39Z</time></trkpt><trkpt lat="37.462159220871555" lon="14.347981143530705"><ele>746.0</ele><time>2026-03-22T09:31:41Z</time></trkpt><trkpt lat="37.46224207604634" lon="14.347975561795845"><ele>748.0</ele><time>2026-03-22T09:31:43Z</time></trkpt><trkpt lat="37.462316727358015" lon="14.348053337210441"><ele>750.0</ele><time>2026-03-22T09:32:48Z</time></trkpt><trkpt lat="37.4623903610606" lon="14.348088317496602"><ele>752.0</ele><time>2026-03-22T09:32:49Z</time></trkpt><trkpt lat="37.46249293639209" lon="14.34809578397856"><ele>752.0</ele><time>2026-03-22T09:32:51Z</time></trkpt><trkpt lat="37.462639064432814" lon="14.34813608456026"><ele>752.0</ele><time>2026-03-22T09:32:53Z</time></trkpt><trkpt lat="37.46275397778405" lon="14.348175440210735"><ele>752.0</ele><time>2026-03-22T09:32:55Z</time></trkpt><trkpt lat="37.46284176292172" lon="14.348190115575557"><ele>752.0</ele><time>2026-03-22T09:32:57Z</time></trkpt><trkpt lat="37.46290246685344" lon="14.348215633364433"><ele>752.0</ele><time>2026-03-22T09:33:09Z</time></trkpt><trkpt lat="37.46297190735768" lon="14.348216900383427"><ele>753.1666666666666</ele><time>2026-03-22T09:35:50Z</time></trkpt><trkpt lat="37.46304457306969" lon="14.348255039145211"><ele>754.3333333333333</ele><time>2026-03-22T09:35:56Z</time></trkpt><trkpt lat="37.46311194135889" lon="14.348302790591967"><ele>755.5</ele><time>2026-03-22T09:35:58Z</time></trkpt><trkpt lat="37.463177729569956" lon="14.348277466616036"><ele>756.6666666666666</ele><time>2026-03-22T09:38:05Z</time></trkpt><trkpt lat="37.46307809002438" lon="14.348225499824629"><ele>757.8333333333334</ele><time>2026-03-22T09:38:08Z</time></trkpt><trkpt lat="37.46301100836236" lon="14.348214488069948"><ele>759.0</ele><time>2026-03-22T09:38:10Z</time></trkpt><trkpt lat="37.462947811505735" lon="14.348199955005843"><ele>757.6</ele><time>2026-03-22T09:38:14Z</time></trkpt><trkpt lat="37.46289036315365" lon="14.348131951685483"><ele>756.2</ele><time>2026-03-22T09:38:44Z</time></trkpt><trkpt lat="37.462822738732335" lon="14.348159304066227"><ele>754.8000000000001</ele><time>2026-03-22T09:38:47Z</time></trkpt><trkpt lat="37.46268040453948" lon="14.348152225049905"><ele>753.4000000000001</ele><time>2026-03-22T09:40:39Z</time></trkpt><trkpt lat="37.46255691787527" lon="14.348111674007141"><ele>752.0</ele><time>2026-03-22T09:40:40Z</time></trkpt><trkpt lat="37.46241559486566" lon="14.34806131351558"><ele>754.0</ele><time>2026-03-22T09:40:41Z</time></trkpt><trkpt lat="37.46235076905394" lon="14.348033276910636"><ele>756.0</ele><time>2026-03-22T09:40:42Z</time></trkpt><trkpt lat="37.46220467761268" lon="14.348003149127033"><ele>758.0</ele><time>2026-03-22T09:40:44Z</time></trkpt><trkpt lat="37.46208351694117" lon="14.347916181805068"><ele>760.0</ele><time>2026-03-22T09:40:45Z</time></trkpt><trkpt lat="37.46196433837832" lon="14.347839188269601"><ele>760.0</ele><time>2026-03-22T09:40:46Z</time></trkpt><trkpt lat="37.46187744633489" lon="14.34779623911524"><ele>760.0</ele><time>2026-03-22T09:40:47Z</time></trkpt><trkpt lat="37.46178429378806" lon="14.347791189169962"><ele>760.0</ele><time>2026-03-22T09:40:48Z</time></trkpt><trkpt lat="37.46168903892659" lon="14.347785326648724"><ele>760.0</ele><time>2026-03-22T09:40:49Z</time></trkpt><trkpt lat="37.46161769551671" lon="14.34775595144111"><ele>760.0</ele><time>2026-03-22T09:40:52Z</time></trkpt><trkpt lat="37.46156179979949" lon="14.347680139681929"><ele>760.0</ele><time>2026-03-22T09:41:06Z</time></trkpt><trkpt lat="37.4615000141377" lon="14.347635706725926"><ele>760.0</ele><time>2026-03-22T09:41:19Z</time></trkpt><trkpt lat="37.46143028633761" lon="14.347640351250387"><ele>760.0</ele><time>2026-03-22T09:41:22Z</time></trkpt><trkpt lat="37.461339113132524" lon="14.347656229793996"><ele>760.0</ele><time>2026-03-22T09:41:28Z</time></trkpt><trkpt lat="37.4612769548481" lon="14.347597288664971"><ele>760.0</ele><time>2026-03-22T09:41:31Z</time></trkpt><trkpt lat="37.46116523731409" lon="14.347359970164769"><ele>758.2</ele><time>2026-03-22T09:41:42Z</time></trkpt><trkpt lat="37.461154664378164" lon="14.347205894449305"><ele>756.4</ele><time>2026-03-22T09:41:44Z</time></trkpt><trkpt lat="37.46116104633872" lon="14.34711700276542"><ele>754.5999999999999</ele><time>2026-03-22T09:41:45Z</time></trkpt><trkpt lat="37.46115166328695" lon="14.34698029310374"><ele>752.8</ele><time>2026-03-22T09:41:47Z</time></trkpt><trkpt lat="37.46111988414169" lon="14.34685466023259"><ele>751.0</ele><time>2026-03-22T09:41:49Z</time></trkpt><trkpt lat="37.461031002228914" lon="14.346735578299038"><ele>751.0</ele><time>2026-03-22T09:41:51Z</time></trkpt><trkpt lat="37.46095981596996" lon="14.346658367981725"><ele>751.0</ele><time>2026-03-22T09:41:53Z</time></trkpt><trkpt lat="37.460888119345235" lon="14.346551158970085"><ele>751.0</ele><time>2026-03-22T09:41:55Z</time></trkpt><trkpt lat="37.4608394920888" lon="14.346458361015188"><ele>751.0</ele><time>2026-03-22T09:41:57Z</time></trkpt><trkpt lat="37.46073399847698" lon="14.346427199462703"><ele>751.0</ele><time>2026-03-22T09:41:59Z</time></trkpt><trkpt lat="37.4606859196708" lon="14.346361177554263"><ele>753.4</ele><time>2026-03-22T09:42:00Z</time></trkpt><trkpt lat="37.46063866246665" lon="14.346303619571023"><ele>755.8</ele><time>2026-03-22T09:42:01Z</time></trkpt><trkpt lat="37.460584375603986" lon="14.346187717269373"><ele>758.1999999999999</ele><time>2026-03-22T09:42:03Z</time></trkpt><trkpt lat="37.460541342690675" lon="14.346091923247743"><ele>760.5999999999999</ele><time>2026-03-22T09:42:05Z</time></trkpt><trkpt lat="37.46048892557677" lon="14.345966894167036"><ele>763.0</ele><time>2026-03-22T09:42:07Z</time></trkpt><trkpt lat="37.460442183766574" lon="14.345866240943133"><ele>763.0</ele><time>2026-03-22T09:42:09Z</time></trkpt><trkpt lat="37.46040772356842" lon="14.345785935142098"><ele>763.0</ele><time>2026-03-22T09:42:25Z</time></trkpt><trkpt lat="37.4604853914892" lon="14.345841081316046"><ele>763.0</ele><time>2026-03-22T09:42:34Z</time></trkpt><trkpt lat="37.46052170342852" lon="14.345931382515133"><ele>763.0</ele><time>2026-03-22T09:42:36Z</time></trkpt><trkpt lat="37.46056551671205" lon="14.34605641607914"><ele>763.0</ele><time>2026-03-22T09:42:38Z</time></trkpt><trkpt lat="37.46060874477767" lon="14.346126933324701"><ele>763.0</ele><time>2026-03-22T09:42:40Z</time></trkpt><trkpt lat="37.46065039688712" lon="14.346207606775183"><ele>763.0</ele><time>2026-03-22T09:42:42Z</time></trkpt><trkpt lat="37.46069007371948" lon="14.346293537663843"><ele>763.0</ele><time>2026-03-22T09:42:44Z</time></trkpt><trkpt lat="37.46072304603261" lon="14.34638238691648"><ele>763.0</ele><time>2026-03-22T09:42:46Z</time></trkpt><trkpt lat="37.46079626621688" lon="14.34645521591546"><ele>763.0</ele><time>2026-03-22T09:42:48Z</time></trkpt><trkpt lat="37.460862781656" lon="14.3465162710147"><ele>763.0</ele><time>2026-03-22T09:42:50Z</time></trkpt><trkpt lat="37.46093659417686" lon="14.346593249106917"><ele>763.0</ele><time>2026-03-22T09:42:52Z</time></trkpt><trkpt lat="37.461001721402155" lon="14.346677714113609"><ele>761.0</ele><time>2026-03-22T09:42:54Z</time></trkpt><trkpt lat="37.461057015447466" lon="14.346732665143849"><ele>759.0</ele><time>2026-03-22T09:42:56Z</time></trkpt><trkpt lat="37.461112542020786" lon="14.34680614659225"><ele>757.0</ele><time>2026-03-22T09:42:58Z</time></trkpt><trkpt lat="37.46103613061925" lon="14.346863204497366"><ele>755.0</ele><time>2026-03-22T09:43:00Z</time></trkpt><trkpt lat="37.46097692314828" lon="14.346764995766012"><ele>753.0</ele><time>2026-03-22T09:43:10Z</time></trkpt><trkpt lat="37.46093411338626" lon="14.346684881479144"><ele>751.0</ele><time>2026-03-22T09:43:12Z</time></trkpt><trkpt lat="37.4608696143627" lon="14.346658610681994"><ele>751.0</ele><time>2026-03-22T09:43:16Z</time></trkpt><trkpt lat="37.460816750785796" lon="14.346718138253308"><ele>751.0</ele><time>2026-03-22T09:43:19Z</time></trkpt><trkpt lat="37.4607332361255" lon="14.346684418890339"><ele>751.0</ele><time>2026-03-22T09:43:21Z</time></trkpt><trkpt lat="37.4606729453562" lon="14.346649946542406"><ele>751.0</ele><time>2026-03-22T09:43:22Z</time></trkpt><trkpt lat="37.46058915653563" lon="14.346571989472906"><ele>751.0</ele><time>2026-03-22T09:43:23Z</time></trkpt><trkpt lat="37.46049169244198" lon="14.346490024572745"><ele>751.0</ele><time>2026-03-22T09:43:24Z</time></trkpt><trkpt lat="37.4604062455229" lon="14.346427381078637"><ele>748.1999999999999</ele><time>2026-03-22T09:43:25Z</time></trkpt><trkpt lat="37.46032837998217" lon="14.346348606305908"><ele>745.4</ele><time>2026-03-22T09:43:26Z</time></trkpt><trkpt lat="37.46026530445363" lon="14.346257226212575"><ele>742.6</ele><time>2026-03-22T09:43:27Z</time></trkpt><trkpt lat="37.46019672916541" lon="14.346158982398197"><ele>739.8</ele><time>2026-03-22T09:43:28Z</time></trkpt><trkpt lat="37.46012854316549" lon="14.346064458088419"><ele>737.0</ele><time>2026-03-22T09:43:29Z</time></trkpt><trkpt lat="37.46006497443369" lon="14.34598308612574"><ele>737.0</ele><time>2026-03-22T09:43:30Z</time></trkpt><trkpt lat="37.46000029806896" lon="14.345916149879947"><ele>737.0</ele><time>2026-03-22T09:43:31Z</time></trkpt><trkpt lat="37.45993669631613" lon="14.345840493572505"><ele>737.0</ele><time>2026-03-22T09:43:32Z</time></trkpt><trkpt lat="37.45987442661714" lon="14.345771334889116"><ele>737.0</ele><time>2026-03-22T09:43:33Z</time></trkpt><trkpt lat="37.459808678584245" lon="14.345706001060766"><ele>737.0</ele><time>2026-03-22T09:43:34Z</time></trkpt><trkpt lat="37.45974103263459" lon="14.345656153170777"><ele>737.0</ele><time>2026-03-22T09:43:35Z</time></trkpt><trkpt lat="37.45967447536675" lon="14.345599552560898"><ele>732.8333333333333</ele><time>2026-03-22T09:43:36Z</time></trkpt><trkpt lat="37.459614359029956" lon="14.345547128373772"><ele>728.6666666666666</ele><time>2026-03-22T09:43:37Z</time></trkpt><trkpt lat="37.459567837169885" lon="14.345486827181565"><ele>724.5</ele><time>2026-03-22T09:43:38Z</time></trkpt><trkpt lat="37.459524987112175" lon="14.345392280814476"><ele>720.3333333333334</ele><time>2026-03-22T09:43:40Z</time></trkpt><trkpt lat="37.459488119451386" lon="14.345305362976555"><ele>716.1666666666667</ele><time>2026-03-22T09:43:42Z</time></trkpt><trkpt lat="37.459471735273226" lon="14.345177348266958"><ele>712.0</ele><time>2026-03-22T09:43:44Z</time></trkpt><trkpt lat="37.459486334538624" lon="14.345068123474533"><ele>712.0</ele><time>2026-03-22T09:43:45Z</time></trkpt><trkpt lat="37.459500563644056" lon="14.3449562312319"><ele>712.0</ele><time>2026-03-22T09:43:46Z</time></trkpt><trkpt lat="37.45950722816603" lon="14.34485657627957"><ele>712.0</ele><time>2026-03-22T09:43:47Z</time></trkpt><trkpt lat="37.45950078868392" lon="14.344758343648026"><ele>712.0</ele><time>2026-03-22T09:43:48Z</time></trkpt><trkpt lat="37.459468582224844" lon="14.3446752688693"><ele>712.0</ele><time>2026-03-22T09:43:49Z</time></trkpt><trkpt lat="37.459419855207926" lon="14.344579835458594"><ele>712.0</ele><time>2026-03-22T09:43:50Z</time></trkpt><trkpt lat="37.459398691435396" lon="14.344504286352363"><ele>710.5</ele><time>2026-03-22T09:43:51Z</time></trkpt><trkpt lat="37.459434026989804" lon="14.344340654072372"><ele>709.0</ele><time>2026-03-22T09:43:53Z</time></trkpt><trkpt lat="37.4594917730714" lon="14.344234157347266"><ele>707.5</ele><time>2026-03-22T09:43:54Z</time></trkpt><trkpt lat="37.45956922197654" lon="14.34412317405172"><ele>706.0</ele><time>2026-03-22T09:43:55Z</time></trkpt><trkpt lat="37.4596362142377" lon="14.344023274400666"><ele>706.6666666666667</ele><time>2026-03-22T09:43:56Z</time></trkpt><trkpt lat="37.45968072402955" lon="14.343922746818642"><ele>707.3333333333334</ele><time>2026-03-22T09:43:57Z</time></trkpt><trkpt lat="37.45972759582708" lon="14.343868313418605"><ele>708.0</ele><time>2026-03-22T09:43:58Z</time></trkpt><trkpt lat="37.45978353345884" lon="14.343827278751647"><ele>708.6666666666666</ele><time>2026-03-22T09:43:59Z</time></trkpt><trkpt lat="37.45985122856792" lon="14.343797895690576"><ele>709.3333333333333</ele><time>2026-03-22T09:44:00Z</time></trkpt><trkpt lat="37.45994512322522" lon="14.343768051449658"><ele>710.0</ele><time>2026-03-22T09:44:01Z</time></trkpt><trkpt lat="37.46002860317021" lon="14.343719234468189"><ele>710.0</ele><time>2026-03-22T09:44:02Z</time></trkpt><trkpt lat="37.4601068198577" lon="14.34367565154081"><ele>710.0</ele><time>2026-03-22T09:44:03Z</time></trkpt><trkpt lat="37.46016562254508" lon="14.343623586856795"><ele>710.0</ele><time>2026-03-22T09:44:04Z</time></trkpt><trkpt lat="37.46021361608819" lon="14.343564731756494"><ele>710.0</ele><time>2026-03-22T09:44:05Z</time></trkpt><trkpt lat="37.4602680211738" lon="14.343498802027524"><ele>710.0</ele><time>2026-03-22T09:44:06Z</time></trkpt><trkpt lat="37.46031007652102" lon="14.343418409706041"><ele>710.0</ele><time>2026-03-22T09:44:07Z</time></trkpt><trkpt lat="37.460368183797804" lon="14.343257317545078"><ele>710.0</ele><time>2026-03-22T09:44:09Z</time></trkpt><trkpt lat="37.460361709409696" lon="14.343148563378454"><ele>710.0</ele><time>2026-03-22T09:44:10Z</time></trkpt><trkpt lat="37.46033242138402" lon="14.343033520287975"><ele>710.0</ele><time>2026-03-22T09:44:11Z</time></trkpt><trkpt lat="37.460304870416564" lon="14.342895479027785"><ele>710.0</ele><time>2026-03-22T09:44:12Z</time></trkpt><trkpt lat="37.460294847277524" lon="14.342743228757046"><ele>710.0</ele><time>2026-03-22T09:44:13Z</time></trkpt><trkpt lat="37.460275270602025" lon="14.34261851274465"><ele>709.2</ele><time>2026-03-22T09:44:14Z</time></trkpt><trkpt lat="37.460253180586726" lon="14.342476993269287"><ele>708.4</ele><time>2026-03-22T09:44:15Z</time></trkpt><trkpt lat="37.46023555941337" lon="14.342338331516823"><ele>707.5999999999999</ele><time>2026-03-22T09:44:16Z</time></trkpt><trkpt lat="37.46021618731659" lon="14.342225553356375"><ele>706.8</ele><time>2026-03-22T09:44:17Z</time></trkpt><trkpt lat="37.46019739379445" lon="14.342129611407152"><ele>706.0</ele><time>2026-03-22T09:44:18Z</time></trkpt><trkpt lat="37.46016627923916" lon="14.342052220016793"><ele>708.0</ele><time>2026-03-22T09:44:19Z</time></trkpt><trkpt lat="37.4600717045406" lon="14.34198106140807"><ele>710.0</ele><time>2026-03-22T09:44:21Z</time></trkpt><trkpt lat="37.460003188160215" lon="14.342002398735437"><ele>712.0</ele><time>2026-03-22T09:44:22Z</time></trkpt><trkpt lat="37.45991739966463" lon="14.342030039868762"><ele>714.0</ele><time>2026-03-22T09:44:23Z</time></trkpt><trkpt lat="37.45983928692705" lon="14.342043632671798"><ele>716.0</ele><time>2026-03-22T09:44:24Z</time></trkpt><trkpt lat="37.45975231440784" lon="14.342044009301834"><ele>718.0</ele><time>2026-03-22T09:44:25Z</time></trkpt><trkpt lat="37.459665817439685" lon="14.342055241293796"><ele>716.5</ele><time>2026-03-22T09:44:26Z</time></trkpt><trkpt lat="37.45959467856265" lon="14.342073107875839"><ele>715.0</ele><time>2026-03-22T09:44:27Z</time></trkpt><trkpt lat="37.45952879533167" lon="14.342092846121325"><ele>713.5</ele><time>2026-03-22T09:44:28Z</time></trkpt><trkpt lat="37.459463107574564" lon="14.34211020455334"><ele>712.0</ele><time>2026-03-22T09:44:29Z</time></trkpt><trkpt lat="37.4593711485453" lon="14.342137491257274"><ele>710.5</ele><time>2026-03-22T09:44:30Z</time></trkpt><trkpt lat="37.45925898442192" lon="14.342174982999154"><ele>709.0</ele><time>2026-03-22T09:44:31Z</time></trkpt><trkpt lat="37.45915540025553" lon="14.34220451342035"><ele>709.0</ele><time>2026-03-22T09:44:32Z</time></trkpt><trkpt lat="37.45905525241308" lon="14.34220740412245"><ele>709.0</ele><time>2026-03-22T09:44:33Z</time></trkpt><trkpt lat="37.45894044292327" lon="14.342209253343304"><ele>709.0</ele><time>2026-03-22T09:44:34Z</time></trkpt><trkpt lat="37.458835358594406" lon="14.342193194900581"><ele>709.0</ele><time>2026-03-22T09:44:35Z</time></trkpt><trkpt lat="37.45872445662595" lon="14.342172486183353"><ele>709.0</ele><time>2026-03-22T09:44:36Z</time></trkpt><trkpt lat="37.45862939875952" lon="14.342131064983569"><ele>704.25</ele><time>2026-03-22T09:44:37Z</time></trkpt><trkpt lat="37.458505618106415" lon="14.34206530227881"><ele>699.5</ele><time>2026-03-22T09:44:38Z</time></trkpt><trkpt lat="37.458388322916896" lon="14.342010027827786"><ele>694.75</ele><time>2026-03-22T09:44:39Z</time></trkpt><trkpt lat="37.45828763786095" lon="14.341963383750063"><ele>690.0</ele><time>2026-03-22T09:44:40Z</time></trkpt><trkpt lat="37.458190630175125" lon="14.341924629892022"><ele>690.0</ele><time>2026-03-22T09:44:41Z</time></trkpt><trkpt lat="37.45811434313399" lon="14.341896291072938"><ele>690.0</ele><time>2026-03-22T09:44:42Z</time></trkpt><trkpt lat="37.45804281945532" lon="14.341848160494648"><ele>690.0</ele><time>2026-03-22T09:44:43Z</time></trkpt><trkpt lat="37.45798317433249" lon="14.341799965945338"><ele>690.0</ele><time>2026-03-22T09:44:44Z</time></trkpt><trkpt lat="37.45792553605688" lon="14.341698689568423"><ele>690.0</ele><time>2026-03-22T09:44:46Z</time></trkpt><trkpt lat="37.45798057837544" lon="14.341597486864533"><ele>690.0</ele><time>2026-03-22T09:44:48Z</time></trkpt><trkpt lat="37.458045915218406" lon="14.341548771462415"><ele>690.0</ele><time>2026-03-22T09:44:49Z</time></trkpt><trkpt lat="37.458116525769256" lon="14.341500876565366"><ele>690.0</ele><time>2026-03-22T09:44:50Z</time></trkpt><trkpt lat="37.45817109823616" lon="14.341451439136868"><ele>690.0</ele><time>2026-03-22T09:44:51Z</time></trkpt><trkpt lat="37.45821693386872" lon="14.341301227925609"><ele>690.0</ele><time>2026-03-22T09:44:53Z</time></trkpt><trkpt lat="37.45821813505398" lon="14.341197271824079"><ele>690.0</ele><time>2026-03-22T09:44:55Z</time></trkpt><trkpt lat="37.45822385808721" lon="14.341113337833459"><ele>690.0</ele><time>2026-03-22T09:44:58Z</time></trkpt><trkpt lat="37.45822977515387" lon="14.34102881086775"><ele>690.0</ele><time>2026-03-22T09:45:01Z</time></trkpt><trkpt lat="37.458270851714786" lon="14.340929332642316"><ele>690.0</ele><time>2026-03-22T09:45:31Z</time></trkpt><trkpt lat="37.45821599796702" lon="14.34097150432033"><ele>690.0</ele><time>2026-03-22T09:45:42Z</time></trkpt><trkpt lat="37.458244549591384" lon="14.341069366134974"><ele>690.0</ele><time>2026-03-22T09:45:48Z</time></trkpt><trkpt lat="37.45822969438196" lon="14.341171910932076"><ele>690.0</ele><time>2026-03-22T09:45:50Z</time></trkpt><trkpt lat="37.45821019664181" lon="14.341277669143764"><ele>690.0</ele><time>2026-03-22T09:45:52Z</time></trkpt><trkpt lat="37.4581924060253" lon="14.341383838103434"><ele>690.0</ele><time>2026-03-22T09:45:54Z</time></trkpt><trkpt lat="37.458150163823454" lon="14.34148655506651"><ele>690.0</ele><time>2026-03-22T09:45:56Z</time></trkpt><trkpt lat="37.45809075426348" lon="14.341570150165966"><ele>690.0</ele><time>2026-03-22T09:45:58Z</time></trkpt><trkpt lat="37.45802013243567" lon="14.341638933386632"><ele>690.0</ele><time>2026-03-22T09:46:00Z</time></trkpt><trkpt lat="37.45795760694108" lon="14.341712506153694"><ele>690.0</ele><time>2026-03-22T09:46:02Z</time></trkpt><trkpt lat="37.45799271106513" lon="14.341796531575328"><ele>690.0</ele><time>2026-03-22T09:46:04Z</time></trkpt><trkpt lat="37.45809024732736" lon="14.34185833556645"><ele>690.0</ele><time>2026-03-22T09:46:06Z</time></trkpt><trkpt lat="37.45815215971476" lon="14.341890892101967"><ele>690.0</ele><time>2026-03-22T09:46:07Z</time></trkpt><trkpt lat="37.45826312800975" lon="14.341953725283192"><ele>690.0</ele><time>2026-03-22T09:46:09Z</time></trkpt><trkpt lat="37.45833574409992" lon="14.341981211593058"><ele>690.0</ele><time>2026-03-22T09:46:10Z</time></trkpt><trkpt lat="37.45840719187511" lon="14.342011188549947"><ele>690.0</ele><time>2026-03-22T09:46:11Z</time></trkpt><trkpt lat="37.45846517365599" lon="14.34204584861547"><ele>690.0</ele><time>2026-03-22T09:46:12Z</time></trkpt><trkpt lat="37.45853046980267" lon="14.34206760237564"><ele>690.0</ele><time>2026-03-22T09:46:13Z</time></trkpt><trkpt lat="37.4586001396324" lon="14.342108549150275"><ele>690.0</ele><time>2026-03-22T09:46:14Z</time></trkpt><trkpt lat="37.458675376551305" lon="14.342135309405856"><ele>690.0</ele><time>2026-03-22T09:46:15Z</time></trkpt><trkpt lat="37.45875521434275" lon="14.342159610788032"><ele>690.0</ele><time>2026-03-22T09:46:16Z</time></trkpt><trkpt lat="37.45883384795165" lon="14.342185043984072"><ele>690.0</ele><time>2026-03-22T09:46:17Z</time></trkpt><trkpt lat="37.458915621515395" lon="14.342198489313507"><ele>690.0</ele><time>2026-03-22T09:46:18Z</time></trkpt><trkpt lat="37.458995430791724" lon="14.342206520529636"><ele>693.8</ele><time>2026-03-22T09:46:19Z</time></trkpt><trkpt lat="37.459081938546134" lon="14.342207644836977"><ele>697.6</ele><time>2026-03-22T09:46:20Z</time></trkpt><trkpt lat="37.459171858522375" lon="14.34220134543364"><ele>701.4000000000001</ele><time>2026-03-22T09:46:21Z</time></trkpt><trkpt lat="37.45927263827706" lon="14.342183036230626"><ele>705.2</ele><time>2026-03-22T09:46:22Z</time></trkpt><trkpt lat="37.45937500238102" lon="14.342155751810052"><ele>709.0</ele><time>2026-03-22T09:46:23Z</time></trkpt><trkpt lat="37.459495177893004" lon="14.342112384346748"><ele>711.25</ele><time>2026-03-22T09:46:24Z</time></trkpt><trkpt lat="37.459642448359475" lon="14.342074672450003"><ele>713.5</ele><time>2026-03-22T09:46:25Z</time></trkpt><trkpt lat="37.459773326426124" lon="14.342050317209415"><ele>715.75</ele><time>2026-03-22T09:46:26Z</time></trkpt><trkpt lat="37.45990645894434" lon="14.342041422728158"><ele>718.0</ele><time>2026-03-22T09:46:27Z</time></trkpt><trkpt lat="37.4600231918543" lon="14.342045373643552"><ele>718.0</ele><time>2026-03-22T09:46:28Z</time></trkpt><trkpt lat="37.46012692240277" lon="14.342056172677248"><ele>718.0</ele><time>2026-03-22T09:46:29Z</time></trkpt><trkpt lat="37.460192008379124" lon="14.342073899293508"><ele>718.0</ele><time>2026-03-22T09:46:30Z</time></trkpt><trkpt lat="37.460233129417766" lon="14.342135283029574"><ele>718.0</ele><time>2026-03-22T09:46:31Z</time></trkpt><trkpt lat="37.46025201918378" lon="14.34223226627753"><ele>718.0</ele><time>2026-03-22T09:46:32Z</time></trkpt><trkpt lat="37.46027064174078" lon="14.342373768760792"><ele>718.0</ele><time>2026-03-22T09:46:33Z</time></trkpt><trkpt lat="37.46027209881644" lon="14.342534426132227"><ele>716.0</ele><time>2026-03-22T09:46:34Z</time></trkpt><trkpt lat="37.46028132963286" lon="14.342697214107424"><ele>714.0</ele><time>2026-03-22T09:46:35Z</time></trkpt><trkpt lat="37.46030581956188" lon="14.342889018987146"><ele>712.0</ele><time>2026-03-22T09:46:36Z</time></trkpt><trkpt lat="37.46032143529275" lon="14.343070821041067"><ele>710.0</ele><time>2026-03-22T09:46:37Z</time></trkpt><trkpt lat="37.46033791803135" lon="14.343264041984169"><ele>710.0</ele><time>2026-03-22T09:46:38Z</time></trkpt><trkpt lat="37.46034281786396" lon="14.343368533939884"><ele>710.0</ele><time>2026-03-22T09:46:39Z</time></trkpt><trkpt lat="37.46029184239665" lon="14.343427645752927"><ele>710.0</ele><time>2026-03-22T09:46:40Z</time></trkpt><trkpt lat="37.460285725312254" lon="14.34353265507954"><ele>710.0</ele><time>2026-03-22T09:46:41Z</time></trkpt><trkpt lat="37.46022361653444" lon="14.343595103851863"><ele>710.0</ele><time>2026-03-22T09:46:42Z</time></trkpt><trkpt lat="37.460153941330226" lon="14.343669143810086"><ele>710.0</ele><time>2026-03-22T09:46:43Z</time></trkpt><trkpt lat="37.46006968894664" lon="14.343748094297416"><ele>710.0</ele><time>2026-03-22T09:46:44Z</time></trkpt><trkpt lat="37.4599725516756" lon="14.343802932227273"><ele>710.0</ele><time>2026-03-22T09:46:45Z</time></trkpt><trkpt lat="37.459857418666004" lon="14.343857863852667"><ele>710.0</ele><time>2026-03-22T09:46:46Z</time></trkpt><trkpt lat="37.45976847368578" lon="14.343898746305046"><ele>710.0</ele><time>2026-03-22T09:46:47Z</time></trkpt><trkpt lat="37.45969460604212" lon="14.34392660498786"><ele>710.0</ele><time>2026-03-22T09:46:48Z</time></trkpt><trkpt lat="37.45963010889757" lon="14.3439810885518"><ele>709.2</ele><time>2026-03-22T09:46:49Z</time></trkpt><trkpt lat="37.459582722706664" lon="14.344072568549059"><ele>708.4</ele><time>2026-03-22T09:46:50Z</time></trkpt><trkpt lat="37.45953305608711" lon="14.344200428627365"><ele>707.5999999999999</ele><time>2026-03-22T09:46:51Z</time></trkpt><trkpt lat="37.459470165041004" lon="14.34433355124454"><ele>706.8</ele><time>2026-03-22T09:46:52Z</time></trkpt><trkpt lat="37.459401492461076" lon="14.344433753555862"><ele>706.0</ele><time>2026-03-22T09:46:53Z</time></trkpt><trkpt lat="37.4593671427922" lon="14.344524437299853"><ele>706.0</ele><time>2026-03-22T09:46:54Z</time></trkpt><trkpt lat="37.45937812687972" lon="14.344661427033733"><ele>706.0</ele><time>2026-03-22T09:46:56Z</time></trkpt><trkpt lat="37.459463420584015" lon="14.344775159141385"><ele>706.0</ele><time>2026-03-22T09:46:58Z</time></trkpt><trkpt lat="37.45949941896039" lon="14.344862405893863"><ele>706.0</ele><time>2026-03-22T09:47:00Z</time></trkpt><trkpt lat="37.45949856135906" lon="14.344946480880633"><ele>706.0</ele><time>2026-03-22T09:47:02Z</time></trkpt><trkpt lat="37.4594307667426" lon="14.344911440157569"><ele>706.8571428571428</ele><time>2026-03-22T09:48:38Z</time></trkpt><trkpt lat="37.45935663979129" lon="14.344903569527325"><ele>707.7142857142858</ele><time>2026-03-22T09:48:43Z</time></trkpt><trkpt lat="37.45928761719253" lon="14.34493781192818"><ele>708.5714285714286</ele><time>2026-03-22T09:48:49Z</time></trkpt><trkpt lat="37.45922106401438" lon="14.344966387448078"><ele>709.4285714285713</ele><time>2026-03-22T09:48:52Z</time></trkpt><trkpt lat="37.45915722705635" lon="14.3449377809144"><ele>710.2857142857142</ele><time>2026-03-22T09:48:57Z</time></trkpt><trkpt lat="37.459093804200805" lon="14.344935738029081"><ele>711.1428571428571</ele><time>2026-03-22T09:49:00Z</time></trkpt><trkpt lat="37.45902488414329" lon="14.344960719866059"><ele>712.0</ele><time>2026-03-22T09:49:05Z</time></trkpt><trkpt lat="37.45894920171097" lon="14.34497732482011"><ele>711.9999999999999</ele><time>2026-03-22T09:49:09Z</time></trkpt><trkpt lat="37.45888427405925" lon="14.345002277977722"><ele>712.0</ele><time>2026-03-22T09:49:13Z</time></trkpt><trkpt lat="37.45880093125445" lon="14.345042730012048"><ele>712.0</ele><time>2026-03-22T09:50:23Z</time></trkpt><trkpt lat="37.45873821552809" lon="14.345057697109567"><ele>712.0</ele><time>2026-03-22T09:50:39Z</time></trkpt><trkpt lat="37.45868964889789" lon="14.345115042603076"><ele>712.0</ele><time>2026-03-22T09:52:08Z</time></trkpt><trkpt lat="37.4586409852414" lon="14.345182853769174"><ele>711.9999999999999</ele><time>2026-03-22T09:52:25Z</time></trkpt><trkpt lat="37.458632836076816" lon="14.345273560949748"><ele>712.0</ele><time>2026-03-22T09:52:29Z</time></trkpt><trkpt lat="37.45862529757539" lon="14.34537954989653"><ele>708.2857142857142</ele><time>2026-03-22T09:52:33Z</time></trkpt><trkpt lat="37.45860718990067" lon="14.345456333932544"><ele>704.5714285714286</ele><time>2026-03-22T09:52:38Z</time></trkpt><trkpt lat="37.4585315300007" lon="14.345446507699618"><ele>700.8571428571429</ele><time>2026-03-22T09:52:42Z</time></trkpt><trkpt lat="37.458457619934116" lon="14.345398749973077"><ele>697.1428571428571</ele><time>2026-03-22T09:52:46Z</time></trkpt><trkpt lat="37.4583899041241" lon="14.345334489811428"><ele>693.4285714285714</ele><time>2026-03-22T09:52:49Z</time></trkpt><trkpt lat="37.458331268726575" lon="14.345297333509215"><ele>689.7142857142857</ele><time>2026-03-22T09:52:52Z</time></trkpt><trkpt lat="37.45828545720657" lon="14.345221812106304"><ele>686.0</ele><time>2026-03-22T09:52:56Z</time></trkpt><trkpt lat="37.45823898083296" lon="14.345157249597966"><ele>686.0</ele><time>2026-03-22T09:52:59Z</time></trkpt><trkpt lat="37.458172052159135" lon="14.345122639021122"><ele>686.0</ele><time>2026-03-22T09:53:03Z</time></trkpt><trkpt lat="37.45812285494967" lon="14.345178645808224"><ele>686.0</ele><time>2026-03-22T09:53:06Z</time></trkpt><trkpt lat="37.45809854530406" lon="14.34526348290711"><ele>686.0</ele><time>2026-03-22T09:53:10Z</time></trkpt><trkpt lat="37.45807891102748" lon="14.345344910944512"><ele>686.0</ele><time>2026-03-22T09:53:12Z</time></trkpt><trkpt lat="37.45803949961783" lon="14.34543606788528"><ele>686.0</ele><time>2026-03-22T09:53:18Z</time></trkpt><trkpt lat="37.45802696945499" lon="14.345529711460038"><ele>686.0</ele><time>2026-03-22T09:53:32Z</time></trkpt><trkpt lat="37.45794854605921" lon="14.34552121662112"><ele>682.0</ele><time>2026-03-22T09:53:36Z</time></trkpt><trkpt lat="37.4578854953784" lon="14.34547131415504"><ele>678.0</ele><time>2026-03-22T09:53:39Z</time></trkpt><trkpt lat="37.4577934868572" lon="14.345434320057025"><ele>674.0</ele><time>2026-03-22T09:53:42Z</time></trkpt><trkpt lat="37.457715273126254" lon="14.345461071217644"><ele>670.0</ele><time>2026-03-22T09:53:46Z</time></trkpt><trkpt lat="37.45765979316685" lon="14.345509684528976"><ele>666.0</ele><time>2026-03-22T09:53:48Z</time></trkpt><trkpt lat="37.45760774685625" lon="14.345555597368499"><ele>662.0</ele><time>2026-03-22T09:54:02Z</time></trkpt><trkpt lat="37.45760439957243" lon="14.3456573709909"><ele>662.0</ele><time>2026-03-22T09:54:07Z</time></trkpt><trkpt lat="37.457649715768206" lon="14.34583938184261"><ele>662.0</ele><time>2026-03-22T09:54:33Z</time></trkpt><trkpt lat="37.4576812838776" lon="14.345992589727176"><ele>662.0</ele><time>2026-03-22T09:54:34Z</time></trkpt><trkpt lat="37.45772185529611" lon="14.346183233855653"><ele>662.0</ele><time>2026-03-22T09:54:35Z</time></trkpt><trkpt lat="37.45772926691066" lon="14.34633494091048"><ele>661.75</ele><time>2026-03-22T09:54:36Z</time></trkpt><trkpt lat="37.45776109026429" lon="14.346505187553241"><ele>661.5</ele><time>2026-03-22T09:54:37Z</time></trkpt><trkpt lat="37.457783343334626" lon="14.346668609443707"><ele>661.25</ele><time>2026-03-22T09:54:38Z</time></trkpt><trkpt lat="37.45778685533123" lon="14.346802111701475"><ele>661.0</ele><time>2026-03-22T09:54:39Z</time></trkpt><trkpt lat="37.45778892109122" lon="14.346929781676025"><ele>661.0</ele><time>2026-03-22T09:54:40Z</time></trkpt><trkpt lat="37.457788160925816" lon="14.347051812031694"><ele>661.0</ele><time>2026-03-22T09:54:41Z</time></trkpt><trkpt lat="37.45778732914925" lon="14.347185338185959"><ele>661.0</ele><time>2026-03-22T09:54:42Z</time></trkpt><trkpt lat="37.457786429683736" lon="14.347329730524708"><ele>661.0</ele><time>2026-03-22T09:54:43Z</time></trkpt><trkpt lat="37.45778514440171" lon="14.347482787623392"><ele>661.0</ele><time>2026-03-22T09:54:44Z</time></trkpt><trkpt lat="37.45778289695072" lon="14.347669953237924"><ele>659.4</ele><time>2026-03-22T09:54:45Z</time></trkpt><trkpt lat="37.457780234245675" lon="14.347826857602941"><ele>657.8</ele><time>2026-03-22T09:54:46Z</time></trkpt><trkpt lat="37.45777925586185" lon="14.347959804322484"><ele>656.1999999999999</ele><time>2026-03-22T09:54:47Z</time></trkpt><trkpt lat="37.45778455606318" lon="14.34807726126933"><ele>654.5999999999999</ele><time>2026-03-22T09:54:48Z</time></trkpt><trkpt lat="37.45781151202449" lon="14.348211614020716"><ele>653.0</ele><time>2026-03-22T09:54:49Z</time></trkpt><trkpt lat="37.45783577524083" lon="14.348352495436309"><ele>651.5</ele><time>2026-03-22T09:54:50Z</time></trkpt><trkpt lat="37.45789524685052" lon="14.348475521975436"><ele>650.0</ele><time>2026-03-22T09:54:51Z</time></trkpt><trkpt lat="37.45796478354556" lon="14.348588023795502"><ele>648.5</ele><time>2026-03-22T09:54:52Z</time></trkpt><trkpt lat="37.45804395622894" lon="14.348697750693413"><ele>647.0</ele><time>2026-03-22T09:54:53Z</time></trkpt><trkpt lat="37.458128951058825" lon="14.348796882012152"><ele>648.75</ele><time>2026-03-22T09:54:54Z</time></trkpt><trkpt lat="37.4582272002437" lon="14.348888530268793"><ele>650.5</ele><time>2026-03-22T09:54:55Z</time></trkpt><trkpt lat="37.458348700788015" lon="14.348952854526354"><ele>652.25</ele><time>2026-03-22T09:54:56Z</time></trkpt><trkpt lat="37.458466978537636" lon="14.349022619055416"><ele>654.0</ele><time>2026-03-22T09:54:57Z</time></trkpt><trkpt lat="37.4585842939089" lon="14.349105622238692"><ele>654.0</ele><time>2026-03-22T09:54:58Z</time></trkpt><trkpt lat="37.458710653900376" lon="14.349194252658421"><ele>654.0</ele><time>2026-03-22T09:54:59Z</time></trkpt><trkpt lat="37.458834985526224" lon="14.349277661373858"><ele>654.0</ele><time>2026-03-22T09:55:00Z</time></trkpt><trkpt lat="37.45895142110131" lon="14.349363252504238"><ele>654.0</ele><time>2026-03-22T09:55:01Z</time></trkpt><trkpt lat="37.45903927839594" lon="14.349431341511394"><ele>654.2</ele><time>2026-03-22T09:55:02Z</time></trkpt><trkpt lat="37.45912108173955" lon="14.349491043400878"><ele>654.4000000000001</ele><time>2026-03-22T09:55:03Z</time></trkpt><trkpt lat="37.45917529793241" lon="14.349572378988938"><ele>654.6</ele><time>2026-03-22T09:55:04Z</time></trkpt><trkpt lat="37.45922715604864" lon="14.349664161392077"><ele>654.8</ele><time>2026-03-22T09:55:05Z</time></trkpt><trkpt lat="37.459378275198254" lon="14.349675939854574"><ele>655.0</ele><time>2026-03-22T09:55:06Z</time></trkpt><trkpt lat="37.4595107969115" lon="14.349726456784275"><ele>656.75</ele><time>2026-03-22T09:55:07Z</time></trkpt><trkpt lat="37.459657858649486" lon="14.349776710007488"><ele>658.5</ele><time>2026-03-22T09:55:08Z</time></trkpt><trkpt lat="37.45980396110728" lon="14.349832119949209"><ele>660.25</ele><time>2026-03-22T09:55:09Z</time></trkpt><trkpt lat="37.45993425471522" lon="14.34987571567805"><ele>662.0</ele><time>2026-03-22T09:55:10Z</time></trkpt><trkpt lat="37.46004318841634" lon="14.349889114281316"><ele>662.0</ele><time>2026-03-22T09:55:11Z</time></trkpt><trkpt lat="37.46014848868146" lon="14.349838189913127"><ele>662.0</ele><time>2026-03-22T09:55:12Z</time></trkpt><trkpt lat="37.460230676247676" lon="14.349751353226997"><ele>662.0</ele><time>2026-03-22T09:55:13Z</time></trkpt><trkpt lat="37.46031127038657" lon="14.349662824433212"><ele>662.0</ele><time>2026-03-22T09:55:14Z</time></trkpt><trkpt lat="37.460392610273445" lon="14.34962913632117"><ele>662.0</ele><time>2026-03-22T09:55:15Z</time></trkpt><trkpt lat="37.46047585722917" lon="14.349641148901727"><ele>666.0</ele><time>2026-03-22T09:55:16Z</time></trkpt><trkpt lat="37.46054911118356" lon="14.3497528818812"><ele>670.0</ele><time>2026-03-22T09:55:17Z</time></trkpt><trkpt lat="37.46065631381893" lon="14.34983118577328"><ele>674.0</ele><time>2026-03-22T09:55:18Z</time></trkpt><trkpt lat="37.46077474528883" lon="14.349916093591501"><ele>678.0</ele><time>2026-03-22T09:55:19Z</time></trkpt><trkpt lat="37.460907887469595" lon="14.349992156222687"><ele>678.0</ele><time>2026-03-22T09:55:20Z</time></trkpt><trkpt lat="37.461049842407306" lon="14.350069432804954"><ele>678.0</ele><time>2026-03-22T09:55:21Z</time></trkpt><trkpt lat="37.4611999279393" lon="14.350132779819925"><ele>678.0</ele><time>2026-03-22T09:55:22Z</time></trkpt><trkpt lat="37.4613691502535" lon="14.350196428288553"><ele>682.0</ele><time>2026-03-22T09:55:23Z</time></trkpt><trkpt lat="37.46154161633828" lon="14.350247531811787"><ele>686.0</ele><time>2026-03-22T09:55:24Z</time></trkpt><trkpt lat="37.46171366724307" lon="14.350287523152717"><ele>690.0</ele><time>2026-03-22T09:55:25Z</time></trkpt><trkpt lat="37.46188179790328" lon="14.350330669291136"><ele>690.0</ele><time>2026-03-22T09:55:26Z</time></trkpt><trkpt lat="37.46204958118949" lon="14.350373446084973"><ele>690.0</ele><time>2026-03-22T09:55:27Z</time></trkpt><trkpt lat="37.46222313133679" lon="14.350418398110255"><ele>690.0</ele><time>2026-03-22T09:55:28Z</time></trkpt><trkpt lat="37.462384614858266" lon="14.350467159972203"><ele>692.6666666666666</ele><time>2026-03-22T09:55:29Z</time></trkpt><trkpt lat="37.46255477889613" lon="14.350521609074397"><ele>695.3333333333333</ele><time>2026-03-22T09:55:30Z</time></trkpt><trkpt lat="37.46271317422707" lon="14.350574548884278"><ele>698.0</ele><time>2026-03-22T09:55:31Z</time></trkpt><trkpt lat="37.462864521616524" lon="14.350613583112162"><ele>695.25</ele><time>2026-03-22T09:55:32Z</time></trkpt><trkpt lat="37.463016507405456" lon="14.350629300978241"><ele>692.5</ele><time>2026-03-22T09:55:33Z</time></trkpt><trkpt lat="37.46316744469742" lon="14.350635533141396"><ele>689.75</ele><time>2026-03-22T09:55:34Z</time></trkpt><trkpt lat="37.4633070276186" lon="14.35059024801833"><ele>687.0</ele><time>2026-03-22T09:55:35Z</time></trkpt><trkpt lat="37.46344948276" lon="14.35056870909262"><ele>688.2</ele><time>2026-03-22T09:55:36Z</time></trkpt><trkpt lat="37.46356141508733" lon="14.350530917010678"><ele>689.4000000000001</ele><time>2026-03-22T09:55:37Z</time></trkpt><trkpt lat="37.46365943461457" lon="14.350514125511415"><ele>690.5999999999999</ele><time>2026-03-22T09:55:38Z</time></trkpt><trkpt lat="37.46375875646467" lon="14.350535916169864"><ele>691.8</ele><time>2026-03-22T09:55:39Z</time></trkpt><trkpt lat="37.46388410071273" lon="14.350545731129838"><ele>693.0</ele><time>2026-03-22T09:55:40Z</time></trkpt><trkpt lat="37.46399199351595" lon="14.350579467343012"><ele>693.0</ele><time>2026-03-22T09:55:41Z</time></trkpt><trkpt lat="37.464091567898016" lon="14.350594584755127"><ele>693.0</ele><time>2026-03-22T09:55:42Z</time></trkpt><trkpt lat="37.46420007116369" lon="14.350619545268204"><ele>693.0</ele><time>2026-03-22T09:55:43Z</time></trkpt><trkpt lat="37.46431112430094" lon="14.350643581928717"><ele>693.0</ele><time>2026-03-22T09:55:44Z</time></trkpt><trkpt lat="37.4644258668237" lon="14.350667047610804"><ele>693.0</ele><time>2026-03-22T09:55:45Z</time></trkpt><trkpt lat="37.46453415337241" lon="14.350693161327692"><ele>694.25</ele><time>2026-03-22T09:55:46Z</time></trkpt><trkpt lat="37.464649773140906" lon="14.350725762504625"><ele>695.5</ele><time>2026-03-22T09:55:47Z</time></trkpt><trkpt lat="37.46477061898303" lon="14.350757227025584"><ele>696.75</ele><time>2026-03-22T09:55:48Z</time></trkpt><trkpt lat="37.464915409561705" lon="14.35079506041117"><ele>698.0</ele><time>2026-03-22T09:55:49Z</time></trkpt><trkpt lat="37.46505455109289" lon="14.350831898659063"><ele>698.0</ele><time>2026-03-22T09:55:50Z</time></trkpt><trkpt lat="37.46521469561045" lon="14.350862176245371"><ele>698.0</ele><time>2026-03-22T09:55:51Z</time></trkpt><trkpt lat="37.4653603202926" lon="14.350898538697555"><ele>698.0</ele><time>2026-03-22T09:55:52Z</time></trkpt><trkpt lat="37.465485593307534" lon="14.350931083866152"><ele>698.0</ele><time>2026-03-22T09:55:53Z</time></trkpt><trkpt lat="37.465597763965754" lon="14.350958567344701"><ele>698.75</ele><time>2026-03-22T09:55:54Z</time></trkpt><trkpt lat="37.465686828469956" lon="14.351049768354866"><ele>699.5</ele><time>2026-03-22T09:55:55Z</time></trkpt><trkpt lat="37.465796859461676" lon="14.351137278150304"><ele>700.25</ele><time>2026-03-22T09:55:56Z</time></trkpt><trkpt lat="37.465912381111615" lon="14.351231246779102"><ele>701.0</ele><time>2026-03-22T09:55:57Z</time></trkpt><trkpt lat="37.46604296776491" lon="14.351317547878669"><ele>701.4</ele><time>2026-03-22T09:55:58Z</time></trkpt><trkpt lat="37.46613560789001" lon="14.351393641944059"><ele>701.8</ele><time>2026-03-22T09:55:59Z</time></trkpt><trkpt lat="37.46619934392996" lon="14.351440164794095"><ele>702.1999999999999</ele><time>2026-03-22T09:56:00Z</time></trkpt><trkpt lat="37.46625888855876" lon="14.351496106072553"><ele>702.5999999999999</ele><time>2026-03-22T09:56:02Z</time></trkpt><trkpt lat="37.466366704251506" lon="14.351529373283675"><ele>703.0</ele><time>2026-03-22T09:56:47Z</time></trkpt><trkpt lat="37.46647810673512" lon="14.351582768888052"><ele>703.5999999999999</ele><time>2026-03-22T09:56:48Z</time></trkpt><trkpt lat="37.46662005252745" lon="14.351649395924662"><ele>704.1999999999999</ele><time>2026-03-22T09:56:49Z</time></trkpt><trkpt lat="37.46673198959254" lon="14.351705314509442"><ele>704.8</ele><time>2026-03-22T09:56:50Z</time></trkpt><trkpt lat="37.466797919943225" lon="14.351749530629016"><ele>705.4</ele><time>2026-03-22T09:56:51Z</time></trkpt><trkpt lat="37.46687476974319" lon="14.351782720076676"><ele>706.0</ele><time>2026-03-22T09:56:53Z</time></trkpt><trkpt lat="37.466839789838616" lon="14.351669887492609"><ele>706.0</ele><time>2026-03-22T09:57:18Z</time></trkpt><trkpt lat="37.46685745010685" lon="14.351753216509445"><ele>706.0</ele><time>2026-03-22T09:57:24Z</time></trkpt><trkpt lat="37.46692823727026" lon="14.351804333758404"><ele>706.0</ele><time>2026-03-22T09:57:26Z</time></trkpt><trkpt lat="37.467014396087826" lon="14.35182466254169"><ele>706.0</ele><time>2026-03-22T09:57:27Z</time></trkpt><trkpt lat="37.46710841311848" lon="14.351851317317383"><ele>706.0</ele><time>2026-03-22T09:57:28Z</time></trkpt><trkpt lat="37.467232608327656" lon="14.351875535653926"><ele>710.3333333333334</ele><time>2026-03-22T09:57:29Z</time></trkpt><trkpt lat="37.467378698205785" lon="14.35190715229763"><ele>714.6666666666666</ele><time>2026-03-22T09:57:30Z</time></trkpt><trkpt lat="37.46753527661094" lon="14.351955204172336"><ele>719.0</ele><time>2026-03-22T09:57:31Z</time></trkpt><trkpt lat="37.46769865336192" lon="14.351997708810297"><ele>719.0</ele><time>2026-03-22T09:57:32Z</time></trkpt><trkpt lat="37.467884550689504" lon="14.352050838064603"><ele>719.0</ele><time>2026-03-22T09:57:33Z</time></trkpt><trkpt lat="37.468024050311904" lon="14.352086304096824"><ele>719.0</ele><time>2026-03-22T09:57:34Z</time></trkpt><trkpt lat="37.468157886539544" lon="14.352120744229964"><ele>719.75</ele><time>2026-03-22T09:57:35Z</time></trkpt><trkpt lat="37.468278961631235" lon="14.35215606052775"><ele>720.5</ele><time>2026-03-22T09:57:36Z</time></trkpt><trkpt lat="37.46838736891966" lon="14.352184513982017"><ele>721.25</ele><time>2026-03-22T09:57:37Z</time></trkpt><trkpt lat="37.4684937719699" lon="14.352217572541194"><ele>722.0</ele><time>2026-03-22T09:57:38Z</time></trkpt><trkpt lat="37.468598716416636" lon="14.352257619444405"><ele>722.0</ele><time>2026-03-22T09:57:39Z</time></trkpt><trkpt lat="37.468671306352704" lon="14.35236515328915"><ele>722.0</ele><time>2026-03-22T09:57:40Z</time></trkpt><trkpt lat="37.468754359224654" lon="14.352471003917385"><ele>722.0</ele><time>2026-03-22T09:57:41Z</time></trkpt><trkpt lat="37.46884110509062" lon="14.352591786600632"><ele>722.0</ele><time>2026-03-22T09:57:42Z</time></trkpt><trkpt lat="37.46891086033345" lon="14.352705300449665"><ele>724.0</ele><time>2026-03-22T09:57:43Z</time></trkpt><trkpt lat="37.46898381721465" lon="14.352812485315138"><ele>726.0</ele><time>2026-03-22T09:57:44Z</time></trkpt><trkpt lat="37.46902656606469" lon="14.352934230324289"><ele>728.0</ele><time>2026-03-22T09:57:45Z</time></trkpt><trkpt lat="37.46908290464965" lon="14.353045508765598"><ele>730.0</ele><time>2026-03-22T09:57:46Z</time></trkpt><trkpt lat="37.46913263088069" lon="14.353126229488582"><ele>732.0</ele><time>2026-03-22T09:57:47Z</time></trkpt><trkpt lat="37.469213362154214" lon="14.353150883651159"><ele>734.25</ele><time>2026-03-22T09:57:49Z</time></trkpt><trkpt lat="37.469209691599666" lon="14.352962415693684"><ele>736.5</ele><time>2026-03-22T09:57:52Z</time></trkpt><trkpt lat="37.46916720879378" lon="14.352841533183891"><ele>738.75</ele><time>2026-03-22T09:57:53Z</time></trkpt><trkpt lat="37.469120804957655" lon="14.352691540285413"><ele>741.0</ele><time>2026-03-22T09:57:54Z</time></trkpt><trkpt lat="37.469075287754166" lon="14.352500397890925"><ele>741.0</ele><time>2026-03-22T09:57:55Z</time></trkpt><trkpt lat="37.46903161949212" lon="14.352268635425864"><ele>741.0</ele><time>2026-03-22T09:57:56Z</time></trkpt><trkpt lat="37.46902329301462" lon="14.3520077665139"><ele>741.0</ele><time>2026-03-22T09:57:57Z</time></trkpt><trkpt lat="37.46900635719785" lon="14.35177769019677"><ele>743.0</ele><time>2026-03-22T09:57:58Z</time></trkpt><trkpt lat="37.46896047920659" lon="14.351567548817501"><ele>745.0</ele><time>2026-03-22T09:57:59Z</time></trkpt><trkpt lat="37.468896124311996" lon="14.351374939795871"><ele>747.0</ele><time>2026-03-22T09:58:00Z</time></trkpt><trkpt lat="37.46881740905266" lon="14.351192714303325"><ele>745.0</ele><time>2026-03-22T09:58:01Z</time></trkpt><trkpt lat="37.46873700224637" lon="14.351003211797838"><ele>743.0</ele><time>2026-03-22T09:58:02Z</time></trkpt><trkpt lat="37.46866719737578" lon="14.350852225271133"><ele>741.0</ele><time>2026-03-22T09:58:03Z</time></trkpt><trkpt lat="37.46861550942787" lon="14.350706179569642"><ele>739.0</ele><time>2026-03-22T09:58:04Z</time></trkpt><trkpt lat="37.46861627623279" lon="14.350554466172941"><ele>742.0</ele><time>2026-03-22T09:58:05Z</time></trkpt><trkpt lat="37.468646548184324" lon="14.35039734118911"><ele>745.0</ele><time>2026-03-22T09:58:06Z</time></trkpt><trkpt lat="37.46869261129923" lon="14.350255377044602"><ele>748.0</ele><time>2026-03-22T09:58:07Z</time></trkpt><trkpt lat="37.46874349707635" lon="14.350122246302641"><ele>751.0</ele><time>2026-03-22T09:58:08Z</time></trkpt><trkpt lat="37.46878900657348" lon="14.350021825662527"><ele>751.0</ele><time>2026-03-22T09:58:09Z</time></trkpt><trkpt lat="37.46882517071677" lon="14.349946518831327"><ele>751.0</ele><time>2026-03-22T09:58:10Z</time></trkpt><trkpt lat="37.46885810929341" lon="14.349878616130797"><ele>751.0</ele><time>2026-03-22T09:58:12Z</time></trkpt><trkpt lat="37.46857893151159" lon="14.349760090014195"><ele>751.0</ele><time>2026-03-22T09:58:14Z</time></trkpt><trkpt lat="37.46854719101156" lon="14.34958050158706"><ele>752.4</ele><time>2026-03-22T09:58:16Z</time></trkpt><trkpt lat="37.46871569461935" lon="14.3495501040207"><ele>753.8</ele><time>2026-03-22T09:58:17Z</time></trkpt><trkpt lat="37.46875976149818" lon="14.349480882665594"><ele>755.1999999999999</ele><time>2026-03-22T09:58:19Z</time></trkpt><trkpt lat="37.468816260874576" lon="14.349377341186822"><ele>756.5999999999999</ele><time>2026-03-22T09:58:21Z</time></trkpt><trkpt lat="37.468881772417" lon="14.349309409621988"><ele>758.0</ele><time>2026-03-22T09:58:22Z</time></trkpt><trkpt lat="37.46895057535705" lon="14.349222186272675"><ele>758.0</ele><time>2026-03-22T09:58:23Z</time></trkpt><trkpt lat="37.46900135032813" lon="14.349131204925717"><ele>758.0</ele><time>2026-03-22T09:58:24Z</time></trkpt><trkpt lat="37.46902581638019" lon="14.349022931529536"><ele>758.0</ele><time>2026-03-22T09:58:25Z</time></trkpt><trkpt lat="37.46898657729402" lon="14.348898534932577"><ele>758.0</ele><time>2026-03-22T09:58:26Z</time></trkpt><trkpt lat="37.46894110567989" lon="14.348766635054233"><ele>758.0</ele><time>2026-03-22T09:58:27Z</time></trkpt><trkpt lat="37.468967241614784" lon="14.348640410553466"><ele>759.4</ele><time>2026-03-22T09:58:28Z</time></trkpt><trkpt lat="37.468967215964135" lon="14.348526831922968"><ele>760.8</ele><time>2026-03-22T09:58:29Z</time></trkpt><trkpt lat="37.46898281032033" lon="14.348403075107237"><ele>762.2</ele><time>2026-03-22T09:58:30Z</time></trkpt><trkpt lat="37.46895942129873" lon="14.348283434981653"><ele>763.6</ele><time>2026-03-22T09:58:31Z</time></trkpt><trkpt lat="37.46893915763439" lon="14.348204781587322"><ele>765.0</ele><time>2026-03-22T09:58:32Z</time></trkpt><trkpt lat="37.46887306383624" lon="14.348110481910304"><ele>765.0</ele><time>2026-03-22T09:58:34Z</time></trkpt><trkpt lat="37.46879205240116" lon="14.348047272408248"><ele>765.0</ele><time>2026-03-22T09:58:35Z</time></trkpt><trkpt lat="37.46874949064833" lon="14.34796626848619"><ele>765.0</ele><time>2026-03-22T09:58:36Z</time></trkpt><trkpt lat="37.468690187252825" lon="14.347869754296164"><ele>765.0</ele><time>2026-03-22T09:58:37Z</time></trkpt><trkpt lat="37.468613992819606" lon="14.347754348524346"><ele>765.0</ele><time>2026-03-22T09:58:38Z</time></trkpt><trkpt lat="37.46856286056941" lon="14.347614019727436"><ele>766.8</ele><time>2026-03-22T09:58:39Z</time></trkpt><trkpt lat="37.46853166788345" lon="14.347516817079176"><ele>768.6</ele><time>2026-03-22T09:58:40Z</time></trkpt><trkpt lat="37.46850613910081" lon="14.347419017422279"><ele>770.4000000000001</ele><time>2026-03-22T09:58:41Z</time></trkpt><trkpt lat="37.46852078081722" lon="14.347282159668637"><ele>772.2</ele><time>2026-03-22T09:58:42Z</time></trkpt><trkpt lat="37.46843738036682" lon="14.347119896036826"><ele>774.0</ele><time>2026-03-22T09:58:43Z</time></trkpt><trkpt lat="37.468377258097185" lon="14.346962386425544"><ele>774.0</ele><time>2026-03-22T09:58:45Z</time></trkpt><trkpt lat="37.46842589031916" lon="14.346762384444794"><ele>774.0</ele><time>2026-03-22T09:58:47Z</time></trkpt><trkpt lat="37.468394442915844" lon="14.346627096707133"><ele>774.0</ele><time>2026-03-22T09:58:48Z</time></trkpt><trkpt lat="37.46843080722915" lon="14.346548129678993"><ele>774.0</ele><time>2026-03-22T09:58:50Z</time></trkpt><trkpt lat="37.468450374447784" lon="14.346396087864507"><ele>772.75</ele><time>2026-03-22T09:58:51Z</time></trkpt><trkpt lat="37.46847212556407" lon="14.346237319379252"><ele>771.5</ele><time>2026-03-22T09:58:52Z</time></trkpt><trkpt lat="37.46849699087981" lon="14.346067003910928"><ele>770.25</ele><time>2026-03-22T09:58:53Z</time></trkpt><trkpt lat="37.46852644420133" lon="14.345874793957757"><ele>769.0</ele><time>2026-03-22T09:58:54Z</time></trkpt><trkpt lat="37.46855012371044" lon="14.345726516480767"><ele>769.0</ele><time>2026-03-22T09:58:55Z</time></trkpt><trkpt lat="37.46856795607542" lon="14.345636968099567"><ele>769.0</ele><time>2026-03-22T09:58:56Z</time></trkpt><trkpt lat="37.46859707272274" lon="14.345491745466175"><ele>769.0</ele><time>2026-03-22T09:58:58Z</time></trkpt><trkpt lat="37.468600235940514" lon="14.345401512892664"><ele>769.0</ele><time>2026-03-22T09:59:00Z</time></trkpt><trkpt lat="37.46863404406665" lon="14.345276832768837"><ele>769.0</ele><time>2026-03-22T09:59:02Z</time></trkpt><trkpt lat="37.46824457123834" lon="14.34481375528063"><ele>769.4999999999999</ele><time>2026-03-22T09:59:05Z</time></trkpt><trkpt lat="37.46826991100902" lon="14.34465193864346"><ele>770.0</ele><time>2026-03-22T09:59:06Z</time></trkpt><trkpt lat="37.46827954648913" lon="14.344539984172933"><ele>770.5</ele><time>2026-03-22T09:59:07Z</time></trkpt><trkpt lat="37.468261825339624" lon="14.344450820456231"><ele>771.0</ele><time>2026-03-22T09:59:08Z</time></trkpt><trkpt lat="37.46824661344434" lon="14.344369602505619"><ele>771.4999999999999</ele><time>2026-03-22T09:59:09Z</time></trkpt><trkpt lat="37.46825250425266" lon="14.344281274688239"><ele>772.0</ele><time>2026-03-22T09:59:10Z</time></trkpt><trkpt lat="37.4682826498032" lon="14.344195130953011"><ele>772.0</ele><time>2026-03-22T09:59:11Z</time></trkpt><trkpt lat="37.46831203455644" lon="14.344093755650741"><ele>772.0</ele><time>2026-03-22T09:59:12Z</time></trkpt><trkpt lat="37.46832460145074" lon="14.343974364024712"><ele>772.0</ele><time>2026-03-22T09:59:13Z</time></trkpt><trkpt lat="37.46832749035192" lon="14.343862934441619"><ele>772.0</ele><time>2026-03-22T09:59:14Z</time></trkpt><trkpt lat="37.468323479591206" lon="14.34372884109874"><ele>772.0</ele><time>2026-03-22T09:59:16Z</time></trkpt><trkpt lat="37.46831053845314" lon="14.343631399687533"><ele>772.5</ele><time>2026-03-22T09:59:17Z</time></trkpt><trkpt lat="37.468301001858755" lon="14.343502589277282"><ele>773.0</ele><time>2026-03-22T09:59:18Z</time></trkpt><trkpt lat="37.46831206546221" lon="14.343355541907183"><ele>773.5</ele><time>2026-03-22T09:59:19Z</time></trkpt><trkpt lat="37.46833750795984" lon="14.343215355084803"><ele>774.0</ele><time>2026-03-22T09:59:20Z</time></trkpt><trkpt lat="37.468363415681935" lon="14.343027130017267"><ele>774.0</ele><time>2026-03-22T09:59:21Z</time></trkpt><trkpt lat="37.46839181539716" lon="14.342863410183547"><ele>774.0</ele><time>2026-03-22T09:59:22Z</time></trkpt><trkpt lat="37.46842524628256" lon="14.34271815690337"><ele>774.0</ele><time>2026-03-22T09:59:23Z</time></trkpt><trkpt lat="37.46850542724326" lon="14.342602672187152"><ele>774.0</ele><time>2026-03-22T09:59:24Z</time></trkpt><trkpt lat="37.46860079289517" lon="14.34246407028457"><ele>774.0</ele><time>2026-03-22T09:59:25Z</time></trkpt><trkpt lat="37.46863321339748" lon="14.342349391052728"><ele>774.0</ele><time>2026-03-22T09:59:26Z</time></trkpt><trkpt lat="37.468648251976134" lon="14.34224943532433"><ele>774.0</ele><time>2026-03-22T09:59:28Z</time></trkpt><trkpt lat="37.46864123083983" lon="14.34217049813939"><ele>774.0</ele><time>2026-03-22T09:59:29Z</time></trkpt><trkpt lat="37.46859584284221" lon="14.342015364367294"><ele>774.0</ele><time>2026-03-22T09:59:31Z</time></trkpt><trkpt lat="37.468577605942684" lon="14.341910145212873"><ele>773.3333333333334</ele><time>2026-03-22T09:59:32Z</time></trkpt><trkpt lat="37.46854533232234" lon="14.341839156198512"><ele>772.6666666666667</ele><time>2026-03-22T09:59:33Z</time></trkpt><trkpt lat="37.46850441054328" lon="14.341762869329616"><ele>772.0</ele><time>2026-03-22T09:59:34Z</time></trkpt><trkpt lat="37.4684669726443" lon="14.341696915554088"><ele>771.3333333333334</ele><time>2026-03-22T09:59:35Z</time></trkpt><trkpt lat="37.468415492555586" lon="14.341573167360448"><ele>770.6666666666667</ele><time>2026-03-22T09:59:37Z</time></trkpt><trkpt lat="37.46837276742074" lon="14.34146730977756"><ele>770.0</ele><time>2026-03-22T09:59:39Z</time></trkpt><trkpt lat="37.46833937197658" lon="14.341371262754286"><ele>769.3333333333334</ele><time>2026-03-22T09:59:41Z</time></trkpt><trkpt lat="37.4683116508721" lon="14.341285105486534"><ele>768.6666666666667</ele><time>2026-03-22T09:59:43Z</time></trkpt><trkpt lat="37.46828951088009" lon="14.341202368561149"><ele>768.0</ele><time>2026-03-22T09:59:46Z</time></trkpt><trkpt lat="37.46829794188008" lon="14.341086757440603"><ele>767.3333333333334</ele><time>2026-03-22T09:59:48Z</time></trkpt><trkpt lat="37.4683215669966" lon="14.340976803198116"><ele>766.6666666666667</ele><time>2026-03-22T09:59:50Z</time></trkpt><trkpt lat="37.468358979430405" lon="14.340872465708587"><ele>766.0</ele><time>2026-03-22T09:59:52Z</time></trkpt><trkpt lat="37.46839997717734" lon="14.340719407054015"><ele>766.0</ele><time>2026-03-22T09:59:54Z</time></trkpt><trkpt lat="37.468431762746114" lon="14.340612235578734"><ele>766.0</ele><time>2026-03-22T09:59:55Z</time></trkpt><trkpt lat="37.46845423063873" lon="14.340496427914328"><ele>766.0</ele><time>2026-03-22T09:59:56Z</time></trkpt><trkpt lat="37.46846771526368" lon="14.340381141315735"><ele>766.0</ele><time>2026-03-22T09:59:57Z</time></trkpt><trkpt lat="37.46849278749371" lon="14.340223361399259"><ele>766.0</ele><time>2026-03-22T09:59:58Z</time></trkpt><trkpt lat="37.46854517183356" lon="14.340046384910364"><ele>768.8</ele><time>2026-03-22T09:59:59Z</time></trkpt><trkpt lat="37.46860244909235" lon="14.339860612909494"><ele>771.5999999999999</ele><time>2026-03-22T10:00:00Z</time></trkpt><trkpt lat="37.468650596982755" lon="14.339724653944534"><ele>774.4</ele><time>2026-03-22T10:00:01Z</time></trkpt><trkpt lat="37.46867653312495" lon="14.339635944690004"><ele>777.2</ele><time>2026-03-22T10:00:02Z</time></trkpt><trkpt lat="37.4687048025589" lon="14.33956342210722"><ele>780.0</ele><time>2026-03-22T10:00:03Z</time></trkpt><trkpt lat="37.468790674464145" lon="14.33955170670173"><ele>778.5</ele><time>2026-03-22T10:00:06Z</time></trkpt><trkpt lat="37.468828455024386" lon="14.339699737452818"><ele>777.0</ele><time>2026-03-22T10:00:08Z</time></trkpt><trkpt lat="37.46893443933804" lon="14.33979318592983"><ele>775.5</ele><time>2026-03-22T10:00:10Z</time></trkpt><trkpt lat="37.46902915190623" lon="14.3397852899863"><ele>774.0</ele><time>2026-03-22T10:00:11Z</time></trkpt><trkpt lat="37.469152117756046" lon="14.33973907221125"><ele>774.0</ele><time>2026-03-22T10:00:12Z</time></trkpt><trkpt lat="37.469306912139416" lon="14.339718466580349"><ele>774.0</ele><time>2026-03-22T10:00:13Z</time></trkpt><trkpt lat="37.469449123481276" lon="14.339715593447858"><ele>774.0</ele><time>2026-03-22T10:00:14Z</time></trkpt><trkpt lat="37.46957523575455" lon="14.339693798573643"><ele>774.0</ele><time>2026-03-22T10:00:15Z</time></trkpt><trkpt lat="37.46971376169968" lon="14.339663054544422"><ele>775.4000000000001</ele><time>2026-03-22T10:00:16Z</time></trkpt><trkpt lat="37.46979160903268" lon="14.339590547295241"><ele>776.8</ele><time>2026-03-22T10:00:17Z</time></trkpt><trkpt lat="37.469863394432636" lon="14.33947982275548"><ele>778.2</ele><time>2026-03-22T10:00:18Z</time></trkpt><trkpt lat="37.469932128319414" lon="14.339383990902085"><ele>779.5999999999999</ele><time>2026-03-22T10:00:19Z</time></trkpt><trkpt lat="37.47000817971806" lon="14.339302761841738"><ele>781.0</ele><time>2026-03-22T10:00:21Z</time></trkpt><trkpt lat="37.4700747030338" lon="14.339216642776135"><ele>781.0</ele><time>2026-03-22T10:00:23Z</time></trkpt><trkpt lat="37.47007059569026" lon="14.339115324604142"><ele>781.0</ele><time>2026-03-22T10:00:25Z</time></trkpt><trkpt lat="37.47005397176077" lon="14.338959603172299"><ele>781.0</ele><time>2026-03-22T10:00:27Z</time></trkpt><trkpt lat="37.47003746857395" lon="14.338882972715956"><ele>781.0</ele><time>2026-03-22T10:00:28Z</time></trkpt><trkpt lat="37.470020537869" lon="14.338787146799877"><ele>781.0</ele><time>2026-03-22T10:00:31Z</time></trkpt><trkpt lat="37.469987300988194" lon="14.338661332087252"><ele>783.8</ele><time>2026-03-22T10:00:33Z</time></trkpt><trkpt lat="37.46995959603883" lon="14.338554085650603"><ele>786.5999999999999</ele><time>2026-03-22T10:00:34Z</time></trkpt><trkpt lat="37.46993076948626" lon="14.338444494759962"><ele>789.4</ele><time>2026-03-22T10:00:35Z</time></trkpt><trkpt lat="37.46986572996491" lon="14.338304506370752"><ele>792.2</ele><time>2026-03-22T10:00:37Z</time></trkpt><trkpt lat="37.46980992182915" lon="14.338226151612357"><ele>795.0</ele><time>2026-03-22T10:00:38Z</time></trkpt><trkpt lat="37.46976968781055" lon="14.33815856729362"><ele>795.0</ele><time>2026-03-22T10:00:39Z</time></trkpt><trkpt lat="37.46972494618035" lon="14.338071445323092"><ele>795.0</ele><time>2026-03-22T10:00:40Z</time></trkpt><trkpt lat="37.46966126435915" lon="14.338030724943506"><ele>795.0</ele><time>2026-03-22T10:00:41Z</time></trkpt><trkpt lat="37.46959802403087" lon="14.337943455407558"><ele>795.0</ele><time>2026-03-22T10:00:42Z</time></trkpt><trkpt lat="37.469525780377715" lon="14.337844006404394"><ele>795.0</ele><time>2026-03-22T10:00:43Z</time></trkpt><trkpt lat="37.46945351001034" lon="14.337749502135717"><ele>794.3333333333334</ele><time>2026-03-22T10:00:44Z</time></trkpt><trkpt lat="37.469379640152624" lon="14.337655804654617"><ele>793.6666666666667</ele><time>2026-03-22T10:00:45Z</time></trkpt><trkpt lat="37.46931710763665" lon="14.337586725879564"><ele>793.0</ele><time>2026-03-22T10:00:46Z</time></trkpt><trkpt lat="37.46927246949295" lon="14.337522798954016"><ele>792.3333333333334</ele><time>2026-03-22T10:00:47Z</time></trkpt><trkpt lat="37.469236856933236" lon="14.337405961441846"><ele>791.6666666666667</ele><time>2026-03-22T10:00:49Z</time></trkpt><trkpt lat="37.46925022133326" lon="14.337318217663181"><ele>791.0</ele><time>2026-03-22T10:00:50Z</time></trkpt><trkpt lat="37.4692931143402" lon="14.337232591274041"><ele>789.75</ele><time>2026-03-22T10:00:51Z</time></trkpt><trkpt lat="37.469349260581325" lon="14.337122305973589"><ele>788.5</ele><time>2026-03-22T10:00:52Z</time></trkpt><trkpt lat="37.46939355837518" lon="14.336981470725027"><ele>787.25</ele><time>2026-03-22T10:00:53Z</time></trkpt><trkpt lat="37.46945541813298" lon="14.336812586542603"><ele>786.0</ele><time>2026-03-22T10:00:54Z</time></trkpt><trkpt lat="37.469527397715844" lon="14.336644677356832"><ele>786.0</ele><time>2026-03-22T10:00:55Z</time></trkpt><trkpt lat="37.46959317376975" lon="14.336485752482186"><ele>786.0</ele><time>2026-03-22T10:00:56Z</time></trkpt><trkpt lat="37.46965915260502" lon="14.336320821198239"><ele>786.0</ele><time>2026-03-22T10:00:57Z</time></trkpt><trkpt lat="37.469717734088206" lon="14.336156700306647"><ele>786.0</ele><time>2026-03-22T10:00:58Z</time></trkpt><trkpt lat="37.46975995710577" lon="14.336026636488704"><ele>788.0</ele><time>2026-03-22T10:00:59Z</time></trkpt><trkpt lat="37.46979918652242" lon="14.335908751424851"><ele>790.0</ele><time>2026-03-22T10:01:00Z</time></trkpt><trkpt lat="37.46983019256061" lon="14.335793481162844"><ele>792.0</ele><time>2026-03-22T10:01:01Z</time></trkpt><trkpt lat="37.46987262635141" lon="14.335661094619175"><ele>794.0</ele><time>2026-03-22T10:01:02Z</time></trkpt><trkpt lat="37.469921958462045" lon="14.335542382407477"><ele>796.0</ele><time>2026-03-22T10:01:03Z</time></trkpt><trkpt lat="37.469959756802766" lon="14.335424929221594"><ele>796.0</ele><time>2026-03-22T10:01:04Z</time></trkpt><trkpt lat="37.47000292534845" lon="14.335305825288406"><ele>796.0</ele><time>2026-03-22T10:01:05Z</time></trkpt><trkpt lat="37.470041200621836" lon="14.335186125764043"><ele>796.0</ele><time>2026-03-22T10:01:06Z</time></trkpt><trkpt lat="37.47006990164755" lon="14.335078531200688"><ele>796.0</ele><time>2026-03-22T10:01:07Z</time></trkpt><trkpt lat="37.47008434314894" lon="14.334944326870316"><ele>796.0</ele><time>2026-03-22T10:01:08Z</time></trkpt><trkpt lat="37.470100863227465" lon="14.334784437966729"><ele>795.6666666666666</ele><time>2026-03-22T10:01:09Z</time></trkpt><trkpt lat="37.470128676434626" lon="14.3345825185263"><ele>795.3333333333333</ele><time>2026-03-22T10:01:10Z</time></trkpt><trkpt lat="37.47016987968533" lon="14.33435714445982"><ele>795.0</ele><time>2026-03-22T10:01:11Z</time></trkpt><trkpt lat="37.47021339813763" lon="14.334118604029165"><ele>793.3333333333333</ele><time>2026-03-22T10:01:12Z</time></trkpt><trkpt lat="37.47027095766104" lon="14.333855276719637"><ele>791.6666666666666</ele><time>2026-03-22T10:01:13Z</time></trkpt><trkpt lat="37.47033269607245" lon="14.333613981023744"><ele>790.0</ele><time>2026-03-22T10:01:14Z</time></trkpt><trkpt lat="37.47037535565093" lon="14.333416788817438"><ele>790.0</ele><time>2026-03-22T10:01:15Z</time></trkpt><trkpt lat="37.47040233408698" lon="14.333223436806025"><ele>790.0</ele><time>2026-03-22T10:01:16Z</time></trkpt><trkpt lat="37.47040950112851" lon="14.333028163512008"><ele>790.0</ele><time>2026-03-22T10:01:17Z</time></trkpt><trkpt lat="37.47039946266978" lon="14.33282935784561"><ele>791.0</ele><time>2026-03-22T10:01:18Z</time></trkpt><trkpt lat="37.470382476313546" lon="14.33262651172688"><ele>792.0</ele><time>2026-03-22T10:01:19Z</time></trkpt><trkpt lat="37.470365190140114" lon="14.332445100347933"><ele>793.0</ele><time>2026-03-22T10:01:20Z</time></trkpt><trkpt lat="37.47037102960653" lon="14.332307394945524"><ele>794.0</ele><time>2026-03-22T10:01:21Z</time></trkpt><trkpt lat="37.470374865491166" lon="14.332197454917077"><ele>795.1666666666667</ele><time>2026-03-22T10:01:22Z</time></trkpt><trkpt lat="37.47036931836986" lon="14.332100697953157"><ele>796.3333333333334</ele><time>2026-03-22T10:01:23Z</time></trkpt><trkpt lat="37.47035917266841" lon="14.331996596351338"><ele>797.5</ele><time>2026-03-22T10:01:24Z</time></trkpt><trkpt lat="37.47037213181178" lon="14.331888350808553"><ele>798.6666666666667</ele><time>2026-03-22T10:01:25Z</time></trkpt><trkpt lat="37.47040684666255" lon="14.331795973235135"><ele>799.8333333333334</ele><time>2026-03-22T10:01:26Z</time></trkpt><trkpt lat="37.470429533710266" lon="14.331698257503316"><ele>801.0</ele><time>2026-03-22T10:01:27Z</time></trkpt><trkpt lat="37.47042859092419" lon="14.331573469097467"><ele>801.0</ele><time>2026-03-22T10:01:28Z</time></trkpt><trkpt lat="37.47043866903921" lon="14.331433177465312"><ele>801.0</ele><time>2026-03-22T10:01:29Z</time></trkpt><trkpt lat="37.4704457500572" lon="14.331283956292454"><ele>801.0</ele><time>2026-03-22T10:01:30Z</time></trkpt><trkpt lat="37.470449793764246" lon="14.331157110405174"><ele>801.0</ele><time>2026-03-22T10:01:31Z</time></trkpt><trkpt lat="37.470466407416005" lon="14.33103085179377"><ele>801.0</ele><time>2026-03-22T10:01:32Z</time></trkpt><trkpt lat="37.470470316146844" lon="14.330870104039821"><ele>802.5</ele><time>2026-03-22T10:01:33Z</time></trkpt><trkpt lat="37.47046866876878" lon="14.330665135408138"><ele>804.0</ele><time>2026-03-22T10:01:34Z</time></trkpt><trkpt lat="37.47047523545418" lon="14.330513276571555"><ele>805.5</ele><time>2026-03-22T10:01:35Z</time></trkpt><trkpt lat="37.47048037721009" lon="14.330379098458243"><ele>807.0</ele><time>2026-03-22T10:01:36Z</time></trkpt><trkpt lat="37.47049167030026" lon="14.330238874974183"><ele>807.0</ele><time>2026-03-22T10:01:37Z</time></trkpt><trkpt lat="37.470519263036664" lon="14.330075694045837"><ele>807.0</ele><time>2026-03-22T10:01:38Z</time></trkpt><trkpt lat="37.47053613014905" lon="14.329929538774142"><ele>807.0</ele><time>2026-03-22T10:01:39Z</time></trkpt><trkpt lat="37.470557190964946" lon="14.329811186504484"><ele>807.0</ele><time>2026-03-22T10:01:40Z</time></trkpt><trkpt lat="37.47057427288121" lon="14.329730525920022"><ele>807.0</ele><time>2026-03-22T10:01:41Z</time></trkpt><trkpt lat="37.47058613794851" lon="14.329637216838691"><ele>807.0</ele><time>2026-03-22T10:01:42Z</time></trkpt><trkpt lat="37.470582758641996" lon="14.32953381643689"><ele>807.0</ele><time>2026-03-22T10:01:43Z</time></trkpt><trkpt lat="37.4705825750446" lon="14.329428541025413"><ele>807.0</ele><time>2026-03-22T10:01:44Z</time></trkpt><trkpt lat="37.470576377785655" lon="14.329312367063702"><ele>807.0</ele><time>2026-03-22T10:01:45Z</time></trkpt><trkpt lat="37.47056183117757" lon="14.329220777695745"><ele>807.0</ele><time>2026-03-22T10:01:46Z</time></trkpt><trkpt lat="37.470559745364234" lon="14.329127748660575"><ele>807.0</ele><time>2026-03-22T10:01:47Z</time></trkpt><trkpt lat="37.47055538608262" lon="14.329023615802583"><ele>807.0</ele><time>2026-03-22T10:01:48Z</time></trkpt><trkpt lat="37.47054142752788" lon="14.328927246928647"><ele>807.0</ele><time>2026-03-22T10:01:49Z</time></trkpt><trkpt lat="37.47052101452783" lon="14.328829064498391"><ele>807.0</ele><time>2026-03-22T10:01:50Z</time></trkpt><trkpt lat="37.47049443351095" lon="14.328751136560287"><ele>807.0</ele><time>2026-03-22T10:01:51Z</time></trkpt><trkpt lat="37.47044964579274" lon="14.328623664566328"><ele>807.0</ele><time>2026-03-22T10:01:52Z</time></trkpt><trkpt lat="37.47039772974871" lon="14.328470451802213"><ele>804.0</ele><time>2026-03-22T10:01:53Z</time></trkpt><trkpt lat="37.47033782650027" lon="14.328321369182126"><ele>801.0</ele><time>2026-03-22T10:01:54Z</time></trkpt><trkpt lat="37.470282650401664" lon="14.328206852628925"><ele>798.0</ele><time>2026-03-22T10:01:55Z</time></trkpt><trkpt lat="37.470214770017925" lon="14.328089118513018"><ele>795.0</ele><time>2026-03-22T10:01:56Z</time></trkpt><trkpt lat="37.47014096581297" lon="14.327978449801286"><ele>795.0</ele><time>2026-03-22T10:01:57Z</time></trkpt><trkpt lat="37.47007293984575" lon="14.327867745033442"><ele>795.0</ele><time>2026-03-22T10:01:58Z</time></trkpt><trkpt lat="37.470014179198564" lon="14.327745465021577"><ele>795.0</ele><time>2026-03-22T10:01:59Z</time></trkpt><trkpt lat="37.46996697400388" lon="14.327592262676283"><ele>795.0</ele><time>2026-03-22T10:02:00Z</time></trkpt><trkpt lat="37.46991626213602" lon="14.32743593387236"><ele>795.0</ele><time>2026-03-22T10:02:01Z</time></trkpt><trkpt lat="37.46984367461849" lon="14.327261602485532"><ele>795.0</ele><time>2026-03-22T10:02:02Z</time></trkpt><trkpt lat="37.469764431367004" lon="14.327116842066095"><ele>795.0</ele><time>2026-03-22T10:02:03Z</time></trkpt><trkpt lat="37.46970335406311" lon="14.326990040141137"><ele>795.0</ele><time>2026-03-22T10:02:04Z</time></trkpt><trkpt lat="37.469651042666584" lon="14.326857399471791"><ele>794.0</ele><time>2026-03-22T10:02:05Z</time></trkpt><trkpt lat="37.469615013452085" lon="14.326722529153194"><ele>793.0</ele><time>2026-03-22T10:02:06Z</time></trkpt><trkpt lat="37.46956126220095" lon="14.326613872970283"><ele>792.0</ele><time>2026-03-22T10:02:07Z</time></trkpt><trkpt lat="37.46950650922967" lon="14.326485516332843"><ele>791.0</ele><time>2026-03-22T10:02:08Z</time></trkpt><trkpt lat="37.469467255712196" lon="14.326343177808065"><ele>791.0</ele><time>2026-03-22T10:02:09Z</time></trkpt><trkpt lat="37.46943863156417" lon="14.326226083425828"><ele>791.0</ele><time>2026-03-22T10:02:10Z</time></trkpt><trkpt lat="37.46941758717217" lon="14.326115617720244"><ele>791.0</ele><time>2026-03-22T10:02:11Z</time></trkpt><trkpt lat="37.4693662161265" lon="14.326013496628802"><ele>791.0</ele><time>2026-03-22T10:02:13Z</time></trkpt><trkpt lat="37.46929156363977" lon="14.326034559672387"><ele>791.0</ele><time>2026-03-22T10:02:15Z</time></trkpt><trkpt lat="37.469169867466725" lon="14.326140190901333"><ele>791.0</ele><time>2026-03-22T10:02:17Z</time></trkpt><trkpt lat="37.46909812231565" lon="14.326240861459448"><ele>791.0</ele><time>2026-03-22T10:02:18Z</time></trkpt><trkpt lat="37.469007751628446" lon="14.326352866846673"><ele>791.0</ele><time>2026-03-22T10:02:19Z</time></trkpt><trkpt lat="37.46891233577518" lon="14.326420492975675"><ele>791.0</ele><time>2026-03-22T10:02:20Z</time></trkpt><trkpt lat="37.46884905802467" lon="14.32642839987503"><ele>791.0</ele><time>2026-03-22T10:02:21Z</time></trkpt><trkpt lat="37.4687474692298" lon="14.326308680005141"><ele>788.75</ele><time>2026-03-22T10:02:23Z</time></trkpt><trkpt lat="37.46869525148999" lon="14.32618367110349"><ele>786.5</ele><time>2026-03-22T10:02:24Z</time></trkpt><trkpt lat="37.46860323989801" lon="14.32602911129127"><ele>784.25</ele><time>2026-03-22T10:02:25Z</time></trkpt><trkpt lat="37.46850804944108" lon="14.325902195115972"><ele>782.0</ele><time>2026-03-22T10:02:26Z</time></trkpt><trkpt lat="37.468442820519456" lon="14.325812800322215"><ele>782.0000000000001</ele><time>2026-03-22T10:02:27Z</time></trkpt><trkpt lat="37.468406405964636" lon="14.325747606588491"><ele>782.0</ele><time>2026-03-22T10:02:28Z</time></trkpt><trkpt lat="37.46841029690147" lon="14.325662438340993"><ele>782.0</ele><time>2026-03-22T10:02:29Z</time></trkpt><trkpt lat="37.46842017312762" lon="14.32554897876992"><ele>782.0</ele><time>2026-03-22T10:02:30Z</time></trkpt><trkpt lat="37.46842383680308" lon="14.325454171060143"><ele>782.0000000000001</ele><time>2026-03-22T10:02:31Z</time></trkpt><trkpt lat="37.46839326507034" lon="14.325268731384865"><ele>782.0</ele><time>2026-03-22T10:02:33Z</time></trkpt><trkpt lat="37.46837466666609" lon="14.32516217475686"><ele>782.2</ele><time>2026-03-22T10:02:34Z</time></trkpt><trkpt lat="37.46835853890834" lon="14.325074544770406"><ele>782.4000000000001</ele><time>2026-03-22T10:02:35Z</time></trkpt><trkpt lat="37.46831615195266" lon="14.324965022144083"><ele>782.5999999999999</ele><time>2026-03-22T10:02:36Z</time></trkpt><trkpt lat="37.46825507226887" lon="14.324830468310862"><ele>782.8</ele><time>2026-03-22T10:02:37Z</time></trkpt><trkpt lat="37.4682164806113" lon="14.324715684921792"><ele>783.0</ele><time>2026-03-22T10:02:38Z</time></trkpt><trkpt lat="37.46819162889765" lon="14.324626419244602"><ele>783.0</ele><time>2026-03-22T10:02:39Z</time></trkpt><trkpt lat="37.46813204171911" lon="14.32454456156671"><ele>783.0</ele><time>2026-03-22T10:02:41Z</time></trkpt><trkpt lat="37.468041034754705" lon="14.324489083532264"><ele>783.0</ele><time>2026-03-22T10:02:42Z</time></trkpt><trkpt lat="37.46792858775974" lon="14.324426156413315"><ele>783.0</ele><time>2026-03-22T10:02:43Z</time></trkpt><trkpt lat="37.46782020692911" lon="14.324407145415373"><ele>783.0</ele><time>2026-03-22T10:02:44Z</time></trkpt><trkpt lat="37.46767111108745" lon="14.324427047855874"><ele>782.8</ele><time>2026-03-22T10:02:45Z</time></trkpt><trkpt lat="37.46751075336295" lon="14.324446410903235"><ele>782.5999999999999</ele><time>2026-03-22T10:02:46Z</time></trkpt><trkpt lat="37.46741192903375" lon="14.32445560203505"><ele>782.4000000000001</ele><time>2026-03-22T10:02:47Z</time></trkpt><trkpt lat="37.46732522559823" lon="14.324466876850533"><ele>782.2</ele><time>2026-03-22T10:02:48Z</time></trkpt><trkpt lat="37.467263110241674" lon="14.324452605440909"><ele>782.0</ele><time>2026-03-22T10:02:49Z</time></trkpt><trkpt lat="37.46717899832202" lon="14.3243740212384"><ele>782.0</ele><time>2026-03-22T10:02:51Z</time></trkpt><trkpt lat="37.46716869188644" lon="14.324293004647297"><ele>782.0</ele><time>2026-03-22T10:02:52Z</time></trkpt><trkpt lat="37.46718086349719" lon="14.324144982430374"><ele>782.0</ele><time>2026-03-22T10:02:54Z</time></trkpt><trkpt lat="37.46718423769377" lon="14.324017249617217"><ele>782.0</ele><time>2026-03-22T10:02:55Z</time></trkpt><trkpt lat="37.467190643258995" lon="14.323903252918917"><ele>782.0</ele><time>2026-03-22T10:02:56Z</time></trkpt><trkpt lat="37.46719800830918" lon="14.323789392409566"><ele>780.6666666666667</ele><time>2026-03-22T10:02:57Z</time></trkpt><trkpt lat="37.46720925175927" lon="14.323676209679778"><ele>779.3333333333334</ele><time>2026-03-22T10:02:58Z</time></trkpt><trkpt lat="37.46721003015752" lon="14.323574803495216"><ele>778.0</ele><time>2026-03-22T10:02:59Z</time></trkpt><trkpt lat="37.46721966320539" lon="14.323485372705004"><ele>776.6666666666667</ele><time>2026-03-22T10:03:00Z</time></trkpt><trkpt lat="37.46724893927352" lon="14.323355602282966"><ele>775.3333333333334</ele><time>2026-03-22T10:03:01Z</time></trkpt><trkpt lat="37.46725427872997" lon="14.323242312891539"><ele>774.0</ele><time>2026-03-22T10:03:02Z</time></trkpt><trkpt lat="37.467252293457555" lon="14.32314292961532"><ele>770.6666666666666</ele><time>2026-03-22T10:03:03Z</time></trkpt><trkpt lat="37.46726216337513" lon="14.32305704742429"><ele>767.3333333333334</ele><time>2026-03-22T10:03:04Z</time></trkpt><trkpt lat="37.467307412231904" lon="14.323001124419429"><ele>764.0</ele><time>2026-03-22T10:03:05Z</time></trkpt><trkpt lat="37.467409859093905" lon="14.322983504678156"><ele>760.6666666666667</ele><time>2026-03-22T10:03:07Z</time></trkpt><trkpt lat="37.46747632114034" lon="14.32298576782947"><ele>757.3333333333334</ele><time>2026-03-22T10:03:08Z</time></trkpt><trkpt lat="37.467555745350055" lon="14.32298719018346"><ele>754.0</ele><time>2026-03-22T10:03:09Z</time></trkpt><trkpt lat="37.46764586132719" lon="14.322995420634033"><ele>754.0</ele><time>2026-03-22T10:03:10Z</time></trkpt><trkpt lat="37.467753066916586" lon="14.323009343833077"><ele>754.0</ele><time>2026-03-22T10:03:11Z</time></trkpt><trkpt lat="37.46786154764284" lon="14.323034178994469"><ele>754.0</ele><time>2026-03-22T10:03:12Z</time></trkpt><trkpt lat="37.46795918446645" lon="14.323055038881739"><ele>754.0</ele><time>2026-03-22T10:03:13Z</time></trkpt><trkpt lat="37.46804784166507" lon="14.3230706908737"><ele>754.0</ele><time>2026-03-22T10:03:14Z</time></trkpt><trkpt lat="37.46814293664984" lon="14.323063958332497"><ele>753.6666666666667</ele><time>2026-03-22T10:03:15Z</time></trkpt><trkpt lat="37.46823627488562" lon="14.323053951289317"><ele>753.3333333333334</ele><time>2026-03-22T10:03:16Z</time></trkpt><trkpt lat="37.4683276691795" lon="14.32303968008189"><ele>753.0</ele><time>2026-03-22T10:03:17Z</time></trkpt><trkpt lat="37.468411163578445" lon="14.32303407932024"><ele>752.6666666666666</ele><time>2026-03-22T10:03:18Z</time></trkpt><trkpt lat="37.46847688905494" lon="14.323036530459662"><ele>752.3333333333333</ele><time>2026-03-22T10:03:19Z</time></trkpt><trkpt lat="37.46858468807287" lon="14.323052991934519"><ele>752.0</ele><time>2026-03-22T10:03:21Z</time></trkpt><trkpt lat="37.46870826813627" lon="14.323118615480348"><ele>753.6666666666666</ele><time>2026-03-22T10:03:23Z</time></trkpt><trkpt lat="37.468809716832546" lon="14.32322688228505"><ele>755.3333333333333</ele><time>2026-03-22T10:03:25Z</time></trkpt><trkpt lat="37.46885106749127" lon="14.32329471633389"><ele>757.0</ele><time>2026-03-22T10:03:26Z</time></trkpt><trkpt lat="37.46888499613117" lon="14.323431241534509"><ele>758.6666666666666</ele><time>2026-03-22T10:03:28Z</time></trkpt><trkpt lat="37.46893969171694" lon="14.323471130303782"><ele>760.3333333333334</ele><time>2026-03-22T10:03:29Z</time></trkpt><trkpt lat="37.46900599169873" lon="14.323499146038923"><ele>762.0</ele><time>2026-03-22T10:03:30Z</time></trkpt><trkpt lat="37.46907450047701" lon="14.323522294793884"><ele>762.0</ele><time>2026-03-22T10:03:31Z</time></trkpt><trkpt lat="37.46914293252677" lon="14.323540541706956"><ele>762.0</ele><time>2026-03-22T10:03:32Z</time></trkpt><trkpt lat="37.46920424682834" lon="14.323513016118074"><ele>762.0</ele><time>2026-03-22T10:03:33Z</time></trkpt><trkpt lat="37.469269139685245" lon="14.323361720458616"><ele>762.0</ele><time>2026-03-22T10:03:35Z</time></trkpt><trkpt lat="37.469314397825066" lon="14.323285032137681"><ele>762.0</ele><time>2026-03-22T10:03:36Z</time></trkpt><trkpt lat="37.46935725255281" lon="14.32321827075758"><ele>762.0</ele><time>2026-03-22T10:03:37Z</time></trkpt><trkpt lat="37.469387173635276" lon="14.323138134484495"><ele>759.8333333333334</ele><time>2026-03-22T10:03:38Z</time></trkpt><trkpt lat="37.46941948504619" lon="14.323028075376689"><ele>757.6666666666666</ele><time>2026-03-22T10:03:40Z</time></trkpt><trkpt lat="37.46941376530903" lon="14.322915286673691"><ele>755.5</ele><time>2026-03-22T10:03:42Z</time></trkpt><trkpt lat="37.46939035638978" lon="14.32282910312522"><ele>753.3333333333333</ele><time>2026-03-22T10:03:43Z</time></trkpt><trkpt lat="37.46937396018956" lon="14.32271423117902"><ele>751.1666666666666</ele><time>2026-03-22T10:03:44Z</time></trkpt><trkpt lat="37.46936296315222" lon="14.3225984611151"><ele>749.0</ele><time>2026-03-22T10:03:45Z</time></trkpt><trkpt lat="37.46935977788939" lon="14.322506634707626"><ele>749.0</ele><time>2026-03-22T10:03:46Z</time></trkpt><trkpt lat="37.4693657409987" lon="14.32242205522733"><ele>749.0</ele><time>2026-03-22T10:03:47Z</time></trkpt><trkpt lat="37.469340222963446" lon="14.322269623849104"><ele>749.0</ele><time>2026-03-22T10:03:49Z</time></trkpt><trkpt lat="37.469323251088376" lon="14.322111201627155"><ele>749.0</ele><time>2026-03-22T10:03:51Z</time></trkpt><trkpt lat="37.46930887201109" lon="14.322012337588523"><ele>749.0</ele><time>2026-03-22T10:03:52Z</time></trkpt><trkpt lat="37.469310918379065" lon="14.321926554541612"><ele>748.1428571428571</ele><time>2026-03-22T10:03:53Z</time></trkpt><trkpt lat="37.469324223224476" lon="14.32184626682154"><ele>747.2857142857142</ele><time>2026-03-22T10:03:54Z</time></trkpt><trkpt lat="37.46933642936762" lon="14.321766513228381"><ele>746.4285714285714</ele><time>2026-03-22T10:03:55Z</time></trkpt><trkpt lat="37.46933183535031" lon="14.321676512622247"><ele>745.5714285714286</ele><time>2026-03-22T10:03:56Z</time></trkpt><trkpt lat="37.469340733912766" lon="14.321588518058729"><ele>744.7142857142857</ele><time>2026-03-22T10:03:57Z</time></trkpt><trkpt lat="37.469362111744786" lon="14.321506670780835"><ele>743.8571428571429</ele><time>2026-03-22T10:03:59Z</time></trkpt><trkpt lat="37.4693789575973" lon="14.32141626954109"><ele>743.0</ele><time>2026-03-22T10:04:01Z</time></trkpt><trkpt lat="37.46939251316309" lon="14.321309453884359"><ele>743.0</ele><time>2026-03-22T10:04:03Z</time></trkpt><trkpt lat="37.46941325968507" lon="14.321192007740944"><ele>743.0</ele><time>2026-03-22T10:04:06Z</time></trkpt><trkpt lat="37.469447401742165" lon="14.321068091870266"><ele>743.0</ele><time>2026-03-22T10:04:12Z</time></trkpt><trkpt lat="37.46949311797796" lon="14.320990434307408"><ele>743.0</ele><time>2026-03-22T10:04:13Z</time></trkpt><trkpt lat="37.469536098634514" lon="14.3209261957685"><ele>743.0</ele><time>2026-03-22T10:04:14Z</time></trkpt><trkpt lat="37.46960097853012" lon="14.320812659223499"><ele>744.4</ele><time>2026-03-22T10:04:16Z</time></trkpt><trkpt lat="37.4697266113842" lon="14.320958441603619"><ele>745.8</ele><time>2026-03-22T10:04:17Z</time></trkpt><trkpt lat="37.46980045929974" lon="14.320914305618915"><ele>747.2</ele><time>2026-03-22T10:04:19Z</time></trkpt><trkpt lat="37.46986274256386" lon="14.320878105255067"><ele>748.6</ele><time>2026-03-22T10:04:21Z</time></trkpt><trkpt lat="37.46997155834377" lon="14.320823355127809"><ele>750.0</ele><time>2026-03-22T10:04:23Z</time></trkpt><trkpt lat="37.47005417279888" lon="14.320758577520136"><ele>754.5</ele><time>2026-03-22T10:04:25Z</time></trkpt><trkpt lat="37.469940664396155" lon="14.320212488966611"><ele>759.0</ele><time>2026-03-22T10:04:26Z</time></trkpt><trkpt lat="37.47002640889151" lon="14.320126309878082"><ele>759.0</ele><time>2026-03-22T10:04:28Z</time></trkpt><trkpt lat="37.470095574036556" lon="14.320015826873759"><ele>759.0</ele><time>2026-03-22T10:04:30Z</time></trkpt><trkpt lat="37.4701063689005" lon="14.319927396316173"><ele>759.0</ele><time>2026-03-22T10:04:32Z</time></trkpt><trkpt lat="37.47013894237316" lon="14.31985717298554"><ele>759.0</ele><time>2026-03-22T10:04:33Z</time></trkpt><trkpt lat="37.470209430588824" lon="14.319717117110876"><ele>759.0</ele><time>2026-03-22T10:04:35Z</time></trkpt><trkpt lat="37.470221734333876" lon="14.319632255988088"><ele>759.0</ele><time>2026-03-22T10:04:36Z</time></trkpt><trkpt lat="37.470260441188344" lon="14.319493485312565"><ele>758.5</ele><time>2026-03-22T10:04:38Z</time></trkpt><trkpt lat="37.47028159262591" lon="14.319413193976358"><ele>758.0</ele><time>2026-03-22T10:04:39Z</time></trkpt><trkpt lat="37.470304190848196" lon="14.319324201448506"><ele>757.5</ele><time>2026-03-22T10:04:40Z</time></trkpt><trkpt lat="37.47032203909946" lon="14.31924743467103"><ele>757.0</ele><time>2026-03-22T10:04:41Z</time></trkpt><trkpt lat="37.47033326276791" lon="14.319161538255985"><ele>756.5</ele><time>2026-03-22T10:04:42Z</time></trkpt><trkpt lat="37.470401620244004" lon="14.319009422587705"><ele>756.0</ele><time>2026-03-22T10:04:44Z</time></trkpt><trkpt lat="37.47044273126981" lon="14.318893437678405"><ele>756.0</ele><time>2026-03-22T10:04:45Z</time></trkpt><trkpt lat="37.47047872575583" lon="14.31876639668595"><ele>756.0</ele><time>2026-03-22T10:04:46Z</time></trkpt><trkpt lat="37.470500440823045" lon="14.318570831361466"><ele>756.0</ele><time>2026-03-22T10:04:47Z</time></trkpt><trkpt lat="37.470514176251356" lon="14.318413294128607"><ele>756.0</ele><time>2026-03-22T10:04:48Z</time></trkpt><trkpt lat="37.47054026004172" lon="14.318249392454785"><ele>756.0</ele><time>2026-03-22T10:04:49Z</time></trkpt><trkpt lat="37.47057520181954" lon="14.318105221420607"><ele>756.0</ele><time>2026-03-22T10:04:50Z</time></trkpt><trkpt lat="37.47060001123402" lon="14.317978292177168"><ele>756.0</ele><time>2026-03-22T10:04:51Z</time></trkpt><trkpt lat="37.4706249722427" lon="14.317841124165955"><ele>756.0</ele><time>2026-03-22T10:04:52Z</time></trkpt><trkpt lat="37.470647195730656" lon="14.317700719339435"><ele>756.0</ele><time>2026-03-22T10:04:53Z</time></trkpt><trkpt lat="37.47068030685915" lon="14.317567238237919"><ele>758.0</ele><time>2026-03-22T10:04:54Z</time></trkpt><trkpt lat="37.470705082490376" lon="14.31743624757388"><ele>760.0</ele><time>2026-03-22T10:04:55Z</time></trkpt><trkpt lat="37.47070788760199" lon="14.317309450237794"><ele>762.0</ele><time>2026-03-22T10:04:56Z</time></trkpt><trkpt lat="37.47069037060637" lon="14.317178247295184"><ele>764.0</ele><time>2026-03-22T10:04:57Z</time></trkpt><trkpt lat="37.47063672526113" lon="14.317058686851585"><ele>766.0</ele><time>2026-03-22T10:04:58Z</time></trkpt><trkpt lat="37.470582030417255" lon="14.316924300396073"><ele>766.75</ele><time>2026-03-22T10:04:59Z</time></trkpt><trkpt lat="37.470532772734536" lon="14.316755968563546"><ele>767.5</ele><time>2026-03-22T10:05:00Z</time></trkpt><trkpt lat="37.47051792279283" lon="14.31660523811749"><ele>768.25</ele><time>2026-03-22T10:05:01Z</time></trkpt><trkpt lat="37.47054582297838" lon="14.316466949818112"><ele>769.0</ele><time>2026-03-22T10:05:02Z</time></trkpt><trkpt lat="37.47059878756715" lon="14.31632118993715"><ele>771.5</ele><time>2026-03-22T10:05:03Z</time></trkpt><trkpt lat="37.470680553751755" lon="14.316155295384783"><ele>774.0</ele><time>2026-03-22T10:05:04Z</time></trkpt><trkpt lat="37.470753339880545" lon="14.31602847032702"><ele>776.5</ele><time>2026-03-22T10:05:05Z</time></trkpt><trkpt lat="37.47080558225152" lon="14.315922542325874"><ele>779.0</ele><time>2026-03-22T10:05:06Z</time></trkpt><trkpt lat="37.470858046299675" lon="14.315823007385646"><ele>779.0</ele><time>2026-03-22T10:05:07Z</time></trkpt><trkpt lat="37.470913002954624" lon="14.315723397741245"><ele>779.0</ele><time>2026-03-22T10:05:08Z</time></trkpt><trkpt lat="37.47096726244502" lon="14.315601854351696"><ele>779.0</ele><time>2026-03-22T10:05:09Z</time></trkpt><trkpt lat="37.4710193167434" lon="14.315467856666778"><ele>779.0</ele><time>2026-03-22T10:05:10Z</time></trkpt><trkpt lat="37.471081772668185" lon="14.315334213589972"><ele>779.0</ele><time>2026-03-22T10:05:11Z</time></trkpt><trkpt lat="37.47114883741746" lon="14.315201996008092"><ele>778.4000000000001</ele><time>2026-03-22T10:05:12Z</time></trkpt><trkpt lat="37.47119844906473" lon="14.315091869429168"><ele>777.8</ele><time>2026-03-22T10:05:13Z</time></trkpt><trkpt lat="37.47124936119866" lon="14.314984908158577"><ele>777.2</ele><time>2026-03-22T10:05:14Z</time></trkpt><trkpt lat="37.47130019809604" lon="14.314876021435134"><ele>776.5999999999999</ele><time>2026-03-22T10:05:15Z</time></trkpt><trkpt lat="37.47134575911787" lon="14.31477781735938"><ele>776.0</ele><time>2026-03-22T10:05:16Z</time></trkpt><trkpt lat="37.47139573180976" lon="14.314679949463443"><ele>776.0000000000001</ele><time>2026-03-22T10:05:17Z</time></trkpt><trkpt lat="37.471446759930565" lon="14.314589100431348"><ele>776.0</ele><time>2026-03-22T10:05:18Z</time></trkpt><trkpt lat="37.47149671064023" lon="14.314500142855291"><ele>776.0</ele><time>2026-03-22T10:05:19Z</time></trkpt><trkpt lat="37.471539459859535" lon="14.314408084846393"><ele>776.0</ele><time>2026-03-22T10:05:20Z</time></trkpt><trkpt lat="37.471564620709344" lon="14.31431841528606"><ele>776.0000000000001</ele><time>2026-03-22T10:05:21Z</time></trkpt><trkpt lat="37.471595594166324" lon="14.314235763023378"><ele>776.0</ele><time>2026-03-22T10:05:22Z</time></trkpt><trkpt lat="37.471641842801375" lon="14.314166498256228"><ele>776.0000000000001</ele><time>2026-03-22T10:05:23Z</time></trkpt><trkpt lat="37.47169274925659" lon="14.31408445548193"><ele>776.0</ele><time>2026-03-22T10:05:24Z</time></trkpt><trkpt lat="37.47172022109964" lon="14.313999418981147"><ele>776.0</ele><time>2026-03-22T10:05:25Z</time></trkpt><trkpt lat="37.47174336255716" lon="14.313908771744167"><ele>776.0</ele><time>2026-03-22T10:05:26Z</time></trkpt><trkpt lat="37.471753891123946" lon="14.313808720190394"><ele>776.0000000000001</ele><time>2026-03-22T10:05:27Z</time></trkpt><trkpt lat="37.47176320809644" lon="14.313720597822215"><ele>776.0</ele><time>2026-03-22T10:05:28Z</time></trkpt><trkpt lat="37.47177433231226" lon="14.313619439130136"><ele>776.0</ele><time>2026-03-22T10:05:29Z</time></trkpt><trkpt lat="37.47180008080733" lon="14.313522026958278"><ele>776.0</ele><time>2026-03-22T10:05:30Z</time></trkpt><trkpt lat="37.47186893733073" lon="14.313438206227287"><ele>776.0</ele><time>2026-03-22T10:05:31Z</time></trkpt><trkpt lat="37.47195539135523" lon="14.313341061846568"><ele>776.0</ele><time>2026-03-22T10:05:32Z</time></trkpt><trkpt lat="37.47201265501409" lon="14.313251606579119"><ele>776.0</ele><time>2026-03-22T10:05:33Z</time></trkpt><trkpt lat="37.472049325210335" lon="14.313172538981272"><ele>776.0000000000001</ele><time>2026-03-22T10:05:34Z</time></trkpt><trkpt lat="37.4720778828541" lon="14.313092458158609"><ele>776.0</ele><time>2026-03-22T10:05:35Z</time></trkpt><trkpt lat="37.47209008252561" lon="14.312989416698848"><ele>776.0</ele><time>2026-03-22T10:05:37Z</time></trkpt><trkpt lat="37.47213090991042" lon="14.312914438798257"><ele>776.0</ele><time>2026-03-22T10:05:39Z</time></trkpt><trkpt lat="37.47216644478689" lon="14.312803910843868"><ele>776.0000000000001</ele><time>2026-03-22T10:05:41Z</time></trkpt><trkpt lat="37.4721958748556" lon="14.312688562379181"><ele>776.0</ele><time>2026-03-22T10:05:43Z</time></trkpt><trkpt lat="37.4722257782852" lon="14.312604574754163"><ele>772.6666666666667</ele><time>2026-03-22T10:05:45Z</time></trkpt><trkpt lat="37.47225846573428" lon="14.312509373332288"><ele>769.3333333333334</ele><time>2026-03-22T10:05:47Z</time></trkpt><trkpt lat="37.472252602154846" lon="14.312390782001305"><ele>766.0</ele><time>2026-03-22T10:05:49Z</time></trkpt><trkpt lat="37.472236357010296" lon="14.312279013748839"><ele>762.6666666666667</ele><time>2026-03-22T10:05:51Z</time></trkpt><trkpt lat="37.47231876531742" lon="14.312237224982038"><ele>759.3333333333334</ele><time>2026-03-22T10:05:54Z</time></trkpt><trkpt lat="37.47238303548754" lon="14.31227968398045"><ele>756.0</ele><time>2026-03-22T10:05:55Z</time></trkpt><trkpt lat="37.472454215271824" lon="14.312312826617159"><ele>756.0</ele><time>2026-03-22T10:05:56Z</time></trkpt><trkpt lat="37.47253297029798" lon="14.312302010736984"><ele>756.0</ele><time>2026-03-22T10:05:57Z</time></trkpt><trkpt lat="37.472616636110914" lon="14.312227615323724"><ele>756.0</ele><time>2026-03-22T10:05:58Z</time></trkpt><trkpt lat="37.472661963652165" lon="14.312141762436484"><ele>756.0</ele><time>2026-03-22T10:05:59Z</time></trkpt><trkpt lat="37.472598169016955" lon="14.311989889229892"><ele>756.0</ele><time>2026-03-22T10:06:01Z</time></trkpt><trkpt lat="37.47252028160133" lon="14.311899120055052"><ele>755.4</ele><time>2026-03-22T10:06:02Z</time></trkpt><trkpt lat="37.47241576106607" lon="14.311773073749452"><ele>754.8</ele><time>2026-03-22T10:06:03Z</time></trkpt><trkpt lat="37.47236517583639" lon="14.311694234176551"><ele>754.1999999999999</ele><time>2026-03-22T10:06:04Z</time></trkpt><trkpt lat="37.47235532799128" lon="14.311596727098102"><ele>753.5999999999999</ele><time>2026-03-22T10:06:05Z</time></trkpt><trkpt lat="37.47236558785381" lon="14.311482185594334"><ele>753.0</ele><time>2026-03-22T10:06:06Z</time></trkpt><trkpt lat="37.472382212336505" lon="14.31139129771611"><ele>753.0</ele><time>2026-03-22T10:06:07Z</time></trkpt><trkpt lat="37.47243333957761" lon="14.311332814747988"><ele>753.0</ele><time>2026-03-22T10:06:09Z</time></trkpt><trkpt lat="37.47250104047468" lon="14.311327117614107"><ele>753.0</ele><time>2026-03-22T10:06:10Z</time></trkpt><trkpt lat="37.4726004770773" lon="14.311367006755141"><ele>753.0</ele><time>2026-03-22T10:06:11Z</time></trkpt><trkpt lat="37.47270305802941" lon="14.311430180037268"><ele>753.0</ele><time>2026-03-22T10:06:12Z</time></trkpt><trkpt lat="37.47278783602894" lon="14.311462294442435"><ele>753.0</ele><time>2026-03-22T10:06:13Z</time></trkpt><trkpt lat="37.47287389623017" lon="14.311471993146046"><ele>753.8</ele><time>2026-03-22T10:06:14Z</time></trkpt><trkpt lat="37.47296910458718" lon="14.311454621913791"><ele>754.5999999999999</ele><time>2026-03-22T10:06:15Z</time></trkpt><trkpt lat="37.47306042960613" lon="14.311341191644814"><ele>755.4000000000001</ele><time>2026-03-22T10:06:17Z</time></trkpt><trkpt lat="37.473081895098396" lon="14.311242861283056"><ele>756.2</ele><time>2026-03-22T10:06:18Z</time></trkpt><trkpt lat="37.47311427632587" lon="14.311139232726273"><ele>757.0</ele><time>2026-03-22T10:06:19Z</time></trkpt><trkpt lat="37.473163148257484" lon="14.310985097342503"><ele>759.6666666666667</ele><time>2026-03-22T10:06:21Z</time></trkpt><trkpt lat="37.47319242696459" lon="14.310914857693529"><ele>762.3333333333334</ele><time>2026-03-22T10:06:22Z</time></trkpt><trkpt lat="37.47325022914509" lon="14.310825258140637"><ele>765.0</ele><time>2026-03-22T10:06:24Z</time></trkpt><trkpt lat="37.47332098011655" lon="14.310751180906262"><ele>767.6666666666667</ele><time>2026-03-22T10:06:26Z</time></trkpt><trkpt lat="37.47341431906638" lon="14.310734325547587"><ele>770.3333333333334</ele><time>2026-03-22T10:06:31Z</time></trkpt><trkpt lat="37.47344763979021" lon="14.310660305118757"><ele>773.0</ele><time>2026-03-22T10:06:32Z</time></trkpt><trkpt lat="37.47345906184256" lon="14.310552235374058"><ele>773.8333333333334</ele><time>2026-03-22T10:06:34Z</time></trkpt><trkpt lat="37.47344445340986" lon="14.310456493621441"><ele>774.6666666666667</ele><time>2026-03-22T10:06:35Z</time></trkpt><trkpt lat="37.473454323722144" lon="14.310350871179013"><ele>775.5</ele><time>2026-03-22T10:06:36Z</time></trkpt><trkpt lat="37.47347550517163" lon="14.310245394100933"><ele>776.3333333333333</ele><time>2026-03-22T10:06:37Z</time></trkpt><trkpt lat="37.47351008094109" lon="14.310120651212232"><ele>777.1666666666666</ele><time>2026-03-22T10:06:38Z</time></trkpt><trkpt lat="37.47353530144539" lon="14.310010382169304"><ele>778.0</ele><time>2026-03-22T10:06:39Z</time></trkpt><trkpt lat="37.47355497765715" lon="14.309931234093611"><ele>778.0</ele><time>2026-03-22T10:06:40Z</time></trkpt><trkpt lat="37.47359177973179" lon="14.309826253941587"><ele>778.0</ele><time>2026-03-22T10:06:41Z</time></trkpt><trkpt lat="37.47365205068097" lon="14.309720640136547"><ele>778.0</ele><time>2026-03-22T10:06:42Z</time></trkpt><trkpt lat="37.4737260927334" lon="14.309615756871649"><ele>778.0</ele><time>2026-03-22T10:06:43Z</time></trkpt><trkpt lat="37.47379441723091" lon="14.309487512124786"><ele>778.0</ele><time>2026-03-22T10:06:44Z</time></trkpt><trkpt lat="37.47385728281574" lon="14.309387676984754"><ele>778.8</ele><time>2026-03-22T10:06:45Z</time></trkpt><trkpt lat="37.47391361211075" lon="14.309271746560649"><ele>779.5999999999999</ele><time>2026-03-22T10:06:46Z</time></trkpt><trkpt lat="37.47395700320437" lon="14.309166278223833"><ele>780.4000000000001</ele><time>2026-03-22T10:06:47Z</time></trkpt><trkpt lat="37.473982469421856" lon="14.309064439647354"><ele>781.2</ele><time>2026-03-22T10:06:48Z</time></trkpt><trkpt lat="37.47404500068295" lon="14.308974838908355"><ele>782.0</ele><time>2026-03-22T10:06:49Z</time></trkpt><trkpt lat="37.47415352493658" lon="14.308850395329452"><ele>782.75</ele><time>2026-03-22T10:06:50Z</time></trkpt><trkpt lat="37.474249942002174" lon="14.308754161668647"><ele>783.5</ele><time>2026-03-22T10:06:51Z</time></trkpt><trkpt lat="37.474360844875385" lon="14.308661065933327"><ele>784.25</ele><time>2026-03-22T10:06:52Z</time></trkpt><trkpt lat="37.47444923406561" lon="14.308542245988981"><ele>785.0</ele><time>2026-03-22T10:06:53Z</time></trkpt><trkpt lat="37.474547782814625" lon="14.308432150458973"><ele>786.2</ele><time>2026-03-22T10:06:54Z</time></trkpt><trkpt lat="37.474636830483476" lon="14.308311293401722"><ele>787.4</ele><time>2026-03-22T10:06:55Z</time></trkpt><trkpt lat="37.474692746629955" lon="14.308209168616505"><ele>788.5999999999999</ele><time>2026-03-22T10:06:56Z</time></trkpt><trkpt lat="37.47475934651502" lon="14.308159689955808"><ele>789.8</ele><time>2026-03-22T10:06:57Z</time></trkpt><trkpt lat="37.47485836939448" lon="14.308115474087593"><ele>791.0</ele><time>2026-03-22T10:06:58Z</time></trkpt><trkpt lat="37.47495665958019" lon="14.308018033884453"><ele>792.0</ele><time>2026-03-22T10:06:59Z</time></trkpt><trkpt lat="37.47503911668922" lon="14.307914875144313"><ele>793.0</ele><time>2026-03-22T10:07:00Z</time></trkpt><trkpt lat="37.47510962458133" lon="14.307822254837633"><ele>794.0</ele><time>2026-03-22T10:07:01Z</time></trkpt><trkpt lat="37.47517650243072" lon="14.307730030014566"><ele>795.0</ele><time>2026-03-22T10:07:02Z</time></trkpt><trkpt lat="37.47525816715041" lon="14.307607917170516"><ele>796.0</ele><time>2026-03-22T10:07:03Z</time></trkpt><trkpt lat="37.47534741565985" lon="14.307474805750479"><ele>796.0</ele><time>2026-03-22T10:07:04Z</time></trkpt><trkpt lat="37.475435729754174" lon="14.30734112756297"><ele>796.0</ele><time>2026-03-22T10:07:05Z</time></trkpt><trkpt lat="37.4755161279064" lon="14.307206757584781"><ele>796.0</ele><time>2026-03-22T10:07:06Z</time></trkpt><trkpt lat="37.475572935675004" lon="14.307093669301498"><ele>796.0</ele><time>2026-03-22T10:07:07Z</time></trkpt><trkpt lat="37.475641942422605" lon="14.306962270735783"><ele>798.0</ele><time>2026-03-22T10:07:08Z</time></trkpt><trkpt lat="37.47571758400265" lon="14.306847558211718"><ele>800.0</ele><time>2026-03-22T10:07:09Z</time></trkpt><trkpt lat="37.47578750693986" lon="14.306731422169511"><ele>802.0</ele><time>2026-03-22T10:07:10Z</time></trkpt><trkpt lat="37.475846593572136" lon="14.306615520255995"><ele>804.0</ele><time>2026-03-22T10:07:11Z</time></trkpt><trkpt lat="37.47590828303782" lon="14.30649065843854"><ele>804.0</ele><time>2026-03-22T10:07:12Z</time></trkpt><trkpt lat="37.47598749518657" lon="14.306396287928745"><ele>804.0</ele><time>2026-03-22T10:07:13Z</time></trkpt><trkpt lat="37.47607649292267" lon="14.30628330582328"><ele>804.0</ele><time>2026-03-22T10:07:14Z</time></trkpt><trkpt lat="37.47613607854287" lon="14.30616393375784"><ele>804.0</ele><time>2026-03-22T10:07:15Z</time></trkpt><trkpt lat="37.476191930644895" lon="14.306048845582945"><ele>804.0</ele><time>2026-03-22T10:07:16Z</time></trkpt><trkpt lat="37.476250632564145" lon="14.305920239625838"><ele>804.0</ele><time>2026-03-22T10:07:17Z</time></trkpt><trkpt lat="37.476308846123395" lon="14.305797924669097"><ele>804.0</ele><time>2026-03-22T10:07:18Z</time></trkpt><trkpt lat="37.47636239843746" lon="14.305699315429791"><ele>804.0</ele><time>2026-03-22T10:07:19Z</time></trkpt><trkpt lat="37.47643124609324" lon="14.30559100959318"><ele>804.0</ele><time>2026-03-22T10:07:20Z</time></trkpt><trkpt lat="37.47650631360921" lon="14.305455157008971"><ele>805.25</ele><time>2026-03-22T10:07:21Z</time></trkpt><trkpt lat="37.47657384658769" lon="14.305310827000518"><ele>806.5</ele><time>2026-03-22T10:07:22Z</time></trkpt><trkpt lat="37.476641751258605" lon="14.305174287606292"><ele>807.75</ele><time>2026-03-22T10:07:23Z</time></trkpt><trkpt lat="37.47670495005745" lon="14.305065401075094"><ele>809.0</ele><time>2026-03-22T10:07:24Z</time></trkpt><trkpt lat="37.4767609004071" lon="14.304984452762591"><ele>809.0000000000001</ele><time>2026-03-22T10:07:25Z</time></trkpt><trkpt lat="37.47684084155052" lon="14.304852361340284"><ele>809.0</ele><time>2026-03-22T10:07:27Z</time></trkpt><trkpt lat="37.47687923638262" lon="14.304767972052314"><ele>809.0</ele><time>2026-03-22T10:07:28Z</time></trkpt><trkpt lat="37.47691530241117" lon="14.304675876266668"><ele>809.0</ele><time>2026-03-22T10:07:29Z</time></trkpt><trkpt lat="37.47694281242467" lon="14.304583382326646"><ele>809.0000000000001</ele><time>2026-03-22T10:07:30Z</time></trkpt><trkpt lat="37.4769785428479" lon="14.304510986548795"><ele>809.0</ele><time>2026-03-22T10:07:31Z</time></trkpt><trkpt lat="37.47706111200216" lon="14.304384037094964"><ele>808.8333333333334</ele><time>2026-03-22T10:07:33Z</time></trkpt><trkpt lat="37.47710360057868" lon="14.304308607633192"><ele>808.6666666666667</ele><time>2026-03-22T10:07:34Z</time></trkpt><trkpt lat="37.477139474916335" lon="14.3042268483487"><ele>808.5</ele><time>2026-03-22T10:07:35Z</time></trkpt><trkpt lat="37.477192279436416" lon="14.304134423596068"><ele>808.3333333333333</ele><time>2026-03-22T10:07:36Z</time></trkpt><trkpt lat="37.47726187032257" lon="14.304042017605552"><ele>808.1666666666666</ele><time>2026-03-22T10:07:37Z</time></trkpt><trkpt lat="37.477321096034494" lon="14.303973929985343"><ele>808.0</ele><time>2026-03-22T10:07:38Z</time></trkpt><trkpt lat="37.47737499221497" lon="14.303910985480398"><ele>807.9999999999999</ele><time>2026-03-22T10:07:39Z</time></trkpt><trkpt lat="37.477420561131446" lon="14.303817116632667"><ele>808.0</ele><time>2026-03-22T10:07:41Z</time></trkpt><trkpt lat="37.47747399829946" lon="14.303727977076726"><ele>808.0</ele><time>2026-03-22T10:07:43Z</time></trkpt><trkpt lat="37.47750430740908" lon="14.303655150184406"><ele>808.0</ele><time>2026-03-22T10:07:44Z</time></trkpt><trkpt lat="37.47753868501952" lon="14.30358801745125"><ele>807.9999999999999</ele><time>2026-03-22T10:07:45Z</time></trkpt><trkpt lat="37.47759033075061" lon="14.303488208763456"><ele>808.0</ele><time>2026-03-22T10:07:47Z</time></trkpt><trkpt lat="37.47768631968089" lon="14.303444576622008"><ele>807.9999999999999</ele><time>2026-03-22T10:07:49Z</time></trkpt><trkpt lat="37.47776461582467" lon="14.303433912412583"><ele>808.0</ele><time>2026-03-22T10:07:50Z</time></trkpt><trkpt lat="37.47783143384162" lon="14.303399432881237"><ele>808.0</ele><time>2026-03-22T10:07:51Z</time></trkpt><trkpt lat="37.477892948282424" lon="14.303347889661914"><ele>808.0</ele><time>2026-03-22T10:07:52Z</time></trkpt><trkpt lat="37.47793407141045" lon="14.303285571625574"><ele>807.9999999999999</ele><time>2026-03-22T10:07:53Z</time></trkpt><trkpt lat="37.47797373248298" lon="14.303220820140787"><ele>808.0</ele><time>2026-03-22T10:07:54Z</time></trkpt><trkpt lat="37.47797751156574" lon="14.303063598605359"><ele>805.9999999999999</ele><time>2026-03-22T10:07:56Z</time></trkpt><trkpt lat="37.47799123005119" lon="14.30297887045424"><ele>804.0</ele><time>2026-03-22T10:07:57Z</time></trkpt><trkpt lat="37.47803375284817" lon="14.30286943016881"><ele>802.0</ele><time>2026-03-22T10:07:58Z</time></trkpt><trkpt lat="37.47809090563362" lon="14.302777677698112"><ele>800.0</ele><time>2026-03-22T10:07:59Z</time></trkpt><trkpt lat="37.478133853747835" lon="14.3027045929977"><ele>797.9999999999999</ele><time>2026-03-22T10:08:00Z</time></trkpt><trkpt lat="37.47816801437738" lon="14.302636204116457"><ele>796.0</ele><time>2026-03-22T10:08:01Z</time></trkpt><trkpt lat="37.47822917170762" lon="14.302593680162571"><ele>796.0</ele><time>2026-03-22T10:08:02Z</time></trkpt><trkpt lat="37.4782844246421" lon="14.302532434097849"><ele>796.0</ele><time>2026-03-22T10:08:03Z</time></trkpt><trkpt lat="37.47831409322513" lon="14.302447107512343"><ele>796.0</ele><time>2026-03-22T10:08:04Z</time></trkpt><trkpt lat="37.47835002087158" lon="14.302346177739862"><ele>796.0</ele><time>2026-03-22T10:08:06Z</time></trkpt><trkpt lat="37.478465036788556" lon="14.302269304966007"><ele>796.0</ele><time>2026-03-22T10:08:08Z</time></trkpt><trkpt lat="37.4785535445558" lon="14.302176602329796"><ele>794.4</ele><time>2026-03-22T10:08:09Z</time></trkpt><trkpt lat="37.47861223464069" lon="14.302088554459308"><ele>792.8</ele><time>2026-03-22T10:08:10Z</time></trkpt><trkpt lat="37.478690447440364" lon="14.302036379531318"><ele>791.1999999999999</ele><time>2026-03-22T10:08:11Z</time></trkpt><trkpt lat="37.47874389508792" lon="14.301933988895371"><ele>789.5999999999999</ele><time>2026-03-22T10:08:13Z</time></trkpt><trkpt lat="37.4788115653645" lon="14.301786731969942"><ele>788.0</ele><time>2026-03-22T10:08:15Z</time></trkpt><trkpt lat="37.478857114813465" lon="14.301680077298286"><ele>788.0</ele><time>2026-03-22T10:08:16Z</time></trkpt><trkpt lat="37.47889700482083" lon="14.301572765859339"><ele>788.0</ele><time>2026-03-22T10:08:17Z</time></trkpt><trkpt lat="37.47892724698387" lon="14.301497985614558"><ele>788.0</ele><time>2026-03-22T10:08:18Z</time></trkpt><trkpt lat="37.47897408214197" lon="14.301354848581198"><ele>788.0</ele><time>2026-03-22T10:08:20Z</time></trkpt><trkpt lat="37.47901718727962" lon="14.301232474002681"><ele>788.0</ele><time>2026-03-22T10:08:21Z</time></trkpt><trkpt lat="37.479052201897645" lon="14.301095504362186"><ele>787.8333333333334</ele><time>2026-03-22T10:08:22Z</time></trkpt><trkpt lat="37.47908280375123" lon="14.300969968076636"><ele>787.6666666666667</ele><time>2026-03-22T10:08:23Z</time></trkpt><trkpt lat="37.479111163807225" lon="14.300875365643279"><ele>787.5</ele><time>2026-03-22T10:08:24Z</time></trkpt><trkpt lat="37.47914738596293" lon="14.300790049856847"><ele>787.3333333333333</ele><time>2026-03-22T10:08:25Z</time></trkpt><trkpt lat="37.479183235898944" lon="14.300705442661723"><ele>787.1666666666666</ele><time>2026-03-22T10:08:26Z</time></trkpt><trkpt lat="37.47921652471921" lon="14.300624833306891"><ele>787.0</ele><time>2026-03-22T10:08:27Z</time></trkpt><trkpt lat="37.479242471885804" lon="14.30048602313025"><ele>787.0</ele><time>2026-03-22T10:08:29Z</time></trkpt><trkpt lat="37.479236692893416" lon="14.300380613647688"><ele>787.0</ele><time>2026-03-22T10:08:30Z</time></trkpt><trkpt lat="37.47921008966371" lon="14.300267043243815"><ele>787.0</ele><time>2026-03-22T10:08:31Z</time></trkpt><trkpt lat="37.47919814757426" lon="14.300160273635226"><ele>787.0</ele><time>2026-03-22T10:08:32Z</time></trkpt><trkpt lat="37.47918559073291" lon="14.300017765411743"><ele>787.0</ele><time>2026-03-22T10:08:33Z</time></trkpt><trkpt lat="37.47916695178635" lon="14.299888762691765"><ele>787.0</ele><time>2026-03-22T10:08:34Z</time></trkpt><trkpt lat="37.479158548389044" lon="14.299775316768542"><ele>787.0</ele><time>2026-03-22T10:08:35Z</time></trkpt><trkpt lat="37.47914743375805" lon="14.299645431013897"><ele>787.0</ele><time>2026-03-22T10:08:36Z</time></trkpt><trkpt lat="37.479138839195734" lon="14.299533317294776"><ele>787.0</ele><time>2026-03-22T10:08:37Z</time></trkpt><trkpt lat="37.4791375866727" lon="14.299451532932467"><ele>787.0</ele><time>2026-03-22T10:08:38Z</time></trkpt><trkpt lat="37.47910981955101" lon="14.299312785620035"><ele>787.8</ele><time>2026-03-22T10:08:40Z</time></trkpt><trkpt lat="37.479058915794354" lon="14.299210684315934"><ele>788.6</ele><time>2026-03-22T10:08:42Z</time></trkpt><trkpt lat="37.47899468528385" lon="14.29910576077411"><ele>789.4</ele><time>2026-03-22T10:08:43Z</time></trkpt><trkpt lat="37.4789379109473" lon="14.298972584096406"><ele>790.1999999999999</ele><time>2026-03-22T10:08:45Z</time></trkpt><trkpt lat="37.478893777007556" lon="14.29891307568637"><ele>791.0</ele><time>2026-03-22T10:08:46Z</time></trkpt><trkpt lat="37.47880466851904" lon="14.298790675229965"><ele>789.8</ele><time>2026-03-22T10:08:48Z</time></trkpt><trkpt lat="37.478736427225655" lon="14.298728439666084"><ele>788.5999999999999</ele><time>2026-03-22T10:08:49Z</time></trkpt><trkpt lat="37.478682342395615" lon="14.298560781115599"><ele>787.4</ele><time>2026-03-22T10:08:51Z</time></trkpt><trkpt lat="37.478631921076534" lon="14.298461396919894"><ele>786.2</ele><time>2026-03-22T10:08:52Z</time></trkpt><trkpt lat="37.47856147250244" lon="14.298372768565875"><ele>785.0</ele><time>2026-03-22T10:08:53Z</time></trkpt><trkpt lat="37.47848637596608" lon="14.298263082341343"><ele>785.0</ele><time>2026-03-22T10:08:54Z</time></trkpt><trkpt lat="37.47841024844471" lon="14.298141760801572"><ele>785.0</ele><time>2026-03-22T10:08:55Z</time></trkpt><trkpt lat="37.4783604202653" lon="14.298031703811326"><ele>785.0</ele><time>2026-03-22T10:08:56Z</time></trkpt><trkpt lat="37.478337921798285" lon="14.297906897903465"><ele>785.0</ele><time>2026-03-22T10:08:57Z</time></trkpt><trkpt lat="37.478284383306665" lon="14.297805562069643"><ele>785.0</ele><time>2026-03-22T10:08:58Z</time></trkpt><trkpt lat="37.47822870208466" lon="14.297731206666743"><ele>788.1666666666667</ele><time>2026-03-22T10:08:59Z</time></trkpt><trkpt lat="37.4781866750232" lon="14.297644140293084"><ele>791.3333333333334</ele><time>2026-03-22T10:09:00Z</time></trkpt><trkpt lat="37.478128828241935" lon="14.297575658854393"><ele>794.5</ele><time>2026-03-22T10:09:01Z</time></trkpt><trkpt lat="37.47809881721793" lon="14.297494600424791"><ele>797.6666666666667</ele><time>2026-03-22T10:09:02Z</time></trkpt><trkpt lat="37.47806906005062" lon="14.2974238448129"><ele>800.8333333333334</ele><time>2026-03-22T10:09:03Z</time></trkpt><trkpt lat="37.47805431104024" lon="14.297283287440614"><ele>804.0</ele><time>2026-03-22T10:09:05Z</time></trkpt><trkpt lat="37.47806194346752" lon="14.297193703709405"><ele>804.6</ele><time>2026-03-22T10:09:06Z</time></trkpt><trkpt lat="37.47807551597101" lon="14.297082479661578"><ele>805.2</ele><time>2026-03-22T10:09:07Z</time></trkpt><trkpt lat="37.47808781010986" lon="14.296969656829463"><ele>805.8000000000001</ele><time>2026-03-22T10:09:08Z</time></trkpt><trkpt lat="37.478109411634534" lon="14.296852244907797"><ele>806.4000000000001</ele><time>2026-03-22T10:09:09Z</time></trkpt><trkpt lat="37.4781308587634" lon="14.296720462842478"><ele>807.0</ele><time>2026-03-22T10:09:10Z</time></trkpt><trkpt lat="37.47817629358136" lon="14.296579151884957"><ele>807.25</ele><time>2026-03-22T10:09:11Z</time></trkpt><trkpt lat="37.478217889600195" lon="14.296394484631648"><ele>807.5</ele><time>2026-03-22T10:09:12Z</time></trkpt><trkpt lat="37.47823481909473" lon="14.296249945767268"><ele>807.75</ele><time>2026-03-22T10:09:13Z</time></trkpt><trkpt lat="37.47826432280155" lon="14.296113539107468"><ele>808.0</ele><time>2026-03-22T10:09:14Z</time></trkpt><trkpt lat="37.47831013861529" lon="14.295997067485537"><ele>808.0</ele><time>2026-03-22T10:09:15Z</time></trkpt><trkpt lat="37.47833151294266" lon="14.295901850269317"><ele>808.0</ele><time>2026-03-22T10:09:16Z</time></trkpt><trkpt lat="37.47836071801849" lon="14.295821829467148"><ele>808.0</ele><time>2026-03-22T10:09:17Z</time></trkpt><trkpt lat="37.478399325953724" lon="14.295710747833697"><ele>808.0</ele><time>2026-03-22T10:09:18Z</time></trkpt><trkpt lat="37.47842885871591" lon="14.295587048631392"><ele>808.0</ele><time>2026-03-22T10:09:19Z</time></trkpt><trkpt lat="37.478424423388326" lon="14.295431263496784"><ele>807.9999999999999</ele><time>2026-03-22T10:09:20Z</time></trkpt><trkpt lat="37.47845408809922" lon="14.295310464936115"><ele>808.0</ele><time>2026-03-22T10:09:21Z</time></trkpt><trkpt lat="37.4784412909998" lon="14.295217916232595"><ele>808.0</ele><time>2026-03-22T10:09:22Z</time></trkpt><trkpt lat="37.478418542132836" lon="14.295073876892438"><ele>808.0</ele><time>2026-03-22T10:09:24Z</time></trkpt><trkpt lat="37.47840387080178" lon="14.294994944906955"><ele>807.9999999999999</ele><time>2026-03-22T10:09:25Z</time></trkpt><trkpt lat="37.47844582153157" lon="14.294929245536384"><ele>808.0</ele><time>2026-03-22T10:09:26Z</time></trkpt><trkpt lat="37.47846633415057" lon="14.294808469151452"><ele>808.8</ele><time>2026-03-22T10:09:28Z</time></trkpt><trkpt lat="37.478440234053195" lon="14.294703066893865"><ele>809.5999999999999</ele><time>2026-03-22T10:09:30Z</time></trkpt><trkpt lat="37.478373182667674" lon="14.294643499856603"><ele>810.4000000000001</ele><time>2026-03-22T10:09:32Z</time></trkpt><trkpt lat="37.478338149975606" lon="14.294572064778453"><ele>811.2</ele><time>2026-03-22T10:09:35Z</time></trkpt><trkpt lat="37.478283196333976" lon="14.294476054577826"><ele>812.0</ele><time>2026-03-22T10:09:37Z</time></trkpt><trkpt lat="37.478198757083305" lon="14.294360596270947"><ele>812.0</ele><time>2026-03-22T10:09:39Z</time></trkpt><trkpt lat="37.478145088363185" lon="14.294285323985292"><ele>812.0</ele><time>2026-03-22T10:09:40Z</time></trkpt><trkpt lat="37.478052040504366" lon="14.294214601793605"><ele>812.0</ele><time>2026-03-22T10:09:41Z</time></trkpt><trkpt lat="37.4779401984906" lon="14.294134907136504"><ele>812.0</ele><time>2026-03-22T10:09:42Z</time></trkpt><trkpt lat="37.47779323455316" lon="14.294051891768966"><ele>810.0</ele><time>2026-03-22T10:09:43Z</time></trkpt><trkpt lat="37.47762788511255" lon="14.293997832115116"><ele>808.0</ele><time>2026-03-22T10:09:44Z</time></trkpt><trkpt lat="37.47742562224362" lon="14.293945253266923"><ele>806.0</ele><time>2026-03-22T10:09:45Z</time></trkpt><trkpt lat="37.47722000658877" lon="14.293851732671294"><ele>807.8</ele><time>2026-03-22T10:09:46Z</time></trkpt><trkpt lat="37.47706672427069" lon="14.293816958032519"><ele>809.5999999999999</ele><time>2026-03-22T10:09:47Z</time></trkpt><trkpt lat="37.476944780249795" lon="14.29377724516593"><ele>811.4</ele><time>2026-03-22T10:09:48Z</time></trkpt><trkpt lat="37.476859565706754" lon="14.293737072287232"><ele>813.2</ele><time>2026-03-22T10:09:49Z</time></trkpt><trkpt lat="37.47680483872693" lon="14.293688003592193"><ele>815.0</ele><time>2026-03-22T10:09:50Z</time></trkpt><trkpt lat="37.47675451494866" lon="14.293615591925366"><ele>815.0</ele><time>2026-03-22T10:09:51Z</time></trkpt><trkpt lat="37.476703111900115" lon="14.293518369212242"><ele>815.0</ele><time>2026-03-22T10:09:52Z</time></trkpt><trkpt lat="37.4766433651644" lon="14.293386802071177"><ele>815.0</ele><time>2026-03-22T10:09:53Z</time></trkpt><trkpt lat="37.476546106775864" lon="14.293247853604885"><ele>815.0</ele><time>2026-03-22T10:09:54Z</time></trkpt><trkpt lat="37.47646162418615" lon="14.293075268746014"><ele>816.3333333333334</ele><time>2026-03-22T10:09:55Z</time></trkpt><trkpt lat="37.47638410286658" lon="14.292918779713249"><ele>817.6666666666667</ele><time>2026-03-22T10:09:56Z</time></trkpt><trkpt lat="37.47626887256373" lon="14.29270452391811"><ele>819.0</ele><time>2026-03-22T10:09:57Z</time></trkpt><trkpt lat="37.476158138074354" lon="14.292524219568715"><ele>817.0</ele><time>2026-03-22T10:09:58Z</time></trkpt><trkpt lat="37.47606686485045" lon="14.292365734108342"><ele>815.0</ele><time>2026-03-22T10:09:59Z</time></trkpt><trkpt lat="37.47598331173398" lon="14.292229883722415"><ele>813.0</ele><time>2026-03-22T10:10:00Z</time></trkpt><trkpt lat="37.475884293719545" lon="14.292111413603081"><ele>811.0</ele><time>2026-03-22T10:10:01Z</time></trkpt><trkpt lat="37.47579579212541" lon="14.29200463864622"><ele>811.0</ele><time>2026-03-22T10:10:02Z</time></trkpt><trkpt lat="37.475711524522225" lon="14.291883325275002"><ele>811.0</ele><time>2026-03-22T10:10:03Z</time></trkpt><trkpt lat="37.47563426634027" lon="14.291772316086496"><ele>811.0</ele><time>2026-03-22T10:10:04Z</time></trkpt><trkpt lat="37.47557729157579" lon="14.291666642206124"><ele>811.0</ele><time>2026-03-22T10:10:05Z</time></trkpt><trkpt lat="37.47552277902246" lon="14.291552175878055"><ele>811.0</ele><time>2026-03-22T10:10:06Z</time></trkpt><trkpt lat="37.47547310474264" lon="14.291432916265025"><ele>811.0</ele><time>2026-03-22T10:10:07Z</time></trkpt><trkpt lat="37.475436416848666" lon="14.291289811346976"><ele>811.0</ele><time>2026-03-22T10:10:08Z</time></trkpt><trkpt lat="37.47540306152848" lon="14.291154860846815"><ele>811.0</ele><time>2026-03-22T10:10:09Z</time></trkpt><trkpt lat="37.47538054094085" lon="14.291035071954221"><ele>811.0</ele><time>2026-03-22T10:10:10Z</time></trkpt><trkpt lat="37.47537996613025" lon="14.290917551320634"><ele>811.4</ele><time>2026-03-22T10:10:11Z</time></trkpt><trkpt lat="37.47540634283639" lon="14.29080849755014"><ele>811.8</ele><time>2026-03-22T10:10:12Z</time></trkpt><trkpt lat="37.47543835862148" lon="14.290655125307609"><ele>812.1999999999999</ele><time>2026-03-22T10:10:13Z</time></trkpt><trkpt lat="37.47542528112798" lon="14.290513644464587"><ele>812.5999999999999</ele><time>2026-03-22T10:10:14Z</time></trkpt><trkpt lat="37.47541894089766" lon="14.290369777174238"><ele>813.0</ele><time>2026-03-22T10:10:15Z</time></trkpt><trkpt lat="37.47542537468325" lon="14.290247264962048"><ele>811.5999999999999</ele><time>2026-03-22T10:10:16Z</time></trkpt><trkpt lat="37.47541769580075" lon="14.29012138590534"><ele>810.1999999999999</ele><time>2026-03-22T10:10:17Z</time></trkpt><trkpt lat="37.47538857460674" lon="14.290020143756367"><ele>808.8</ele><time>2026-03-22T10:10:18Z</time></trkpt><trkpt lat="37.475391759276505" lon="14.289930783867655"><ele>807.4</ele><time>2026-03-22T10:10:19Z</time></trkpt><trkpt lat="37.47538981327498" lon="14.28979296062062"><ele>806.0</ele><time>2026-03-22T10:10:21Z</time></trkpt><trkpt lat="37.47545653430598" lon="14.289702733281416"><ele>806.0</ele><time>2026-03-22T10:10:22Z</time></trkpt><trkpt lat="37.47555897948281" lon="14.289583542968451"><ele>806.0</ele><time>2026-03-22T10:10:23Z</time></trkpt><trkpt lat="37.475595070575835" lon="14.289480694085288"><ele>806.0</ele><time>2026-03-22T10:10:24Z</time></trkpt><trkpt lat="37.47562605646929" lon="14.289394326213195"><ele>806.0</ele><time>2026-03-22T10:10:25Z</time></trkpt><trkpt lat="37.475622094465294" lon="14.289254926468667"><ele>806.0</ele><time>2026-03-22T10:10:27Z</time></trkpt><trkpt lat="37.4756311327468" lon="14.289170122599712"><ele>806.0</ele><time>2026-03-22T10:10:28Z</time></trkpt><trkpt lat="37.475650351888994" lon="14.289069571775318"><ele>806.0</ele><time>2026-03-22T10:10:29Z</time></trkpt><trkpt lat="37.47569358202396" lon="14.288953998059386"><ele>806.0</ele><time>2026-03-22T10:10:30Z</time></trkpt><trkpt lat="37.47574339365188" lon="14.288834254536956"><ele>806.0</ele><time>2026-03-22T10:10:31Z</time></trkpt><trkpt lat="37.4758060342305" lon="14.288732863184137"><ele>806.0</ele><time>2026-03-22T10:10:32Z</time></trkpt><trkpt lat="37.475898378527155" lon="14.288611639724166"><ele>804.0</ele><time>2026-03-22T10:10:33Z</time></trkpt><trkpt lat="37.47594372670365" lon="14.28849869166242"><ele>802.0</ele><time>2026-03-22T10:10:34Z</time></trkpt><trkpt lat="37.47598043996894" lon="14.288388116966507"><ele>800.0</ele><time>2026-03-22T10:10:35Z</time></trkpt><trkpt lat="37.47600983420852" lon="14.2882614960093"><ele>798.0</ele><time>2026-03-22T10:10:36Z</time></trkpt><trkpt lat="37.47604893146439" lon="14.28812606388125"><ele>796.0</ele><time>2026-03-22T10:10:37Z</time></trkpt><trkpt lat="37.47609187656311" lon="14.287986664059241"><ele>795.0</ele><time>2026-03-22T10:10:38Z</time></trkpt><trkpt lat="37.47613399125975" lon="14.287848015781668"><ele>794.0</ele><time>2026-03-22T10:10:39Z</time></trkpt><trkpt lat="37.476172270195946" lon="14.287716802147509"><ele>793.0</ele><time>2026-03-22T10:10:40Z</time></trkpt><trkpt lat="37.476211011263786" lon="14.28758836164287"><ele>792.0</ele><time>2026-03-22T10:10:41Z</time></trkpt><trkpt lat="37.47627155340872" lon="14.287439323555223"><ele>792.0</ele><time>2026-03-22T10:10:42Z</time></trkpt><trkpt lat="37.47633546313849" lon="14.28728443439969"><ele>792.0</ele><time>2026-03-22T10:10:43Z</time></trkpt><trkpt lat="37.47637279576541" lon="14.287151297810746"><ele>792.0</ele><time>2026-03-22T10:10:44Z</time></trkpt><trkpt lat="37.47640575675297" lon="14.287004440397485"><ele>792.0</ele><time>2026-03-22T10:10:45Z</time></trkpt><trkpt lat="37.476437231232865" lon="14.286858002536547"><ele>789.0</ele><time>2026-03-22T10:10:46Z</time></trkpt><trkpt lat="37.47646632847464" lon="14.286710448570188"><ele>786.0</ele><time>2026-03-22T10:10:47Z</time></trkpt><trkpt lat="37.47649513423715" lon="14.286542419355078"><ele>783.0</ele><time>2026-03-22T10:10:48Z</time></trkpt><trkpt lat="37.47651556199039" lon="14.286393896123705"><ele>780.0</ele><time>2026-03-22T10:10:49Z</time></trkpt><trkpt lat="37.47653370738401" lon="14.286261842095449"><ele>778.8</ele><time>2026-03-22T10:10:50Z</time></trkpt><trkpt lat="37.476554439439965" lon="14.286137257271752"><ele>777.6</ele><time>2026-03-22T10:10:51Z</time></trkpt><trkpt lat="37.47657444293497" lon="14.28603956453253"><ele>776.4000000000001</ele><time>2026-03-22T10:10:52Z</time></trkpt><trkpt lat="37.47660250176705" lon="14.285966317116392"><ele>775.2</ele><time>2026-03-22T10:10:53Z</time></trkpt><trkpt lat="37.47673200146178" lon="14.285995592864687"><ele>774.0</ele><time>2026-03-22T10:14:32Z</time></trkpt><trkpt lat="37.47680854529517" lon="14.286016206557399"><ele>774.0</ele><time>2026-03-22T10:14:33Z</time></trkpt><trkpt lat="37.47689687361699" lon="14.286043975152799"><ele>774.0</ele><time>2026-03-22T10:14:34Z</time></trkpt><trkpt lat="37.47699925016381" lon="14.286069823014417"><ele>774.0</ele><time>2026-03-22T10:14:35Z</time></trkpt><trkpt lat="37.47709797951481" lon="14.286098508222693"><ele>774.0</ele><time>2026-03-22T10:14:36Z</time></trkpt><trkpt lat="37.47721568814993" lon="14.286130303277845"><ele>774.0</ele><time>2026-03-22T10:14:37Z</time></trkpt><trkpt lat="37.47731558256994" lon="14.286184431786264"><ele>774.0</ele><time>2026-03-22T10:14:38Z</time></trkpt><trkpt lat="37.477397708347645" lon="14.286230269824168"><ele>774.0</ele><time>2026-03-22T10:14:39Z</time></trkpt><trkpt lat="37.47748430827361" lon="14.286274012534877"><ele>774.0</ele><time>2026-03-22T10:14:40Z</time></trkpt><trkpt lat="37.477572519231416" lon="14.286342567922818"><ele>774.0</ele><time>2026-03-22T10:14:41Z</time></trkpt><trkpt lat="37.47765193035115" lon="14.286401997254279"><ele>774.0</ele><time>2026-03-22T10:14:42Z</time></trkpt><trkpt lat="37.47773442023886" lon="14.28645181883068"><ele>774.0</ele><time>2026-03-22T10:14:43Z</time></trkpt><trkpt lat="37.477807373209984" lon="14.286503792725918"><ele>774.0</ele><time>2026-03-22T10:14:44Z</time></trkpt><trkpt lat="37.47788733959765" lon="14.286551562953438"><ele>774.0</ele><time>2026-03-22T10:14:45Z</time></trkpt><trkpt lat="37.47798128604574" lon="14.286605074830083"><ele>774.0</ele><time>2026-03-22T10:14:46Z</time></trkpt><trkpt lat="37.47809565834529" lon="14.28668744541623"><ele>774.0</ele><time>2026-03-22T10:14:47Z</time></trkpt><trkpt lat="37.47823048568675" lon="14.286775293946972"><ele>769.3333333333334</ele><time>2026-03-22T10:14:48Z</time></trkpt><trkpt lat="37.47839570399723" lon="14.28687086363785"><ele>764.6666666666667</ele><time>2026-03-22T10:14:49Z</time></trkpt><trkpt lat="37.47857385363018" lon="14.28697112925844"><ele>760.0</ele><time>2026-03-22T10:14:50Z</time></trkpt><trkpt lat="37.47873642605946" lon="14.287056522738256"><ele>758.3333333333334</ele><time>2026-03-22T10:14:51Z</time></trkpt><trkpt lat="37.47888455537344" lon="14.287141434206267"><ele>756.6666666666666</ele><time>2026-03-22T10:14:52Z</time></trkpt><trkpt lat="37.47905072514075" lon="14.28724507889621"><ele>755.0</ele><time>2026-03-22T10:14:53Z</time></trkpt><trkpt lat="37.479189105347686" lon="14.287361137766995"><ele>755.0</ele><time>2026-03-22T10:14:54Z</time></trkpt><trkpt lat="37.47932347692146" lon="14.287451607551427"><ele>755.0</ele><time>2026-03-22T10:14:55Z</time></trkpt><trkpt lat="37.479451938166754" lon="14.28753809790394"><ele>755.0</ele><time>2026-03-22T10:14:56Z</time></trkpt><trkpt lat="37.47956125921989" lon="14.287627442796953"><ele>755.0</ele><time>2026-03-22T10:14:57Z</time></trkpt><trkpt lat="37.47965574543537" lon="14.287729200762874"><ele>753.2</ele><time>2026-03-22T10:14:58Z</time></trkpt><trkpt lat="37.479734966023294" lon="14.28784133840796"><ele>751.4</ele><time>2026-03-22T10:14:59Z</time></trkpt><trkpt lat="37.479799328166024" lon="14.287962310559903"><ele>749.5999999999999</ele><time>2026-03-22T10:15:00Z</time></trkpt><trkpt lat="37.479865307655174" lon="14.288077000963519"><ele>747.8</ele><time>2026-03-22T10:15:01Z</time></trkpt><trkpt lat="37.479911184424964" lon="14.288181496630665"><ele>746.0</ele><time>2026-03-22T10:15:02Z</time></trkpt><trkpt lat="37.4799649843027" lon="14.288270537783454"><ele>746.0</ele><time>2026-03-22T10:15:03Z</time></trkpt><trkpt lat="37.48003067503185" lon="14.288321090398108"><ele>746.0</ele><time>2026-03-22T10:15:07Z</time></trkpt><trkpt lat="37.48007968063782" lon="14.288443134621012"><ele>746.0</ele><time>2026-03-22T10:15:09Z</time></trkpt><trkpt lat="37.480102836162146" lon="14.288573192949906"><ele>746.0</ele><time>2026-03-22T10:15:10Z</time></trkpt><trkpt lat="37.4801446361678" lon="14.288719912963467"><ele>746.0</ele><time>2026-03-22T10:15:11Z</time></trkpt><trkpt lat="37.48016612126688" lon="14.288952890796482"><ele>747.0</ele><time>2026-03-22T10:15:12Z</time></trkpt><trkpt lat="37.48016551055915" lon="14.289214332327962"><ele>748.0</ele><time>2026-03-22T10:15:13Z</time></trkpt><trkpt lat="37.48017324344137" lon="14.289466936248676"><ele>749.0</ele><time>2026-03-22T10:15:14Z</time></trkpt><trkpt lat="37.480186647410115" lon="14.289660452337579"><ele>750.5</ele><time>2026-03-22T10:15:15Z</time></trkpt><trkpt lat="37.48023026693809" lon="14.289837190182485"><ele>752.0</ele><time>2026-03-22T10:15:16Z</time></trkpt><trkpt lat="37.480262604305885" lon="14.290024981488655"><ele>753.5</ele><time>2026-03-22T10:15:17Z</time></trkpt><trkpt lat="37.48031696080178" lon="14.290196600629773"><ele>755.0</ele><time>2026-03-22T10:15:18Z</time></trkpt><trkpt lat="37.48038213160431" lon="14.29036888227609"><ele>752.5</ele><time>2026-03-22T10:15:19Z</time></trkpt><trkpt lat="37.48044347484536" lon="14.290521234038653"><ele>750.0</ele><time>2026-03-22T10:15:20Z</time></trkpt><trkpt lat="37.48050835544274" lon="14.290664396408872"><ele>747.5</ele><time>2026-03-22T10:15:21Z</time></trkpt><trkpt lat="37.48056873633374" lon="14.290791351789442"><ele>745.0</ele><time>2026-03-22T10:15:22Z</time></trkpt><trkpt lat="37.48064097624915" lon="14.290924471339602"><ele>745.0</ele><time>2026-03-22T10:15:23Z</time></trkpt><trkpt lat="37.48073061526566" lon="14.291057117845353"><ele>745.0</ele><time>2026-03-22T10:15:24Z</time></trkpt><trkpt lat="37.48083318507831" lon="14.291183419719136"><ele>745.0</ele><time>2026-03-22T10:15:25Z</time></trkpt><trkpt lat="37.480950946373184" lon="14.291264245781038"><ele>745.0</ele><time>2026-03-22T10:15:26Z</time></trkpt><trkpt lat="37.4810800311122" lon="14.291321161421841"><ele>745.0</ele><time>2026-03-22T10:15:27Z</time></trkpt><trkpt lat="37.48122564829697" lon="14.291344463633992"><ele>745.0</ele><time>2026-03-22T10:15:28Z</time></trkpt><trkpt lat="37.48138148738445" lon="14.291349819604791"><ele>745.0</ele><time>2026-03-22T10:15:29Z</time></trkpt><trkpt lat="37.48153413649385" lon="14.291340871565488"><ele>742.0</ele><time>2026-03-22T10:15:30Z</time></trkpt><trkpt lat="37.48168021576398" lon="14.2913337280664"><ele>739.0</ele><time>2026-03-22T10:15:31Z</time></trkpt><trkpt lat="37.481813345875416" lon="14.29133130996936"><ele>736.0</ele><time>2026-03-22T10:15:32Z</time></trkpt><trkpt lat="37.481936457730676" lon="14.29133807511116"><ele>733.0</ele><time>2026-03-22T10:15:33Z</time></trkpt><trkpt lat="37.482051538684864" lon="14.291361334329151"><ele>733.0</ele><time>2026-03-22T10:15:34Z</time></trkpt><trkpt lat="37.48213573664412" lon="14.291444204075393"><ele>733.0</ele><time>2026-03-22T10:15:35Z</time></trkpt><trkpt lat="37.48220367148344" lon="14.291546595095722"><ele>733.0</ele><time>2026-03-22T10:15:36Z</time></trkpt><trkpt lat="37.48225384458381" lon="14.29166331586774"><ele>733.0</ele><time>2026-03-22T10:15:37Z</time></trkpt><trkpt lat="37.48227640159184" lon="14.291798259893643"><ele>733.0</ele><time>2026-03-22T10:15:38Z</time></trkpt><trkpt lat="37.48230197424001" lon="14.291973901096204"><ele>733.0</ele><time>2026-03-22T10:15:39Z</time></trkpt><trkpt lat="37.48233406029003" lon="14.29217281219493"><ele>733.0</ele><time>2026-03-22T10:15:40Z</time></trkpt><trkpt lat="37.48237063558865" lon="14.292399553869064"><ele>733.0</ele><time>2026-03-22T10:15:41Z</time></trkpt><trkpt lat="37.48240198071814" lon="14.292593871236022"><ele>734.0</ele><time>2026-03-22T10:15:42Z</time></trkpt><trkpt lat="37.48245182123289" lon="14.292784842724538"><ele>735.0</ele><time>2026-03-22T10:15:43Z</time></trkpt><trkpt lat="37.48248552978025" lon="14.292953588660195"><ele>736.0</ele><time>2026-03-22T10:15:44Z</time></trkpt><trkpt lat="37.48253771125238" lon="14.293107147101152"><ele>737.0</ele><time>2026-03-22T10:15:45Z</time></trkpt><trkpt lat="37.48261247912266" lon="14.293248604782125"><ele>739.0</ele><time>2026-03-22T10:15:46Z</time></trkpt><trkpt lat="37.482728412708575" lon="14.293365461773742"><ele>741.0</ele><time>2026-03-22T10:15:47Z</time></trkpt><trkpt lat="37.482869974206395" lon="14.293455319882828"><ele>743.0</ele><time>2026-03-22T10:15:48Z</time></trkpt><trkpt lat="37.483041144125934" lon="14.293520893305615"><ele>738.3333333333333</ele><time>2026-03-22T10:15:49Z</time></trkpt><trkpt lat="37.483250205544266" lon="14.293578197285283"><ele>733.6666666666666</ele><time>2026-03-22T10:15:50Z</time></trkpt><trkpt lat="37.48343476448424" lon="14.293634450294611"><ele>729.0</ele><time>2026-03-22T10:15:51Z</time></trkpt><trkpt lat="37.483618842246486" lon="14.293687625532693"><ele>724.0</ele><time>2026-03-22T10:15:52Z</time></trkpt><trkpt lat="37.483784794865386" lon="14.293739506863568"><ele>719.0</ele><time>2026-03-22T10:15:53Z</time></trkpt><trkpt lat="37.483935975978525" lon="14.293794188291692"><ele>714.0</ele><time>2026-03-22T10:15:54Z</time></trkpt><trkpt lat="37.48407370121615" lon="14.293863867750272"><ele>719.0</ele><time>2026-03-22T10:15:55Z</time></trkpt><trkpt lat="37.48418865056507" lon="14.293993515500702"><ele>724.0</ele><time>2026-03-22T10:15:56Z</time></trkpt><trkpt lat="37.48431124049307" lon="14.294129206626511"><ele>729.0</ele><time>2026-03-22T10:15:57Z</time></trkpt><trkpt lat="37.484411612506065" lon="14.294291609290621"><ele>729.0</ele><time>2026-03-22T10:15:58Z</time></trkpt><trkpt lat="37.484469640695416" lon="14.294452178981699"><ele>729.0</ele><time>2026-03-22T10:15:59Z</time></trkpt><trkpt lat="37.48450025983215" lon="14.294616274076587"><ele>729.0</ele><time>2026-03-22T10:16:00Z</time></trkpt><trkpt lat="37.48452828818832" lon="14.294820479804855"><ele>729.0</ele><time>2026-03-22T10:16:01Z</time></trkpt><trkpt lat="37.48455240182328" lon="14.295031891147339"><ele>732.6666666666666</ele><time>2026-03-22T10:16:02Z</time></trkpt><trkpt lat="37.4845577651128" lon="14.29524951449342"><ele>736.3333333333333</ele><time>2026-03-22T10:16:03Z</time></trkpt><trkpt lat="37.484548241398514" lon="14.29546485720533"><ele>740.0</ele><time>2026-03-22T10:16:04Z</time></trkpt><trkpt lat="37.484542654620014" lon="14.295689403919782"><ele>740.0</ele><time>2026-03-22T10:16:05Z</time></trkpt><trkpt lat="37.48456358431708" lon="14.295935449298359"><ele>740.0</ele><time>2026-03-22T10:16:06Z</time></trkpt><trkpt lat="37.48461431185207" lon="14.29614647956316"><ele>740.0</ele><time>2026-03-22T10:16:07Z</time></trkpt><trkpt lat="37.484667480655695" lon="14.296346872752046"><ele>733.3333333333333</ele><time>2026-03-22T10:16:08Z</time></trkpt><trkpt lat="37.48474100628149" lon="14.296540299108946"><ele>726.6666666666666</ele><time>2026-03-22T10:16:09Z</time></trkpt><trkpt lat="37.48484233714513" lon="14.296720773559544"><ele>720.0</ele><time>2026-03-22T10:16:10Z</time></trkpt><trkpt lat="37.484967613554204" lon="14.296900237827169"><ele>720.0</ele><time>2026-03-22T10:16:11Z</time></trkpt><trkpt lat="37.48513004698234" lon="14.297089797958284"><ele>720.0</ele><time>2026-03-22T10:16:12Z</time></trkpt><trkpt lat="37.485285961646646" lon="14.297282992714758"><ele>720.0</ele><time>2026-03-22T10:16:13Z</time></trkpt><trkpt lat="37.485423480532056" lon="14.297445819481048"><ele>718.0</ele><time>2026-03-22T10:16:14Z</time></trkpt><trkpt lat="37.48555275869743" lon="14.297587234984128"><ele>716.0</ele><time>2026-03-22T10:16:15Z</time></trkpt><trkpt lat="37.48567719596484" lon="14.297731257903552"><ele>714.0</ele><time>2026-03-22T10:16:16Z</time></trkpt><trkpt lat="37.48579247187883" lon="14.297881566981436"><ele>714.0</ele><time>2026-03-22T10:16:17Z</time></trkpt><trkpt lat="37.48589755934913" lon="14.298011173265351"><ele>714.0</ele><time>2026-03-22T10:16:18Z</time></trkpt><trkpt lat="37.4859901736155" lon="14.298135048491186"><ele>714.0</ele><time>2026-03-22T10:16:19Z</time></trkpt><trkpt lat="37.48603556230839" lon="14.298284787775088"><ele>714.0</ele><time>2026-03-22T10:16:20Z</time></trkpt><trkpt lat="37.48606227543205" lon="14.298419237255183"><ele>714.75</ele><time>2026-03-22T10:16:21Z</time></trkpt><trkpt lat="37.48606213320694" lon="14.298570936045547"><ele>715.5</ele><time>2026-03-22T10:16:22Z</time></trkpt><trkpt lat="37.4860427303317" lon="14.298742470219532"><ele>716.25</ele><time>2026-03-22T10:16:23Z</time></trkpt><trkpt lat="37.486017152260374" lon="14.298943941441719"><ele>717.0</ele><time>2026-03-22T10:16:24Z</time></trkpt><trkpt lat="37.48599560445267" lon="14.299141360058302"><ele>717.0</ele><time>2026-03-22T10:16:25Z</time></trkpt><trkpt lat="37.48599073319948" lon="14.299320074199631"><ele>717.0</ele><time>2026-03-22T10:16:26Z</time></trkpt><trkpt lat="37.48602894710352" lon="14.299512223619853"><ele>717.0</ele><time>2026-03-22T10:16:27Z</time></trkpt><trkpt lat="37.486072150419204" lon="14.299704873123519"><ele>716.0</ele><time>2026-03-22T10:16:28Z</time></trkpt><trkpt lat="37.48614420990212" lon="14.299889098907276"><ele>715.0</ele><time>2026-03-22T10:16:29Z</time></trkpt><trkpt lat="37.48625818968229" lon="14.30006952391423"><ele>714.0</ele><time>2026-03-22T10:16:30Z</time></trkpt><trkpt lat="37.48640160833687" lon="14.300240420348283"><ele>710.6666666666666</ele><time>2026-03-22T10:16:31Z</time></trkpt><trkpt lat="37.486549015272004" lon="14.300396549687232"><ele>707.3333333333333</ele><time>2026-03-22T10:16:32Z</time></trkpt><trkpt lat="37.48667389894612" lon="14.300559205587856"><ele>704.0</ele><time>2026-03-22T10:16:33Z</time></trkpt><trkpt lat="37.48678076768303" lon="14.300752059828312"><ele>704.0</ele><time>2026-03-22T10:16:34Z</time></trkpt><trkpt lat="37.48687325157823" lon="14.300967301861654"><ele>704.0</ele><time>2026-03-22T10:16:35Z</time></trkpt><trkpt lat="37.48695721705953" lon="14.3011796519604"><ele>704.0</ele><time>2026-03-22T10:16:36Z</time></trkpt><trkpt lat="37.48702379381685" lon="14.301359546527483"><ele>701.0</ele><time>2026-03-22T10:16:37Z</time></trkpt><trkpt lat="37.487111160622206" lon="14.301518081085597"><ele>698.0</ele><time>2026-03-22T10:16:38Z</time></trkpt><trkpt lat="37.48722305939029" lon="14.301650215118242"><ele>695.0</ele><time>2026-03-22T10:16:39Z</time></trkpt><trkpt lat="37.487369954758954" lon="14.301748263662994"><ele>695.0</ele><time>2026-03-22T10:16:40Z</time></trkpt><trkpt lat="37.48754014675556" lon="14.301796674400498"><ele>695.0</ele><time>2026-03-22T10:16:41Z</time></trkpt><trkpt lat="37.4877448424107" lon="14.301836107744059"><ele>695.0</ele><time>2026-03-22T10:16:42Z</time></trkpt><trkpt lat="37.487923881992" lon="14.301856907508302"><ele>692.6666666666666</ele><time>2026-03-22T10:16:43Z</time></trkpt><trkpt lat="37.488093091489816" lon="14.301913882881015"><ele>690.3333333333334</ele><time>2026-03-22T10:16:44Z</time></trkpt><trkpt lat="37.48826512973326" lon="14.30202614426013"><ele>688.0</ele><time>2026-03-22T10:16:45Z</time></trkpt><trkpt lat="37.48840131603826" lon="14.302144446963055"><ele>688.0</ele><time>2026-03-22T10:16:46Z</time></trkpt><trkpt lat="37.4885266225554" lon="14.302222955555129"><ele>688.0</ele><time>2026-03-22T10:16:47Z</time></trkpt><trkpt lat="37.488664993952604" lon="14.302240130924796"><ele>688.0</ele><time>2026-03-22T10:16:48Z</time></trkpt><trkpt lat="37.48880829091284" lon="14.302198874914195"><ele>688.0</ele><time>2026-03-22T10:16:49Z</time></trkpt><trkpt lat="37.48896504493857" lon="14.302099576033514"><ele>687.3333333333334</ele><time>2026-03-22T10:16:50Z</time></trkpt><trkpt lat="37.489139501439105" lon="14.301948782799476"><ele>686.6666666666666</ele><time>2026-03-22T10:16:51Z</time></trkpt><trkpt lat="37.48932904551319" lon="14.301777655229069"><ele>686.0</ele><time>2026-03-22T10:16:52Z</time></trkpt><trkpt lat="37.489530185226066" lon="14.301623336554863"><ele>686.3333333333333</ele><time>2026-03-22T10:16:53Z</time></trkpt><trkpt lat="37.48971221082551" lon="14.301510216903301"><ele>686.6666666666666</ele><time>2026-03-22T10:16:54Z</time></trkpt><trkpt lat="37.48987686252564" lon="14.301420195476247"><ele>687.0</ele><time>2026-03-22T10:16:55Z</time></trkpt><trkpt lat="37.49002883132504" lon="14.301347258949106"><ele>687.5</ele><time>2026-03-22T10:16:56Z</time></trkpt><trkpt lat="37.49015609157988" lon="14.301291048824076"><ele>688.0</ele><time>2026-03-22T10:16:57Z</time></trkpt><trkpt lat="37.49027434701056" lon="14.301259281478222"><ele>688.5</ele><time>2026-03-22T10:16:58Z</time></trkpt><trkpt lat="37.49038059919603" lon="14.301249511906914"><ele>689.0</ele><time>2026-03-22T10:16:59Z</time></trkpt><trkpt lat="37.49049424593163" lon="14.301267781009301"><ele>689.0</ele><time>2026-03-22T10:17:00Z</time></trkpt><trkpt lat="37.490614757007215" lon="14.301307275726716"><ele>689.0</ele><time>2026-03-22T10:17:01Z</time></trkpt><trkpt lat="37.49074234331833" lon="14.301362384608872"><ele>689.0</ele><time>2026-03-22T10:17:02Z</time></trkpt><trkpt lat="37.49087350171506" lon="14.30142734285304"><ele>689.0</ele><time>2026-03-22T10:17:03Z</time></trkpt><trkpt lat="37.49101203606374" lon="14.301489680920703"><ele>689.3333333333333</ele><time>2026-03-22T10:17:04Z</time></trkpt><trkpt lat="37.49116462059162" lon="14.301561614036425"><ele>689.6666666666666</ele><time>2026-03-22T10:17:05Z</time></trkpt><trkpt lat="37.49129972460533" lon="14.301679081760362"><ele>690.0</ele><time>2026-03-22T10:17:06Z</time></trkpt><trkpt lat="37.491441166013914" lon="14.301807691456611"><ele>690.0</ele><time>2026-03-22T10:17:07Z</time></trkpt><trkpt lat="37.491564400230196" lon="14.301939262592361"><ele>690.0</ele><time>2026-03-22T10:17:08Z</time></trkpt><trkpt lat="37.491683534277016" lon="14.302088410167805"><ele>690.0</ele><time>2026-03-22T10:17:09Z</time></trkpt><trkpt lat="37.49179306153527" lon="14.302263305560855"><ele>689.0</ele><time>2026-03-22T10:17:10Z</time></trkpt><trkpt lat="37.49188858465871" lon="14.302444867756105"><ele>688.0</ele><time>2026-03-22T10:17:11Z</time></trkpt><trkpt lat="37.491964522435616" lon="14.302631857570283"><ele>687.0</ele><time>2026-03-22T10:17:12Z</time></trkpt><trkpt lat="37.4920291668716" lon="14.302837032996907"><ele>690.0</ele><time>2026-03-22T10:17:13Z</time></trkpt><trkpt lat="37.49209319498663" lon="14.303049718811495"><ele>693.0</ele><time>2026-03-22T10:17:14Z</time></trkpt><trkpt lat="37.49215575341078" lon="14.303268735844995"><ele>696.0</ele><time>2026-03-22T10:17:15Z</time></trkpt><trkpt lat="37.49221615055878" lon="14.303481454306768"><ele>696.0</ele><time>2026-03-22T10:17:16Z</time></trkpt><trkpt lat="37.49227818114581" lon="14.303694821315764"><ele>696.0</ele><time>2026-03-22T10:17:17Z</time></trkpt><trkpt lat="37.49234872150253" lon="14.303904293343907"><ele>696.0</ele><time>2026-03-22T10:17:18Z</time></trkpt><trkpt lat="37.49244864716841" lon="14.304101102293748"><ele>695.0</ele><time>2026-03-22T10:17:19Z</time></trkpt><trkpt lat="37.492561940158026" lon="14.304285430703715"><ele>694.0</ele><time>2026-03-22T10:17:20Z</time></trkpt><trkpt lat="37.4926920648081" lon="14.304451587112402"><ele>693.0</ele><time>2026-03-22T10:17:21Z</time></trkpt><trkpt lat="37.492819621510534" lon="14.304618111946326"><ele>695.0</ele><time>2026-03-22T10:17:22Z</time></trkpt><trkpt lat="37.49296177886325" lon="14.304766712096264"><ele>697.0</ele><time>2026-03-22T10:17:23Z</time></trkpt><trkpt lat="37.49312826057915" lon="14.304896541571408"><ele>699.0</ele><time>2026-03-22T10:17:24Z</time></trkpt><trkpt lat="37.49331023010427" lon="14.30499521388368"><ele>699.0</ele><time>2026-03-22T10:17:25Z</time></trkpt><trkpt lat="37.493503624419574" lon="14.305072529686065"><ele>699.0</ele><time>2026-03-22T10:17:26Z</time></trkpt><trkpt lat="37.493699220083045" lon="14.305132346344895"><ele>699.0</ele><time>2026-03-22T10:17:27Z</time></trkpt><trkpt lat="37.49390724736119" lon="14.305186398769688"><ele>700.0</ele><time>2026-03-22T10:17:28Z</time></trkpt><trkpt lat="37.49410647964593" lon="14.305248220073"><ele>701.0</ele><time>2026-03-22T10:17:29Z</time></trkpt><trkpt lat="37.494310091339436" lon="14.305311201350044"><ele>702.0</ele><time>2026-03-22T10:17:30Z</time></trkpt><trkpt lat="37.49451381153421" lon="14.305372831584414"><ele>702.3333333333334</ele><time>2026-03-22T10:17:31Z</time></trkpt><trkpt lat="37.49471751389247" lon="14.305442558736193"><ele>702.6666666666667</ele><time>2026-03-22T10:17:32Z</time></trkpt><trkpt lat="37.494925120130915" lon="14.305511099429197"><ele>703.0</ele><time>2026-03-22T10:17:33Z</time></trkpt><trkpt lat="37.4951297089788" lon="14.305581031211034"><ele>699.0</ele><time>2026-03-22T10:17:34Z</time></trkpt><trkpt lat="37.49533825816833" lon="14.30564459631032"><ele>695.0</ele><time>2026-03-22T10:17:35Z</time></trkpt><trkpt lat="37.49553874855884" lon="14.305706539584573"><ele>691.0</ele><time>2026-03-22T10:17:36Z</time></trkpt><trkpt lat="37.495743271893076" lon="14.305773830034806"><ele>691.0</ele><time>2026-03-22T10:17:37Z</time></trkpt><trkpt lat="37.49594455136425" lon="14.305831780778156"><ele>691.0</ele><time>2026-03-22T10:17:38Z</time></trkpt><trkpt lat="37.49615094956765" lon="14.305896633831585"><ele>691.0</ele><time>2026-03-22T10:17:39Z</time></trkpt><trkpt lat="37.496352055043616" lon="14.305962957618464"><ele>691.6666666666667</ele><time>2026-03-22T10:17:40Z</time></trkpt><trkpt lat="37.49655409479593" lon="14.306030516772944"><ele>692.3333333333334</ele><time>2026-03-22T10:17:41Z</time></trkpt><trkpt lat="37.49675959484609" lon="14.306096970409236"><ele>693.0</ele><time>2026-03-22T10:17:42Z</time></trkpt><trkpt lat="37.496964014724554" lon="14.306163977703312"><ele>695.6666666666666</ele><time>2026-03-22T10:17:43Z</time></trkpt><trkpt lat="37.4971749424946" lon="14.306231183432173"><ele>698.3333333333333</ele><time>2026-03-22T10:17:44Z</time></trkpt><trkpt lat="37.49738644328441" lon="14.306299173088265"><ele>701.0</ele><time>2026-03-22T10:17:45Z</time></trkpt><trkpt lat="37.4976008556237" lon="14.306359006484547"><ele>697.6666666666666</ele><time>2026-03-22T10:17:46Z</time></trkpt><trkpt lat="37.49781623099977" lon="14.306415489628126"><ele>694.3333333333334</ele><time>2026-03-22T10:17:47Z</time></trkpt><trkpt lat="37.498037453675806" lon="14.306454465629287"><ele>691.0</ele><time>2026-03-22T10:17:48Z</time></trkpt><trkpt lat="37.49825602579831" lon="14.3064782464682"><ele>691.0</ele><time>2026-03-22T10:17:49Z</time></trkpt><trkpt lat="37.49847659204489" lon="14.306500550479399"><ele>691.0</ele><time>2026-03-22T10:17:50Z</time></trkpt><trkpt lat="37.498699875284814" lon="14.306509062277277"><ele>691.0</ele><time>2026-03-22T10:17:51Z</time></trkpt><trkpt lat="37.49892587435079" lon="14.306504064317625"><ele>691.0</ele><time>2026-03-22T10:17:52Z</time></trkpt><trkpt lat="37.499149263539636" lon="14.306487272705697"><ele>691.0</ele><time>2026-03-22T10:17:53Z</time></trkpt><trkpt lat="37.4993876024288" lon="14.306470995671678"><ele>690.0</ele><time>2026-03-22T10:17:54Z</time></trkpt><trkpt lat="37.49962406881478" lon="14.30645047327893"><ele>689.0</ele><time>2026-03-22T10:17:55Z</time></trkpt><trkpt lat="37.499855076437676" lon="14.306430874637337"><ele>689.0</ele><time>2026-03-22T10:17:56Z</time></trkpt><trkpt lat="37.50006002195669" lon="14.306420395359535"><ele>689.0</ele><time>2026-03-22T10:17:57Z</time></trkpt><trkpt lat="37.500258919633744" lon="14.306419072818251"><ele>689.0</ele><time>2026-03-22T10:17:58Z</time></trkpt><trkpt lat="37.50046369018139" lon="14.306432749556018"><ele>688.6666666666666</ele><time>2026-03-22T10:17:59Z</time></trkpt><trkpt lat="37.50065306867203" lon="14.306497179704428"><ele>688.3333333333334</ele><time>2026-03-22T10:18:00Z</time></trkpt><trkpt lat="37.50082918966469" lon="14.306586735302854"><ele>688.0</ele><time>2026-03-22T10:18:01Z</time></trkpt><trkpt lat="37.50101791425151" lon="14.306678990718213"><ele>688.0</ele><time>2026-03-22T10:18:02Z</time></trkpt><trkpt lat="37.50119134460498" lon="14.306802616121306"><ele>688.0</ele><time>2026-03-22T10:18:03Z</time></trkpt><trkpt lat="37.50134496790285" lon="14.306991641864398"><ele>688.0</ele><time>2026-03-22T10:18:04Z</time></trkpt><trkpt lat="37.50147149710266" lon="14.30720228735659"><ele>693.6666666666667</ele><time>2026-03-22T10:18:05Z</time></trkpt><trkpt lat="37.501576590338594" lon="14.30743735762688"><ele>699.3333333333334</ele><time>2026-03-22T10:18:06Z</time></trkpt><trkpt lat="37.50166313237243" lon="14.307693696777326"><ele>705.0</ele><time>2026-03-22T10:18:07Z</time></trkpt><trkpt lat="37.501728046008715" lon="14.30797505220463"><ele>701.5</ele><time>2026-03-22T10:18:08Z</time></trkpt><trkpt lat="37.50177128361477" lon="14.30827048181969"><ele>698.0</ele><time>2026-03-22T10:18:09Z</time></trkpt><trkpt lat="37.50179596401422" lon="14.3085697062462"><ele>698.0</ele><time>2026-03-22T10:18:10Z</time></trkpt><trkpt lat="37.50181689545418" lon="14.30886917948234"><ele>698.0</ele><time>2026-03-22T10:18:11Z</time></trkpt><trkpt lat="37.50184191324081" lon="14.309157959544825"><ele>697.0</ele><time>2026-03-22T10:18:12Z</time></trkpt><trkpt lat="37.50186653979318" lon="14.309442713926044"><ele>696.0</ele><time>2026-03-22T10:18:13Z</time></trkpt><trkpt lat="37.501889870912166" lon="14.309728837053282"><ele>696.5</ele><time>2026-03-22T10:18:14Z</time></trkpt><trkpt lat="37.50191698027821" lon="14.310009638256215"><ele>697.0</ele><time>2026-03-22T10:18:15Z</time></trkpt><trkpt lat="37.501944410576485" lon="14.310292173860534"><ele>697.0</ele><time>2026-03-22T10:18:16Z</time></trkpt><trkpt lat="37.5019733030949" lon="14.310567662444186"><ele>697.0</ele><time>2026-03-22T10:18:17Z</time></trkpt><trkpt lat="37.502004520277644" lon="14.310838932262818"><ele>697.0</ele><time>2026-03-22T10:18:18Z</time></trkpt><trkpt lat="37.50202917980577" lon="14.311112528978876"><ele>696.6666666666667</ele><time>2026-03-22T10:18:19Z</time></trkpt><trkpt lat="37.502055629804296" lon="14.311381352025137"><ele>696.3333333333334</ele><time>2026-03-22T10:18:20Z</time></trkpt><trkpt lat="37.50208307066675" lon="14.311648860331735"><ele>696.0</ele><time>2026-03-22T10:18:21Z</time></trkpt><trkpt lat="37.502108531445096" lon="14.311916578423252"><ele>704.6666666666666</ele><time>2026-03-22T10:18:22Z</time></trkpt><trkpt lat="37.50213568611742" lon="14.312177992540287"><ele>713.3333333333333</ele><time>2026-03-22T10:18:23Z</time></trkpt><trkpt lat="37.50216709969006" lon="14.312444267933106"><ele>722.0</ele><time>2026-03-22T10:18:24Z</time></trkpt><trkpt lat="37.50220753616695" lon="14.312713168862699"><ele>722.0</ele><time>2026-03-22T10:18:25Z</time></trkpt><trkpt lat="37.50225891584492" lon="14.31297218625909"><ele>722.0</ele><time>2026-03-22T10:18:26Z</time></trkpt><trkpt lat="37.502326259049404" lon="14.313232709092732"><ele>722.0</ele><time>2026-03-22T10:18:27Z</time></trkpt><trkpt lat="37.50241333844156" lon="14.313478538714396"><ele>720.3333333333333</ele><time>2026-03-22T10:18:28Z</time></trkpt><trkpt lat="37.50252182436165" lon="14.313713722208512"><ele>718.6666666666666</ele><time>2026-03-22T10:18:29Z</time></trkpt><trkpt lat="37.50264172433543" lon="14.313943030093064"><ele>717.0</ele><time>2026-03-22T10:18:30Z</time></trkpt><trkpt lat="37.50276640759719" lon="14.314168098373802"><ele>719.3333333333334</ele><time>2026-03-22T10:18:31Z</time></trkpt><trkpt lat="37.50289236702734" lon="14.314397776206086"><ele>721.6666666666667</ele><time>2026-03-22T10:18:32Z</time></trkpt><trkpt lat="37.50302654073663" lon="14.314619353406524"><ele>724.0</ele><time>2026-03-22T10:18:33Z</time></trkpt><trkpt lat="37.50316591690556" lon="14.314831843456963"><ele>724.0</ele><time>2026-03-22T10:18:34Z</time></trkpt><trkpt lat="37.50331706668237" lon="14.315021187937248"><ele>724.0</ele><time>2026-03-22T10:18:35Z</time></trkpt><trkpt lat="37.50348388320571" lon="14.315200770460141"><ele>724.0</ele><time>2026-03-22T10:18:36Z</time></trkpt><trkpt lat="37.503660224714885" lon="14.315354879337539"><ele>724.0</ele><time>2026-03-22T10:18:37Z</time></trkpt><trkpt lat="37.50385287820283" lon="14.315469230871871"><ele>724.0</ele><time>2026-03-22T10:18:38Z</time></trkpt><trkpt lat="37.5040632817773" lon="14.315557029335233"><ele>724.0</ele><time>2026-03-22T10:18:39Z</time></trkpt><trkpt lat="37.50427879108743" lon="14.315611787933287"><ele>724.0</ele><time>2026-03-22T10:18:40Z</time></trkpt><trkpt lat="37.50449871758611" lon="14.315652431505244"><ele>724.0</ele><time>2026-03-22T10:18:41Z</time></trkpt><trkpt lat="37.504738301936804" lon="14.315690447479623"><ele>726.0</ele><time>2026-03-22T10:18:42Z</time></trkpt><trkpt lat="37.504976498826416" lon="14.315731341905114"><ele>728.0</ele><time>2026-03-22T10:18:43Z</time></trkpt><trkpt lat="37.50520449438439" lon="14.315778455546296"><ele>729.0</ele><time>2026-03-22T10:18:44Z</time></trkpt><trkpt lat="37.50542539458147" lon="14.315828746381007"><ele>730.0</ele><time>2026-03-22T10:18:45Z</time></trkpt><trkpt lat="37.50564635581109" lon="14.315881589063016"><ele>731.0</ele><time>2026-03-22T10:18:46Z</time></trkpt><trkpt lat="37.50586717110922" lon="14.315929017803006"><ele>731.0</ele><time>2026-03-22T10:18:47Z</time></trkpt><trkpt lat="37.50608772827577" lon="14.315964708591737"><ele>731.0</ele><time>2026-03-22T10:18:48Z</time></trkpt><trkpt lat="37.506310492716516" lon="14.3159896409692"><ele>731.0</ele><time>2026-03-22T10:18:49Z</time></trkpt><trkpt lat="37.506533729325874" lon="14.315984695989137"><ele>730.5</ele><time>2026-03-22T10:18:50Z</time></trkpt><trkpt lat="37.50675692307148" lon="14.31596296291908"><ele>730.0</ele><time>2026-03-22T10:18:51Z</time></trkpt><trkpt lat="37.50698640984446" lon="14.315926364852524"><ele>729.0</ele><time>2026-03-22T10:18:52Z</time></trkpt><trkpt lat="37.50720932675898" lon="14.31587853124432"><ele>728.0</ele><time>2026-03-22T10:18:53Z</time></trkpt><trkpt lat="37.507438862447124" lon="14.315831369436921"><ele>728.0</ele><time>2026-03-22T10:18:54Z</time></trkpt><trkpt lat="37.50766134906982" lon="14.315783573476933"><ele>728.0</ele><time>2026-03-22T10:18:55Z</time></trkpt><trkpt lat="37.50788363912951" lon="14.315725512317734"><ele>726.5</ele><time>2026-03-22T10:18:56Z</time></trkpt><trkpt lat="37.50810534263279" lon="14.315683978535798"><ele>725.0</ele><time>2026-03-22T10:18:57Z</time></trkpt><trkpt lat="37.50833311553705" lon="14.31566704239254"><ele>725.0</ele><time>2026-03-22T10:18:58Z</time></trkpt><trkpt lat="37.50855801154044" lon="14.315671692173646"><ele>725.0</ele><time>2026-03-22T10:18:59Z</time></trkpt><trkpt lat="37.50877706848757" lon="14.315716671910279"><ele>725.0</ele><time>2026-03-22T10:19:00Z</time></trkpt><trkpt lat="37.50899034878695" lon="14.315781251585824"><ele>724.5</ele><time>2026-03-22T10:19:01Z</time></trkpt><trkpt lat="37.509207711238076" lon="14.31585767104079"><ele>724.0</ele><time>2026-03-22T10:19:02Z</time></trkpt><trkpt lat="37.509424142178595" lon="14.315939143122518"><ele>723.6666666666667</ele><time>2026-03-22T10:19:03Z</time></trkpt><trkpt lat="37.50963785649068" lon="14.316015465487006"><ele>723.3333333333334</ele><time>2026-03-22T10:19:04Z</time></trkpt><trkpt lat="37.509854044382024" lon="14.316090418453301"><ele>723.0</ele><time>2026-03-22T10:19:05Z</time></trkpt><trkpt lat="37.51006801468882" lon="14.316162629747632"><ele>723.0</ele><time>2026-03-22T10:19:06Z</time></trkpt><trkpt lat="37.51028903539584" lon="14.316232345326439"><ele>723.0</ele><time>2026-03-22T10:19:07Z</time></trkpt><trkpt lat="37.51050923892526" lon="14.316302153997041"><ele>722.6666666666666</ele><time>2026-03-22T10:19:08Z</time></trkpt><trkpt lat="37.51072473749487" lon="14.316369537346343"><ele>722.3333333333333</ele><time>2026-03-22T10:19:09Z</time></trkpt><trkpt lat="37.51093771136729" lon="14.31642321141061"><ele>722.0</ele><time>2026-03-22T10:19:10Z</time></trkpt><trkpt lat="37.51115230100414" lon="14.316470909471573"><ele>718.5</ele><time>2026-03-22T10:19:11Z</time></trkpt><trkpt lat="37.51137841816732" lon="14.31650175659056"><ele>715.0</ele><time>2026-03-22T10:19:12Z</time></trkpt><trkpt lat="37.51160495420787" lon="14.31653128569776"><ele>715.0</ele><time>2026-03-22T10:19:13Z</time></trkpt><trkpt lat="37.511822873742254" lon="14.316561159485651"><ele>715.0</ele><time>2026-03-22T10:19:14Z</time></trkpt><trkpt lat="37.51203977769558" lon="14.316586949513791"><ele>715.0</ele><time>2026-03-22T10:19:15Z</time></trkpt><trkpt lat="37.51226037990954" lon="14.316619449329233"><ele>714.0</ele><time>2026-03-22T10:19:16Z</time></trkpt><trkpt lat="37.5124767655307" lon="14.31664587942493"><ele>713.0</ele><time>2026-03-22T10:19:17Z</time></trkpt><trkpt lat="37.51269319912022" lon="14.316674619883875"><ele>712.0</ele><time>2026-03-22T10:19:18Z</time></trkpt><trkpt lat="37.51291016148443" lon="14.316699043714566"><ele>711.6666666666667</ele><time>2026-03-22T10:19:19Z</time></trkpt><trkpt lat="37.51312484886822" lon="14.316724151078317"><ele>711.3333333333334</ele><time>2026-03-22T10:19:20Z</time></trkpt><trkpt lat="37.513339842271854" lon="14.316751576458572"><ele>711.0</ele><time>2026-03-22T10:19:21Z</time></trkpt><trkpt lat="37.51355692230005" lon="14.316759489358953"><ele>711.0</ele><time>2026-03-22T10:19:22Z</time></trkpt><trkpt lat="37.513771652057976" lon="14.316764680295668"><ele>711.0</ele><time>2026-03-22T10:19:23Z</time></trkpt><trkpt lat="37.5139971120656" lon="14.316748977723016"><ele>711.0</ele><time>2026-03-22T10:19:24Z</time></trkpt><trkpt lat="37.51422780376953" lon="14.316720838414259"><ele>711.0</ele><time>2026-03-22T10:19:25Z</time></trkpt><trkpt lat="37.514442106050836" lon="14.316686700166326"><ele>711.0</ele><time>2026-03-22T10:19:26Z</time></trkpt><trkpt lat="37.51463271934762" lon="14.316653415794695"><ele>711.0</ele><time>2026-03-22T10:19:27Z</time></trkpt><trkpt lat="37.514810322107216" lon="14.316627960773088"><ele>710.6666666666666</ele><time>2026-03-22T10:19:28Z</time></trkpt><trkpt lat="37.51499503587792" lon="14.31659983371709"><ele>710.3333333333333</ele><time>2026-03-22T10:19:29Z</time></trkpt><trkpt lat="37.51519057373509" lon="14.316572110524369"><ele>710.0</ele><time>2026-03-22T10:19:30Z</time></trkpt><trkpt lat="37.51539143587256" lon="14.316537308086511"><ele>709.6666666666666</ele><time>2026-03-22T10:19:31Z</time></trkpt><trkpt lat="37.51559584423024" lon="14.316514709153685"><ele>709.3333333333334</ele><time>2026-03-22T10:19:32Z</time></trkpt><trkpt lat="37.51580436273599" lon="14.316494949738892"><ele>709.0</ele><time>2026-03-22T10:19:33Z</time></trkpt><trkpt lat="37.51601684601028" lon="14.316477675611722"><ele>709.0</ele><time>2026-03-22T10:19:34Z</time></trkpt><trkpt lat="37.51622079663395" lon="14.31646407600132"><ele>709.0</ele><time>2026-03-22T10:19:35Z</time></trkpt><trkpt lat="37.516407470660624" lon="14.316459686974866"><ele>709.0</ele><time>2026-03-22T10:19:36Z</time></trkpt><trkpt lat="37.51659605731189" lon="14.316459788091782"><ele>709.0</ele><time>2026-03-22T10:19:37Z</time></trkpt><trkpt lat="37.516774160099914" lon="14.316465363283182"><ele>709.0</ele><time>2026-03-22T10:19:38Z</time></trkpt><trkpt lat="37.51694772111542" lon="14.316467645155171"><ele>709.0</ele><time>2026-03-22T10:19:39Z</time></trkpt><trkpt lat="37.51714066098322" lon="14.316453288631685"><ele>709.0</ele><time>2026-03-22T10:19:40Z</time></trkpt><trkpt lat="37.517325970133214" lon="14.316467341960228"><ele>709.0</ele><time>2026-03-22T10:19:41Z</time></trkpt><trkpt lat="37.51751391319286" lon="14.316472115464144"><ele>709.0</ele><time>2026-03-22T10:19:42Z</time></trkpt><trkpt lat="37.51768729878751" lon="14.31647855847273"><ele>709.0</ele><time>2026-03-22T10:19:43Z</time></trkpt><trkpt lat="37.51784786469034" lon="14.31648294823077"><ele>709.0</ele><time>2026-03-22T10:19:44Z</time></trkpt><trkpt lat="37.51799883076699" lon="14.316490362952559"><ele>709.0</ele><time>2026-03-22T10:19:45Z</time></trkpt><trkpt lat="37.51817495694583" lon="14.316498860737171"><ele>706.3333333333334</ele><time>2026-03-22T10:19:46Z</time></trkpt><trkpt lat="37.51834591618832" lon="14.316502733549381"><ele>703.6666666666666</ele><time>2026-03-22T10:19:47Z</time></trkpt><trkpt lat="37.518517705871645" lon="14.316528668463137"><ele>701.0</ele><time>2026-03-22T10:19:48Z</time></trkpt><trkpt lat="37.518667217800754" lon="14.316569889555424"><ele>697.6666666666666</ele><time>2026-03-22T10:19:49Z</time></trkpt><trkpt lat="37.51880866008834" lon="14.316663288938855"><ele>694.3333333333334</ele><time>2026-03-22T10:19:50Z</time></trkpt><trkpt lat="37.51894685308471" lon="14.316786782476283"><ele>691.0</ele><time>2026-03-22T10:19:51Z</time></trkpt><trkpt lat="37.51902863876272" lon="14.31700881320651"><ele>691.0</ele><time>2026-03-22T10:19:52Z</time></trkpt><trkpt lat="37.519141359190925" lon="14.317193184523244"><ele>691.0</ele><time>2026-03-22T10:19:53Z</time></trkpt><trkpt lat="37.51924178256083" lon="14.31736053387575"><ele>691.0</ele><time>2026-03-22T10:19:54Z</time></trkpt><trkpt lat="37.51933514953999" lon="14.317512150795851"><ele>690.5</ele><time>2026-03-22T10:19:55Z</time></trkpt><trkpt lat="37.51943044566238" lon="14.31763972488633"><ele>690.0</ele><time>2026-03-22T10:19:56Z</time></trkpt><trkpt lat="37.51952885448586" lon="14.317737869568942"><ele>689.5</ele><time>2026-03-22T10:19:57Z</time></trkpt><trkpt lat="37.51964636827921" lon="14.31778861694893"><ele>689.0</ele><time>2026-03-22T10:19:58Z</time></trkpt><trkpt lat="37.51977288078563" lon="14.317803822606388"><ele>689.0</ele><time>2026-03-22T10:19:59Z</time></trkpt><trkpt lat="37.51991388940821" lon="14.31776310786829"><ele>689.0</ele><time>2026-03-22T10:20:00Z</time></trkpt><trkpt lat="37.520090256952166" lon="14.317693147349438"><ele>689.0</ele><time>2026-03-22T10:20:01Z</time></trkpt><trkpt lat="37.52028807549911" lon="14.317609064778644"><ele>688.0</ele><time>2026-03-22T10:20:02Z</time></trkpt><trkpt lat="37.52049852883957" lon="14.317525070625708"><ele>687.0</ele><time>2026-03-22T10:20:03Z</time></trkpt><trkpt lat="37.52070249270099" lon="14.31744507514257"><ele>686.0</ele><time>2026-03-22T10:20:04Z</time></trkpt><trkpt lat="37.520896874389166" lon="14.317368430890621"><ele>686.0</ele><time>2026-03-22T10:20:05Z</time></trkpt><trkpt lat="37.521105041011296" lon="14.31728891763886"><ele>686.0</ele><time>2026-03-22T10:20:06Z</time></trkpt><trkpt lat="37.52130326899985" lon="14.317213243767162"><ele>686.0</ele><time>2026-03-22T10:20:07Z</time></trkpt><trkpt lat="37.521494767262276" lon="14.317143333805634"><ele>684.3333333333333</ele><time>2026-03-22T10:20:08Z</time></trkpt><trkpt lat="37.52170123219102" lon="14.317063749927634"><ele>682.6666666666666</ele><time>2026-03-22T10:20:09Z</time></trkpt><trkpt lat="37.521892702939226" lon="14.31699769378617"><ele>681.0</ele><time>2026-03-22T10:20:10Z</time></trkpt><trkpt lat="37.52206713905823" lon="14.316935617415771"><ele>681.0</ele><time>2026-03-22T10:20:11Z</time></trkpt><trkpt lat="37.52222723509436" lon="14.316862500570338"><ele>681.0</ele><time>2026-03-22T10:20:12Z</time></trkpt><trkpt lat="37.52238819898462" lon="14.316766491356535"><ele>681.0</ele><time>2026-03-22T10:20:13Z</time></trkpt><trkpt lat="37.522536172696675" lon="14.316642717359624"><ele>681.0</ele><time>2026-03-22T10:20:14Z</time></trkpt><trkpt lat="37.52268058110522" lon="14.316476014682333"><ele>681.0</ele><time>2026-03-22T10:20:15Z</time></trkpt><trkpt lat="37.52280832181415" lon="14.31631251747487"><ele>681.0</ele><time>2026-03-22T10:20:16Z</time></trkpt><trkpt lat="37.52292874116153" lon="14.31615912177946"><ele>680.3333333333334</ele><time>2026-03-22T10:20:17Z</time></trkpt><trkpt lat="37.52305641209951" lon="14.316008186059195"><ele>679.6666666666667</ele><time>2026-03-22T10:20:18Z</time></trkpt><trkpt lat="37.523184185648745" lon="14.315860031932628"><ele>679.0</ele><time>2026-03-22T10:20:19Z</time></trkpt><trkpt lat="37.52330311204973" lon="14.315736479668855"><ele>679.0</ele><time>2026-03-22T10:20:20Z</time></trkpt><trkpt lat="37.523400446597556" lon="14.315627571002537"><ele>679.0</ele><time>2026-03-22T10:20:21Z</time></trkpt><trkpt lat="37.52349406277316" lon="14.315518159027015"><ele>679.0</ele><time>2026-03-22T10:20:22Z</time></trkpt><trkpt lat="37.52356633300864" lon="14.315404006234829"><ele>679.0</ele><time>2026-03-22T10:20:23Z</time></trkpt><trkpt lat="37.523598688545505" lon="14.315259688587123"><ele>678.75</ele><time>2026-03-22T10:20:24Z</time></trkpt><trkpt lat="37.5236066348956" lon="14.31509287933455"><ele>678.5</ele><time>2026-03-22T10:20:25Z</time></trkpt><trkpt lat="37.523592408821735" lon="14.314942225234176"><ele>678.25</ele><time>2026-03-22T10:20:26Z</time></trkpt><trkpt lat="37.52357231885403" lon="14.314807762696953"><ele>678.0</ele><time>2026-03-22T10:20:27Z</time></trkpt><trkpt lat="37.5235685319333" lon="14.314669974466527"><ele>677.8</ele><time>2026-03-22T10:20:28Z</time></trkpt><trkpt lat="37.52355676680647" lon="14.314549224215293"><ele>677.5999999999999</ele><time>2026-03-22T10:20:29Z</time></trkpt><trkpt lat="37.52354608774285" lon="14.31442338532216"><ele>677.4000000000001</ele><time>2026-03-22T10:20:30Z</time></trkpt><trkpt lat="37.523534245231204" lon="14.314291278767016"><ele>677.2</ele><time>2026-03-22T10:20:31Z</time></trkpt><trkpt lat="37.52353178587316" lon="14.314179808259967"><ele>677.0</ele><time>2026-03-22T10:20:32Z</time></trkpt><trkpt lat="37.52354882378155" lon="14.314089320625335"><ele>677.0</ele><time>2026-03-22T10:20:33Z</time></trkpt><trkpt lat="37.523557655985925" lon="14.31400366108895"><ele>677.0</ele><time>2026-03-22T10:20:34Z</time></trkpt><trkpt lat="37.52369591373966" lon="14.31390601853579"><ele>677.0</ele><time>2026-03-22T10:20:35Z</time></trkpt><trkpt lat="37.52378842633963" lon="14.31378925834366"><ele>677.0</ele><time>2026-03-22T10:20:36Z</time></trkpt><trkpt lat="37.52389191288516" lon="14.313683393428969"><ele>678.3333333333333</ele><time>2026-03-22T10:20:37Z</time></trkpt><trkpt lat="37.52400452102627" lon="14.313565430039413"><ele>679.6666666666666</ele><time>2026-03-22T10:20:38Z</time></trkpt><trkpt lat="37.52411181050189" lon="14.313414589036908"><ele>681.0</ele><time>2026-03-22T10:20:39Z</time></trkpt><trkpt lat="37.52419549264526" lon="14.313238773583361"><ele>682.0</ele><time>2026-03-22T10:20:40Z</time></trkpt><trkpt lat="37.52429871920196" lon="14.313055217586818"><ele>683.0</ele><time>2026-03-22T10:20:41Z</time></trkpt><trkpt lat="37.524439314738444" lon="14.312818344611934"><ele>684.0</ele><time>2026-03-22T10:20:42Z</time></trkpt><trkpt lat="37.524536710640525" lon="14.312643029187555"><ele>686.4000000000001</ele><time>2026-03-22T10:20:43Z</time></trkpt><trkpt lat="37.524610595112826" lon="14.312505334452824"><ele>688.8</ele><time>2026-03-22T10:20:44Z</time></trkpt><trkpt lat="37.52468241255317" lon="14.312389679676773"><ele>691.2</ele><time>2026-03-22T10:20:45Z</time></trkpt><trkpt lat="37.52473444802121" lon="14.312299799576481"><ele>693.5999999999999</ele><time>2026-03-22T10:20:46Z</time></trkpt><trkpt lat="37.524802166549115" lon="14.31219497609323"><ele>696.0</ele><time>2026-03-22T10:20:48Z</time></trkpt><trkpt lat="37.52483990116127" lon="14.312129772945323"><ele>697.1999999999999</ele><time>2026-03-22T10:20:53Z</time></trkpt><trkpt lat="37.52489044836346" lon="14.312025264512945"><ele>698.4</ele><time>2026-03-22T10:21:53Z</time></trkpt><trkpt lat="37.52494589331662" lon="14.311940067328482"><ele>699.6</ele><time>2026-03-22T10:21:54Z</time></trkpt><trkpt lat="37.525006977678515" lon="14.311866665253548"><ele>700.8</ele><time>2026-03-22T10:21:55Z</time></trkpt><trkpt lat="37.52506087995993" lon="14.311763893833547"><ele>702.0</ele><time>2026-03-22T10:21:56Z</time></trkpt><trkpt lat="37.525122937727915" lon="14.311662444066485"><ele>702.0</ele><time>2026-03-22T10:21:57Z</time></trkpt><trkpt lat="37.525195906306166" lon="14.311563946735488"><ele>702.0</ele><time>2026-03-22T10:21:58Z</time></trkpt><trkpt lat="37.52526136750616" lon="14.311434308018526"><ele>702.0</ele><time>2026-03-22T10:21:59Z</time></trkpt><trkpt lat="37.52534814622905" lon="14.31126734796876"><ele>702.0</ele><time>2026-03-22T10:22:00Z</time></trkpt><trkpt lat="37.52543634202895" lon="14.3110969246611"><ele>708.0</ele><time>2026-03-22T10:22:01Z</time></trkpt><trkpt lat="37.52553948186149" lon="14.310906677134312"><ele>714.0</ele><time>2026-03-22T10:22:02Z</time></trkpt><trkpt lat="37.52559126229756" lon="14.310725019097571"><ele>720.0</ele><time>2026-03-22T10:22:03Z</time></trkpt><trkpt lat="37.5256455715006" lon="14.310511140635795"><ele>720.0</ele><time>2026-03-22T10:22:04Z</time></trkpt><trkpt lat="37.525710043855284" lon="14.310282296545367"><ele>720.0</ele><time>2026-03-22T10:22:05Z</time></trkpt><trkpt lat="37.52577188223206" lon="14.310102756170394"><ele>720.0</ele><time>2026-03-22T10:22:06Z</time></trkpt><trkpt lat="37.525822329741935" lon="14.309941130077991"><ele>720.0</ele><time>2026-03-22T10:22:07Z</time></trkpt><trkpt lat="37.52589035812519" lon="14.309781688021667"><ele>720.0</ele><time>2026-03-22T10:22:08Z</time></trkpt><trkpt lat="37.5259545691966" lon="14.309622488086596"><ele>720.0</ele><time>2026-03-22T10:22:09Z</time></trkpt><trkpt lat="37.52597951146084" lon="14.309446828175137"><ele>720.0</ele><time>2026-03-22T10:22:10Z</time></trkpt><trkpt lat="37.52600710562059" lon="14.309249626494553"><ele>720.0</ele><time>2026-03-22T10:22:11Z</time></trkpt><trkpt lat="37.52603954719804" lon="14.309078526962834"><ele>720.0</ele><time>2026-03-22T10:22:12Z</time></trkpt><trkpt lat="37.526053106103866" lon="14.308930584922022"><ele>720.0</ele><time>2026-03-22T10:22:13Z</time></trkpt><trkpt lat="37.5260713687991" lon="14.30880543694012"><ele>720.0</ele><time>2026-03-22T10:22:14Z</time></trkpt><trkpt lat="37.52610427763502" lon="14.308681357003815"><ele>720.0</ele><time>2026-03-22T10:22:15Z</time></trkpt><trkpt lat="37.526174167393506" lon="14.308541426268276"><ele>720.0</ele><time>2026-03-22T10:22:16Z</time></trkpt><trkpt lat="37.526253912241984" lon="14.308399220037971"><ele>720.0</ele><time>2026-03-22T10:22:17Z</time></trkpt><trkpt lat="37.5263240435312" lon="14.308253071149165"><ele>720.0</ele><time>2026-03-22T10:22:18Z</time></trkpt><trkpt lat="37.52636109833019" lon="14.308128288135991"><ele>726.25</ele><time>2026-03-22T10:22:19Z</time></trkpt><trkpt lat="37.526328922561575" lon="14.307973724427132"><ele>732.5</ele><time>2026-03-22T10:22:20Z</time></trkpt><trkpt lat="37.52633408967029" lon="14.307797627867457"><ele>738.75</ele><time>2026-03-22T10:22:21Z</time></trkpt><trkpt lat="37.5263387104059" lon="14.307652058124281"><ele>745.0</ele><time>2026-03-22T10:22:22Z</time></trkpt><trkpt lat="37.52637629519772" lon="14.307531536918697"><ele>745.0</ele><time>2026-03-22T10:22:23Z</time></trkpt><trkpt lat="37.52643011496076" lon="14.307409260171514"><ele>745.0</ele><time>2026-03-22T10:22:24Z</time></trkpt><trkpt lat="37.52648479334335" lon="14.307275471435258"><ele>745.0</ele><time>2026-03-22T10:22:25Z</time></trkpt><trkpt lat="37.52655256790514" lon="14.307135194592403"><ele>745.0</ele><time>2026-03-22T10:22:26Z</time></trkpt><trkpt lat="37.52662507058021" lon="14.307030739090452"><ele>744.8</ele><time>2026-03-22T10:22:27Z</time></trkpt><trkpt lat="37.526725422707614" lon="14.306933642706085"><ele>744.6</ele><time>2026-03-22T10:22:28Z</time></trkpt><trkpt lat="37.52681543913567" lon="14.306834049914833"><ele>744.4000000000001</ele><time>2026-03-22T10:22:29Z</time></trkpt><trkpt lat="37.526884459852056" lon="14.306755790774844"><ele>744.2</ele><time>2026-03-22T10:22:30Z</time></trkpt><trkpt lat="37.52694994691026" lon="14.306691634117724"><ele>744.0</ele><time>2026-03-22T10:22:31Z</time></trkpt><trkpt lat="37.527009610789854" lon="14.306638260619604"><ele>745.3333333333334</ele><time>2026-03-22T10:22:32Z</time></trkpt><trkpt lat="37.52707263712301" lon="14.306576875720312"><ele>746.6666666666666</ele><time>2026-03-22T10:22:33Z</time></trkpt><trkpt lat="37.527136272674014" lon="14.306511513533504"><ele>748.0</ele><time>2026-03-22T10:22:34Z</time></trkpt><trkpt lat="37.52719144522334" lon="14.306432818021845"><ele>749.3333333333333</ele><time>2026-03-22T10:22:35Z</time></trkpt><trkpt lat="37.52725849494656" lon="14.306356625400822"><ele>750.6666666666666</ele><time>2026-03-22T10:22:36Z</time></trkpt><trkpt lat="37.5273278425896" lon="14.306284769713407"><ele>752.0</ele><time>2026-03-22T10:22:37Z</time></trkpt><trkpt lat="37.5273938777229" lon="14.306220993161727"><ele>752.0</ele><time>2026-03-22T10:22:38Z</time></trkpt><trkpt lat="37.52747009823454" lon="14.30616860381885"><ele>752.0</ele><time>2026-03-22T10:22:39Z</time></trkpt><trkpt lat="37.52752937170731" lon="14.306115593176466"><ele>752.0</ele><time>2026-03-22T10:22:40Z</time></trkpt><trkpt lat="37.52763953067915" lon="14.306030893747232"><ele>752.0</ele><time>2026-03-22T10:22:42Z</time></trkpt><trkpt lat="37.52772648725309" lon="14.306000317803425"><ele>752.0</ele><time>2026-03-22T10:22:43Z</time></trkpt><trkpt lat="37.527799837236714" lon="14.305974222732823"><ele>752.0</ele><time>2026-03-22T10:22:44Z</time></trkpt><trkpt lat="37.52785122088713" lon="14.305904390348136"><ele>752.0</ele><time>2026-03-22T10:22:45Z</time></trkpt><trkpt lat="37.52791808377017" lon="14.305866432804951"><ele>752.0</ele><time>2026-03-22T10:22:46Z</time></trkpt><trkpt lat="37.52798525670573" lon="14.305817018092354"><ele>752.0</ele><time>2026-03-22T10:22:47Z</time></trkpt><trkpt lat="37.52805551106537" lon="14.305773849356205"><ele>752.0</ele><time>2026-03-22T10:22:48Z</time></trkpt><trkpt lat="37.52812911597226" lon="14.305727716520654"><ele>752.0</ele><time>2026-03-22T10:22:49Z</time></trkpt><trkpt lat="37.52820559137518" lon="14.305687830561116"><ele>751.4000000000001</ele><time>2026-03-22T10:22:50Z</time></trkpt><trkpt lat="37.52828498076647" lon="14.30564319496871"><ele>750.8000000000001</ele><time>2026-03-22T10:22:51Z</time></trkpt><trkpt lat="37.52834237664915" lon="14.305562177812623"><ele>750.2</ele><time>2026-03-22T10:22:52Z</time></trkpt><trkpt lat="37.528385644883606" lon="14.305470132031493"><ele>749.6</ele><time>2026-03-22T10:22:53Z</time></trkpt><trkpt lat="37.528426762380846" lon="14.305360910738703"><ele>749.0</ele><time>2026-03-22T10:22:54Z</time></trkpt><trkpt lat="37.528441429944216" lon="14.305217798347208"><ele>747.2</ele><time>2026-03-22T10:22:55Z</time></trkpt><trkpt lat="37.528464669564805" lon="14.30510286085577"><ele>745.4000000000001</ele><time>2026-03-22T10:22:56Z</time></trkpt><trkpt lat="37.52850641652094" lon="14.305005804055323"><ele>743.6</ele><time>2026-03-22T10:22:57Z</time></trkpt><trkpt lat="37.528572572586086" lon="14.304918081450298"><ele>741.8</ele><time>2026-03-22T10:22:58Z</time></trkpt><trkpt lat="37.528659165518896" lon="14.304850616192656"><ele>740.0</ele><time>2026-03-22T10:22:59Z</time></trkpt><trkpt lat="37.52879114298691" lon="14.304792702509141"><ele>734.0</ele><time>2026-03-22T10:23:00Z</time></trkpt><trkpt lat="37.52893962514413" lon="14.304684920863485"><ele>728.0</ele><time>2026-03-22T10:23:01Z</time></trkpt><trkpt lat="37.529100827775736" lon="14.30460447223046"><ele>722.0</ele><time>2026-03-22T10:23:02Z</time></trkpt><trkpt lat="37.529244457323024" lon="14.304521529128435"><ele>722.0</ele><time>2026-03-22T10:23:03Z</time></trkpt><trkpt lat="37.52939664371783" lon="14.304446648568112"><ele>722.0</ele><time>2026-03-22T10:23:04Z</time></trkpt><trkpt lat="37.52956126254854" lon="14.304400479658334"><ele>722.0</ele><time>2026-03-22T10:23:05Z</time></trkpt><trkpt lat="37.529729443441205" lon="14.304343081820635"><ele>721.6666666666666</ele><time>2026-03-22T10:23:06Z</time></trkpt><trkpt lat="37.52986774699823" lon="14.304278633376805"><ele>721.3333333333334</ele><time>2026-03-22T10:23:07Z</time></trkpt><trkpt lat="37.53002185345453" lon="14.304227714510931"><ele>721.0</ele><time>2026-03-22T10:23:08Z</time></trkpt><trkpt lat="37.53016970579164" lon="14.304180351871583"><ele>721.0</ele><time>2026-03-22T10:23:09Z</time></trkpt><trkpt lat="37.53029063727179" lon="14.30413725723176"><ele>721.0</ele><time>2026-03-22T10:23:10Z</time></trkpt><trkpt lat="37.53039150130041" lon="14.304090862006253"><ele>721.0</ele><time>2026-03-22T10:23:11Z</time></trkpt><trkpt lat="37.53048120413185" lon="14.304049520531178"><ele>721.0</ele><time>2026-03-22T10:23:12Z</time></trkpt><trkpt lat="37.53055593829205" lon="14.304009458239126"><ele>721.0</ele><time>2026-03-22T10:23:13Z</time></trkpt><trkpt lat="37.53065621064009" lon="14.303989867157705"><ele>721.25</ele><time>2026-03-22T10:23:15Z</time></trkpt><trkpt lat="37.530611904364626" lon="14.304136218382805"><ele>721.5</ele><time>2026-03-22T10:23:17Z</time></trkpt><trkpt lat="37.53064214655109" lon="14.304268848207723"><ele>721.75</ele><time>2026-03-22T10:23:18Z</time></trkpt><trkpt lat="37.53067313198934" lon="14.304404721690595"><ele>722.0</ele><time>2026-03-22T10:23:19Z</time></trkpt><trkpt lat="37.53070465177" lon="14.304538062177159"><ele>722.0</ele><time>2026-03-22T10:23:20Z</time></trkpt><trkpt lat="37.530733594019196" lon="14.304646737774215"><ele>722.0</ele><time>2026-03-22T10:23:21Z</time></trkpt><trkpt lat="37.53076817415499" lon="14.304766330061495"><ele>722.0</ele><time>2026-03-22T10:23:22Z</time></trkpt><trkpt lat="37.530806040410596" lon="14.304888541242061"><ele>722.0</ele><time>2026-03-22T10:23:23Z</time></trkpt><trkpt lat="37.53085201129674" lon="14.30502496002656"><ele>722.0</ele><time>2026-03-22T10:23:24Z</time></trkpt><trkpt lat="37.530895982396814" lon="14.305143211572243"><ele>722.8</ele><time>2026-03-22T10:23:25Z</time></trkpt><trkpt lat="37.530945442218346" lon="14.305275985113733"><ele>723.6</ele><time>2026-03-22T10:23:26Z</time></trkpt><trkpt lat="37.53099644432434" lon="14.305413084707505"><ele>724.4</ele><time>2026-03-22T10:23:27Z</time></trkpt><trkpt lat="37.531043132933284" lon="14.305521592104245"><ele>725.1999999999999</ele><time>2026-03-22T10:23:28Z</time></trkpt><trkpt lat="37.531077885573545" lon="14.305642697009558"><ele>726.0</ele><time>2026-03-22T10:23:29Z</time></trkpt><trkpt lat="37.53109187162161" lon="14.305785027059837"><ele>727.0</ele><time>2026-03-22T10:23:30Z</time></trkpt><trkpt lat="37.5311471034014" lon="14.305921449871672"><ele>728.0</ele><time>2026-03-22T10:23:31Z</time></trkpt><trkpt lat="37.53119082791437" lon="14.306059913376856"><ele>729.0</ele><time>2026-03-22T10:23:32Z</time></trkpt><trkpt lat="37.5312504477587" lon="14.306183022800179"><ele>730.0</ele><time>2026-03-22T10:23:33Z</time></trkpt><trkpt lat="37.531259976389435" lon="14.306310763932485"><ele>731.1666666666667</ele><time>2026-03-22T10:23:34Z</time></trkpt><trkpt lat="37.531281683686316" lon="14.306428177787371"><ele>732.3333333333334</ele><time>2026-03-22T10:23:35Z</time></trkpt><trkpt lat="37.531299672578044" lon="14.306525478980431"><ele>733.5</ele><time>2026-03-22T10:23:36Z</time></trkpt><trkpt lat="37.53131507075987" lon="14.306610777975852"><ele>734.6666666666666</ele><time>2026-03-22T10:23:37Z</time></trkpt><trkpt lat="37.53133130041443" lon="14.306710407789378"><ele>735.8333333333333</ele><time>2026-03-22T10:23:38Z</time></trkpt><trkpt lat="37.531348448733645" lon="14.306815677143303"><ele>737.0</ele><time>2026-03-22T10:23:39Z</time></trkpt><trkpt lat="37.53138310337225" lon="14.306929838490374"><ele>737.0</ele><time>2026-03-22T10:23:40Z</time></trkpt><trkpt lat="37.531406632806664" lon="14.307065420917432"><ele>737.0</ele><time>2026-03-22T10:23:41Z</time></trkpt><trkpt lat="37.531434588144386" lon="14.307198471062902"><ele>737.0</ele><time>2026-03-22T10:23:42Z</time></trkpt><trkpt lat="37.53147050319615" lon="14.307303366977804"><ele>737.0</ele><time>2026-03-22T10:23:43Z</time></trkpt><trkpt lat="37.5315336774807" lon="14.307422406754295"><ele>737.0</ele><time>2026-03-22T10:23:44Z</time></trkpt><trkpt lat="37.53159593210607" lon="14.307521007908386"><ele>737.3333333333333</ele><time>2026-03-22T10:23:45Z</time></trkpt><trkpt lat="37.531594622531024" lon="14.307647699772117"><ele>737.6666666666666</ele><time>2026-03-22T10:23:46Z</time></trkpt><trkpt lat="37.53162477823288" lon="14.307735564371612"><ele>738.0</ele><time>2026-03-22T10:23:47Z</time></trkpt><trkpt lat="37.531652578072844" lon="14.307831105914019"><ele>738.3333333333334</ele><time>2026-03-22T10:23:48Z</time></trkpt><trkpt lat="37.53168311233312" lon="14.307936045202277"><ele>738.6666666666667</ele><time>2026-03-22T10:23:49Z</time></trkpt><trkpt lat="37.53171370730432" lon="14.308041193137496"><ele>739.0</ele><time>2026-03-22T10:23:50Z</time></trkpt><trkpt lat="37.5317398878925" lon="14.3081311698526"><ele>739.8333333333334</ele><time>2026-03-22T10:23:51Z</time></trkpt><trkpt lat="37.53177238803708" lon="14.308234039409376"><ele>740.6666666666667</ele><time>2026-03-22T10:23:52Z</time></trkpt><trkpt lat="37.53181279863107" lon="14.308336516718239"><ele>741.5</ele><time>2026-03-22T10:23:53Z</time></trkpt><trkpt lat="37.531856856112455" lon="14.308436141250295"><ele>742.3333333333334</ele><time>2026-03-22T10:23:54Z</time></trkpt><trkpt lat="37.531902202778284" lon="14.30853766961921"><ele>743.1666666666666</ele><time>2026-03-22T10:23:55Z</time></trkpt><trkpt lat="37.53194216537311" lon="14.308623683098293"><ele>744.0</ele><time>2026-03-22T10:23:56Z</time></trkpt><trkpt lat="37.53198244506006" lon="14.308739855200256"><ele>744.0000000000001</ele><time>2026-03-22T10:23:58Z</time></trkpt><trkpt lat="37.531918555870845" lon="14.308793853826995"><ele>744.0</ele><time>2026-03-22T10:24:01Z</time></trkpt><trkpt lat="37.531861745149676" lon="14.30883659934338"><ele>744.0</ele><time>2026-03-22T10:25:01Z</time></trkpt><trkpt lat="37.53178231289833" lon="14.308793290521205"><ele>744.0</ele><time>2026-03-22T10:25:05Z</time></trkpt><trkpt lat="37.531706542706054" lon="14.30877773533056"><ele>744.0</ele><time>2026-03-22T10:25:08Z</time></trkpt><trkpt lat="37.53163769598193" lon="14.308779428928535"><ele>744.0000000000001</ele><time>2026-03-22T10:25:11Z</time></trkpt><trkpt lat="37.53157029643736" lon="14.30879774515022"><ele>744.0</ele><time>2026-03-22T10:25:15Z</time></trkpt><trkpt lat="37.53156426005397" lon="14.308881947297534"><ele>744.5</ele><time>2026-03-22T10:28:44Z</time></trkpt><trkpt lat="37.53161714505659" lon="14.30895493283583"><ele>745.0</ele><time>2026-03-22T10:28:49Z</time></trkpt><trkpt lat="37.53167753832993" lon="14.308978486049558"><ele>745.5</ele><time>2026-03-22T10:28:54Z</time></trkpt><trkpt lat="37.53174094516715" lon="14.308962471131041"><ele>746.0</ele><time>2026-03-22T10:28:58Z</time></trkpt><trkpt lat="37.53181098236575" lon="14.308982284560251"><ele>746.5</ele><time>2026-03-22T10:29:06Z</time></trkpt><trkpt lat="37.5319084675092" lon="14.309012997198284"><ele>747.0</ele><time>2026-03-22T10:30:38Z</time></trkpt><trkpt lat="37.531846478608145" lon="14.3089469252704"><ele>747.0</ele><time>2026-03-22T10:31:14Z</time></trkpt><trkpt lat="37.53178386174301" lon="14.308907785117055"><ele>744.0</ele><time>2026-03-22T10:31:25Z</time></trkpt><trkpt lat="37.53171231849003" lon="14.308902883279309"><ele>744.0</ele><time>2026-03-22T10:31:31Z</time></trkpt><trkpt lat="37.53165645072903" lon="14.308952731222144"><ele>747.0</ele><time>2026-03-22T10:31:37Z</time></trkpt><trkpt lat="37.53159271533879" lon="14.308941939089735"><ele>747.0</ele><time>2026-03-22T10:31:42Z</time></trkpt><trkpt lat="37.531564245984924" lon="14.308867780953852"><ele>744.0</ele><time>2026-03-22T10:31:48Z</time></trkpt><trkpt lat="37.53156037093235" lon="14.308785245515681"><ele>744.0</ele><time>2026-03-22T10:34:43Z</time></trkpt></trkseg></trk></gpx>